<?xml version='1.0' encoding='UTF-8'?><gpx version="1.1" creator="JPX - https://github.com/jenetics/jpx" xmlns="http://www.topografix.com/GPX/1/1"><trk><trkseg><trkpt lat="43.4219838" lon="11.1811866"><ele>174.0</ele><time>2026-04-13T08:26:10.252Z</time></trkpt><trkpt lat="43.4220658" lon="11.1812294"><ele>174.0</ele><time>2026-04-13T08:26:46.251Z</time></trkpt><trkpt lat="43.4221267" lon="11.1811617"><ele>174.0</ele><time>2026-04-13T08:26:55.275Z</time></trkpt><trkpt lat="43.4222049" lon="11.1811284"><ele>174.0</ele><time>2026-04-13T08:27:01.222Z</time></trkpt><trkpt lat="43.4222379" lon="11.1812076"><ele>174.0</ele><time>2026-04-13T08:27:05.213Z</time></trkpt><trkpt lat="43.4222672" lon="11.1812986"><ele>174.0</ele><time>2026-04-13T08:27:08.227Z</time></trkpt><trkpt lat="43.4222966" lon="11.1814188"><ele>174.14285714285714</ele><time>2026-04-13T08:27:11.218Z</time></trkpt><trkpt lat="43.422322" lon="11.1815032"><ele>174.28571428571428</ele><time>2026-04-13T08:27:13.224Z</time></trkpt><trkpt lat="43.4223293" lon="11.1816006"><ele>174.42857142857144</ele><time>2026-04-13T08:27:15.23Z</time></trkpt><trkpt lat="43.422285" lon="11.1816802"><ele>174.57142857142856</ele><time>2026-04-13T08:27:17.213Z</time></trkpt><trkpt lat="43.4222276" lon="11.1817418"><ele>174.71428571428572</ele><time>2026-04-13T08:27:19.218Z</time></trkpt><trkpt lat="43.4221821" lon="11.1818119"><ele>174.85714285714286</ele><time>2026-04-13T08:27:21.24Z</time></trkpt><trkpt lat="43.4221208" lon="11.1819007"><ele>175.0</ele><time>2026-04-13T08:27:24.256Z</time></trkpt><trkpt lat="43.4220689" lon="11.1819726"><ele>175.0</ele><time>2026-04-13T08:27:27.233Z</time></trkpt><trkpt lat="43.4220548" lon="11.182073"><ele>175.0</ele><time>2026-04-13T08:27:32.219Z</time></trkpt><trkpt lat="43.4220813" lon="11.1821541"><ele>175.0</ele><time>2026-04-13T08:27:35.247Z</time></trkpt><trkpt lat="43.4220862" lon="11.1822685"><ele>175.0</ele><time>2026-04-13T08:27:38.226Z</time></trkpt><trkpt lat="43.4221133" lon="11.1823534"><ele>175.0</ele><time>2026-04-13T08:27:40.231Z</time></trkpt><trkpt lat="43.4221557" lon="11.182438"><ele>175.0</ele><time>2026-04-13T08:27:42.234Z</time></trkpt><trkpt lat="43.4221912" lon="11.1825167"><ele>175.0</ele><time>2026-04-13T08:27:44.226Z</time></trkpt><trkpt lat="43.4222237" lon="11.1825922"><ele>175.0</ele><time>2026-04-13T08:27:46.231Z</time></trkpt><trkpt lat="43.4221572" lon="11.1827324"><ele>175.0</ele><time>2026-04-13T08:27:50.236Z</time></trkpt><trkpt lat="43.422092" lon="11.1827819"><ele>175.0</ele><time>2026-04-13T08:27:52.234Z</time></trkpt><trkpt lat="43.4220303" lon="11.182831"><ele>175.0</ele><time>2026-04-13T08:27:54.235Z</time></trkpt><trkpt lat="43.4219638" lon="11.1828753"><ele>175.0</ele><time>2026-04-13T08:27:56.24Z</time></trkpt><trkpt lat="43.4219052" lon="11.1829078"><ele>175.0</ele><time>2026-04-13T08:27:58.24Z</time></trkpt><trkpt lat="43.4218481" lon="11.1829552"><ele>175.0</ele><time>2026-04-13T08:28:00.278Z</time></trkpt><trkpt lat="43.4217911" lon="11.1830091"><ele>175.0</ele><time>2026-04-13T08:28:02.237Z</time></trkpt><trkpt lat="43.4217318" lon="11.1830702"><ele>175.0</ele><time>2026-04-13T08:28:04.222Z</time></trkpt><trkpt lat="43.4216753" lon="11.1831251"><ele>175.0</ele><time>2026-04-13T08:28:06.221Z</time></trkpt><trkpt lat="43.4216158" lon="11.1831832"><ele>175.0</ele><time>2026-04-13T08:28:08.227Z</time></trkpt><trkpt lat="43.4215383" lon="11.1832365"><ele>175.0</ele><time>2026-04-13T08:28:10.229Z</time></trkpt><trkpt lat="43.4214542" lon="11.183288"><ele>175.0</ele><time>2026-04-13T08:28:12.216Z</time></trkpt><trkpt lat="43.4213811" lon="11.1833392"><ele>175.0</ele><time>2026-04-13T08:28:14.221Z</time></trkpt><trkpt lat="43.4213237" lon="11.1833945"><ele>175.0</ele><time>2026-04-13T08:28:16.241Z</time></trkpt><trkpt lat="43.4212684" lon="11.1834497"><ele>175.0</ele><time>2026-04-13T08:28:18.244Z</time></trkpt><trkpt lat="43.421212" lon="11.1835011"><ele>175.0</ele><time>2026-04-13T08:28:20.222Z</time></trkpt><trkpt lat="43.4211577" lon="11.183555"><ele>175.0</ele><time>2026-04-13T08:28:22.241Z</time></trkpt><trkpt lat="43.421109" lon="11.1836159"><ele>175.0</ele><time>2026-04-13T08:28:24.244Z</time></trkpt><trkpt lat="43.4210666" lon="11.183684"><ele>175.16666666666669</ele><time>2026-04-13T08:28:26.234Z</time></trkpt><trkpt lat="43.4210184" lon="11.1837595"><ele>175.33333333333334</ele><time>2026-04-13T08:28:28.218Z</time></trkpt><trkpt lat="43.4209703" lon="11.1838478"><ele>175.5</ele><time>2026-04-13T08:28:30.219Z</time></trkpt><trkpt lat="43.4209278" lon="11.1839387"><ele>175.66666666666666</ele><time>2026-04-13T08:28:32.238Z</time></trkpt><trkpt lat="43.4208844" lon="11.1840465"><ele>175.83333333333331</ele><time>2026-04-13T08:28:34.229Z</time></trkpt><trkpt lat="43.4208309" lon="11.1841473"><ele>176.0</ele><time>2026-04-13T08:28:36.232Z</time></trkpt><trkpt lat="43.4207821" lon="11.1842468"><ele>176.0</ele><time>2026-04-13T08:28:38.217Z</time></trkpt><trkpt lat="43.4207308" lon="11.1843375"><ele>176.0</ele><time>2026-04-13T08:28:40.217Z</time></trkpt><trkpt lat="43.4206838" lon="11.1844289"><ele>176.0</ele><time>2026-04-13T08:28:42.228Z</time></trkpt><trkpt lat="43.4206287" lon="11.1845236"><ele>176.0</ele><time>2026-04-13T08:28:44.235Z</time></trkpt><trkpt lat="43.4205777" lon="11.184623"><ele>176.0</ele><time>2026-04-13T08:28:46.228Z</time></trkpt><trkpt lat="43.4205268" lon="11.1847193"><ele>176.0</ele><time>2026-04-13T08:28:48.224Z</time></trkpt><trkpt lat="43.4204749" lon="11.1848105"><ele>176.0</ele><time>2026-04-13T08:28:50.241Z</time></trkpt><trkpt lat="43.4204259" lon="11.1849046"><ele>176.0</ele><time>2026-04-13T08:28:52.236Z</time></trkpt><trkpt lat="43.420374" lon="11.1849908"><ele>176.0</ele><time>2026-04-13T08:28:54.241Z</time></trkpt><trkpt lat="43.4203245" lon="11.185081"><ele>176.0</ele><time>2026-04-13T08:28:56.225Z</time></trkpt><trkpt lat="43.4202753" lon="11.185164"><ele>176.0</ele><time>2026-04-13T08:28:58.242Z</time></trkpt><trkpt lat="43.420231" lon="11.18525"><ele>176.0</ele><time>2026-04-13T08:29:00.218Z</time></trkpt><trkpt lat="43.4201853" lon="11.1853357"><ele>176.0</ele><time>2026-04-13T08:29:02.225Z</time></trkpt><trkpt lat="43.4201438" lon="11.1854217"><ele>176.0</ele><time>2026-04-13T08:29:04.237Z</time></trkpt><trkpt lat="43.4200975" lon="11.1855025"><ele>176.0</ele><time>2026-04-13T08:29:06.238Z</time></trkpt><trkpt lat="43.4200537" lon="11.185592"><ele>176.0</ele><time>2026-04-13T08:29:08.234Z</time></trkpt><trkpt lat="43.4200116" lon="11.1856856"><ele>176.0</ele><time>2026-04-13T08:29:10.235Z</time></trkpt><trkpt lat="43.4199653" lon="11.1857668"><ele>176.0</ele><time>2026-04-13T08:29:12.253Z</time></trkpt><trkpt lat="43.419923" lon="11.1858391"><ele>176.0</ele><time>2026-04-13T08:29:14.235Z</time></trkpt><trkpt lat="43.419879" lon="11.1859223"><ele>176.0</ele><time>2026-04-13T08:29:16.22Z</time></trkpt><trkpt lat="43.4198338" lon="11.1860196"><ele>176.0</ele><time>2026-04-13T08:29:18.242Z</time></trkpt><trkpt lat="43.4197843" lon="11.1861076"><ele>176.0</ele><time>2026-04-13T08:29:20.24Z</time></trkpt><trkpt lat="43.4197307" lon="11.186195"><ele>176.0</ele><time>2026-04-13T08:29:22.248Z</time></trkpt><trkpt lat="43.419677" lon="11.1862841"><ele>176.0</ele><time>2026-04-13T08:29:24.254Z</time></trkpt><trkpt lat="43.4196214" lon="11.1863786"><ele>175.60000000000002</ele><time>2026-04-13T08:29:26.237Z</time></trkpt><trkpt lat="43.4195554" lon="11.1864856"><ele>175.2</ele><time>2026-04-13T08:29:28.247Z</time></trkpt><trkpt lat="43.4194844" lon="11.1866064"><ele>174.8</ele><time>2026-04-13T08:29:30.229Z</time></trkpt><trkpt lat="43.4194099" lon="11.1867513"><ele>174.39999999999998</ele><time>2026-04-13T08:29:32.238Z</time></trkpt><trkpt lat="43.4193707" lon="11.1868311"><ele>174.0</ele><time>2026-04-13T08:29:33.238Z</time></trkpt><trkpt lat="43.4193298" lon="11.18691"><ele>174.0</ele><time>2026-04-13T08:29:34.248Z</time></trkpt><trkpt lat="43.4192855" lon="11.1869898"><ele>174.0</ele><time>2026-04-13T08:29:35.222Z</time></trkpt><trkpt lat="43.4192391" lon="11.1870726"><ele>174.0</ele><time>2026-04-13T08:29:36.24Z</time></trkpt><trkpt lat="43.4191931" lon="11.1871587"><ele>174.0</ele><time>2026-04-13T08:29:37.249Z</time></trkpt><trkpt lat="43.4191447" lon="11.1872431"><ele>174.0</ele><time>2026-04-13T08:29:38.228Z</time></trkpt><trkpt lat="43.4190947" lon="11.1873267"><ele>174.0</ele><time>2026-04-13T08:29:39.217Z</time></trkpt><trkpt lat="43.4190467" lon="11.1874124"><ele>173.66666666666666</ele><time>2026-04-13T08:29:40.264Z</time></trkpt><trkpt lat="43.4190027" lon="11.1874988"><ele>173.33333333333334</ele><time>2026-04-13T08:29:41.236Z</time></trkpt><trkpt lat="43.4189595" lon="11.1875914"><ele>173.0</ele><time>2026-04-13T08:29:42.232Z</time></trkpt><trkpt lat="43.4189178" lon="11.1876877"><ele>172.66666666666669</ele><time>2026-04-13T08:29:43.238Z</time></trkpt><trkpt lat="43.418878" lon="11.1877809"><ele>172.33333333333334</ele><time>2026-04-13T08:29:44.244Z</time></trkpt><trkpt lat="43.418838" lon="11.1878738"><ele>172.0</ele><time>2026-04-13T08:29:45.322Z</time></trkpt><trkpt lat="43.4188036" lon="11.1879554"><ele>172.0</ele><time>2026-04-13T08:29:46.225Z</time></trkpt><trkpt lat="43.4187663" lon="11.1880399"><ele>172.0</ele><time>2026-04-13T08:29:47.245Z</time></trkpt><trkpt lat="43.4187281" lon="11.1881159"><ele>172.0</ele><time>2026-04-13T08:29:48.25Z</time></trkpt><trkpt lat="43.4186909" lon="11.1881887"><ele>172.0</ele><time>2026-04-13T08:29:49.238Z</time></trkpt><trkpt lat="43.4186512" lon="11.1882562"><ele>172.0</ele><time>2026-04-13T08:29:50.24Z</time></trkpt><trkpt lat="43.418566" lon="11.1883709"><ele>172.0</ele><time>2026-04-13T08:29:52.246Z</time></trkpt><trkpt lat="43.4184806" lon="11.1884927"><ele>171.6</ele><time>2026-04-13T08:29:54.316Z</time></trkpt><trkpt lat="43.4184054" lon="11.1886131"><ele>171.2</ele><time>2026-04-13T08:29:56.24Z</time></trkpt><trkpt lat="43.4183607" lon="11.1886931"><ele>170.8</ele><time>2026-04-13T08:29:57.257Z</time></trkpt><trkpt lat="43.4183609" lon="11.1888544"><ele>170.4</ele><time>2026-04-13T08:29:59.243Z</time></trkpt><trkpt lat="43.4183554" lon="11.1889912"><ele>170.0</ele><time>2026-04-13T08:30:01.255Z</time></trkpt><trkpt lat="43.418309" lon="11.1891084"><ele>170.0</ele><time>2026-04-13T08:30:03.335Z</time></trkpt><trkpt lat="43.4182588" lon="11.1891895"><ele>170.0</ele><time>2026-04-13T08:30:05.241Z</time></trkpt><trkpt lat="43.4181897" lon="11.1892548"><ele>170.0</ele><time>2026-04-13T08:30:07.241Z</time></trkpt><trkpt lat="43.418142" lon="11.189347"><ele>170.0</ele><time>2026-04-13T08:30:09.231Z</time></trkpt><trkpt lat="43.4181121" lon="11.1894655"><ele>170.0</ele><time>2026-04-13T08:30:11.243Z</time></trkpt><trkpt lat="43.4180916" lon="11.1895883"><ele>170.0</ele><time>2026-04-13T08:30:13.326Z</time></trkpt><trkpt lat="43.4180464" lon="11.1896944"><ele>170.8</ele><time>2026-04-13T08:30:15.235Z</time></trkpt><trkpt lat="43.417971" lon="11.1897922"><ele>171.6</ele><time>2026-04-13T08:30:17.24Z</time></trkpt><trkpt lat="43.4179255" lon="11.1899234"><ele>172.39999999999998</ele><time>2026-04-13T08:30:19.228Z</time></trkpt><trkpt lat="43.4178903" lon="11.1900696"><ele>173.2</ele><time>2026-04-13T08:30:21.236Z</time></trkpt><trkpt lat="43.4178464" lon="11.1902031"><ele>174.0</ele><time>2026-04-13T08:30:23.245Z</time></trkpt><trkpt lat="43.4177776" lon="11.1903855"><ele>174.0</ele><time>2026-04-13T08:30:26.238Z</time></trkpt><trkpt lat="43.4177316" lon="11.190501"><ele>174.0</ele><time>2026-04-13T08:30:28.246Z</time></trkpt><trkpt lat="43.4176881" lon="11.1906086"><ele>174.0</ele><time>2026-04-13T08:30:30.25Z</time></trkpt><trkpt lat="43.4176412" lon="11.1907184"><ele>174.0</ele><time>2026-04-13T08:30:32.24Z</time></trkpt><trkpt lat="43.4176038" lon="11.190828"><ele>174.0</ele><time>2026-04-13T08:30:34.259Z</time></trkpt><trkpt lat="43.4175658" lon="11.1909286"><ele>174.0</ele><time>2026-04-13T08:30:36.236Z</time></trkpt><trkpt lat="43.4175284" lon="11.1910234"><ele>174.0</ele><time>2026-04-13T08:30:38.237Z</time></trkpt><trkpt lat="43.4174847" lon="11.1911225"><ele>174.0</ele><time>2026-04-13T08:30:40.231Z</time></trkpt><trkpt lat="43.4174402" lon="11.1912377"><ele>174.0</ele><time>2026-04-13T08:30:42.239Z</time></trkpt><trkpt lat="43.4173971" lon="11.1913542"><ele>174.0</ele><time>2026-04-13T08:30:44.316Z</time></trkpt><trkpt lat="43.4173396" lon="11.1914846"><ele>174.0</ele><time>2026-04-13T08:30:46.283Z</time></trkpt><trkpt lat="43.4172815" lon="11.1916365"><ele>174.0</ele><time>2026-04-13T08:30:48.294Z</time></trkpt><trkpt lat="43.4172582" lon="11.1917194"><ele>174.0</ele><time>2026-04-13T08:30:49.251Z</time></trkpt><trkpt lat="43.4172321" lon="11.1918067"><ele>174.0</ele><time>2026-04-13T08:30:50.245Z</time></trkpt><trkpt lat="43.4172" lon="11.1918952"><ele>174.0</ele><time>2026-04-13T08:30:51.248Z</time></trkpt><trkpt lat="43.4171615" lon="11.1919853"><ele>174.0</ele><time>2026-04-13T08:30:52.24Z</time></trkpt><trkpt lat="43.4171234" lon="11.1920807"><ele>174.0</ele><time>2026-04-13T08:30:53.246Z</time></trkpt><trkpt lat="43.4170881" lon="11.1921812"><ele>174.0</ele><time>2026-04-13T08:30:54.228Z</time></trkpt><trkpt lat="43.4170521" lon="11.1922849"><ele>173.5</ele><time>2026-04-13T08:30:55.32Z</time></trkpt><trkpt lat="43.4170205" lon="11.1923898"><ele>173.0</ele><time>2026-04-13T08:30:56.236Z</time></trkpt><trkpt lat="43.4169986" lon="11.1925033"><ele>172.5</ele><time>2026-04-13T08:30:57.247Z</time></trkpt><trkpt lat="43.4169837" lon="11.192623"><ele>172.0</ele><time>2026-04-13T08:30:58.239Z</time></trkpt><trkpt lat="43.4169739" lon="11.1927441"><ele>171.5</ele><time>2026-04-13T08:30:59.242Z</time></trkpt><trkpt lat="43.4169656" lon="11.19286"><ele>171.0</ele><time>2026-04-13T08:31:00.232Z</time></trkpt><trkpt lat="43.416959" lon="11.1929771"><ele>170.99999999999997</ele><time>2026-04-13T08:31:01.251Z</time></trkpt><trkpt lat="43.4169505" lon="11.1930872"><ele>171.0</ele><time>2026-04-13T08:31:02.24Z</time></trkpt><trkpt lat="43.416939" lon="11.1931952"><ele>171.0</ele><time>2026-04-13T08:31:03.233Z</time></trkpt><trkpt lat="43.4169177" lon="11.1932937"><ele>171.0</ele><time>2026-04-13T08:31:04.25Z</time></trkpt><trkpt lat="43.4168881" lon="11.1933828"><ele>171.0</ele><time>2026-04-13T08:31:05.314Z</time></trkpt><trkpt lat="43.41685" lon="11.1934594"><ele>170.99999999999997</ele><time>2026-04-13T08:31:06.25Z</time></trkpt><trkpt lat="43.4168012" lon="11.1935292"><ele>171.0</ele><time>2026-04-13T08:31:07.242Z</time></trkpt><trkpt lat="43.416748" lon="11.1935953"><ele>170.57142857142856</ele><time>2026-04-13T08:31:08.244Z</time></trkpt><trkpt lat="43.4167006" lon="11.1936615"><ele>170.14285714285714</ele><time>2026-04-13T08:31:09.257Z</time></trkpt><trkpt lat="43.416655" lon="11.1937271"><ele>169.71428571428572</ele><time>2026-04-13T08:31:10.252Z</time></trkpt><trkpt lat="43.4166133" lon="11.1937984"><ele>169.28571428571428</ele><time>2026-04-13T08:31:11.243Z</time></trkpt><trkpt lat="43.4165763" lon="11.1938752"><ele>168.85714285714286</ele><time>2026-04-13T08:31:12.258Z</time></trkpt><trkpt lat="43.416543" lon="11.1939526"><ele>168.42857142857142</ele><time>2026-04-13T08:31:13.244Z</time></trkpt><trkpt lat="43.4165142" lon="11.1940343"><ele>168.0</ele><time>2026-04-13T08:31:14.241Z</time></trkpt><trkpt lat="43.4164897" lon="11.1941175"><ele>167.8</ele><time>2026-04-13T08:31:15.25Z</time></trkpt><trkpt lat="43.4164563" lon="11.1942838"><ele>167.60000000000002</ele><time>2026-04-13T08:31:17.24Z</time></trkpt><trkpt lat="43.4164465" lon="11.1943695"><ele>167.39999999999998</ele><time>2026-04-13T08:31:18.243Z</time></trkpt><trkpt lat="43.4164514" lon="11.1945324"><ele>167.2</ele><time>2026-04-13T08:31:20.239Z</time></trkpt><trkpt lat="43.4164777" lon="11.1946918"><ele>167.0</ele><time>2026-04-13T08:31:22.254Z</time></trkpt><trkpt lat="43.4165201" lon="11.1948384"><ele>167.8</ele><time>2026-04-13T08:31:24.241Z</time></trkpt><trkpt lat="43.416586" lon="11.1949714"><ele>168.6</ele><time>2026-04-13T08:31:26.265Z</time></trkpt><trkpt lat="43.416642" lon="11.1951004"><ele>169.4</ele><time>2026-04-13T08:31:28.244Z</time></trkpt><trkpt lat="43.4166918" lon="11.1952369"><ele>170.20000000000002</ele><time>2026-04-13T08:31:30.267Z</time></trkpt><trkpt lat="43.4167089" lon="11.195376"><ele>171.0</ele><time>2026-04-13T08:31:32.248Z</time></trkpt><trkpt lat="43.416713" lon="11.1955037"><ele>171.0</ele><time>2026-04-13T08:31:34.248Z</time></trkpt><trkpt lat="43.416705" lon="11.1956117"><ele>171.0</ele><time>2026-04-13T08:31:36.258Z</time></trkpt><trkpt lat="43.4166898" lon="11.1957062"><ele>171.0</ele><time>2026-04-13T08:31:38.244Z</time></trkpt><trkpt lat="43.4166667" lon="11.1957978"><ele>171.0</ele><time>2026-04-13T08:31:40.316Z</time></trkpt><trkpt lat="43.4166243" lon="11.1959156"><ele>171.0</ele><time>2026-04-13T08:31:42.261Z</time></trkpt><trkpt lat="43.4165876" lon="11.1960372"><ele>171.0</ele><time>2026-04-13T08:31:44.236Z</time></trkpt><trkpt lat="43.4165703" lon="11.1961402"><ele>171.5</ele><time>2026-04-13T08:31:46.242Z</time></trkpt><trkpt lat="43.4165387" lon="11.1962325"><ele>172.0</ele><time>2026-04-13T08:31:48.24Z</time></trkpt><trkpt lat="43.4165087" lon="11.1963174"><ele>172.5</ele><time>2026-04-13T08:31:50.349Z</time></trkpt><trkpt lat="43.4164769" lon="11.1964136"><ele>173.0</ele><time>2026-04-13T08:31:52.225Z</time></trkpt><trkpt lat="43.4164456" lon="11.1965204"><ele>173.5</ele><time>2026-04-13T08:31:54.243Z</time></trkpt><trkpt lat="43.4164209" lon="11.1966215"><ele>174.0</ele><time>2026-04-13T08:31:56.242Z</time></trkpt><trkpt lat="43.4163922" lon="11.1967154"><ele>174.33333333333334</ele><time>2026-04-13T08:31:58.251Z</time></trkpt><trkpt lat="43.4163568" lon="11.1968087"><ele>174.66666666666666</ele><time>2026-04-13T08:32:00.248Z</time></trkpt><trkpt lat="43.4163146" lon="11.1968987"><ele>175.0</ele><time>2026-04-13T08:32:02.257Z</time></trkpt><trkpt lat="43.4162629" lon="11.1969853"><ele>175.33333333333331</ele><time>2026-04-13T08:32:04.338Z</time></trkpt><trkpt lat="43.4162099" lon="11.1970635"><ele>175.66666666666666</ele><time>2026-04-13T08:32:06.241Z</time></trkpt><trkpt lat="43.4161541" lon="11.1971376"><ele>176.0</ele><time>2026-04-13T08:32:08.245Z</time></trkpt><trkpt lat="43.4161016" lon="11.1972084"><ele>176.0</ele><time>2026-04-13T08:32:10.237Z</time></trkpt><trkpt lat="43.4160527" lon="11.197291"><ele>176.0</ele><time>2026-04-13T08:32:12.246Z</time></trkpt><trkpt lat="43.416005" lon="11.1973861"><ele>176.0</ele><time>2026-04-13T08:32:14.246Z</time></trkpt><trkpt lat="43.4159625" lon="11.1974721"><ele>176.0</ele><time>2026-04-13T08:32:16.246Z</time></trkpt><trkpt lat="43.4159181" lon="11.1975518"><ele>176.0</ele><time>2026-04-13T08:32:18.241Z</time></trkpt><trkpt lat="43.4158733" lon="11.1976395"><ele>176.0</ele><time>2026-04-13T08:32:20.254Z</time></trkpt><trkpt lat="43.4158367" lon="11.1977293"><ele>176.33333333333331</ele><time>2026-04-13T08:32:22.251Z</time></trkpt><trkpt lat="43.415795" lon="11.1978131"><ele>176.66666666666666</ele><time>2026-04-13T08:32:24.242Z</time></trkpt><trkpt lat="43.4157518" lon="11.1979031"><ele>177.0</ele><time>2026-04-13T08:32:26.243Z</time></trkpt><trkpt lat="43.4157117" lon="11.1980022"><ele>177.33333333333334</ele><time>2026-04-13T08:32:28.251Z</time></trkpt><trkpt lat="43.4156698" lon="11.1981011"><ele>177.66666666666669</ele><time>2026-04-13T08:32:30.247Z</time></trkpt><trkpt lat="43.4156237" lon="11.1981954"><ele>178.0</ele><time>2026-04-13T08:32:32.245Z</time></trkpt><trkpt lat="43.4155794" lon="11.1982876"><ele>178.0</ele><time>2026-04-13T08:32:34.257Z</time></trkpt><trkpt lat="43.4155373" lon="11.198385"><ele>178.0</ele><time>2026-04-13T08:32:36.245Z</time></trkpt><trkpt lat="43.415495" lon="11.1984859"><ele>178.0</ele><time>2026-04-13T08:32:38.252Z</time></trkpt><trkpt lat="43.4154474" lon="11.1985746"><ele>178.0</ele><time>2026-04-13T08:32:40.336Z</time></trkpt><trkpt lat="43.4154034" lon="11.1986697"><ele>178.0</ele><time>2026-04-13T08:32:42.23Z</time></trkpt><trkpt lat="43.4153692" lon="11.198771"><ele>178.0</ele><time>2026-04-13T08:32:44.242Z</time></trkpt><trkpt lat="43.4153286" lon="11.198859"><ele>178.83333333333334</ele><time>2026-04-13T08:32:46.249Z</time></trkpt><trkpt lat="43.4152956" lon="11.1989528"><ele>179.66666666666669</ele><time>2026-04-13T08:32:48.247Z</time></trkpt><trkpt lat="43.4152606" lon="11.1990496"><ele>180.5</ele><time>2026-04-13T08:32:50.241Z</time></trkpt><trkpt lat="43.4152285" lon="11.1991624"><ele>181.33333333333334</ele><time>2026-04-13T08:32:52.243Z</time></trkpt><trkpt lat="43.4152222" lon="11.1992724"><ele>182.16666666666666</ele><time>2026-04-13T08:32:54.283Z</time></trkpt><trkpt lat="43.4152087" lon="11.1993703"><ele>183.0</ele><time>2026-04-13T08:32:56.242Z</time></trkpt><trkpt lat="43.4151945" lon="11.1994712"><ele>183.0</ele><time>2026-04-13T08:32:58.319Z</time></trkpt><trkpt lat="43.4151831" lon="11.1995788"><ele>183.0</ele><time>2026-04-13T08:33:00.254Z</time></trkpt><trkpt lat="43.4151691" lon="11.1996891"><ele>183.0</ele><time>2026-04-13T08:33:02.242Z</time></trkpt><trkpt lat="43.4151518" lon="11.1998026"><ele>183.0</ele><time>2026-04-13T08:33:04.245Z</time></trkpt><trkpt lat="43.4151277" lon="11.1999184"><ele>183.0</ele><time>2026-04-13T08:33:06.245Z</time></trkpt><trkpt lat="43.4151037" lon="11.2000379"><ele>183.0</ele><time>2026-04-13T08:33:08.253Z</time></trkpt><trkpt lat="43.4150755" lon="11.2001494"><ele>182.8</ele><time>2026-04-13T08:33:10.242Z</time></trkpt><trkpt lat="43.4150477" lon="11.2002614"><ele>182.60000000000002</ele><time>2026-04-13T08:33:12.261Z</time></trkpt><trkpt lat="43.4150191" lon="11.2003905"><ele>182.39999999999998</ele><time>2026-04-13T08:33:14.244Z</time></trkpt><trkpt lat="43.4149843" lon="11.2005007"><ele>182.2</ele><time>2026-04-13T08:33:16.246Z</time></trkpt><trkpt lat="43.4149398" lon="11.200613"><ele>182.0</ele><time>2026-04-13T08:33:18.278Z</time></trkpt><trkpt lat="43.4148939" lon="11.2007197"><ele>182.0</ele><time>2026-04-13T08:33:20.262Z</time></trkpt><trkpt lat="43.414848" lon="11.2008249"><ele>182.0</ele><time>2026-04-13T08:33:22.255Z</time></trkpt><trkpt lat="43.4147226" lon="11.2010776"><ele>182.0</ele><time>2026-04-13T08:33:27.245Z</time></trkpt><trkpt lat="43.4146689" lon="11.2011763"><ele>182.0</ele><time>2026-04-13T08:33:29.254Z</time></trkpt><trkpt lat="43.4146134" lon="11.2012659"><ele>182.39999999999998</ele><time>2026-04-13T08:33:31.223Z</time></trkpt><trkpt lat="43.4145616" lon="11.2013612"><ele>182.79999999999998</ele><time>2026-04-13T08:33:33.257Z</time></trkpt><trkpt lat="43.4145073" lon="11.2014558"><ele>183.2</ele><time>2026-04-13T08:33:35.244Z</time></trkpt><trkpt lat="43.4144495" lon="11.2015513"><ele>183.6</ele><time>2026-04-13T08:33:37.245Z</time></trkpt><trkpt lat="43.4143937" lon="11.2016531"><ele>184.0</ele><time>2026-04-13T08:33:39.235Z</time></trkpt><trkpt lat="43.4143316" lon="11.2017629"><ele>184.0</ele><time>2026-04-13T08:33:41.239Z</time></trkpt><trkpt lat="43.4142742" lon="11.2018721"><ele>184.0</ele><time>2026-04-13T08:33:43.238Z</time></trkpt><trkpt lat="43.4142158" lon="11.2019777"><ele>184.0</ele><time>2026-04-13T08:33:45.233Z</time></trkpt><trkpt lat="43.4141516" lon="11.2020955"><ele>184.0</ele><time>2026-04-13T08:33:47.24Z</time></trkpt><trkpt lat="43.4140875" lon="11.2021851"><ele>184.0</ele><time>2026-04-13T08:33:49.231Z</time></trkpt><trkpt lat="43.4140175" lon="11.2022557"><ele>184.0</ele><time>2026-04-13T08:33:51.236Z</time></trkpt><trkpt lat="43.41395" lon="11.2023273"><ele>184.0</ele><time>2026-04-13T08:33:53.247Z</time></trkpt><trkpt lat="43.4138821" lon="11.2024092"><ele>184.0</ele><time>2026-04-13T08:33:55.25Z</time></trkpt><trkpt lat="43.4138168" lon="11.2024949"><ele>184.0</ele><time>2026-04-13T08:33:57.248Z</time></trkpt><trkpt lat="43.4137517" lon="11.2025786"><ele>184.0</ele><time>2026-04-13T08:33:59.248Z</time></trkpt><trkpt lat="43.413689" lon="11.2026565"><ele>184.0</ele><time>2026-04-13T08:34:01.238Z</time></trkpt><trkpt lat="43.4136264" lon="11.2027284"><ele>184.66666666666669</ele><time>2026-04-13T08:34:03.254Z</time></trkpt><trkpt lat="43.4135652" lon="11.202807"><ele>185.33333333333334</ele><time>2026-04-13T08:34:05.237Z</time></trkpt><trkpt lat="43.4135025" lon="11.2028822"><ele>186.0</ele><time>2026-04-13T08:34:07.25Z</time></trkpt><trkpt lat="43.4134398" lon="11.2029611"><ele>186.66666666666666</ele><time>2026-04-13T08:34:09.263Z</time></trkpt><trkpt lat="43.4133787" lon="11.2030324"><ele>187.33333333333331</ele><time>2026-04-13T08:34:11.241Z</time></trkpt><trkpt lat="43.4133176" lon="11.2031032"><ele>188.0</ele><time>2026-04-13T08:34:13.252Z</time></trkpt><trkpt lat="43.4132622" lon="11.2031739"><ele>188.0</ele><time>2026-04-13T08:34:15.251Z</time></trkpt><trkpt lat="43.4132059" lon="11.2032477"><ele>188.0</ele><time>2026-04-13T08:34:17.252Z</time></trkpt><trkpt lat="43.4131503" lon="11.2033246"><ele>188.0</ele><time>2026-04-13T08:34:19.248Z</time></trkpt><trkpt lat="43.413054" lon="11.2034448"><ele>188.0</ele><time>2026-04-13T08:34:22.243Z</time></trkpt><trkpt lat="43.4130003" lon="11.2035213"><ele>188.0</ele><time>2026-04-13T08:34:24.313Z</time></trkpt><trkpt lat="43.41294" lon="11.2036055"><ele>188.5</ele><time>2026-04-13T08:34:26.257Z</time></trkpt><trkpt lat="43.4128819" lon="11.2036946"><ele>189.0</ele><time>2026-04-13T08:34:28.246Z</time></trkpt><trkpt lat="43.4128263" lon="11.2037735"><ele>189.5</ele><time>2026-04-13T08:34:30.238Z</time></trkpt><trkpt lat="43.4127709" lon="11.2038513"><ele>190.0</ele><time>2026-04-13T08:34:32.244Z</time></trkpt><trkpt lat="43.4127131" lon="11.2039263"><ele>190.5</ele><time>2026-04-13T08:34:34.238Z</time></trkpt><trkpt lat="43.4126647" lon="11.2040092"><ele>191.0</ele><time>2026-04-13T08:34:36.27Z</time></trkpt><trkpt lat="43.4126152" lon="11.2040933"><ele>191.0</ele><time>2026-04-13T08:34:38.253Z</time></trkpt><trkpt lat="43.4125596" lon="11.2041729"><ele>191.0</ele><time>2026-04-13T08:34:40.244Z</time></trkpt><trkpt lat="43.4124995" lon="11.2042475"><ele>191.0</ele><time>2026-04-13T08:34:42.257Z</time></trkpt><trkpt lat="43.4124402" lon="11.2043235"><ele>191.0</ele><time>2026-04-13T08:34:44.249Z</time></trkpt><trkpt lat="43.4123851" lon="11.2044056"><ele>191.0</ele><time>2026-04-13T08:34:46.247Z</time></trkpt><trkpt lat="43.4123323" lon="11.2044901"><ele>191.0</ele><time>2026-04-13T08:34:48.238Z</time></trkpt><trkpt lat="43.4122805" lon="11.2045642"><ele>191.0</ele><time>2026-04-13T08:34:50.247Z</time></trkpt><trkpt lat="43.4122309" lon="11.2046381"><ele>191.0</ele><time>2026-04-13T08:34:52.241Z</time></trkpt><trkpt lat="43.4121747" lon="11.2047127"><ele>191.0</ele><time>2026-04-13T08:34:54.246Z</time></trkpt><trkpt lat="43.4121169" lon="11.2047887"><ele>191.0</ele><time>2026-04-13T08:34:56.243Z</time></trkpt><trkpt lat="43.4120629" lon="11.204863"><ele>191.0</ele><time>2026-04-13T08:34:58.238Z</time></trkpt><trkpt lat="43.4120075" lon="11.2049403"><ele>191.0</ele><time>2026-04-13T08:35:00.323Z</time></trkpt><trkpt lat="43.4119542" lon="11.2050133"><ele>191.57142857142858</ele><time>2026-04-13T08:35:02.245Z</time></trkpt><trkpt lat="43.4119019" lon="11.2050909"><ele>192.14285714285714</ele><time>2026-04-13T08:35:04.317Z</time></trkpt><trkpt lat="43.4118751" lon="11.2051704"><ele>192.71428571428572</ele><time>2026-04-13T08:35:06.241Z</time></trkpt><trkpt lat="43.4118238" lon="11.2052298"><ele>193.28571428571428</ele><time>2026-04-13T08:35:09.239Z</time></trkpt><trkpt lat="43.4117504" lon="11.2052906"><ele>193.85714285714283</ele><time>2026-04-13T08:35:11.233Z</time></trkpt><trkpt lat="43.4116868" lon="11.2053526"><ele>194.42857142857142</ele><time>2026-04-13T08:35:13.237Z</time></trkpt><trkpt lat="43.4116284" lon="11.2054222"><ele>195.0</ele><time>2026-04-13T08:35:15.307Z</time></trkpt><trkpt lat="43.4115272" lon="11.205444"><ele>195.0</ele><time>2026-04-13T08:35:17.235Z</time></trkpt><trkpt lat="43.4114488" lon="11.2055421"><ele>195.0</ele><time>2026-04-13T08:35:19.3Z</time></trkpt><trkpt lat="43.4113804" lon="11.2056572"><ele>195.0</ele><time>2026-04-13T08:35:21.236Z</time></trkpt><trkpt lat="43.4113377" lon="11.2057363"><ele>195.0</ele><time>2026-04-13T08:35:22.239Z</time></trkpt><trkpt lat="43.4112828" lon="11.2058129"><ele>195.0</ele><time>2026-04-13T08:35:23.254Z</time></trkpt><trkpt lat="43.411228" lon="11.2058846"><ele>195.0</ele><time>2026-04-13T08:35:24.245Z</time></trkpt><trkpt lat="43.4111762" lon="11.2059461"><ele>194.6</ele><time>2026-04-13T08:35:25.238Z</time></trkpt><trkpt lat="43.4111227" lon="11.2060082"><ele>194.2</ele><time>2026-04-13T08:35:26.256Z</time></trkpt><trkpt lat="43.4110714" lon="11.206071"><ele>193.8</ele><time>2026-04-13T08:35:27.24Z</time></trkpt><trkpt lat="43.4110215" lon="11.2061256"><ele>193.4</ele><time>2026-04-13T08:35:28.236Z</time></trkpt><trkpt lat="43.4109161" lon="11.2062154"><ele>193.0</ele><time>2026-04-13T08:35:30.245Z</time></trkpt><trkpt lat="43.4107994" lon="11.2062747"><ele>193.0</ele><time>2026-04-13T08:35:32.241Z</time></trkpt><trkpt lat="43.4106821" lon="11.2063131"><ele>193.0</ele><time>2026-04-13T08:35:34.246Z</time></trkpt><trkpt lat="43.4105713" lon="11.2063667"><ele>193.0</ele><time>2026-04-13T08:35:36.253Z</time></trkpt><trkpt lat="43.4104836" lon="11.2064737"><ele>193.0</ele><time>2026-04-13T08:35:38.247Z</time></trkpt><trkpt lat="43.4104716" lon="11.2066319"><ele>192.2</ele><time>2026-04-13T08:35:40.242Z</time></trkpt><trkpt lat="43.410517" lon="11.2067632"><ele>191.4</ele><time>2026-04-13T08:35:42.241Z</time></trkpt><trkpt lat="43.4106098" lon="11.2068584"><ele>190.6</ele><time>2026-04-13T08:35:44.255Z</time></trkpt><trkpt lat="43.410684" lon="11.2069627"><ele>189.79999999999998</ele><time>2026-04-13T08:35:46.242Z</time></trkpt><trkpt lat="43.4107379" lon="11.2071007"><ele>189.0</ele><time>2026-04-13T08:35:48.236Z</time></trkpt><trkpt lat="43.4107853" lon="11.2072553"><ele>189.0</ele><time>2026-04-13T08:35:50.244Z</time></trkpt><trkpt lat="43.4108358" lon="11.2074102"><ele>189.0</ele><time>2026-04-13T08:35:52.247Z</time></trkpt><trkpt lat="43.4108814" lon="11.2075582"><ele>189.0</ele><time>2026-04-13T08:35:54.321Z</time></trkpt><trkpt lat="43.4109426" lon="11.2077242"><ele>189.0</ele><time>2026-04-13T08:35:56.234Z</time></trkpt><trkpt lat="43.4109676" lon="11.2078097"><ele>189.0</ele><time>2026-04-13T08:35:57.258Z</time></trkpt><trkpt lat="43.410995" lon="11.207899"><ele>189.0</ele><time>2026-04-13T08:35:58.243Z</time></trkpt><trkpt lat="43.4110191" lon="11.2079845"><ele>189.0</ele><time>2026-04-13T08:35:59.302Z</time></trkpt><trkpt lat="43.4110483" lon="11.2080679"><ele>189.0</ele><time>2026-04-13T08:36:00.25Z</time></trkpt><trkpt lat="43.4110725" lon="11.2081522"><ele>189.0</ele><time>2026-04-13T08:36:01.236Z</time></trkpt><trkpt lat="43.4111172" lon="11.208299"><ele>189.0</ele><time>2026-04-13T08:36:03.308Z</time></trkpt><trkpt lat="43.4111667" lon="11.2084419"><ele>189.0</ele><time>2026-04-13T08:36:05.312Z</time></trkpt><trkpt lat="43.4111972" lon="11.2085871"><ele>189.2</ele><time>2026-04-13T08:36:07.254Z</time></trkpt><trkpt lat="43.4112143" lon="11.2087433"><ele>189.39999999999998</ele><time>2026-04-13T08:36:09.224Z</time></trkpt><trkpt lat="43.4112109" lon="11.2089003"><ele>189.6</ele><time>2026-04-13T08:36:11.245Z</time></trkpt><trkpt lat="43.4112017" lon="11.2090469"><ele>189.8</ele><time>2026-04-13T08:36:13.246Z</time></trkpt><trkpt lat="43.4111768" lon="11.2091884"><ele>190.0</ele><time>2026-04-13T08:36:15.253Z</time></trkpt><trkpt lat="43.411157" lon="11.2093168"><ele>190.0</ele><time>2026-04-13T08:36:17.253Z</time></trkpt><trkpt lat="43.4111311" lon="11.2094782"><ele>190.0</ele><time>2026-04-13T08:36:19.249Z</time></trkpt><trkpt lat="43.4111163" lon="11.2096272"><ele>190.0</ele><time>2026-04-13T08:36:21.241Z</time></trkpt><trkpt lat="43.4110992" lon="11.209762"><ele>190.0</ele><time>2026-04-13T08:36:23.312Z</time></trkpt><trkpt lat="43.4110614" lon="11.2098689"><ele>190.0</ele><time>2026-04-13T08:36:25.218Z</time></trkpt><trkpt lat="43.4110189" lon="11.209971"><ele>190.0</ele><time>2026-04-13T08:36:27.249Z</time></trkpt><trkpt lat="43.4109645" lon="11.2100871"><ele>190.0</ele><time>2026-04-13T08:36:29.24Z</time></trkpt><trkpt lat="43.4108683" lon="11.2101449"><ele>190.0</ele><time>2026-04-13T08:36:31.239Z</time></trkpt><trkpt lat="43.4107719" lon="11.2101903"><ele>190.0</ele><time>2026-04-13T08:36:33.302Z</time></trkpt><trkpt lat="43.4106766" lon="11.2102292"><ele>190.0</ele><time>2026-04-13T08:36:35.31Z</time></trkpt><trkpt lat="43.4105451" lon="11.2102408"><ele>190.4</ele><time>2026-04-13T08:36:37.244Z</time></trkpt><trkpt lat="43.4104791" lon="11.2102496"><ele>190.8</ele><time>2026-04-13T08:36:38.315Z</time></trkpt><trkpt lat="43.410367" lon="11.2103006"><ele>191.2</ele><time>2026-04-13T08:36:40.302Z</time></trkpt><trkpt lat="43.4102653" lon="11.2103381"><ele>191.6</ele><time>2026-04-13T08:36:42.232Z</time></trkpt><trkpt lat="43.4101576" lon="11.2103751"><ele>192.0</ele><time>2026-04-13T08:36:44.249Z</time></trkpt><trkpt lat="43.4100492" lon="11.2104202"><ele>192.0</ele><time>2026-04-13T08:36:46.249Z</time></trkpt><trkpt lat="43.4099363" lon="11.2104732"><ele>192.0</ele><time>2026-04-13T08:36:48.246Z</time></trkpt><trkpt lat="43.4098208" lon="11.2105259"><ele>192.0</ele><time>2026-04-13T08:36:50.327Z</time></trkpt><trkpt lat="43.4097058" lon="11.2105731"><ele>192.0</ele><time>2026-04-13T08:36:52.236Z</time></trkpt><trkpt lat="43.4095946" lon="11.2106211"><ele>191.75</ele><time>2026-04-13T08:36:54.239Z</time></trkpt><trkpt lat="43.4094814" lon="11.2106685"><ele>191.5</ele><time>2026-04-13T08:36:56.24Z</time></trkpt><trkpt lat="43.4093691" lon="11.2107088"><ele>191.25</ele><time>2026-04-13T08:36:58.24Z</time></trkpt><trkpt lat="43.4092499" lon="11.2107397"><ele>191.0</ele><time>2026-04-13T08:37:00.242Z</time></trkpt><trkpt lat="43.4091349" lon="11.2107876"><ele>191.0</ele><time>2026-04-13T08:37:02.25Z</time></trkpt><trkpt lat="43.4090208" lon="11.210836"><ele>191.0</ele><time>2026-04-13T08:37:04.308Z</time></trkpt><trkpt lat="43.4089108" lon="11.2109274"><ele>191.0</ele><time>2026-04-13T08:37:06.224Z</time></trkpt><trkpt lat="43.4088536" lon="11.2109865"><ele>191.0</ele><time>2026-04-13T08:37:07.236Z</time></trkpt><trkpt lat="43.4087765" lon="11.211077"><ele>191.0</ele><time>2026-04-13T08:37:09.316Z</time></trkpt><trkpt lat="43.4086929" lon="11.2112122"><ele>190.8</ele><time>2026-04-13T08:37:11.24Z</time></trkpt><trkpt lat="43.4086541" lon="11.211345"><ele>190.60000000000002</ele><time>2026-04-13T08:37:13.241Z</time></trkpt><trkpt lat="43.4085989" lon="11.2114755"><ele>190.4</ele><time>2026-04-13T08:37:15.32Z</time></trkpt><trkpt lat="43.4085498" lon="11.2115394"><ele>190.2</ele><time>2026-04-13T08:37:16.22Z</time></trkpt><trkpt lat="43.4084925" lon="11.21166"><ele>190.0</ele><time>2026-04-13T08:37:18.25Z</time></trkpt><trkpt lat="43.4084261" lon="11.2117364"><ele>190.0</ele><time>2026-04-13T08:37:20.311Z</time></trkpt><trkpt lat="43.4083833" lon="11.2118292"><ele>190.0</ele><time>2026-04-13T08:37:22.245Z</time></trkpt><trkpt lat="43.4083857" lon="11.2119203"><ele>190.0</ele><time>2026-04-13T08:37:24.309Z</time></trkpt><trkpt lat="43.4083146" lon="11.2119615"><ele>190.0</ele><time>2026-04-13T08:37:26.236Z</time></trkpt><trkpt lat="43.4082233" lon="11.2119917"><ele>190.0</ele><time>2026-04-13T08:37:28.222Z</time></trkpt><trkpt lat="43.4081282" lon="11.2120395"><ele>190.0</ele><time>2026-04-13T08:37:30.247Z</time></trkpt><trkpt lat="43.4080318" lon="11.2120824"><ele>189.8</ele><time>2026-04-13T08:37:32.222Z</time></trkpt><trkpt lat="43.4079313" lon="11.2121242"><ele>189.6</ele><time>2026-04-13T08:37:34.242Z</time></trkpt><trkpt lat="43.4078343" lon="11.2121682"><ele>189.39999999999998</ele><time>2026-04-13T08:37:36.236Z</time></trkpt><trkpt lat="43.4077511" lon="11.2122369"><ele>189.2</ele><time>2026-04-13T08:37:38.249Z</time></trkpt><trkpt lat="43.4076883" lon="11.2123573"><ele>189.0</ele><time>2026-04-13T08:37:40.319Z</time></trkpt><trkpt lat="43.4075112" lon="11.2126413"><ele>188.79999999999998</ele><time>2026-04-13T08:37:45.264Z</time></trkpt><trkpt lat="43.4074403" lon="11.2126799"><ele>188.6</ele><time>2026-04-13T08:37:47.244Z</time></trkpt><trkpt lat="43.4073333" lon="11.2127302"><ele>188.4</ele><time>2026-04-13T08:37:49.312Z</time></trkpt><trkpt lat="43.4072294" lon="11.2127787"><ele>188.2</ele><time>2026-04-13T08:37:51.238Z</time></trkpt><trkpt lat="43.4071358" lon="11.2128207"><ele>188.0</ele><time>2026-04-13T08:37:53.255Z</time></trkpt><trkpt lat="43.4070339" lon="11.2128615"><ele>188.0</ele><time>2026-04-13T08:37:55.309Z</time></trkpt><trkpt lat="43.4069756" lon="11.2128976"><ele>188.0</ele><time>2026-04-13T08:37:56.25Z</time></trkpt><trkpt lat="43.4068925" lon="11.2129352"><ele>188.0</ele><time>2026-04-13T08:37:58.243Z</time></trkpt><trkpt lat="43.4067973" lon="11.2129708"><ele>188.0</ele><time>2026-04-13T08:38:00.25Z</time></trkpt><trkpt lat="43.4066997" lon="11.2130202"><ele>188.0</ele><time>2026-04-13T08:38:02.247Z</time></trkpt><trkpt lat="43.4066031" lon="11.2130664"><ele>188.0</ele><time>2026-04-13T08:38:04.317Z</time></trkpt><trkpt lat="43.4065109" lon="11.2131116"><ele>188.0</ele><time>2026-04-13T08:38:06.243Z</time></trkpt><trkpt lat="43.4064179" lon="11.2131738"><ele>188.0</ele><time>2026-04-13T08:38:08.306Z</time></trkpt><trkpt lat="43.4063372" lon="11.213256"><ele>188.0</ele><time>2026-04-13T08:38:10.245Z</time></trkpt><trkpt lat="43.4062429" lon="11.2132994"><ele>188.0</ele><time>2026-04-13T08:38:12.241Z</time></trkpt><trkpt lat="43.4061411" lon="11.213327"><ele>187.8</ele><time>2026-04-13T08:38:14.294Z</time></trkpt><trkpt lat="43.4060443" lon="11.2133673"><ele>187.60000000000002</ele><time>2026-04-13T08:38:16.231Z</time></trkpt><trkpt lat="43.405947" lon="11.213396"><ele>187.39999999999998</ele><time>2026-04-13T08:38:18.253Z</time></trkpt><trkpt lat="43.4058457" lon="11.2134246"><ele>187.2</ele><time>2026-04-13T08:38:20.249Z</time></trkpt><trkpt lat="43.4057479" lon="11.2134607"><ele>187.0</ele><time>2026-04-13T08:38:22.238Z</time></trkpt><trkpt lat="43.4056459" lon="11.2134962"><ele>187.0</ele><time>2026-04-13T08:38:24.309Z</time></trkpt><trkpt lat="43.4055436" lon="11.2135438"><ele>187.0</ele><time>2026-04-13T08:38:26.24Z</time></trkpt><trkpt lat="43.4054384" lon="11.2135935"><ele>187.0</ele><time>2026-04-13T08:38:28.239Z</time></trkpt><trkpt lat="43.4053527" lon="11.2136195"><ele>187.0</ele><time>2026-04-13T08:38:30.313Z</time></trkpt><trkpt lat="43.405276" lon="11.2136002"><ele>187.0</ele><time>2026-04-13T08:38:32.242Z</time></trkpt><trkpt lat="43.4052064" lon="11.2135308"><ele>187.75</ele><time>2026-04-13T08:38:34.234Z</time></trkpt><trkpt lat="43.4051169" lon="11.2134542"><ele>188.5</ele><time>2026-04-13T08:38:36.24Z</time></trkpt><trkpt lat="43.4050102" lon="11.2134633"><ele>189.25</ele><time>2026-04-13T08:38:38.23Z</time></trkpt><trkpt lat="43.4048919" lon="11.2134946"><ele>190.0</ele><time>2026-04-13T08:38:40.311Z</time></trkpt><trkpt lat="43.4047724" lon="11.2135192"><ele>190.0</ele><time>2026-04-13T08:38:42.238Z</time></trkpt><trkpt lat="43.404659" lon="11.2135412"><ele>190.0</ele><time>2026-04-13T08:38:44.318Z</time></trkpt><trkpt lat="43.4044877" lon="11.2135608"><ele>190.0</ele><time>2026-04-13T08:38:47.234Z</time></trkpt><trkpt lat="43.4043719" lon="11.2135721"><ele>190.0</ele><time>2026-04-13T08:38:49.239Z</time></trkpt><trkpt lat="43.4042551" lon="11.213574"><ele>190.0</ele><time>2026-04-13T08:38:51.246Z</time></trkpt><trkpt lat="43.4041319" lon="11.2135774"><ele>190.0</ele><time>2026-04-13T08:38:53.227Z</time></trkpt><trkpt lat="43.4040676" lon="11.2135892"><ele>190.0</ele><time>2026-04-13T08:38:54.312Z</time></trkpt><trkpt lat="43.4039557" lon="11.2135996"><ele>190.0</ele><time>2026-04-13T08:38:56.245Z</time></trkpt><trkpt lat="43.4038516" lon="11.2135832"><ele>190.0</ele><time>2026-04-13T08:38:58.24Z</time></trkpt><trkpt lat="43.4037351" lon="11.2136254"><ele>190.25</ele><time>2026-04-13T08:39:00.325Z</time></trkpt><trkpt lat="43.4036297" lon="11.2136841"><ele>190.5</ele><time>2026-04-13T08:39:02.248Z</time></trkpt><trkpt lat="43.4035214" lon="11.2137396"><ele>190.75</ele><time>2026-04-13T08:39:04.241Z</time></trkpt><trkpt lat="43.4034187" lon="11.2138028"><ele>191.0</ele><time>2026-04-13T08:39:06.247Z</time></trkpt><trkpt lat="43.403318" lon="11.2138696"><ele>191.0</ele><time>2026-04-13T08:39:08.24Z</time></trkpt><trkpt lat="43.4032086" lon="11.2139431"><ele>191.0</ele><time>2026-04-13T08:39:10.313Z</time></trkpt><trkpt lat="43.4031001" lon="11.2140083"><ele>191.0</ele><time>2026-04-13T08:39:12.248Z</time></trkpt><trkpt lat="43.4030011" lon="11.2140681"><ele>191.0</ele><time>2026-04-13T08:39:14.226Z</time></trkpt><trkpt lat="43.4029189" lon="11.2141212"><ele>191.0</ele><time>2026-04-13T08:39:16.24Z</time></trkpt><trkpt lat="43.4028188" lon="11.2141425"><ele>191.8</ele><time>2026-04-13T08:39:18.312Z</time></trkpt><trkpt lat="43.402762" lon="11.2141824"><ele>192.60000000000002</ele><time>2026-04-13T08:39:19.246Z</time></trkpt><trkpt lat="43.4026595" lon="11.2142286"><ele>193.4</ele><time>2026-04-13T08:39:21.224Z</time></trkpt><trkpt lat="43.4025591" lon="11.2142898"><ele>194.2</ele><time>2026-04-13T08:39:23.301Z</time></trkpt><trkpt lat="43.4024595" lon="11.2143714"><ele>195.0</ele><time>2026-04-13T08:39:25.312Z</time></trkpt><trkpt lat="43.4023568" lon="11.2144396"><ele>195.0</ele><time>2026-04-13T08:39:27.216Z</time></trkpt><trkpt lat="43.4022433" lon="11.2145225"><ele>195.0</ele><time>2026-04-13T08:39:29.308Z</time></trkpt><trkpt lat="43.4021743" lon="11.2145269"><ele>195.0</ele><time>2026-04-13T08:39:30.307Z</time></trkpt><trkpt lat="43.4020673" lon="11.2145301"><ele>195.0</ele><time>2026-04-13T08:39:32.233Z</time></trkpt><trkpt lat="43.4019769" lon="11.2145791"><ele>195.0</ele><time>2026-04-13T08:39:34.236Z</time></trkpt><trkpt lat="43.4018799" lon="11.2146197"><ele>194.75</ele><time>2026-04-13T08:39:36.24Z</time></trkpt><trkpt lat="43.4017756" lon="11.2146758"><ele>194.5</ele><time>2026-04-13T08:39:38.243Z</time></trkpt><trkpt lat="43.401675" lon="11.2147652"><ele>194.25</ele><time>2026-04-13T08:39:40.219Z</time></trkpt><trkpt lat="43.4015839" lon="11.2148451"><ele>194.0</ele><time>2026-04-13T08:39:42.247Z</time></trkpt><trkpt lat="43.4014852" lon="11.2149201"><ele>194.0</ele><time>2026-04-13T08:39:44.239Z</time></trkpt><trkpt lat="43.4013784" lon="11.2149896"><ele>194.0</ele><time>2026-04-13T08:39:46.24Z</time></trkpt><trkpt lat="43.4012718" lon="11.2150509"><ele>194.0</ele><time>2026-04-13T08:39:48.313Z</time></trkpt><trkpt lat="43.4011638" lon="11.2150982"><ele>194.0</ele><time>2026-04-13T08:39:50.307Z</time></trkpt><trkpt lat="43.4010666" lon="11.2151468"><ele>196.0</ele><time>2026-04-13T08:39:52.244Z</time></trkpt><trkpt lat="43.4009697" lon="11.2151934"><ele>198.0</ele><time>2026-04-13T08:39:54.311Z</time></trkpt><trkpt lat="43.4008773" lon="11.2152463"><ele>200.0</ele><time>2026-04-13T08:39:56.223Z</time></trkpt><trkpt lat="43.4007851" lon="11.2153035"><ele>202.0</ele><time>2026-04-13T08:39:58.234Z</time></trkpt><trkpt lat="43.4006994" lon="11.2153572"><ele>204.0</ele><time>2026-04-13T08:40:00.236Z</time></trkpt><trkpt lat="43.4006093" lon="11.2154133"><ele>204.0</ele><time>2026-04-13T08:40:02.255Z</time></trkpt><trkpt lat="43.4005265" lon="11.2154682"><ele>204.0</ele><time>2026-04-13T08:40:04.315Z</time></trkpt><trkpt lat="43.4004558" lon="11.2155094"><ele>204.0</ele><time>2026-04-13T08:40:06.224Z</time></trkpt><trkpt lat="43.4003523" lon="11.2155617"><ele>204.0</ele><time>2026-04-13T08:40:08.243Z</time></trkpt><trkpt lat="43.4002555" lon="11.2156121"><ele>204.0</ele><time>2026-04-13T08:40:10.237Z</time></trkpt><trkpt lat="43.4001673" lon="11.2156642"><ele>202.39999999999998</ele><time>2026-04-13T08:40:12.248Z</time></trkpt><trkpt lat="43.4000793" lon="11.2157091"><ele>200.8</ele><time>2026-04-13T08:40:14.228Z</time></trkpt><trkpt lat="43.3999879" lon="11.2157549"><ele>199.2</ele><time>2026-04-13T08:40:16.253Z</time></trkpt><trkpt lat="43.3998966" lon="11.2158009"><ele>197.60000000000002</ele><time>2026-04-13T08:40:18.221Z</time></trkpt><trkpt lat="43.399806" lon="11.2158456"><ele>196.0</ele><time>2026-04-13T08:40:20.222Z</time></trkpt><trkpt lat="43.3997145" lon="11.2158851"><ele>195.60000000000002</ele><time>2026-04-13T08:40:22.218Z</time></trkpt><trkpt lat="43.3996181" lon="11.215888"><ele>195.2</ele><time>2026-04-13T08:40:24.302Z</time></trkpt><trkpt lat="43.3995206" lon="11.2158582"><ele>194.8</ele><time>2026-04-13T08:40:26.222Z</time></trkpt><trkpt lat="43.3993925" lon="11.2158374"><ele>194.39999999999998</ele><time>2026-04-13T08:40:28.239Z</time></trkpt><trkpt lat="43.3993257" lon="11.2158352"><ele>194.0</ele><time>2026-04-13T08:40:29.245Z</time></trkpt><trkpt lat="43.3991994" lon="11.2158393"><ele>194.00000000000003</ele><time>2026-04-13T08:40:31.232Z</time></trkpt><trkpt lat="43.3991339" lon="11.2158426"><ele>194.0</ele><time>2026-04-13T08:40:32.246Z</time></trkpt><trkpt lat="43.3990155" lon="11.2158456"><ele>194.0</ele><time>2026-04-13T08:40:34.298Z</time></trkpt><trkpt lat="43.3989455" lon="11.2158556"><ele>194.0</ele><time>2026-04-13T08:40:35.321Z</time></trkpt><trkpt lat="43.3988737" lon="11.2158805"><ele>194.00000000000003</ele><time>2026-04-13T08:40:36.232Z</time></trkpt><trkpt lat="43.3988089" lon="11.2159135"><ele>194.0</ele><time>2026-04-13T08:40:37.255Z</time></trkpt><trkpt lat="43.398743" lon="11.2159566"><ele>193.39999999999998</ele><time>2026-04-13T08:40:38.245Z</time></trkpt><trkpt lat="43.3986817" lon="11.2159984"><ele>192.8</ele><time>2026-04-13T08:40:39.299Z</time></trkpt><trkpt lat="43.3985878" lon="11.2160783"><ele>192.2</ele><time>2026-04-13T08:40:41.232Z</time></trkpt><trkpt lat="43.3984818" lon="11.2161418"><ele>191.60000000000002</ele><time>2026-04-13T08:40:43.245Z</time></trkpt><trkpt lat="43.3983675" lon="11.2161799"><ele>191.0</ele><time>2026-04-13T08:40:45.313Z</time></trkpt><trkpt lat="43.3982488" lon="11.2162188"><ele>191.0</ele><time>2026-04-13T08:40:47.235Z</time></trkpt><trkpt lat="43.3981351" lon="11.2162638"><ele>191.0</ele><time>2026-04-13T08:40:49.306Z</time></trkpt><trkpt lat="43.3980731" lon="11.2162933"><ele>191.0</ele><time>2026-04-13T08:40:50.301Z</time></trkpt><trkpt lat="43.3980116" lon="11.2163245"><ele>191.0</ele><time>2026-04-13T08:40:51.24Z</time></trkpt><trkpt lat="43.3978989" lon="11.2163477"><ele>191.0</ele><time>2026-04-13T08:40:53.24Z</time></trkpt><trkpt lat="43.3977915" lon="11.2163664"><ele>191.5</ele><time>2026-04-13T08:40:55.248Z</time></trkpt><trkpt lat="43.397674" lon="11.2163802"><ele>192.0</ele><time>2026-04-13T08:40:57.248Z</time></trkpt><trkpt lat="43.397556" lon="11.2164189"><ele>192.5</ele><time>2026-04-13T08:40:59.238Z</time></trkpt><trkpt lat="43.3974449" lon="11.2164548"><ele>193.0</ele><time>2026-04-13T08:41:01.25Z</time></trkpt><trkpt lat="43.3973345" lon="11.2164837"><ele>192.75</ele><time>2026-04-13T08:41:03.237Z</time></trkpt><trkpt lat="43.3972198" lon="11.2165073"><ele>192.5</ele><time>2026-04-13T08:41:05.249Z</time></trkpt><trkpt lat="43.3971032" lon="11.2165403"><ele>192.25</ele><time>2026-04-13T08:41:07.25Z</time></trkpt><trkpt lat="43.3969904" lon="11.2165684"><ele>192.0</ele><time>2026-04-13T08:41:09.248Z</time></trkpt><trkpt lat="43.3968707" lon="11.2165952"><ele>192.0</ele><time>2026-04-13T08:41:11.239Z</time></trkpt><trkpt lat="43.3967535" lon="11.2166179"><ele>192.0</ele><time>2026-04-13T08:41:13.252Z</time></trkpt><trkpt lat="43.3966367" lon="11.2166544"><ele>192.0</ele><time>2026-04-13T08:41:15.25Z</time></trkpt><trkpt lat="43.3965231" lon="11.2166921"><ele>192.0</ele><time>2026-04-13T08:41:17.24Z</time></trkpt><trkpt lat="43.3964092" lon="11.2167125"><ele>192.33333333333334</ele><time>2026-04-13T08:41:19.312Z</time></trkpt><trkpt lat="43.3963043" lon="11.2167369"><ele>192.66666666666669</ele><time>2026-04-13T08:41:21.229Z</time></trkpt><trkpt lat="43.3962091" lon="11.2167558"><ele>193.0</ele><time>2026-04-13T08:41:23.242Z</time></trkpt><trkpt lat="43.3961276" lon="11.2167762"><ele>193.33333333333334</ele><time>2026-04-13T08:41:25.318Z</time></trkpt><trkpt lat="43.3960499" lon="11.2168007"><ele>193.66666666666669</ele><time>2026-04-13T08:41:27.24Z</time></trkpt><trkpt lat="43.3959737" lon="11.2168251"><ele>194.0</ele><time>2026-04-13T08:41:29.239Z</time></trkpt><trkpt lat="43.3958977" lon="11.2168622"><ele>194.0</ele><time>2026-04-13T08:41:31.226Z</time></trkpt><trkpt lat="43.3957736" lon="11.2169474"><ele>194.0</ele><time>2026-04-13T08:41:34.22Z</time></trkpt><trkpt lat="43.3957297" lon="11.2170198"><ele>194.0</ele><time>2026-04-13T08:41:36.239Z</time></trkpt><trkpt lat="43.3956929" lon="11.2170999"><ele>194.0</ele><time>2026-04-13T08:41:38.311Z</time></trkpt><trkpt lat="43.3956618" lon="11.2172004"><ele>194.0</ele><time>2026-04-13T08:41:40.296Z</time></trkpt><trkpt lat="43.3956526" lon="11.2173548"><ele>194.16666666666669</ele><time>2026-04-13T08:41:42.241Z</time></trkpt><trkpt lat="43.3956404" lon="11.2175082"><ele>194.33333333333334</ele><time>2026-04-13T08:41:44.236Z</time></trkpt><trkpt lat="43.3956096" lon="11.2176029"><ele>194.5</ele><time>2026-04-13T08:41:45.236Z</time></trkpt><trkpt lat="43.3955752" lon="11.2176869"><ele>194.66666666666669</ele><time>2026-04-13T08:41:46.223Z</time></trkpt><trkpt lat="43.3955378" lon="11.2177684"><ele>194.83333333333334</ele><time>2026-04-13T08:41:47.235Z</time></trkpt><trkpt lat="43.3954982" lon="11.2178375"><ele>195.0</ele><time>2026-04-13T08:41:48.284Z</time></trkpt><trkpt lat="43.3954509" lon="11.2178964"><ele>195.0</ele><time>2026-04-13T08:41:49.241Z</time></trkpt><trkpt lat="43.395355" lon="11.2179935"><ele>195.0</ele><time>2026-04-13T08:41:51.241Z</time></trkpt><trkpt lat="43.3952635" lon="11.2180678"><ele>195.0</ele><time>2026-04-13T08:41:53.251Z</time></trkpt><trkpt lat="43.3951785" lon="11.2181406"><ele>195.0</ele><time>2026-04-13T08:41:55.243Z</time></trkpt><trkpt lat="43.3950986" lon="11.2182106"><ele>195.0</ele><time>2026-04-13T08:41:57.235Z</time></trkpt><trkpt lat="43.39502" lon="11.2182715"><ele>195.0</ele><time>2026-04-13T08:41:59.239Z</time></trkpt><trkpt lat="43.394946" lon="11.218349"><ele>195.0</ele><time>2026-04-13T08:42:01.242Z</time></trkpt><trkpt lat="43.3948857" lon="11.2184203"><ele>195.0</ele><time>2026-04-13T08:42:03.242Z</time></trkpt><trkpt lat="43.3948248" lon="11.2184622"><ele>195.0</ele><time>2026-04-13T08:42:05.298Z</time></trkpt><trkpt lat="43.3946253" lon="11.2186181"><ele>195.66666666666666</ele><time>2026-04-13T08:42:09.308Z</time></trkpt><trkpt lat="43.3945821" lon="11.2185447"><ele>196.33333333333331</ele><time>2026-04-13T08:42:10.318Z</time></trkpt><trkpt lat="43.3945681" lon="11.2187026"><ele>197.0</ele><time>2026-04-13T08:42:12.248Z</time></trkpt><trkpt lat="43.3945049" lon="11.2187559"><ele>197.66666666666666</ele><time>2026-04-13T08:42:14.301Z</time></trkpt><trkpt lat="43.3944224" lon="11.2188258"><ele>198.33333333333331</ele><time>2026-04-13T08:42:16.221Z</time></trkpt><trkpt lat="43.3943499" lon="11.2188879"><ele>199.0</ele><time>2026-04-13T08:42:18.238Z</time></trkpt><trkpt lat="43.3942852" lon="11.2189592"><ele>199.2</ele><time>2026-04-13T08:42:20.234Z</time></trkpt><trkpt lat="43.394223" lon="11.2190434"><ele>199.39999999999998</ele><time>2026-04-13T08:42:22.238Z</time></trkpt><trkpt lat="43.3941718" lon="11.2191454"><ele>199.6</ele><time>2026-04-13T08:42:24.32Z</time></trkpt><trkpt lat="43.3941295" lon="11.219227"><ele>199.8</ele><time>2026-04-13T08:42:26.243Z</time></trkpt><trkpt lat="43.394093" lon="11.2193733"><ele>200.0</ele><time>2026-04-13T08:42:28.251Z</time></trkpt><trkpt lat="43.3940671" lon="11.2195171"><ele>200.00000000000003</ele><time>2026-04-13T08:42:30.249Z</time></trkpt><trkpt lat="43.3940271" lon="11.2196435"><ele>200.0</ele><time>2026-04-13T08:42:32.239Z</time></trkpt><trkpt lat="43.3939462" lon="11.2196538"><ele>200.0</ele><time>2026-04-13T08:42:34.323Z</time></trkpt><trkpt lat="43.3938577" lon="11.2196438"><ele>200.0</ele><time>2026-04-13T08:42:42.227Z</time></trkpt><trkpt lat="43.3937669" lon="11.2196173"><ele>200.00000000000003</ele><time>2026-04-13T08:42:43.306Z</time></trkpt><trkpt lat="43.3936973" lon="11.2196156"><ele>200.0</ele><time>2026-04-13T08:42:44.226Z</time></trkpt><trkpt lat="43.3936242" lon="11.2196273"><ele>200.66666666666669</ele><time>2026-04-13T08:42:45.246Z</time></trkpt><trkpt lat="43.3935612" lon="11.2196196"><ele>201.33333333333334</ele><time>2026-04-13T08:42:46.245Z</time></trkpt><trkpt lat="43.3934699" lon="11.219595"><ele>202.0</ele><time>2026-04-13T08:42:48.228Z</time></trkpt><trkpt lat="43.3933909" lon="11.219564"><ele>202.66666666666669</ele><time>2026-04-13T08:42:50.312Z</time></trkpt><trkpt lat="43.393326" lon="11.2195549"><ele>203.33333333333334</ele><time>2026-04-13T08:42:52.236Z</time></trkpt><trkpt lat="43.3932629" lon="11.219499"><ele>204.0</ele><time>2026-04-13T08:42:55.305Z</time></trkpt><trkpt lat="43.393177" lon="11.2194484"><ele>204.0</ele><time>2026-04-13T08:42:57.244Z</time></trkpt><trkpt lat="43.3930682" lon="11.2194418"><ele>204.0</ele><time>2026-04-13T08:42:59.227Z</time></trkpt><trkpt lat="43.3929801" lon="11.2194245"><ele>204.0</ele><time>2026-04-13T08:43:01.228Z</time></trkpt><trkpt lat="43.3929139" lon="11.219413"><ele>204.0</ele><time>2026-04-13T08:43:03.234Z</time></trkpt><trkpt lat="43.3928336" lon="11.2193697"><ele>204.0</ele><time>2026-04-13T08:43:06.24Z</time></trkpt><trkpt lat="43.3927765" lon="11.2192726"><ele>204.0</ele><time>2026-04-13T08:43:09.226Z</time></trkpt><trkpt lat="43.3927455" lon="11.2191921"><ele>204.33333333333334</ele><time>2026-04-13T08:43:11.238Z</time></trkpt><trkpt lat="43.3927452" lon="11.2191052"><ele>204.66666666666669</ele><time>2026-04-13T08:43:14.223Z</time></trkpt><trkpt lat="43.3927884" lon="11.2190328"><ele>205.0</ele><time>2026-04-13T08:43:17.249Z</time></trkpt><trkpt lat="43.3928532" lon="11.218944"><ele>205.33333333333334</ele><time>2026-04-13T08:43:20.236Z</time></trkpt><trkpt lat="43.3929257" lon="11.2188682"><ele>205.66666666666669</ele><time>2026-04-13T08:43:23.24Z</time></trkpt><trkpt lat="43.3929814" lon="11.2188025"><ele>206.0</ele><time>2026-04-13T08:43:25.254Z</time></trkpt><trkpt lat="43.393046" lon="11.2187176"><ele>205.33333333333334</ele><time>2026-04-13T08:43:27.235Z</time></trkpt><trkpt lat="43.3931242" lon="11.2186224"><ele>204.66666666666669</ele><time>2026-04-13T08:43:29.248Z</time></trkpt><trkpt lat="43.3932166" lon="11.2185314"><ele>204.0</ele><time>2026-04-13T08:43:31.241Z</time></trkpt><trkpt lat="43.3932767" lon="11.2184981"><ele>203.33333333333331</ele><time>2026-04-13T08:43:32.246Z</time></trkpt><trkpt lat="43.3933393" lon="11.218473"><ele>202.66666666666666</ele><time>2026-04-13T08:43:33.248Z</time></trkpt><trkpt lat="43.3934042" lon="11.2184537"><ele>202.0</ele><time>2026-04-13T08:43:34.307Z</time></trkpt><trkpt lat="43.3934663" lon="11.2184317"><ele>201.99999999999997</ele><time>2026-04-13T08:43:35.323Z</time></trkpt><trkpt lat="43.3935601" lon="11.2183427"><ele>202.0</ele><time>2026-04-13T08:43:37.238Z</time></trkpt><trkpt lat="43.3935833" lon="11.2182532"><ele>202.0</ele><time>2026-04-13T08:43:38.252Z</time></trkpt><trkpt lat="43.3935836" lon="11.2181523"><ele>202.0</ele><time>2026-04-13T08:43:39.218Z</time></trkpt><trkpt lat="43.3935623" lon="11.2180503"><ele>201.99999999999997</ele><time>2026-04-13T08:43:40.321Z</time></trkpt><trkpt lat="43.3935336" lon="11.2179618"><ele>202.0</ele><time>2026-04-13T08:43:41.238Z</time></trkpt><trkpt lat="43.3934859" lon="11.2178415"><ele>201.0</ele><time>2026-04-13T08:43:44.218Z</time></trkpt><trkpt lat="43.3933028" lon="11.2178488"><ele>200.0</ele><time>2026-04-13T08:43:45.21Z</time></trkpt><trkpt lat="43.3931902" lon="11.2178152"><ele>199.0</ele><time>2026-04-13T08:43:46.245Z</time></trkpt><trkpt lat="43.3931308" lon="11.2177819"><ele>198.0</ele><time>2026-04-13T08:43:47.221Z</time></trkpt><trkpt lat="43.3930513" lon="11.2176798"><ele>198.0</ele><time>2026-04-13T08:43:49.239Z</time></trkpt><trkpt lat="43.3929767" lon="11.2175609"><ele>198.0</ele><time>2026-04-13T08:43:51.229Z</time></trkpt><trkpt lat="43.3928989" lon="11.2174405"><ele>198.0</ele><time>2026-04-13T08:43:53.236Z</time></trkpt><trkpt lat="43.3928333" lon="11.2172968"><ele>198.0</ele><time>2026-04-13T08:43:55.239Z</time></trkpt><trkpt lat="43.3928006" lon="11.2172172"><ele>198.0</ele><time>2026-04-13T08:43:56.239Z</time></trkpt><trkpt lat="43.3927748" lon="11.2171305"><ele>197.5</ele><time>2026-04-13T08:43:57.226Z</time></trkpt><trkpt lat="43.3927532" lon="11.2170386"><ele>197.0</ele><time>2026-04-13T08:43:58.24Z</time></trkpt><trkpt lat="43.3927339" lon="11.2169438"><ele>196.5</ele><time>2026-04-13T08:43:59.24Z</time></trkpt><trkpt lat="43.3927255" lon="11.2168415"><ele>196.0</ele><time>2026-04-13T08:44:00.242Z</time></trkpt><trkpt lat="43.3927206" lon="11.2167341"><ele>195.5</ele><time>2026-04-13T08:44:01.247Z</time></trkpt><trkpt lat="43.3927174" lon="11.2166223"><ele>195.0</ele><time>2026-04-13T08:44:02.241Z</time></trkpt><trkpt lat="43.3927167" lon="11.2165088"><ele>194.5</ele><time>2026-04-13T08:44:03.244Z</time></trkpt><trkpt lat="43.3927193" lon="11.2163934"><ele>194.0</ele><time>2026-04-13T08:44:04.249Z</time></trkpt><trkpt lat="43.3927207" lon="11.2162779"><ele>193.5</ele><time>2026-04-13T08:44:05.255Z</time></trkpt><trkpt lat="43.3927217" lon="11.2161603"><ele>193.0</ele><time>2026-04-13T08:44:06.246Z</time></trkpt><trkpt lat="43.3927219" lon="11.2160378"><ele>192.5</ele><time>2026-04-13T08:44:07.243Z</time></trkpt><trkpt lat="43.3927268" lon="11.2159157"><ele>192.0</ele><time>2026-04-13T08:44:08.251Z</time></trkpt><trkpt lat="43.3927336" lon="11.2157993"><ele>192.0</ele><time>2026-04-13T08:44:09.249Z</time></trkpt><trkpt lat="43.3927351" lon="11.2156817"><ele>192.0</ele><time>2026-04-13T08:44:10.24Z</time></trkpt><trkpt lat="43.3927417" lon="11.215562"><ele>192.0</ele><time>2026-04-13T08:44:11.237Z</time></trkpt><trkpt lat="43.3927484" lon="11.2154396"><ele>192.0</ele><time>2026-04-13T08:44:12.238Z</time></trkpt><trkpt lat="43.3927534" lon="11.2153188"><ele>192.0</ele><time>2026-04-13T08:44:13.243Z</time></trkpt><trkpt lat="43.3927558" lon="11.2152031"><ele>192.0</ele><time>2026-04-13T08:44:14.315Z</time></trkpt><trkpt lat="43.3927566" lon="11.2148654"><ele>191.8</ele><time>2026-04-13T08:44:17.208Z</time></trkpt><trkpt lat="43.3927768" lon="11.2146507"><ele>191.6</ele><time>2026-04-13T08:44:19.301Z</time></trkpt><trkpt lat="43.3927536" lon="11.2145239"><ele>191.4</ele><time>2026-04-13T08:44:20.314Z</time></trkpt><trkpt lat="43.392745" lon="11.2144045"><ele>191.20000000000002</ele><time>2026-04-13T08:44:21.23Z</time></trkpt><trkpt lat="43.3927648" lon="11.2143088"><ele>191.0</ele><time>2026-04-13T08:44:22.225Z</time></trkpt><trkpt lat="43.392764" lon="11.2142093"><ele>191.0</ele><time>2026-04-13T08:44:23.212Z</time></trkpt><trkpt lat="43.3927709" lon="11.214108"><ele>191.0</ele><time>2026-04-13T08:44:24.307Z</time></trkpt><trkpt lat="43.3927724" lon="11.2140113"><ele>191.0</ele><time>2026-04-13T08:44:25.306Z</time></trkpt><trkpt lat="43.3927733" lon="11.2139094"><ele>191.0</ele><time>2026-04-13T08:44:26.219Z</time></trkpt><trkpt lat="43.3927796" lon="11.2138091"><ele>191.0</ele><time>2026-04-13T08:44:27.22Z</time></trkpt><trkpt lat="43.3927908" lon="11.2137098"><ele>191.0</ele><time>2026-04-13T08:44:28.235Z</time></trkpt><trkpt lat="43.3927936" lon="11.2136099"><ele>191.0</ele><time>2026-04-13T08:44:29.238Z</time></trkpt><trkpt lat="43.3927962" lon="11.2135052"><ele>190.83333333333331</ele><time>2026-04-13T08:44:30.229Z</time></trkpt><trkpt lat="43.3927955" lon="11.2134018"><ele>190.66666666666666</ele><time>2026-04-13T08:44:31.241Z</time></trkpt><trkpt lat="43.3928009" lon="11.2133035"><ele>190.5</ele><time>2026-04-13T08:44:32.234Z</time></trkpt><trkpt lat="43.3928052" lon="11.2132004"><ele>190.33333333333334</ele><time>2026-04-13T08:44:33.309Z</time></trkpt><trkpt lat="43.3928405" lon="11.2130715"><ele>190.16666666666669</ele><time>2026-04-13T08:44:34.31Z</time></trkpt><trkpt lat="43.3928763" lon="11.212982"><ele>190.0</ele><time>2026-04-13T08:44:35.306Z</time></trkpt><trkpt lat="43.3928543" lon="11.2128319"><ele>190.42857142857144</ele><time>2026-04-13T08:44:37.237Z</time></trkpt><trkpt lat="43.3928385" lon="11.2127435"><ele>190.85714285714286</ele><time>2026-04-13T08:44:38.239Z</time></trkpt><trkpt lat="43.3928348" lon="11.212652"><ele>191.28571428571428</ele><time>2026-04-13T08:44:39.241Z</time></trkpt><trkpt lat="43.392839" lon="11.2125475"><ele>191.71428571428572</ele><time>2026-04-13T08:44:40.235Z</time></trkpt><trkpt lat="43.3928433" lon="11.2124522"><ele>192.14285714285714</ele><time>2026-04-13T08:44:41.243Z</time></trkpt><trkpt lat="43.3928385" lon="11.2123569"><ele>192.57142857142858</ele><time>2026-04-13T08:44:42.228Z</time></trkpt><trkpt lat="43.3928418" lon="11.2122623"><ele>193.0</ele><time>2026-04-13T08:44:43.235Z</time></trkpt><trkpt lat="43.3928453" lon="11.2121712"><ele>192.83333333333331</ele><time>2026-04-13T08:44:44.307Z</time></trkpt><trkpt lat="43.3928525" lon="11.2119998"><ele>192.66666666666666</ele><time>2026-04-13T08:44:46.234Z</time></trkpt><trkpt lat="43.3928472" lon="11.2119066"><ele>192.5</ele><time>2026-04-13T08:44:47.234Z</time></trkpt><trkpt lat="43.3928422" lon="11.2118151"><ele>192.33333333333331</ele><time>2026-04-13T08:44:48.227Z</time></trkpt><trkpt lat="43.3928414" lon="11.2117214"><ele>192.16666666666666</ele><time>2026-04-13T08:44:49.229Z</time></trkpt><trkpt lat="43.3928375" lon="11.2116272"><ele>192.0</ele><time>2026-04-13T08:44:50.315Z</time></trkpt><trkpt lat="43.392846" lon="11.2114307"><ele>192.0</ele><time>2026-04-13T08:44:52.233Z</time></trkpt><trkpt lat="43.3928563" lon="11.2113325"><ele>192.0</ele><time>2026-04-13T08:44:53.235Z</time></trkpt><trkpt lat="43.3928636" lon="11.2112407"><ele>192.0</ele><time>2026-04-13T08:44:54.319Z</time></trkpt><trkpt lat="43.3928741" lon="11.2110711"><ele>192.0</ele><time>2026-04-13T08:44:56.315Z</time></trkpt><trkpt lat="43.3928697" lon="11.2109146"><ele>192.0</ele><time>2026-04-13T08:44:58.214Z</time></trkpt><trkpt lat="43.3928543" lon="11.2107739"><ele>191.8</ele><time>2026-04-13T08:45:00.232Z</time></trkpt><trkpt lat="43.3928637" lon="11.210614"><ele>191.6</ele><time>2026-04-13T08:45:02.236Z</time></trkpt><trkpt lat="43.3928633" lon="11.2105251"><ele>191.4</ele><time>2026-04-13T08:45:03.301Z</time></trkpt><trkpt lat="43.3928674" lon="11.2103625"><ele>191.20000000000002</ele><time>2026-04-13T08:45:05.238Z</time></trkpt><trkpt lat="43.3928748" lon="11.2101921"><ele>191.0</ele><time>2026-04-13T08:45:07.245Z</time></trkpt><trkpt lat="43.3928787" lon="11.2100307"><ele>191.0</ele><time>2026-04-13T08:45:09.309Z</time></trkpt><trkpt lat="43.3928917" lon="11.2099442"><ele>191.0</ele><time>2026-04-13T08:45:10.243Z</time></trkpt><trkpt lat="43.3928844" lon="11.2096299"><ele>191.0</ele><time>2026-04-13T08:45:14.234Z</time></trkpt><trkpt lat="43.3928813" lon="11.2095338"><ele>191.0</ele><time>2026-04-13T08:45:15.242Z</time></trkpt><trkpt lat="43.392907" lon="11.2094039"><ele>191.20000000000002</ele><time>2026-04-13T08:45:17.226Z</time></trkpt><trkpt lat="43.3928992" lon="11.2093144"><ele>191.4</ele><time>2026-04-13T08:45:18.251Z</time></trkpt><trkpt lat="43.3928887" lon="11.2091525"><ele>191.6</ele><time>2026-04-13T08:45:20.228Z</time></trkpt><trkpt lat="43.3928892" lon="11.2090059"><ele>191.8</ele><time>2026-04-13T08:45:22.235Z</time></trkpt><trkpt lat="43.3928869" lon="11.2088458"><ele>192.0</ele><time>2026-04-13T08:45:24.22Z</time></trkpt><trkpt lat="43.3928925" lon="11.208691"><ele>192.0</ele><time>2026-04-13T08:45:26.228Z</time></trkpt><trkpt lat="43.392898" lon="11.2085277"><ele>192.0</ele><time>2026-04-13T08:45:28.213Z</time></trkpt><trkpt lat="43.3929053" lon="11.208369"><ele>192.0</ele><time>2026-04-13T08:45:30.253Z</time></trkpt><trkpt lat="43.3929077" lon="11.2082083"><ele>192.0</ele><time>2026-04-13T08:45:32.217Z</time></trkpt><trkpt lat="43.3929125" lon="11.2080498"><ele>192.25</ele><time>2026-04-13T08:45:34.219Z</time></trkpt><trkpt lat="43.3929177" lon="11.2078906"><ele>192.5</ele><time>2026-04-13T08:45:36.248Z</time></trkpt><trkpt lat="43.3929209" lon="11.2077394"><ele>192.75</ele><time>2026-04-13T08:45:38.218Z</time></trkpt><trkpt lat="43.3929254" lon="11.2075881"><ele>193.0</ele><time>2026-04-13T08:45:40.222Z</time></trkpt><trkpt lat="43.392925" lon="11.2074259"><ele>193.5</ele><time>2026-04-13T08:45:42.238Z</time></trkpt><trkpt lat="43.392925" lon="11.2072536"><ele>194.0</ele><time>2026-04-13T08:45:44.219Z</time></trkpt><trkpt lat="43.3929311" lon="11.2070915"><ele>194.5</ele><time>2026-04-13T08:45:46.243Z</time></trkpt><trkpt lat="43.3929363" lon="11.2069342"><ele>195.0</ele><time>2026-04-13T08:45:48.229Z</time></trkpt><trkpt lat="43.3929391" lon="11.2067682"><ele>195.0</ele><time>2026-04-13T08:45:50.247Z</time></trkpt><trkpt lat="43.3929446" lon="11.2066061"><ele>195.0</ele><time>2026-04-13T08:45:52.217Z</time></trkpt><trkpt lat="43.3929431" lon="11.2064524"><ele>195.0</ele><time>2026-04-13T08:45:54.231Z</time></trkpt><trkpt lat="43.3929448" lon="11.2062912"><ele>195.0</ele><time>2026-04-13T08:45:56.236Z</time></trkpt><trkpt lat="43.3929462" lon="11.2061349"><ele>195.0</ele><time>2026-04-13T08:45:58.244Z</time></trkpt><trkpt lat="43.3929486" lon="11.2059687"><ele>195.0</ele><time>2026-04-13T08:46:00.235Z</time></trkpt><trkpt lat="43.3929487" lon="11.2058079"><ele>195.0</ele><time>2026-04-13T08:46:02.227Z</time></trkpt><trkpt lat="43.392955" lon="11.2056513"><ele>195.0</ele><time>2026-04-13T08:46:04.249Z</time></trkpt><trkpt lat="43.3929601" lon="11.2054987"><ele>195.5</ele><time>2026-04-13T08:46:06.237Z</time></trkpt><trkpt lat="43.3929599" lon="11.2053448"><ele>196.0</ele><time>2026-04-13T08:46:08.222Z</time></trkpt><trkpt lat="43.3929559" lon="11.2051811"><ele>196.5</ele><time>2026-04-13T08:46:10.227Z</time></trkpt><trkpt lat="43.392963" lon="11.2050261"><ele>197.0</ele><time>2026-04-13T08:46:12.258Z</time></trkpt><trkpt lat="43.392971" lon="11.2048678"><ele>197.25</ele><time>2026-04-13T08:46:14.246Z</time></trkpt><trkpt lat="43.3929777" lon="11.2047192"><ele>197.5</ele><time>2026-04-13T08:46:16.231Z</time></trkpt><trkpt lat="43.39298" lon="11.2045614"><ele>197.75</ele><time>2026-04-13T08:46:18.231Z</time></trkpt><trkpt lat="43.392983" lon="11.2043978"><ele>198.0</ele><time>2026-04-13T08:46:20.219Z</time></trkpt><trkpt lat="43.3929804" lon="11.2042324"><ele>198.0</ele><time>2026-04-13T08:46:22.22Z</time></trkpt><trkpt lat="43.3929808" lon="11.2040678"><ele>198.0</ele><time>2026-04-13T08:46:24.232Z</time></trkpt><trkpt lat="43.3929886" lon="11.2039179"><ele>198.0</ele><time>2026-04-13T08:46:26.219Z</time></trkpt><trkpt lat="43.3929981" lon="11.2037757"><ele>198.0</ele><time>2026-04-13T08:46:28.232Z</time></trkpt><trkpt lat="43.392995" lon="11.2036863"><ele>198.0</ele><time>2026-04-13T08:46:29.232Z</time></trkpt><trkpt lat="43.3929969" lon="11.2035955"><ele>198.0</ele><time>2026-04-13T08:46:30.225Z</time></trkpt><trkpt lat="43.393001" lon="11.203504"><ele>198.0</ele><time>2026-04-13T08:46:31.229Z</time></trkpt><trkpt lat="43.3930034" lon="11.2034161"><ele>198.0</ele><time>2026-04-13T08:46:32.228Z</time></trkpt><trkpt lat="43.3930054" lon="11.2033282"><ele>198.0</ele><time>2026-04-13T08:46:33.247Z</time></trkpt><trkpt lat="43.3930083" lon="11.2031624"><ele>198.0</ele><time>2026-04-13T08:46:35.225Z</time></trkpt><trkpt lat="43.3930103" lon="11.2030013"><ele>198.0</ele><time>2026-04-13T08:46:37.226Z</time></trkpt><trkpt lat="43.3930139" lon="11.2028407"><ele>198.0</ele><time>2026-04-13T08:46:39.235Z</time></trkpt><trkpt lat="43.3930199" lon="11.2026847"><ele>198.0</ele><time>2026-04-13T08:46:41.228Z</time></trkpt><trkpt lat="43.3930244" lon="11.2025328"><ele>198.0</ele><time>2026-04-13T08:46:43.241Z</time></trkpt><trkpt lat="43.3930275" lon="11.2023767"><ele>198.0</ele><time>2026-04-13T08:46:45.247Z</time></trkpt><trkpt lat="43.3930322" lon="11.2022167"><ele>198.75</ele><time>2026-04-13T08:46:47.249Z</time></trkpt><trkpt lat="43.3930389" lon="11.2020512"><ele>199.5</ele><time>2026-04-13T08:46:49.234Z</time></trkpt><trkpt lat="43.393043" lon="11.2018842"><ele>200.25</ele><time>2026-04-13T08:46:51.24Z</time></trkpt><trkpt lat="43.39303" lon="11.2017224"><ele>201.0</ele><time>2026-04-13T08:46:53.234Z</time></trkpt><trkpt lat="43.3930304" lon="11.2015577"><ele>201.0</ele><time>2026-04-13T08:46:55.232Z</time></trkpt><trkpt lat="43.3930397" lon="11.2013984"><ele>201.0</ele><time>2026-04-13T08:46:57.225Z</time></trkpt><trkpt lat="43.3930377" lon="11.2012368"><ele>201.0</ele><time>2026-04-13T08:46:59.244Z</time></trkpt><trkpt lat="43.3930387" lon="11.2010832"><ele>201.0</ele><time>2026-04-13T08:47:01.239Z</time></trkpt><trkpt lat="43.3930421" lon="11.2009265"><ele>201.0</ele><time>2026-04-13T08:47:03.252Z</time></trkpt><trkpt lat="43.3930444" lon="11.2007723"><ele>201.0</ele><time>2026-04-13T08:47:05.248Z</time></trkpt><trkpt lat="43.3930506" lon="11.2006189"><ele>201.0</ele><time>2026-04-13T08:47:07.253Z</time></trkpt><trkpt lat="43.3930551" lon="11.2004654"><ele>201.0</ele><time>2026-04-13T08:47:09.235Z</time></trkpt><trkpt lat="43.393056" lon="11.2002286"><ele>200.4</ele><time>2026-04-13T08:47:12.236Z</time></trkpt><trkpt lat="43.3930076" lon="11.2000883"><ele>199.8</ele><time>2026-04-13T08:47:14.257Z</time></trkpt><trkpt lat="43.3929091" lon="11.2000046"><ele>199.20000000000002</ele><time>2026-04-13T08:47:16.23Z</time></trkpt><trkpt lat="43.3927902" lon="11.1999494"><ele>198.60000000000002</ele><time>2026-04-13T08:47:18.228Z</time></trkpt><trkpt lat="43.3927252" lon="11.1999405"><ele>198.0</ele><time>2026-04-13T08:47:19.224Z</time></trkpt><trkpt lat="43.3926578" lon="11.199936"><ele>198.0</ele><time>2026-04-13T08:47:20.254Z</time></trkpt><trkpt lat="43.3925944" lon="11.1999314"><ele>198.0</ele><time>2026-04-13T08:47:21.225Z</time></trkpt><trkpt lat="43.3924758" lon="11.1999005"><ele>198.0</ele><time>2026-04-13T08:47:23.256Z</time></trkpt><trkpt lat="43.392363" lon="11.1998683"><ele>198.0</ele><time>2026-04-13T08:47:25.212Z</time></trkpt><trkpt lat="43.3922572" lon="11.1998243"><ele>198.0</ele><time>2026-04-13T08:47:27.25Z</time></trkpt><trkpt lat="43.392155" lon="11.1997787"><ele>198.2</ele><time>2026-04-13T08:47:29.248Z</time></trkpt><trkpt lat="43.3920468" lon="11.1997422"><ele>198.4</ele><time>2026-04-13T08:47:31.265Z</time></trkpt><trkpt lat="43.3919439" lon="11.1997067"><ele>198.6</ele><time>2026-04-13T08:47:33.248Z</time></trkpt><trkpt lat="43.3918396" lon="11.1996614"><ele>198.79999999999998</ele><time>2026-04-13T08:47:35.318Z</time></trkpt><trkpt lat="43.3917395" lon="11.1996208"><ele>199.0</ele><time>2026-04-13T08:47:37.24Z</time></trkpt><trkpt lat="43.3916384" lon="11.1995869"><ele>199.0</ele><time>2026-04-13T08:47:39.246Z</time></trkpt><trkpt lat="43.391543" lon="11.1995501"><ele>199.0</ele><time>2026-04-13T08:47:41.235Z</time></trkpt><trkpt lat="43.3914473" lon="11.1995167"><ele>199.0</ele><time>2026-04-13T08:47:43.247Z</time></trkpt><trkpt lat="43.3913495" lon="11.1994821"><ele>199.0</ele><time>2026-04-13T08:47:45.234Z</time></trkpt><trkpt lat="43.3912524" lon="11.1994575"><ele>199.0</ele><time>2026-04-13T08:47:47.241Z</time></trkpt><trkpt lat="43.391157" lon="11.1994281"><ele>199.79999999999998</ele><time>2026-04-13T08:47:49.307Z</time></trkpt><trkpt lat="43.3910648" lon="11.1994016"><ele>200.6</ele><time>2026-04-13T08:47:51.235Z</time></trkpt><trkpt lat="43.3909779" lon="11.1993566"><ele>201.4</ele><time>2026-04-13T08:47:53.233Z</time></trkpt><trkpt lat="43.390881" lon="11.1993294"><ele>202.2</ele><time>2026-04-13T08:47:55.244Z</time></trkpt><trkpt lat="43.3907729" lon="11.1992823"><ele>203.0</ele><time>2026-04-13T08:47:57.22Z</time></trkpt><trkpt lat="43.3906724" lon="11.1992348"><ele>203.0</ele><time>2026-04-13T08:47:59.329Z</time></trkpt><trkpt lat="43.3905919" lon="11.1992084"><ele>203.0</ele><time>2026-04-13T08:48:01.316Z</time></trkpt><trkpt lat="43.3904975" lon="11.1991809"><ele>203.0</ele><time>2026-04-13T08:48:03.291Z</time></trkpt><trkpt lat="43.3903958" lon="11.1991609"><ele>203.0</ele><time>2026-04-13T08:48:05.245Z</time></trkpt><trkpt lat="43.3902864" lon="11.1991236"><ele>203.0</ele><time>2026-04-13T08:48:07.24Z</time></trkpt><trkpt lat="43.3901863" lon="11.199083"><ele>202.60000000000002</ele><time>2026-04-13T08:48:09.25Z</time></trkpt><trkpt lat="43.3900861" lon="11.1990441"><ele>202.20000000000002</ele><time>2026-04-13T08:48:11.305Z</time></trkpt><trkpt lat="43.3899868" lon="11.1990015"><ele>201.8</ele><time>2026-04-13T08:48:13.245Z</time></trkpt><trkpt lat="43.3898821" lon="11.1989614"><ele>201.4</ele><time>2026-04-13T08:48:15.237Z</time></trkpt><trkpt lat="43.3897809" lon="11.1989135"><ele>201.0</ele><time>2026-04-13T08:48:17.246Z</time></trkpt><trkpt lat="43.3896845" lon="11.1988496"><ele>200.75</ele><time>2026-04-13T08:48:19.236Z</time></trkpt><trkpt lat="43.3896031" lon="11.1987375"><ele>200.5</ele><time>2026-04-13T08:48:21.243Z</time></trkpt><trkpt lat="43.389536" lon="11.1986083"><ele>200.25</ele><time>2026-04-13T08:48:23.229Z</time></trkpt><trkpt lat="43.3894732" lon="11.1984637"><ele>200.0</ele><time>2026-04-13T08:48:25.247Z</time></trkpt><trkpt lat="43.38942" lon="11.198319"><ele>200.0</ele><time>2026-04-13T08:48:27.252Z</time></trkpt><trkpt lat="43.3893734" lon="11.1981692"><ele>200.0</ele><time>2026-04-13T08:48:29.243Z</time></trkpt><trkpt lat="43.3893278" lon="11.1980274"><ele>200.0</ele><time>2026-04-13T08:48:31.249Z</time></trkpt><trkpt lat="43.3892808" lon="11.1978819"><ele>200.0</ele><time>2026-04-13T08:48:33.247Z</time></trkpt><trkpt lat="43.3892934" lon="11.1977311"><ele>199.83333333333334</ele><time>2026-04-13T08:48:35.315Z</time></trkpt><trkpt lat="43.3893005" lon="11.1976448"><ele>199.66666666666669</ele><time>2026-04-13T08:48:36.237Z</time></trkpt><trkpt lat="43.3892892" lon="11.1975358"><ele>199.5</ele><time>2026-04-13T08:48:37.259Z</time></trkpt><trkpt lat="43.3892762" lon="11.1974355"><ele>199.33333333333331</ele><time>2026-04-13T08:48:38.254Z</time></trkpt><trkpt lat="43.389257" lon="11.1972744"><ele>199.16666666666666</ele><time>2026-04-13T08:48:40.298Z</time></trkpt><trkpt lat="43.3892626" lon="11.1971849"><ele>199.0</ele><time>2026-04-13T08:48:41.246Z</time></trkpt><trkpt lat="43.3892618" lon="11.1970865"><ele>198.99999999999997</ele><time>2026-04-13T08:48:42.252Z</time></trkpt><trkpt lat="43.3892575" lon="11.1969937"><ele>199.0</ele><time>2026-04-13T08:48:43.246Z</time></trkpt><trkpt lat="43.3892465" lon="11.1969069"><ele>199.0</ele><time>2026-04-13T08:48:44.297Z</time></trkpt><trkpt lat="43.3892536" lon="11.1968206"><ele>199.0</ele><time>2026-04-13T08:48:45.22Z</time></trkpt><trkpt lat="43.3892596" lon="11.1967214"><ele>199.0</ele><time>2026-04-13T08:48:46.228Z</time></trkpt><trkpt lat="43.3892306" lon="11.1966369"><ele>198.99999999999997</ele><time>2026-04-13T08:48:47.255Z</time></trkpt><trkpt lat="43.3891942" lon="11.1965458"><ele>199.0</ele><time>2026-04-13T08:48:48.231Z</time></trkpt><trkpt lat="43.3891568" lon="11.1964602"><ele>199.14285714285714</ele><time>2026-04-13T08:48:49.231Z</time></trkpt><trkpt lat="43.3891191" lon="11.1963799"><ele>199.28571428571428</ele><time>2026-04-13T08:48:50.249Z</time></trkpt><trkpt lat="43.3890837" lon="11.1963007"><ele>199.42857142857144</ele><time>2026-04-13T08:48:51.247Z</time></trkpt><trkpt lat="43.3890439" lon="11.1962234"><ele>199.57142857142856</ele><time>2026-04-13T08:48:52.255Z</time></trkpt><trkpt lat="43.3890046" lon="11.1961463"><ele>199.71428571428572</ele><time>2026-04-13T08:48:53.24Z</time></trkpt><trkpt lat="43.3889653" lon="11.1960708"><ele>199.85714285714286</ele><time>2026-04-13T08:48:54.287Z</time></trkpt><trkpt lat="43.3889293" lon="11.1959989"><ele>200.0</ele><time>2026-04-13T08:48:55.247Z</time></trkpt><trkpt lat="43.3888912" lon="11.1959283"><ele>200.0</ele><time>2026-04-13T08:48:56.223Z</time></trkpt><trkpt lat="43.3888522" lon="11.1958592"><ele>200.0</ele><time>2026-04-13T08:48:57.231Z</time></trkpt><trkpt lat="43.3887804" lon="11.1957305"><ele>200.0</ele><time>2026-04-13T08:48:59.241Z</time></trkpt><trkpt lat="43.3887023" lon="11.1956219"><ele>200.0</ele><time>2026-04-13T08:49:01.249Z</time></trkpt><trkpt lat="43.3886258" lon="11.1955248"><ele>200.0</ele><time>2026-04-13T08:49:03.255Z</time></trkpt><trkpt lat="43.3885586" lon="11.1954322"><ele>200.14285714285717</ele><time>2026-04-13T08:49:05.235Z</time></trkpt><trkpt lat="43.388493" lon="11.1953502"><ele>200.28571428571428</ele><time>2026-04-13T08:49:07.249Z</time></trkpt><trkpt lat="43.3884358" lon="11.1952738"><ele>200.42857142857144</ele><time>2026-04-13T08:49:09.231Z</time></trkpt><trkpt lat="43.38838" lon="11.1952008"><ele>200.57142857142858</ele><time>2026-04-13T08:49:11.251Z</time></trkpt><trkpt lat="43.3883301" lon="11.1951302"><ele>200.71428571428572</ele><time>2026-04-13T08:49:13.239Z</time></trkpt><trkpt lat="43.3882844" lon="11.195063"><ele>200.85714285714286</ele><time>2026-04-13T08:49:15.238Z</time></trkpt><trkpt lat="43.3882401" lon="11.1949981"><ele>201.0</ele><time>2026-04-13T08:49:17.225Z</time></trkpt><trkpt lat="43.3881928" lon="11.1949337"><ele>201.0</ele><time>2026-04-13T08:49:19.247Z</time></trkpt><trkpt lat="43.3881237" lon="11.1948609"><ele>201.0</ele><time>2026-04-13T08:49:22.231Z</time></trkpt><trkpt lat="43.3880603" lon="11.1948244"><ele>201.0</ele><time>2026-04-13T08:49:25.251Z</time></trkpt><trkpt lat="43.3879995" lon="11.1947955"><ele>201.0</ele><time>2026-04-13T08:49:54.24Z</time></trkpt><trkpt lat="43.3880065" lon="11.1946905"><ele>201.0</ele><time>2026-04-13T08:50:27.245Z</time></trkpt><trkpt lat="43.3879556" lon="11.1946177"><ele>201.0</ele><time>2026-04-13T08:50:30.245Z</time></trkpt><trkpt lat="43.3878915" lon="11.1945433"><ele>201.83333333333334</ele><time>2026-04-13T08:50:33.248Z</time></trkpt><trkpt lat="43.3878258" lon="11.1944592"><ele>202.66666666666669</ele><time>2026-04-13T08:50:36.237Z</time></trkpt><trkpt lat="43.3877665" lon="11.1943766"><ele>203.5</ele><time>2026-04-13T08:50:39.227Z</time></trkpt><trkpt lat="43.3877038" lon="11.1943"><ele>204.33333333333334</ele><time>2026-04-13T08:50:42.244Z</time></trkpt><trkpt lat="43.3876276" lon="11.1942214"><ele>205.16666666666669</ele><time>2026-04-13T08:50:45.21Z</time></trkpt><trkpt lat="43.3875707" lon="11.1941513"><ele>206.0</ele><time>2026-04-13T08:50:48.251Z</time></trkpt><trkpt lat="43.3875188" lon="11.1940628"><ele>205.99999999999997</ele><time>2026-04-13T08:50:51.317Z</time></trkpt><trkpt lat="43.3874735" lon="11.1939834"><ele>206.0</ele><time>2026-04-13T08:50:53.237Z</time></trkpt><trkpt lat="43.3874252" lon="11.1939222"><ele>206.0</ele><time>2026-04-13T08:50:55.239Z</time></trkpt><trkpt lat="43.3873878" lon="11.193829"><ele>206.0</ele><time>2026-04-13T08:50:58.322Z</time></trkpt><trkpt lat="43.3873675" lon="11.1937381"><ele>206.0</ele><time>2026-04-13T08:51:00.244Z</time></trkpt><trkpt lat="43.3873271" lon="11.1936391"><ele>205.99999999999997</ele><time>2026-04-13T08:51:04.24Z</time></trkpt><trkpt lat="43.3872846" lon="11.1935743"><ele>206.0</ele><time>2026-04-13T08:51:06.238Z</time></trkpt><trkpt lat="43.3872381" lon="11.1934809"><ele>206.00000000000003</ele><time>2026-04-13T08:51:09.247Z</time></trkpt><trkpt lat="43.3871957" lon="11.1933918"><ele>206.0</ele><time>2026-04-13T08:51:12.24Z</time></trkpt><trkpt lat="43.3871444" lon="11.1932894"><ele>206.0</ele><time>2026-04-13T08:51:15.311Z</time></trkpt><trkpt lat="43.3871187" lon="11.1931845"><ele>206.0</ele><time>2026-04-13T08:51:18.24Z</time></trkpt><trkpt lat="43.387086" lon="11.1930979"><ele>206.00000000000003</ele><time>2026-04-13T08:51:21.306Z</time></trkpt><trkpt lat="43.3870261" lon="11.1930324"><ele>206.0</ele><time>2026-04-13T08:51:24.314Z</time></trkpt><trkpt lat="43.3869896" lon="11.1929614"><ele>206.99999999999997</ele><time>2026-04-13T08:51:26.244Z</time></trkpt><trkpt lat="43.3869477" lon="11.1928723"><ele>208.0</ele><time>2026-04-13T08:51:29.294Z</time></trkpt><trkpt lat="43.3869187" lon="11.192771"><ele>209.0</ele><time>2026-04-13T08:51:32.238Z</time></trkpt><trkpt lat="43.3868745" lon="11.1926913"><ele>210.0</ele><time>2026-04-13T08:51:35.299Z</time></trkpt><trkpt lat="43.3868358" lon="11.1926142"><ele>211.0</ele><time>2026-04-13T08:51:38.245Z</time></trkpt><trkpt lat="43.3868029" lon="11.1925286"><ele>211.99999999999997</ele><time>2026-04-13T08:51:41.247Z</time></trkpt><trkpt lat="43.3867646" lon="11.1924415"><ele>213.0</ele><time>2026-04-13T08:51:44.301Z</time></trkpt><trkpt lat="43.3867358" lon="11.1923402"><ele>213.28571428571428</ele><time>2026-04-13T08:51:47.247Z</time></trkpt><trkpt lat="43.3867085" lon="11.1922614"><ele>213.57142857142856</ele><time>2026-04-13T08:51:50.257Z</time></trkpt><trkpt lat="43.3866677" lon="11.1921871"><ele>213.85714285714283</ele><time>2026-04-13T08:51:53.241Z</time></trkpt><trkpt lat="43.3866268" lon="11.1921056"><ele>214.14285714285714</ele><time>2026-04-13T08:51:56.236Z</time></trkpt><trkpt lat="43.38658" lon="11.1920196"><ele>214.42857142857144</ele><time>2026-04-13T08:51:59.248Z</time></trkpt><trkpt lat="43.3865417" lon="11.1919295"><ele>214.7142857142857</ele><time>2026-04-13T08:52:02.251Z</time></trkpt><trkpt lat="43.3865076" lon="11.1918444"><ele>215.0</ele><time>2026-04-13T08:52:05.308Z</time></trkpt><trkpt lat="43.3864712" lon="11.1917681"><ele>215.00000000000003</ele><time>2026-04-13T08:52:08.242Z</time></trkpt><trkpt lat="43.3864212" lon="11.1916653"><ele>215.0</ele><time>2026-04-13T08:52:11.235Z</time></trkpt><trkpt lat="43.3863835" lon="11.1915757"><ele>215.0</ele><time>2026-04-13T08:52:14.319Z</time></trkpt><trkpt lat="43.3863921" lon="11.1914742"><ele>215.0</ele><time>2026-04-13T08:52:17.225Z</time></trkpt><trkpt lat="43.3863329" lon="11.1914147"><ele>215.00000000000003</ele><time>2026-04-13T08:52:21.297Z</time></trkpt><trkpt lat="43.3862909" lon="11.1913222"><ele>215.0</ele><time>2026-04-13T08:52:25.244Z</time></trkpt><trkpt lat="43.3862439" lon="11.1912296"><ele>216.28571428571428</ele><time>2026-04-13T08:52:28.24Z</time></trkpt><trkpt lat="43.3862083" lon="11.1911496"><ele>217.57142857142858</ele><time>2026-04-13T08:52:31.233Z</time></trkpt><trkpt lat="43.3861701" lon="11.1910704"><ele>218.85714285714286</ele><time>2026-04-13T08:52:34.25Z</time></trkpt><trkpt lat="43.386135" lon="11.1909909"><ele>220.14285714285714</ele><time>2026-04-13T08:52:37.22Z</time></trkpt><trkpt lat="43.3861028" lon="11.190901"><ele>221.42857142857144</ele><time>2026-04-13T08:52:40.256Z</time></trkpt><trkpt lat="43.3860689" lon="11.1908197"><ele>222.71428571428572</ele><time>2026-04-13T08:52:43.24Z</time></trkpt><trkpt lat="43.386031" lon="11.1907446"><ele>224.0</ele><time>2026-04-13T08:52:46.314Z</time></trkpt><trkpt lat="43.3859959" lon="11.1906702"><ele>224.42857142857144</ele><time>2026-04-13T08:52:49.311Z</time></trkpt><trkpt lat="43.3859589" lon="11.1905949"><ele>224.85714285714286</ele><time>2026-04-13T08:52:51.247Z</time></trkpt><trkpt lat="43.3859286" lon="11.190502"><ele>225.28571428571428</ele><time>2026-04-13T08:52:55.313Z</time></trkpt><trkpt lat="43.3858865" lon="11.1904081"><ele>225.71428571428572</ele><time>2026-04-13T08:52:59.306Z</time></trkpt><trkpt lat="43.3858524" lon="11.1903216"><ele>226.14285714285717</ele><time>2026-04-13T08:53:02.244Z</time></trkpt><trkpt lat="43.3858251" lon="11.1902432"><ele>226.57142857142858</ele><time>2026-04-13T08:53:05.293Z</time></trkpt><trkpt lat="43.3857973" lon="11.1901636"><ele>227.0</ele><time>2026-04-13T08:53:08.244Z</time></trkpt><trkpt lat="43.3857718" lon="11.1900563"><ele>227.0</ele><time>2026-04-13T08:53:12.249Z</time></trkpt><trkpt lat="43.3857464" lon="11.189973"><ele>227.00000000000003</ele><time>2026-04-13T08:53:15.32Z</time></trkpt><trkpt lat="43.3857214" lon="11.1898774"><ele>227.0</ele><time>2026-04-13T08:53:18.24Z</time></trkpt><trkpt lat="43.3856965" lon="11.1897764"><ele>227.0</ele><time>2026-04-13T08:53:21.246Z</time></trkpt><trkpt lat="43.3856905" lon="11.1896775"><ele>227.00000000000003</ele><time>2026-04-13T08:53:24.297Z</time></trkpt><trkpt lat="43.3856775" lon="11.189575"><ele>227.0</ele><time>2026-04-13T08:53:27.251Z</time></trkpt><trkpt lat="43.3856741" lon="11.1894686"><ele>227.0</ele><time>2026-04-13T08:53:30.247Z</time></trkpt><trkpt lat="43.3856736" lon="11.1893646"><ele>227.16666666666669</ele><time>2026-04-13T08:53:33.237Z</time></trkpt><trkpt lat="43.3856702" lon="11.1892657"><ele>227.33333333333334</ele><time>2026-04-13T08:53:36.222Z</time></trkpt><trkpt lat="43.3856708" lon="11.1891481"><ele>227.5</ele><time>2026-04-13T08:53:39.308Z</time></trkpt><trkpt lat="43.3856951" lon="11.1890367"><ele>227.66666666666669</ele><time>2026-04-13T08:53:41.234Z</time></trkpt><trkpt lat="43.3856925" lon="11.188936"><ele>227.83333333333334</ele><time>2026-04-13T08:53:44.316Z</time></trkpt><trkpt lat="43.3856808" lon="11.1888467"><ele>228.0</ele><time>2026-04-13T08:53:46.239Z</time></trkpt><trkpt lat="43.3856802" lon="11.1887504"><ele>228.0</ele><time>2026-04-13T08:53:48.23Z</time></trkpt><trkpt lat="43.3856676" lon="11.1886397"><ele>228.0</ele><time>2026-04-13T08:53:50.234Z</time></trkpt><trkpt lat="43.3856545" lon="11.1885094"><ele>228.0</ele><time>2026-04-13T08:53:52.215Z</time></trkpt><trkpt lat="43.3856313" lon="11.1883741"><ele>228.0</ele><time>2026-04-13T08:53:54.318Z</time></trkpt><trkpt lat="43.3856092" lon="11.1882249"><ele>228.0</ele><time>2026-04-13T08:53:56.249Z</time></trkpt><trkpt lat="43.3855854" lon="11.1880612"><ele>228.0</ele><time>2026-04-13T08:53:58.239Z</time></trkpt><trkpt lat="43.3855752" lon="11.1879753"><ele>227.99999999999997</ele><time>2026-04-13T08:53:59.25Z</time></trkpt><trkpt lat="43.3855563" lon="11.1878922"><ele>228.0</ele><time>2026-04-13T08:54:00.323Z</time></trkpt><trkpt lat="43.3855407" lon="11.187806"><ele>228.0</ele><time>2026-04-13T08:54:01.243Z</time></trkpt><trkpt lat="43.3855193" lon="11.1877166"><ele>227.99999999999997</ele><time>2026-04-13T08:54:02.25Z</time></trkpt><trkpt lat="43.3854992" lon="11.1876324"><ele>228.0</ele><time>2026-04-13T08:54:03.247Z</time></trkpt><trkpt lat="43.3854774" lon="11.1874779"><ele>228.0</ele><time>2026-04-13T08:54:05.246Z</time></trkpt><trkpt lat="43.3854513" lon="11.1873308"><ele>229.0</ele><time>2026-04-13T08:54:07.244Z</time></trkpt><trkpt lat="43.3854334" lon="11.1872017"><ele>230.0</ele><time>2026-04-13T08:54:09.243Z</time></trkpt><trkpt lat="43.3854149" lon="11.1870818"><ele>231.0</ele><time>2026-04-13T08:54:11.233Z</time></trkpt><trkpt lat="43.3853907" lon="11.1869627"><ele>232.0</ele><time>2026-04-13T08:54:13.234Z</time></trkpt><trkpt lat="43.3853689" lon="11.1868592"><ele>233.0</ele><time>2026-04-13T08:54:15.307Z</time></trkpt><trkpt lat="43.3853427" lon="11.1867547"><ele>234.0</ele><time>2026-04-13T08:54:17.254Z</time></trkpt><trkpt lat="43.3853199" lon="11.1866575"><ele>234.0</ele><time>2026-04-13T08:54:19.314Z</time></trkpt><trkpt lat="43.3852823" lon="11.1865583"><ele>234.0</ele><time>2026-04-13T08:54:21.233Z</time></trkpt><trkpt lat="43.3852348" lon="11.1864695"><ele>234.0</ele><time>2026-04-13T08:54:23.247Z</time></trkpt><trkpt lat="43.3851866" lon="11.1864002"><ele>234.0</ele><time>2026-04-13T08:54:25.311Z</time></trkpt><trkpt lat="43.3851304" lon="11.1862953"><ele>234.0</ele><time>2026-04-13T08:54:27.251Z</time></trkpt><trkpt lat="43.3850805" lon="11.1862052"><ele>234.0</ele><time>2026-04-13T08:54:29.31Z</time></trkpt><trkpt lat="43.3850387" lon="11.1860821"><ele>234.0</ele><time>2026-04-13T08:54:32.24Z</time></trkpt><trkpt lat="43.3849808" lon="11.1859981"><ele>233.99999999999997</ele><time>2026-04-13T08:54:34.256Z</time></trkpt><trkpt lat="43.3849177" lon="11.185911"><ele>233.99999999999997</ele><time>2026-04-13T08:54:36.258Z</time></trkpt><trkpt lat="43.384862" lon="11.1858101"><ele>234.0</ele><time>2026-04-13T08:54:38.243Z</time></trkpt><trkpt lat="43.384798" lon="11.1857152"><ele>234.0</ele><time>2026-04-13T08:54:40.229Z</time></trkpt><trkpt lat="43.3847318" lon="11.1856099"><ele>234.0</ele><time>2026-04-13T08:54:42.255Z</time></trkpt><trkpt lat="43.384662" lon="11.1855021"><ele>234.0</ele><time>2026-04-13T08:54:44.232Z</time></trkpt><trkpt lat="43.3845537" lon="11.1853619"><ele>234.0</ele><time>2026-04-13T08:54:47.24Z</time></trkpt><trkpt lat="43.3845058" lon="11.1852265"><ele>234.0</ele><time>2026-04-13T08:54:49.256Z</time></trkpt><trkpt lat="43.3844402" lon="11.1851303"><ele>234.0</ele><time>2026-04-13T08:54:51.224Z</time></trkpt><trkpt lat="43.3843812" lon="11.1850209"><ele>233.99999999999997</ele><time>2026-04-13T08:54:53.237Z</time></trkpt><trkpt lat="43.3843214" lon="11.1849097"><ele>233.99999999999997</ele><time>2026-04-13T08:54:55.298Z</time></trkpt><trkpt lat="43.3842647" lon="11.1847964"><ele>234.0</ele><time>2026-04-13T08:54:57.228Z</time></trkpt><trkpt lat="43.3842017" lon="11.1846858"><ele>234.0</ele><time>2026-04-13T08:54:59.31Z</time></trkpt><trkpt lat="43.3841607" lon="11.184569"><ele>233.79999999999998</ele><time>2026-04-13T08:55:01.306Z</time></trkpt><trkpt lat="43.384099" lon="11.184469"><ele>233.59999999999997</ele><time>2026-04-13T08:55:03.239Z</time></trkpt><trkpt lat="43.3840554" lon="11.184356"><ele>233.4</ele><time>2026-04-13T08:55:05.313Z</time></trkpt><trkpt lat="43.3840002" lon="11.1842394"><ele>233.2</ele><time>2026-04-13T08:55:07.237Z</time></trkpt><trkpt lat="43.3839194" lon="11.1841303"><ele>233.0</ele><time>2026-04-13T08:55:09.302Z</time></trkpt><trkpt lat="43.3838583" lon="11.1840218"><ele>234.0</ele><time>2026-04-13T08:55:11.229Z</time></trkpt><trkpt lat="43.3837988" lon="11.183911"><ele>235.0</ele><time>2026-04-13T08:55:13.231Z</time></trkpt><trkpt lat="43.3837525" lon="11.1838048"><ele>236.0</ele><time>2026-04-13T08:55:15.239Z</time></trkpt><trkpt lat="43.3837169" lon="11.1837048"><ele>237.0</ele><time>2026-04-13T08:55:17.238Z</time></trkpt><trkpt lat="43.3836537" lon="11.1835965"><ele>238.0</ele><time>2026-04-13T08:55:19.232Z</time></trkpt><trkpt lat="43.3835859" lon="11.1834878"><ele>238.0</ele><time>2026-04-13T08:55:21.308Z</time></trkpt><trkpt lat="43.3835207" lon="11.1833492"><ele>238.0</ele><time>2026-04-13T08:55:23.235Z</time></trkpt><trkpt lat="43.3834646" lon="11.1832413"><ele>238.0</ele><time>2026-04-13T08:55:25.236Z</time></trkpt><trkpt lat="43.3834104" lon="11.1831237"><ele>238.0</ele><time>2026-04-13T08:55:27.235Z</time></trkpt><trkpt lat="43.3833673" lon="11.1829923"><ele>238.0</ele><time>2026-04-13T08:55:29.315Z</time></trkpt><trkpt lat="43.3833518" lon="11.182907"><ele>238.0</ele><time>2026-04-13T08:55:30.228Z</time></trkpt><trkpt lat="43.3833122" lon="11.182779"><ele>238.0</ele><time>2026-04-13T08:55:32.244Z</time></trkpt><trkpt lat="43.3832986" lon="11.1826658"><ele>238.0</ele><time>2026-04-13T08:55:34.309Z</time></trkpt><trkpt lat="43.3832719" lon="11.1825391"><ele>238.0</ele><time>2026-04-13T08:55:36.247Z</time></trkpt><trkpt lat="43.3832451" lon="11.1823983"><ele>238.0</ele><time>2026-04-13T08:55:38.232Z</time></trkpt><trkpt lat="43.3832258" lon="11.1822658"><ele>237.60000000000002</ele><time>2026-04-13T08:55:40.247Z</time></trkpt><trkpt lat="43.3832031" lon="11.1821364"><ele>237.20000000000002</ele><time>2026-04-13T08:55:42.236Z</time></trkpt><trkpt lat="43.3831885" lon="11.1820011"><ele>236.8</ele><time>2026-04-13T08:55:44.249Z</time></trkpt><trkpt lat="43.3831874" lon="11.1818555"><ele>236.4</ele><time>2026-04-13T08:55:46.239Z</time></trkpt><trkpt lat="43.3831971" lon="11.1817286"><ele>236.0</ele><time>2026-04-13T08:55:48.242Z</time></trkpt><trkpt lat="43.3831472" lon="11.1816234"><ele>236.0</ele><time>2026-04-13T08:55:50.311Z</time></trkpt><trkpt lat="43.3830986" lon="11.181498"><ele>236.00000000000003</ele><time>2026-04-13T08:55:52.238Z</time></trkpt><trkpt lat="43.383052" lon="11.1813829"><ele>236.00000000000003</ele><time>2026-04-13T08:55:54.246Z</time></trkpt><trkpt lat="43.3829961" lon="11.1812707"><ele>236.0</ele><time>2026-04-13T08:55:56.253Z</time></trkpt><trkpt lat="43.3829365" lon="11.1811579"><ele>236.0</ele><time>2026-04-13T08:55:58.237Z</time></trkpt><trkpt lat="43.3828738" lon="11.1810488"><ele>237.0</ele><time>2026-04-13T08:56:00.225Z</time></trkpt><trkpt lat="43.3828092" lon="11.1809461"><ele>238.00000000000003</ele><time>2026-04-13T08:56:02.235Z</time></trkpt><trkpt lat="43.3827474" lon="11.1808444"><ele>239.00000000000003</ele><time>2026-04-13T08:56:04.245Z</time></trkpt><trkpt lat="43.3826886" lon="11.1807439"><ele>240.0</ele><time>2026-04-13T08:56:06.246Z</time></trkpt><trkpt lat="43.3826299" lon="11.1806411"><ele>241.0</ele><time>2026-04-13T08:56:08.248Z</time></trkpt><trkpt lat="43.3825704" lon="11.180538"><ele>241.0</ele><time>2026-04-13T08:56:10.247Z</time></trkpt><trkpt lat="43.3825116" lon="11.180435"><ele>241.00000000000003</ele><time>2026-04-13T08:56:12.241Z</time></trkpt><trkpt lat="43.3824519" lon="11.1803288"><ele>241.00000000000003</ele><time>2026-04-13T08:56:14.238Z</time></trkpt><trkpt lat="43.3823974" lon="11.1802362"><ele>241.0</ele><time>2026-04-13T08:56:16.306Z</time></trkpt><trkpt lat="43.3823422" lon="11.1801451"><ele>241.0</ele><time>2026-04-13T08:56:18.243Z</time></trkpt><trkpt lat="43.3822842" lon="11.1800583"><ele>240.99999999999997</ele><time>2026-04-13T08:56:20.245Z</time></trkpt><trkpt lat="43.3822347" lon="11.1799787"><ele>241.0</ele><time>2026-04-13T08:56:22.235Z</time></trkpt><trkpt lat="43.3821875" lon="11.1799034"><ele>241.0</ele><time>2026-04-13T08:56:24.302Z</time></trkpt><trkpt lat="43.3821534" lon="11.1798178"><ele>241.0</ele><time>2026-04-13T08:56:26.233Z</time></trkpt><trkpt lat="43.3820855" lon="11.1797509"><ele>240.99999999999997</ele><time>2026-04-13T08:56:28.247Z</time></trkpt><trkpt lat="43.3820123" lon="11.1796783"><ele>241.0</ele><time>2026-04-13T08:56:30.298Z</time></trkpt><trkpt lat="43.3819473" lon="11.179608"><ele>241.66666666666666</ele><time>2026-04-13T08:56:32.239Z</time></trkpt><trkpt lat="43.3818715" lon="11.1795383"><ele>242.33333333333331</ele><time>2026-04-13T08:56:34.24Z</time></trkpt><trkpt lat="43.3818079" lon="11.1794815"><ele>243.0</ele><time>2026-04-13T08:56:36.228Z</time></trkpt><trkpt lat="43.3817424" lon="11.1794107"><ele>243.66666666666669</ele><time>2026-04-13T08:56:38.232Z</time></trkpt><trkpt lat="43.3816766" lon="11.1793574"><ele>244.33333333333334</ele><time>2026-04-13T08:56:40.241Z</time></trkpt><trkpt lat="43.3816152" lon="11.1792911"><ele>245.0</ele><time>2026-04-13T08:56:42.226Z</time></trkpt><trkpt lat="43.3815516" lon="11.17923"><ele>245.0</ele><time>2026-04-13T08:56:44.313Z</time></trkpt><trkpt lat="43.3813506" lon="11.1790783"><ele>245.0</ele><time>2026-04-13T08:56:49.223Z</time></trkpt><trkpt lat="43.3812989" lon="11.1789777"><ele>245.0</ele><time>2026-04-13T08:56:52.243Z</time></trkpt><trkpt lat="43.3812235" lon="11.1789139"><ele>245.0</ele><time>2026-04-13T08:56:54.244Z</time></trkpt><trkpt lat="43.3811486" lon="11.1788494"><ele>245.50000000000003</ele><time>2026-04-13T08:56:56.245Z</time></trkpt><trkpt lat="43.3810837" lon="11.1787796"><ele>246.0</ele><time>2026-04-13T08:56:58.235Z</time></trkpt><trkpt lat="43.3810179" lon="11.1787144"><ele>246.5</ele><time>2026-04-13T08:57:00.24Z</time></trkpt><trkpt lat="43.3809518" lon="11.178653"><ele>247.0</ele><time>2026-04-13T08:57:02.242Z</time></trkpt><trkpt lat="43.3808811" lon="11.1785908"><ele>247.50000000000003</ele><time>2026-04-13T08:57:04.247Z</time></trkpt><trkpt lat="43.3808026" lon="11.1785186"><ele>248.0</ele><time>2026-04-13T08:57:06.22Z</time></trkpt><trkpt lat="43.3806774" lon="11.1783456"><ele>248.0</ele><time>2026-04-13T08:57:10.297Z</time></trkpt><trkpt lat="43.3806001" lon="11.1783004"><ele>248.0</ele><time>2026-04-13T08:57:13.225Z</time></trkpt><trkpt lat="43.3805221" lon="11.1781947"><ele>248.0</ele><time>2026-04-13T08:57:15.226Z</time></trkpt><trkpt lat="43.3804462" lon="11.1780972"><ele>248.0</ele><time>2026-04-13T08:57:17.235Z</time></trkpt><trkpt lat="43.380383" lon="11.1779998"><ele>248.0</ele><time>2026-04-13T08:57:19.305Z</time></trkpt><trkpt lat="43.3803116" lon="11.1779032"><ele>248.8</ele><time>2026-04-13T08:57:21.216Z</time></trkpt><trkpt lat="43.3802418" lon="11.1778116"><ele>249.60000000000002</ele><time>2026-04-13T08:57:23.233Z</time></trkpt><trkpt lat="43.3801691" lon="11.1777091"><ele>250.39999999999998</ele><time>2026-04-13T08:57:25.238Z</time></trkpt><trkpt lat="43.3800969" lon="11.1776054"><ele>251.2</ele><time>2026-04-13T08:57:27.241Z</time></trkpt><trkpt lat="43.3800283" lon="11.1774999"><ele>252.0</ele><time>2026-04-13T08:57:29.24Z</time></trkpt><trkpt lat="43.379954" lon="11.1773998"><ele>251.0</ele><time>2026-04-13T08:57:31.233Z</time></trkpt><trkpt lat="43.3798806" lon="11.177304"><ele>250.0</ele><time>2026-04-13T08:57:33.237Z</time></trkpt><trkpt lat="43.3798066" lon="11.1772072"><ele>249.0</ele><time>2026-04-13T08:57:35.327Z</time></trkpt><trkpt lat="43.3797354" lon="11.1771163"><ele>248.0</ele><time>2026-04-13T08:57:37.217Z</time></trkpt><trkpt lat="43.3796671" lon="11.1770191"><ele>247.0</ele><time>2026-04-13T08:57:39.229Z</time></trkpt><trkpt lat="43.3795944" lon="11.1769315"><ele>249.0</ele><time>2026-04-13T08:57:41.212Z</time></trkpt><trkpt lat="43.3795313" lon="11.1768703"><ele>251.0</ele><time>2026-04-13T08:57:43.23Z</time></trkpt><trkpt lat="43.3794535" lon="11.1767959"><ele>253.0</ele><time>2026-04-13T08:57:45.259Z</time></trkpt><trkpt lat="43.3793702" lon="11.1767075"><ele>255.0</ele><time>2026-04-13T08:57:47.242Z</time></trkpt><trkpt lat="43.3792835" lon="11.1766338"><ele>257.0</ele><time>2026-04-13T08:57:49.246Z</time></trkpt><trkpt lat="43.379199" lon="11.1765566"><ele>255.6</ele><time>2026-04-13T08:57:51.243Z</time></trkpt><trkpt lat="43.379119" lon="11.1764835"><ele>254.2</ele><time>2026-04-13T08:57:53.337Z</time></trkpt><trkpt lat="43.3790521" lon="11.1764051"><ele>252.8</ele><time>2026-04-13T08:57:55.241Z</time></trkpt><trkpt lat="43.3789858" lon="11.1763274"><ele>251.4</ele><time>2026-04-13T08:57:57.26Z</time></trkpt><trkpt lat="43.378936" lon="11.1762168"><ele>250.0</ele><time>2026-04-13T08:57:59.237Z</time></trkpt><trkpt lat="43.3789002" lon="11.1760813"><ele>250.0</ele><time>2026-04-13T08:58:01.238Z</time></trkpt><trkpt lat="43.378867" lon="11.1759569"><ele>250.0</ele><time>2026-04-13T08:58:03.24Z</time></trkpt><trkpt lat="43.3788457" lon="11.1758308"><ele>250.0</ele><time>2026-04-13T08:58:05.245Z</time></trkpt><trkpt lat="43.37885" lon="11.1757127"><ele>250.0</ele><time>2026-04-13T08:58:07.246Z</time></trkpt><trkpt lat="43.3788694" lon="11.1755944"><ele>250.0</ele><time>2026-04-13T08:58:09.239Z</time></trkpt><trkpt lat="43.3788872" lon="11.1754687"><ele>250.33333333333331</ele><time>2026-04-13T08:58:11.255Z</time></trkpt><trkpt lat="43.3789107" lon="11.1753499"><ele>250.66666666666666</ele><time>2026-04-13T08:58:13.236Z</time></trkpt><trkpt lat="43.3789283" lon="11.1752338"><ele>251.0</ele><time>2026-04-13T08:58:15.247Z</time></trkpt><trkpt lat="43.378946" lon="11.1751195"><ele>251.33333333333331</ele><time>2026-04-13T08:58:17.241Z</time></trkpt><trkpt lat="43.3789595" lon="11.1750097"><ele>251.66666666666666</ele><time>2026-04-13T08:58:19.253Z</time></trkpt><trkpt lat="43.37897" lon="11.1748998"><ele>252.0</ele><time>2026-04-13T08:58:21.239Z</time></trkpt><trkpt lat="43.3789882" lon="11.1748012"><ele>252.85714285714286</ele><time>2026-04-13T08:58:23.236Z</time></trkpt><trkpt lat="43.3790118" lon="11.1747045"><ele>253.71428571428572</ele><time>2026-04-13T08:58:25.254Z</time></trkpt><trkpt lat="43.3790302" lon="11.1746061"><ele>254.57142857142856</ele><time>2026-04-13T08:58:27.249Z</time></trkpt><trkpt lat="43.3790434" lon="11.1745112"><ele>255.42857142857142</ele><time>2026-04-13T08:58:29.251Z</time></trkpt><trkpt lat="43.3790476" lon="11.1744181"><ele>256.2857142857143</ele><time>2026-04-13T08:58:31.235Z</time></trkpt><trkpt lat="43.3790436" lon="11.1743314"><ele>257.1428571428571</ele><time>2026-04-13T08:58:33.245Z</time></trkpt><trkpt lat="43.379044" lon="11.1742086"><ele>258.0</ele><time>2026-04-13T08:58:36.307Z</time></trkpt><trkpt lat="43.3790107" lon="11.1740879"><ele>258.8333333333333</ele><time>2026-04-13T08:58:39.228Z</time></trkpt><trkpt lat="43.3789973" lon="11.173981"><ele>259.6666666666667</ele><time>2026-04-13T08:58:42.241Z</time></trkpt><trkpt lat="43.3789702" lon="11.1738946"><ele>260.5</ele><time>2026-04-13T08:58:45.233Z</time></trkpt><trkpt lat="43.3789324" lon="11.1738199"><ele>261.33333333333337</ele><time>2026-04-13T08:58:47.244Z</time></trkpt><trkpt lat="43.3788804" lon="11.173724"><ele>262.1666666666667</ele><time>2026-04-13T08:58:50.235Z</time></trkpt><trkpt lat="43.3788382" lon="11.1736312"><ele>263.0</ele><time>2026-04-13T08:58:53.241Z</time></trkpt><trkpt lat="43.3787969" lon="11.1735317"><ele>263.0</ele><time>2026-04-13T08:58:56.242Z</time></trkpt><trkpt lat="43.3787553" lon="11.173436"><ele>263.0</ele><time>2026-04-13T08:58:59.21Z</time></trkpt><trkpt lat="43.378711" lon="11.1733444"><ele>263.0</ele><time>2026-04-13T08:59:02.241Z</time></trkpt><trkpt lat="43.3786711" lon="11.1732477"><ele>263.0</ele><time>2026-04-13T08:59:05.246Z</time></trkpt><trkpt lat="43.3786296" lon="11.1731579"><ele>263.0</ele><time>2026-04-13T08:59:08.245Z</time></trkpt><trkpt lat="43.378589" lon="11.1730743"><ele>263.0</ele><time>2026-04-13T08:59:11.301Z</time></trkpt><trkpt lat="43.3785579" lon="11.1729725"><ele>263.83333333333337</ele><time>2026-04-13T08:59:14.25Z</time></trkpt><trkpt lat="43.3785313" lon="11.1728771"><ele>264.6666666666667</ele><time>2026-04-13T08:59:17.238Z</time></trkpt><trkpt lat="43.3785094" lon="11.1727873"><ele>265.5</ele><time>2026-04-13T08:59:20.308Z</time></trkpt><trkpt lat="43.378475" lon="11.1726787"><ele>266.3333333333333</ele><time>2026-04-13T08:59:23.235Z</time></trkpt><trkpt lat="43.3784696" lon="11.1725641"><ele>267.16666666666663</ele><time>2026-04-13T08:59:26.25Z</time></trkpt><trkpt lat="43.3784738" lon="11.172448"><ele>268.0</ele><time>2026-04-13T08:59:29.223Z</time></trkpt><trkpt lat="43.3784799" lon="11.1723354"><ele>268.0</ele><time>2026-04-13T08:59:32.243Z</time></trkpt><trkpt lat="43.3784846" lon="11.1722312"><ele>268.0</ele><time>2026-04-13T08:59:35.22Z</time></trkpt><trkpt lat="43.3784876" lon="11.1721266"><ele>268.0</ele><time>2026-04-13T08:59:38.231Z</time></trkpt><trkpt lat="43.3784935" lon="11.1720156"><ele>268.0</ele><time>2026-04-13T08:59:41.246Z</time></trkpt><trkpt lat="43.3784897" lon="11.1719044"><ele>268.0</ele><time>2026-04-13T08:59:44.322Z</time></trkpt><trkpt lat="43.3784881" lon="11.1717993"><ele>268.0</ele><time>2026-04-13T08:59:47.236Z</time></trkpt><trkpt lat="43.3785014" lon="11.1716691"><ele>268.0</ele><time>2026-04-13T08:59:50.241Z</time></trkpt><trkpt lat="43.378515" lon="11.1715607"><ele>268.0</ele><time>2026-04-13T08:59:52.247Z</time></trkpt><trkpt lat="43.3785284" lon="11.171436"><ele>268.0</ele><time>2026-04-13T08:59:54.307Z</time></trkpt><trkpt lat="43.3785574" lon="11.1713011"><ele>268.0</ele><time>2026-04-13T08:59:56.223Z</time></trkpt><trkpt lat="43.3785854" lon="11.1711616"><ele>268.0</ele><time>2026-04-13T08:59:58.238Z</time></trkpt><trkpt lat="43.3785979" lon="11.1710034"><ele>267.8</ele><time>2026-04-13T09:00:00.219Z</time></trkpt><trkpt lat="43.3786112" lon="11.1708612"><ele>267.6</ele><time>2026-04-13T09:00:02.287Z</time></trkpt><trkpt lat="43.3786176" lon="11.1707071"><ele>267.4</ele><time>2026-04-13T09:00:04.245Z</time></trkpt><trkpt lat="43.3786151" lon="11.1705529"><ele>267.2</ele><time>2026-04-13T09:00:06.242Z</time></trkpt><trkpt lat="43.3785879" lon="11.1704148"><ele>267.0</ele><time>2026-04-13T09:00:08.247Z</time></trkpt><trkpt lat="43.3785628" lon="11.1702889"><ele>267.1666666666667</ele><time>2026-04-13T09:00:10.237Z</time></trkpt><trkpt lat="43.3785225" lon="11.1701637"><ele>267.3333333333333</ele><time>2026-04-13T09:00:12.234Z</time></trkpt><trkpt lat="43.3784858" lon="11.1700232"><ele>267.5</ele><time>2026-04-13T09:00:14.22Z</time></trkpt><trkpt lat="43.3784618" lon="11.1699217"><ele>267.66666666666663</ele><time>2026-04-13T09:00:16.239Z</time></trkpt><trkpt lat="43.3784315" lon="11.1698204"><ele>267.8333333333333</ele><time>2026-04-13T09:00:18.247Z</time></trkpt><trkpt lat="43.3784051" lon="11.1697105"><ele>268.0</ele><time>2026-04-13T09:00:20.223Z</time></trkpt><trkpt lat="43.3783996" lon="11.1696063"><ele>268.0</ele><time>2026-04-13T09:00:22.224Z</time></trkpt><trkpt lat="43.3784002" lon="11.1694851"><ele>268.0</ele><time>2026-04-13T09:00:24.239Z</time></trkpt><trkpt lat="43.3784021" lon="11.1693688"><ele>268.0</ele><time>2026-04-13T09:00:26.241Z</time></trkpt><trkpt lat="43.3784096" lon="11.1692695"><ele>268.0</ele><time>2026-04-13T09:00:28.239Z</time></trkpt><trkpt lat="43.3784195" lon="11.1691585"><ele>268.0</ele><time>2026-04-13T09:00:30.246Z</time></trkpt><trkpt lat="43.3784346" lon="11.1690495"><ele>268.0</ele><time>2026-04-13T09:00:32.256Z</time></trkpt><trkpt lat="43.3784509" lon="11.168936"><ele>267.8333333333333</ele><time>2026-04-13T09:00:34.244Z</time></trkpt><trkpt lat="43.3784638" lon="11.1688213"><ele>267.66666666666663</ele><time>2026-04-13T09:00:36.244Z</time></trkpt><trkpt lat="43.3784798" lon="11.1687053"><ele>267.5</ele><time>2026-04-13T09:00:38.239Z</time></trkpt><trkpt lat="43.3784914" lon="11.1685893"><ele>267.3333333333333</ele><time>2026-04-13T09:00:40.232Z</time></trkpt><trkpt lat="43.3785085" lon="11.1684703"><ele>267.1666666666667</ele><time>2026-04-13T09:00:42.239Z</time></trkpt><trkpt lat="43.3785294" lon="11.168348"><ele>267.0</ele><time>2026-04-13T09:00:44.223Z</time></trkpt><trkpt lat="43.3785618" lon="11.1682231"><ele>267.4</ele><time>2026-04-13T09:00:46.239Z</time></trkpt><trkpt lat="43.3785577" lon="11.1681077"><ele>267.79999999999995</ele><time>2026-04-13T09:00:48.225Z</time></trkpt><trkpt lat="43.3785352" lon="11.1679846"><ele>268.2</ele><time>2026-04-13T09:00:50.227Z</time></trkpt><trkpt lat="43.3784948" lon="11.1678803"><ele>268.59999999999997</ele><time>2026-04-13T09:00:52.245Z</time></trkpt><trkpt lat="43.3784509" lon="11.1677537"><ele>269.0</ele><time>2026-04-13T09:00:54.298Z</time></trkpt><trkpt lat="43.3784029" lon="11.1676242"><ele>269.0</ele><time>2026-04-13T09:00:56.302Z</time></trkpt><trkpt lat="43.3783613" lon="11.1674921"><ele>269.0</ele><time>2026-04-13T09:00:58.246Z</time></trkpt><trkpt lat="43.3783109" lon="11.1673474"><ele>269.0</ele><time>2026-04-13T09:01:00.232Z</time></trkpt><trkpt lat="43.3782587" lon="11.1672128"><ele>269.0</ele><time>2026-04-13T09:01:02.228Z</time></trkpt><trkpt lat="43.3782016" lon="11.1670822"><ele>269.0</ele><time>2026-04-13T09:01:04.244Z</time></trkpt><trkpt lat="43.3781542" lon="11.1669499"><ele>268.8</ele><time>2026-04-13T09:01:06.227Z</time></trkpt><trkpt lat="43.3781027" lon="11.166821"><ele>268.59999999999997</ele><time>2026-04-13T09:01:08.219Z</time></trkpt><trkpt lat="43.3780567" lon="11.1666963"><ele>268.4</ele><time>2026-04-13T09:01:10.223Z</time></trkpt><trkpt lat="43.3780249" lon="11.1665652"><ele>268.2</ele><time>2026-04-13T09:01:12.235Z</time></trkpt><trkpt lat="43.3780071" lon="11.1664357"><ele>268.0</ele><time>2026-04-13T09:01:14.215Z</time></trkpt><trkpt lat="43.3780113" lon="11.1663086"><ele>268.6</ele><time>2026-04-13T09:01:16.225Z</time></trkpt><trkpt lat="43.3780285" lon="11.1661735"><ele>269.20000000000005</ele><time>2026-04-13T09:01:18.247Z</time></trkpt><trkpt lat="43.3780607" lon="11.1660461"><ele>269.8</ele><time>2026-04-13T09:01:20.233Z</time></trkpt><trkpt lat="43.3781041" lon="11.1659258"><ele>270.40000000000003</ele><time>2026-04-13T09:01:22.238Z</time></trkpt><trkpt lat="43.3781585" lon="11.1658125"><ele>271.0</ele><time>2026-04-13T09:01:24.247Z</time></trkpt><trkpt lat="43.3782199" lon="11.1657015"><ele>272.6</ele><time>2026-04-13T09:01:26.283Z</time></trkpt><trkpt lat="43.3782784" lon="11.1655917"><ele>274.20000000000005</ele><time>2026-04-13T09:01:28.24Z</time></trkpt><trkpt lat="43.3783349" lon="11.1654888"><ele>275.79999999999995</ele><time>2026-04-13T09:01:30.313Z</time></trkpt><trkpt lat="43.3783862" lon="11.1653724"><ele>277.4</ele><time>2026-04-13T09:01:32.219Z</time></trkpt><trkpt lat="43.378437" lon="11.1652674"><ele>279.0</ele><time>2026-04-13T09:01:34.221Z</time></trkpt><trkpt lat="43.3785032" lon="11.1651843"><ele>279.0</ele><time>2026-04-13T09:01:36.328Z</time></trkpt><trkpt lat="43.3785518" lon="11.1650805"><ele>279.0</ele><time>2026-04-13T09:01:38.242Z</time></trkpt><trkpt lat="43.3785961" lon="11.164977"><ele>279.0</ele><time>2026-04-13T09:01:40.313Z</time></trkpt><trkpt lat="43.3786524" lon="11.1648776"><ele>279.0</ele><time>2026-04-13T09:01:42.224Z</time></trkpt><trkpt lat="43.3786925" lon="11.1647515"><ele>279.0</ele><time>2026-04-13T09:01:44.231Z</time></trkpt><trkpt lat="43.3787087" lon="11.1646347"><ele>279.0</ele><time>2026-04-13T09:01:46.216Z</time></trkpt><trkpt lat="43.378732" lon="11.1645169"><ele>279.0</ele><time>2026-04-13T09:01:48.219Z</time></trkpt><trkpt lat="43.3787489" lon="11.164391"><ele>279.0</ele><time>2026-04-13T09:01:50.235Z</time></trkpt><trkpt lat="43.3787696" lon="11.1642618"><ele>279.0</ele><time>2026-04-13T09:01:52.257Z</time></trkpt><trkpt lat="43.3787732" lon="11.1641235"><ele>279.0</ele><time>2026-04-13T09:01:54.251Z</time></trkpt><trkpt lat="43.3787822" lon="11.1639931"><ele>279.0</ele><time>2026-04-13T09:01:56.242Z</time></trkpt><trkpt lat="43.3787924" lon="11.1638632"><ele>279.0</ele><time>2026-04-13T09:01:58.252Z</time></trkpt><trkpt lat="43.3788103" lon="11.1637381"><ele>279.0</ele><time>2026-04-13T09:02:00.249Z</time></trkpt><trkpt lat="43.3788326" lon="11.1636123"><ele>279.0</ele><time>2026-04-13T09:02:02.248Z</time></trkpt><trkpt lat="43.3788507" lon="11.1634851"><ele>279.0</ele><time>2026-04-13T09:02:04.247Z</time></trkpt><trkpt lat="43.3788762" lon="11.1633673"><ele>277.8</ele><time>2026-04-13T09:02:06.216Z</time></trkpt><trkpt lat="43.3789006" lon="11.1632396"><ele>276.59999999999997</ele><time>2026-04-13T09:02:08.24Z</time></trkpt><trkpt lat="43.3789279" lon="11.1631062"><ele>275.4</ele><time>2026-04-13T09:02:10.255Z</time></trkpt><trkpt lat="43.3789662" lon="11.1629755"><ele>274.2</ele><time>2026-04-13T09:02:12.228Z</time></trkpt><trkpt lat="43.3790005" lon="11.1628405"><ele>273.0</ele><time>2026-04-13T09:02:14.313Z</time></trkpt><trkpt lat="43.379034" lon="11.1627126"><ele>273.0</ele><time>2026-04-13T09:02:16.301Z</time></trkpt><trkpt lat="43.3790686" lon="11.1625739"><ele>273.0</ele><time>2026-04-13T09:02:18.237Z</time></trkpt><trkpt lat="43.3791052" lon="11.162418"><ele>273.0</ele><time>2026-04-13T09:02:20.245Z</time></trkpt><trkpt lat="43.3791249" lon="11.1623338"><ele>273.0</ele><time>2026-04-13T09:02:21.327Z</time></trkpt><trkpt lat="43.3791623" lon="11.1621693"><ele>273.0</ele><time>2026-04-13T09:02:23.239Z</time></trkpt><trkpt lat="43.3791845" lon="11.162085"><ele>272.6666666666667</ele><time>2026-04-13T09:02:24.241Z</time></trkpt><trkpt lat="43.3792058" lon="11.1619995"><ele>272.3333333333333</ele><time>2026-04-13T09:02:25.249Z</time></trkpt><trkpt lat="43.3792303" lon="11.161911"><ele>272.0</ele><time>2026-04-13T09:02:26.234Z</time></trkpt><trkpt lat="43.3792532" lon="11.1618157"><ele>271.66666666666663</ele><time>2026-04-13T09:02:27.243Z</time></trkpt><trkpt lat="43.3792757" lon="11.161717"><ele>271.3333333333333</ele><time>2026-04-13T09:02:28.239Z</time></trkpt><trkpt lat="43.3793013" lon="11.1616124"><ele>271.0</ele><time>2026-04-13T09:02:29.24Z</time></trkpt><trkpt lat="43.3793313" lon="11.1614985"><ele>269.8</ele><time>2026-04-13T09:02:30.245Z</time></trkpt><trkpt lat="43.3793595" lon="11.1613765"><ele>268.6</ele><time>2026-04-13T09:02:31.252Z</time></trkpt><trkpt lat="43.3793893" lon="11.1612521"><ele>267.4</ele><time>2026-04-13T09:02:32.246Z</time></trkpt><trkpt lat="43.3794269" lon="11.1611237"><ele>266.2</ele><time>2026-04-13T09:02:33.246Z</time></trkpt><trkpt lat="43.379475" lon="11.1609993"><ele>265.0</ele><time>2026-04-13T09:02:34.235Z</time></trkpt><trkpt lat="43.3795403" lon="11.1608864"><ele>265.0</ele><time>2026-04-13T09:02:35.245Z</time></trkpt><trkpt lat="43.3796176" lon="11.1607766"><ele>265.0</ele><time>2026-04-13T09:02:36.233Z</time></trkpt><trkpt lat="43.3797001" lon="11.1606655"><ele>265.0</ele><time>2026-04-13T09:02:37.246Z</time></trkpt><trkpt lat="43.3797855" lon="11.1605545"><ele>265.0</ele><time>2026-04-13T09:02:38.24Z</time></trkpt><trkpt lat="43.3798698" lon="11.160436"><ele>263.25</ele><time>2026-04-13T09:02:39.237Z</time></trkpt><trkpt lat="43.37995" lon="11.1603067"><ele>261.5</ele><time>2026-04-13T09:02:40.259Z</time></trkpt><trkpt lat="43.3800248" lon="11.1601696"><ele>259.75</ele><time>2026-04-13T09:02:41.242Z</time></trkpt><trkpt lat="43.3800844" lon="11.1600234"><ele>258.0</ele><time>2026-04-13T09:02:42.233Z</time></trkpt><trkpt lat="43.3801202" lon="11.1598613"><ele>256.25</ele><time>2026-04-13T09:02:43.249Z</time></trkpt><trkpt lat="43.3801366" lon="11.159692"><ele>254.5</ele><time>2026-04-13T09:02:44.242Z</time></trkpt><trkpt lat="43.3801452" lon="11.1595243"><ele>252.75</ele><time>2026-04-13T09:02:45.229Z</time></trkpt><trkpt lat="43.3801526" lon="11.1593623"><ele>251.0</ele><time>2026-04-13T09:02:46.242Z</time></trkpt><trkpt lat="43.3801589" lon="11.1592102"><ele>251.0</ele><time>2026-04-13T09:02:47.239Z</time></trkpt><trkpt lat="43.3801668" lon="11.1590641"><ele>251.00000000000003</ele><time>2026-04-13T09:02:48.231Z</time></trkpt><trkpt lat="43.3801798" lon="11.158926"><ele>251.00000000000003</ele><time>2026-04-13T09:02:49.242Z</time></trkpt><trkpt lat="43.3801929" lon="11.1587976"><ele>251.0</ele><time>2026-04-13T09:02:50.242Z</time></trkpt><trkpt lat="43.3802021" lon="11.1586699"><ele>251.0</ele><time>2026-04-13T09:02:51.241Z</time></trkpt><trkpt lat="43.3802064" lon="11.1585405"><ele>250.83333333333334</ele><time>2026-04-13T09:02:52.238Z</time></trkpt><trkpt lat="43.3802115" lon="11.1584173"><ele>250.66666666666669</ele><time>2026-04-13T09:02:53.238Z</time></trkpt><trkpt lat="43.3802111" lon="11.1582982"><ele>250.5</ele><time>2026-04-13T09:02:54.246Z</time></trkpt><trkpt lat="43.3802073" lon="11.1581878"><ele>250.33333333333331</ele><time>2026-04-13T09:02:55.235Z</time></trkpt><trkpt lat="43.3802008" lon="11.1580824"><ele>250.16666666666666</ele><time>2026-04-13T09:02:56.314Z</time></trkpt><trkpt lat="43.3801937" lon="11.1579867"><ele>250.0</ele><time>2026-04-13T09:02:57.218Z</time></trkpt><trkpt lat="43.380178" lon="11.1578853"><ele>250.83333333333331</ele><time>2026-04-13T09:02:58.237Z</time></trkpt><trkpt lat="43.3801588" lon="11.1577925"><ele>251.66666666666666</ele><time>2026-04-13T09:02:59.308Z</time></trkpt><trkpt lat="43.3801388" lon="11.1576177"><ele>252.5</ele><time>2026-04-13T09:03:01.292Z</time></trkpt><trkpt lat="43.3801258" lon="11.1575324"><ele>253.33333333333331</ele><time>2026-04-13T09:03:02.221Z</time></trkpt><trkpt lat="43.3801128" lon="11.1574457"><ele>254.16666666666666</ele><time>2026-04-13T09:03:03.252Z</time></trkpt><trkpt lat="43.3801009" lon="11.1573582"><ele>255.0</ele><time>2026-04-13T09:03:04.238Z</time></trkpt><trkpt lat="43.3800897" lon="11.1572691"><ele>255.8</ele><time>2026-04-13T09:03:05.241Z</time></trkpt><trkpt lat="43.3800748" lon="11.1571816"><ele>256.6</ele><time>2026-04-13T09:03:06.246Z</time></trkpt><trkpt lat="43.3800472" lon="11.1570377"><ele>257.4</ele><time>2026-04-13T09:03:08.247Z</time></trkpt><trkpt lat="43.3799901" lon="11.1569053"><ele>258.2</ele><time>2026-04-13T09:03:10.239Z</time></trkpt><trkpt lat="43.3799169" lon="11.1567789"><ele>259.0</ele><time>2026-04-13T09:03:12.246Z</time></trkpt><trkpt lat="43.3798315" lon="11.1566711"><ele>259.0</ele><time>2026-04-13T09:03:14.234Z</time></trkpt><trkpt lat="43.3797531" lon="11.1565631"><ele>259.0</ele><time>2026-04-13T09:03:16.236Z</time></trkpt><trkpt lat="43.3796701" lon="11.1564524"><ele>259.0</ele><time>2026-04-13T09:03:18.248Z</time></trkpt><trkpt lat="43.3795901" lon="11.1563411"><ele>259.0</ele><time>2026-04-13T09:03:20.237Z</time></trkpt><trkpt lat="43.3795185" lon="11.1562255"><ele>258.0</ele><time>2026-04-13T09:03:22.25Z</time></trkpt><trkpt lat="43.379467" lon="11.156101"><ele>257.0</ele><time>2026-04-13T09:03:24.238Z</time></trkpt><trkpt lat="43.379433" lon="11.1559436"><ele>256.0</ele><time>2026-04-13T09:03:26.251Z</time></trkpt><trkpt lat="43.3794127" lon="11.1558506"><ele>255.0</ele><time>2026-04-13T09:03:27.235Z</time></trkpt><trkpt lat="43.3793895" lon="11.1557542"><ele>253.99999999999997</ele><time>2026-04-13T09:03:28.238Z</time></trkpt><trkpt lat="43.3793638" lon="11.1556603"><ele>253.0</ele><time>2026-04-13T09:03:29.25Z</time></trkpt><trkpt lat="43.3793384" lon="11.1555611"><ele>252.16666666666666</ele><time>2026-04-13T09:03:30.233Z</time></trkpt><trkpt lat="43.3793171" lon="11.1554474"><ele>251.33333333333331</ele><time>2026-04-13T09:03:31.298Z</time></trkpt><trkpt lat="43.3792918" lon="11.1553465"><ele>250.5</ele><time>2026-04-13T09:03:32.217Z</time></trkpt><trkpt lat="43.3792655" lon="11.1552373"><ele>249.66666666666669</ele><time>2026-04-13T09:03:33.245Z</time></trkpt><trkpt lat="43.3792364" lon="11.1551097"><ele>248.83333333333334</ele><time>2026-04-13T09:03:34.322Z</time></trkpt><trkpt lat="43.3792086" lon="11.1549892"><ele>248.0</ele><time>2026-04-13T09:03:35.228Z</time></trkpt><trkpt lat="43.3791836" lon="11.1548524"><ele>247.50000000000003</ele><time>2026-04-13T09:03:36.237Z</time></trkpt><trkpt lat="43.3791646" lon="11.1547246"><ele>247.0</ele><time>2026-04-13T09:03:37.221Z</time></trkpt><trkpt lat="43.3791436" lon="11.1546041"><ele>246.5</ele><time>2026-04-13T09:03:38.253Z</time></trkpt><trkpt lat="43.379123" lon="11.1544897"><ele>246.0</ele><time>2026-04-13T09:03:39.246Z</time></trkpt><trkpt lat="43.3791027" lon="11.1543762"><ele>245.50000000000003</ele><time>2026-04-13T09:03:40.224Z</time></trkpt><trkpt lat="43.3790788" lon="11.1542645"><ele>245.0</ele><time>2026-04-13T09:03:41.241Z</time></trkpt><trkpt lat="43.3790558" lon="11.1541536"><ele>245.00000000000003</ele><time>2026-04-13T09:03:42.246Z</time></trkpt><trkpt lat="43.3790362" lon="11.1540415"><ele>245.0</ele><time>2026-04-13T09:03:43.249Z</time></trkpt><trkpt lat="43.3790172" lon="11.1539327"><ele>245.0</ele><time>2026-04-13T09:03:44.231Z</time></trkpt><trkpt lat="43.3789962" lon="11.1538293"><ele>245.0</ele><time>2026-04-13T09:03:45.236Z</time></trkpt><trkpt lat="43.378973" lon="11.1537274"><ele>245.00000000000003</ele><time>2026-04-13T09:03:46.243Z</time></trkpt><trkpt lat="43.3789502" lon="11.1536224"><ele>245.0</ele><time>2026-04-13T09:03:47.239Z</time></trkpt><trkpt lat="43.3789324" lon="11.15352"><ele>244.83333333333334</ele><time>2026-04-13T09:03:48.252Z</time></trkpt><trkpt lat="43.3789181" lon="11.1534161"><ele>244.66666666666669</ele><time>2026-04-13T09:03:49.25Z</time></trkpt><trkpt lat="43.3789042" lon="11.1533095"><ele>244.5</ele><time>2026-04-13T09:03:50.252Z</time></trkpt><trkpt lat="43.3788875" lon="11.1532048"><ele>244.33333333333331</ele><time>2026-04-13T09:03:51.235Z</time></trkpt><trkpt lat="43.3788692" lon="11.1530986"><ele>244.16666666666666</ele><time>2026-04-13T09:03:52.249Z</time></trkpt><trkpt lat="43.3788502" lon="11.1529988"><ele>244.0</ele><time>2026-04-13T09:03:53.242Z</time></trkpt><trkpt lat="43.3788256" lon="11.1528991"><ele>243.99999999999997</ele><time>2026-04-13T09:03:54.253Z</time></trkpt><trkpt lat="43.3788029" lon="11.1528016"><ele>244.0</ele><time>2026-04-13T09:03:55.237Z</time></trkpt><trkpt lat="43.3787829" lon="11.1527009"><ele>244.0</ele><time>2026-04-13T09:03:56.251Z</time></trkpt><trkpt lat="43.3787635" lon="11.1525983"><ele>244.0</ele><time>2026-04-13T09:03:57.251Z</time></trkpt><trkpt lat="43.3787426" lon="11.1524933"><ele>243.99999999999997</ele><time>2026-04-13T09:03:58.255Z</time></trkpt><trkpt lat="43.3787221" lon="11.1523902"><ele>244.0</ele><time>2026-04-13T09:03:59.244Z</time></trkpt><trkpt lat="43.3787003" lon="11.1522906"><ele>244.49999999999997</ele><time>2026-04-13T09:04:00.244Z</time></trkpt><trkpt lat="43.3786801" lon="11.1521897"><ele>245.0</ele><time>2026-04-13T09:04:01.247Z</time></trkpt><trkpt lat="43.3786621" lon="11.1520904"><ele>245.5</ele><time>2026-04-13T09:04:02.237Z</time></trkpt><trkpt lat="43.3786439" lon="11.1519909"><ele>246.0</ele><time>2026-04-13T09:04:03.238Z</time></trkpt><trkpt lat="43.3786248" lon="11.1518891"><ele>246.49999999999997</ele><time>2026-04-13T09:04:04.235Z</time></trkpt><trkpt lat="43.3786056" lon="11.1517886"><ele>247.0</ele><time>2026-04-13T09:04:05.247Z</time></trkpt><trkpt lat="43.3785873" lon="11.1516841"><ele>246.99999999999997</ele><time>2026-04-13T09:04:06.263Z</time></trkpt><trkpt lat="43.3785685" lon="11.1515801"><ele>247.0</ele><time>2026-04-13T09:04:07.249Z</time></trkpt><trkpt lat="43.3785501" lon="11.1514757"><ele>247.0</ele><time>2026-04-13T09:04:08.244Z</time></trkpt><trkpt lat="43.3785315" lon="11.1513744"><ele>247.0</ele><time>2026-04-13T09:04:09.251Z</time></trkpt><trkpt lat="43.3785122" lon="11.1512735"><ele>246.99999999999997</ele><time>2026-04-13T09:04:10.246Z</time></trkpt><trkpt lat="43.3784932" lon="11.1511665"><ele>247.0</ele><time>2026-04-13T09:04:11.249Z</time></trkpt><trkpt lat="43.378476" lon="11.1510588"><ele>246.83333333333331</ele><time>2026-04-13T09:04:12.257Z</time></trkpt><trkpt lat="43.378459" lon="11.1509527"><ele>246.66666666666666</ele><time>2026-04-13T09:04:13.235Z</time></trkpt><trkpt lat="43.3784401" lon="11.1508485"><ele>246.5</ele><time>2026-04-13T09:04:14.237Z</time></trkpt><trkpt lat="43.3784243" lon="11.1507422"><ele>246.33333333333331</ele><time>2026-04-13T09:04:15.251Z</time></trkpt><trkpt lat="43.378415" lon="11.1506371"><ele>246.16666666666666</ele><time>2026-04-13T09:04:16.236Z</time></trkpt><trkpt lat="43.3784136" lon="11.1505319"><ele>246.0</ele><time>2026-04-13T09:04:17.236Z</time></trkpt><trkpt lat="43.3784165" lon="11.150428"><ele>246.00000000000003</ele><time>2026-04-13T09:04:18.25Z</time></trkpt><trkpt lat="43.3784279" lon="11.1503277"><ele>246.0</ele><time>2026-04-13T09:04:19.242Z</time></trkpt><trkpt lat="43.3784503" lon="11.1502281"><ele>246.00000000000003</ele><time>2026-04-13T09:04:20.238Z</time></trkpt><trkpt lat="43.3784821" lon="11.1501315"><ele>246.00000000000003</ele><time>2026-04-13T09:04:21.243Z</time></trkpt><trkpt lat="43.378516" lon="11.1500486"><ele>246.0</ele><time>2026-04-13T09:04:22.252Z</time></trkpt><trkpt lat="43.3785546" lon="11.1499657"><ele>246.00000000000003</ele><time>2026-04-13T09:04:23.242Z</time></trkpt><trkpt lat="43.3785968" lon="11.1498857"><ele>246.00000000000003</ele><time>2026-04-13T09:04:24.242Z</time></trkpt><trkpt lat="43.3786391" lon="11.1498034"><ele>246.66666666666666</ele><time>2026-04-13T09:04:25.236Z</time></trkpt><trkpt lat="43.3786835" lon="11.1497198"><ele>247.33333333333331</ele><time>2026-04-13T09:04:26.243Z</time></trkpt><trkpt lat="43.3787292" lon="11.1496379"><ele>248.0</ele><time>2026-04-13T09:04:27.248Z</time></trkpt><trkpt lat="43.3787732" lon="11.1495551"><ele>248.66666666666666</ele><time>2026-04-13T09:04:28.237Z</time></trkpt><trkpt lat="43.3788202" lon="11.1494689"><ele>249.33333333333331</ele><time>2026-04-13T09:04:29.243Z</time></trkpt><trkpt lat="43.3788696" lon="11.1493785"><ele>250.0</ele><time>2026-04-13T09:04:30.24Z</time></trkpt><trkpt lat="43.3789222" lon="11.1492831"><ele>247.8</ele><time>2026-04-13T09:04:31.227Z</time></trkpt><trkpt lat="43.3789791" lon="11.1491796"><ele>245.6</ele><time>2026-04-13T09:04:32.242Z</time></trkpt><trkpt lat="43.379043" lon="11.149072"><ele>243.39999999999998</ele><time>2026-04-13T09:04:33.249Z</time></trkpt><trkpt lat="43.3791038" lon="11.1489664"><ele>241.2</ele><time>2026-04-13T09:04:34.259Z</time></trkpt><trkpt lat="43.3791655" lon="11.148858"><ele>239.0</ele><time>2026-04-13T09:04:35.225Z</time></trkpt><trkpt lat="43.3792274" lon="11.1487433"><ele>238.0</ele><time>2026-04-13T09:04:36.241Z</time></trkpt><trkpt lat="43.379291" lon="11.1486231"><ele>237.0</ele><time>2026-04-13T09:04:37.237Z</time></trkpt><trkpt lat="43.3793594" lon="11.1485019"><ele>236.0</ele><time>2026-04-13T09:04:38.25Z</time></trkpt><trkpt lat="43.3794308" lon="11.1483756"><ele>235.0</ele><time>2026-04-13T09:04:39.249Z</time></trkpt><trkpt lat="43.3795041" lon="11.1482462"><ele>232.5</ele><time>2026-04-13T09:04:40.234Z</time></trkpt><trkpt lat="43.379579" lon="11.1481091"><ele>230.0</ele><time>2026-04-13T09:04:41.233Z</time></trkpt><trkpt lat="43.3796573" lon="11.147965"><ele>227.5</ele><time>2026-04-13T09:04:42.249Z</time></trkpt><trkpt lat="43.379744" lon="11.1478235"><ele>225.0</ele><time>2026-04-13T09:04:43.241Z</time></trkpt><trkpt lat="43.3798454" lon="11.1476901"><ele>225.0</ele><time>2026-04-13T09:04:44.239Z</time></trkpt><trkpt lat="43.3799619" lon="11.1475793"><ele>225.0</ele><time>2026-04-13T09:04:45.236Z</time></trkpt><trkpt lat="43.3800919" lon="11.1474886"><ele>225.0</ele><time>2026-04-13T09:04:46.237Z</time></trkpt><trkpt lat="43.380232" lon="11.1474239"><ele>225.0</ele><time>2026-04-13T09:04:47.243Z</time></trkpt><trkpt lat="43.3803677" lon="11.1473715"><ele>222.0</ele><time>2026-04-13T09:04:48.238Z</time></trkpt><trkpt lat="43.3805034" lon="11.1473201"><ele>219.0</ele><time>2026-04-13T09:04:49.237Z</time></trkpt><trkpt lat="43.3806341" lon="11.1472743"><ele>216.0</ele><time>2026-04-13T09:04:50.254Z</time></trkpt><trkpt lat="43.3807606" lon="11.1472292"><ele>213.0</ele><time>2026-04-13T09:04:51.247Z</time></trkpt><trkpt lat="43.3808834" lon="11.1471814"><ele>212.75</ele><time>2026-04-13T09:04:52.245Z</time></trkpt><trkpt lat="43.3810059" lon="11.147136"><ele>212.5</ele><time>2026-04-13T09:04:53.246Z</time></trkpt><trkpt lat="43.3811267" lon="11.1470945"><ele>212.25</ele><time>2026-04-13T09:04:54.251Z</time></trkpt><trkpt lat="43.3812416" lon="11.1470574"><ele>212.0</ele><time>2026-04-13T09:04:55.247Z</time></trkpt><trkpt lat="43.3813531" lon="11.147022"><ele>213.0</ele><time>2026-04-13T09:04:56.238Z</time></trkpt><trkpt lat="43.3814634" lon="11.1469882"><ele>214.0</ele><time>2026-04-13T09:04:57.243Z</time></trkpt><trkpt lat="43.3815666" lon="11.1469527"><ele>215.0</ele><time>2026-04-13T09:04:58.252Z</time></trkpt><trkpt lat="43.3816628" lon="11.1469175"><ele>216.0</ele><time>2026-04-13T09:04:59.257Z</time></trkpt><trkpt lat="43.3817499" lon="11.1468808"><ele>217.0</ele><time>2026-04-13T09:05:00.252Z</time></trkpt><trkpt lat="43.3818325" lon="11.1468338"><ele>216.99999999999997</ele><time>2026-04-13T09:05:01.265Z</time></trkpt><trkpt lat="43.3819089" lon="11.1467839"><ele>217.0</ele><time>2026-04-13T09:05:02.265Z</time></trkpt><trkpt lat="43.3819709" lon="11.1467165"><ele>217.0</ele><time>2026-04-13T09:05:03.252Z</time></trkpt><trkpt lat="43.3820197" lon="11.1466363"><ele>217.0</ele><time>2026-04-13T09:05:04.244Z</time></trkpt><trkpt lat="43.3820594" lon="11.1465444"><ele>216.99999999999997</ele><time>2026-04-13T09:05:05.227Z</time></trkpt><trkpt lat="43.3820891" lon="11.1464536"><ele>217.0</ele><time>2026-04-13T09:05:06.25Z</time></trkpt><trkpt lat="43.3821136" lon="11.1463611"><ele>216.49999999999997</ele><time>2026-04-13T09:05:07.241Z</time></trkpt><trkpt lat="43.3821358" lon="11.1462702"><ele>216.0</ele><time>2026-04-13T09:05:08.235Z</time></trkpt><trkpt lat="43.3821582" lon="11.1461837"><ele>215.5</ele><time>2026-04-13T09:05:09.243Z</time></trkpt><trkpt lat="43.3821791" lon="11.1461014"><ele>215.0</ele><time>2026-04-13T09:05:10.236Z</time></trkpt><trkpt lat="43.382217" lon="11.1459385"><ele>214.49999999999997</ele><time>2026-04-13T09:05:12.248Z</time></trkpt><trkpt lat="43.3822543" lon="11.1457815"><ele>214.0</ele><time>2026-04-13T09:05:14.248Z</time></trkpt><trkpt lat="43.382296" lon="11.1456388"><ele>216.0</ele><time>2026-04-13T09:05:16.245Z</time></trkpt><trkpt lat="43.3823349" lon="11.1454983"><ele>217.99999999999997</ele><time>2026-04-13T09:05:18.246Z</time></trkpt><trkpt lat="43.3823736" lon="11.1453564"><ele>219.99999999999997</ele><time>2026-04-13T09:05:20.245Z</time></trkpt><trkpt lat="43.3824133" lon="11.1452172"><ele>222.0</ele><time>2026-04-13T09:05:22.244Z</time></trkpt><trkpt lat="43.3824548" lon="11.1450813"><ele>224.0</ele><time>2026-04-13T09:05:24.235Z</time></trkpt><trkpt lat="43.3824847" lon="11.1449529"><ele>223.0</ele><time>2026-04-13T09:05:26.236Z</time></trkpt><trkpt lat="43.3825099" lon="11.1448198"><ele>221.99999999999997</ele><time>2026-04-13T09:05:28.242Z</time></trkpt><trkpt lat="43.3825375" lon="11.1446853"><ele>220.99999999999997</ele><time>2026-04-13T09:05:30.244Z</time></trkpt><trkpt lat="43.3825768" lon="11.1445413"><ele>220.0</ele><time>2026-04-13T09:05:32.235Z</time></trkpt><trkpt lat="43.382622" lon="11.1443878"><ele>219.0</ele><time>2026-04-13T09:05:34.236Z</time></trkpt><trkpt lat="43.3826659" lon="11.1442341"><ele>219.0</ele><time>2026-04-13T09:05:36.245Z</time></trkpt><trkpt lat="43.3827157" lon="11.144084"><ele>218.99999999999997</ele><time>2026-04-13T09:05:38.244Z</time></trkpt><trkpt lat="43.3827397" lon="11.1440021"><ele>218.99999999999997</ele><time>2026-04-13T09:05:39.236Z</time></trkpt><trkpt lat="43.3827633" lon="11.1439188"><ele>219.0</ele><time>2026-04-13T09:05:40.253Z</time></trkpt><trkpt lat="43.3828109" lon="11.1437611"><ele>219.0</ele><time>2026-04-13T09:05:42.248Z</time></trkpt><trkpt lat="43.3828594" lon="11.1436091"><ele>219.75</ele><time>2026-04-13T09:05:44.246Z</time></trkpt><trkpt lat="43.3829013" lon="11.1434496"><ele>220.5</ele><time>2026-04-13T09:05:46.246Z</time></trkpt><trkpt lat="43.3829468" lon="11.1433024"><ele>221.25</ele><time>2026-04-13T09:05:48.247Z</time></trkpt><trkpt lat="43.382992" lon="11.1431529"><ele>222.0</ele><time>2026-04-13T09:05:50.242Z</time></trkpt><trkpt lat="43.3830391" lon="11.1429986"><ele>222.0</ele><time>2026-04-13T09:05:52.238Z</time></trkpt><trkpt lat="43.3830843" lon="11.1428454"><ele>222.0</ele><time>2026-04-13T09:05:54.246Z</time></trkpt><trkpt lat="43.3831309" lon="11.1426921"><ele>222.0</ele><time>2026-04-13T09:05:56.239Z</time></trkpt><trkpt lat="43.3831746" lon="11.1425354"><ele>222.0</ele><time>2026-04-13T09:05:58.258Z</time></trkpt><trkpt lat="43.3832186" lon="11.1423806"><ele>221.6</ele><time>2026-04-13T09:06:00.237Z</time></trkpt><trkpt lat="43.3832647" lon="11.1422232"><ele>221.2</ele><time>2026-04-13T09:06:02.252Z</time></trkpt><trkpt lat="43.3832947" lon="11.1420564"><ele>220.8</ele><time>2026-04-13T09:06:04.236Z</time></trkpt><trkpt lat="43.3833176" lon="11.1418884"><ele>220.4</ele><time>2026-04-13T09:06:06.249Z</time></trkpt><trkpt lat="43.3833273" lon="11.1418009"><ele>220.0</ele><time>2026-04-13T09:06:07.246Z</time></trkpt><trkpt lat="43.3833415" lon="11.1416331"><ele>219.57142857142856</ele><time>2026-04-13T09:06:09.252Z</time></trkpt><trkpt lat="43.3833459" lon="11.1415441"><ele>219.14285714285714</ele><time>2026-04-13T09:06:10.251Z</time></trkpt><trkpt lat="43.3833514" lon="11.1414505"><ele>218.71428571428572</ele><time>2026-04-13T09:06:11.237Z</time></trkpt><trkpt lat="43.3833579" lon="11.1413524"><ele>218.28571428571428</ele><time>2026-04-13T09:06:12.246Z</time></trkpt><trkpt lat="43.3833657" lon="11.1412509"><ele>217.85714285714286</ele><time>2026-04-13T09:06:13.24Z</time></trkpt><trkpt lat="43.3833746" lon="11.141145"><ele>217.42857142857142</ele><time>2026-04-13T09:06:14.247Z</time></trkpt><trkpt lat="43.3833836" lon="11.1410326"><ele>217.0</ele><time>2026-04-13T09:06:15.242Z</time></trkpt><trkpt lat="43.3833925" lon="11.1409152"><ele>217.0</ele><time>2026-04-13T09:06:16.246Z</time></trkpt><trkpt lat="43.3834026" lon="11.1407906"><ele>217.0</ele><time>2026-04-13T09:06:17.247Z</time></trkpt><trkpt lat="43.3834137" lon="11.1406595"><ele>217.0</ele><time>2026-04-13T09:06:18.241Z</time></trkpt><trkpt lat="43.3834266" lon="11.1405221"><ele>217.0</ele><time>2026-04-13T09:06:19.243Z</time></trkpt><trkpt lat="43.383442" lon="11.1403767"><ele>217.0</ele><time>2026-04-13T09:06:20.243Z</time></trkpt><trkpt lat="43.3834564" lon="11.140224"><ele>215.0</ele><time>2026-04-13T09:06:21.242Z</time></trkpt><trkpt lat="43.38347" lon="11.1400667"><ele>213.0</ele><time>2026-04-13T09:06:22.252Z</time></trkpt><trkpt lat="43.3834804" lon="11.139899"><ele>211.0</ele><time>2026-04-13T09:06:23.249Z</time></trkpt><trkpt lat="43.3834905" lon="11.1397294"><ele>209.0</ele><time>2026-04-13T09:06:24.242Z</time></trkpt><trkpt lat="43.3835019" lon="11.1395536"><ele>208.0</ele><time>2026-04-13T09:06:25.251Z</time></trkpt><trkpt lat="43.3835151" lon="11.1393723"><ele>207.0</ele><time>2026-04-13T09:06:26.243Z</time></trkpt><trkpt lat="43.3835285" lon="11.1391861"><ele>206.0</ele><time>2026-04-13T09:06:27.249Z</time></trkpt><trkpt lat="43.3835407" lon="11.1389941"><ele>205.0</ele><time>2026-04-13T09:06:28.25Z</time></trkpt><trkpt lat="43.3835538" lon="11.1388013"><ele>203.5</ele><time>2026-04-13T09:06:29.242Z</time></trkpt><trkpt lat="43.3835663" lon="11.1386048"><ele>202.0</ele><time>2026-04-13T09:06:30.248Z</time></trkpt><trkpt lat="43.3835811" lon="11.1384061"><ele>200.5</ele><time>2026-04-13T09:06:31.248Z</time></trkpt><trkpt lat="43.3835973" lon="11.1382067"><ele>199.0</ele><time>2026-04-13T09:06:32.241Z</time></trkpt><trkpt lat="43.3836131" lon="11.1380091"><ele>197.75</ele><time>2026-04-13T09:06:33.24Z</time></trkpt><trkpt lat="43.3836271" lon="11.1378129"><ele>196.5</ele><time>2026-04-13T09:06:34.248Z</time></trkpt><trkpt lat="43.3836381" lon="11.1376287"><ele>195.25</ele><time>2026-04-13T09:06:35.244Z</time></trkpt><trkpt lat="43.3836499" lon="11.1374538"><ele>194.0</ele><time>2026-04-13T09:06:36.241Z</time></trkpt><trkpt lat="43.3836579" lon="11.1372913"><ele>192.79999999999998</ele><time>2026-04-13T09:06:37.237Z</time></trkpt><trkpt lat="43.3836699" lon="11.1371438"><ele>191.6</ele><time>2026-04-13T09:06:38.24Z</time></trkpt><trkpt lat="43.3836798" lon="11.1370009"><ele>190.4</ele><time>2026-04-13T09:06:39.246Z</time></trkpt><trkpt lat="43.3836901" lon="11.1368608"><ele>189.2</ele><time>2026-04-13T09:06:40.237Z</time></trkpt><trkpt lat="43.3837116" lon="11.1367279"><ele>188.0</ele><time>2026-04-13T09:06:41.241Z</time></trkpt><trkpt lat="43.3837476" lon="11.1366076"><ele>187.60000000000002</ele><time>2026-04-13T09:06:42.242Z</time></trkpt><trkpt lat="43.3838027" lon="11.1364953"><ele>187.20000000000002</ele><time>2026-04-13T09:06:43.235Z</time></trkpt><trkpt lat="43.3838739" lon="11.1364004"><ele>186.8</ele><time>2026-04-13T09:06:44.25Z</time></trkpt><trkpt lat="43.3839613" lon="11.1363318"><ele>186.4</ele><time>2026-04-13T09:06:45.245Z</time></trkpt><trkpt lat="43.3840617" lon="11.1362768"><ele>186.0</ele><time>2026-04-13T09:06:46.243Z</time></trkpt><trkpt lat="43.3841603" lon="11.1362169"><ele>186.0</ele><time>2026-04-13T09:06:47.235Z</time></trkpt><trkpt lat="43.384251" lon="11.1361508"><ele>186.0</ele><time>2026-04-13T09:06:48.24Z</time></trkpt><trkpt lat="43.3843402" lon="11.1360845"><ele>186.0</ele><time>2026-04-13T09:06:49.244Z</time></trkpt><trkpt lat="43.3844237" lon="11.1360149"><ele>186.0</ele><time>2026-04-13T09:06:50.243Z</time></trkpt><trkpt lat="43.3845034" lon="11.1359396"><ele>186.0</ele><time>2026-04-13T09:06:51.263Z</time></trkpt><trkpt lat="43.3845756" lon="11.1358559"><ele>186.0</ele><time>2026-04-13T09:06:52.235Z</time></trkpt><trkpt lat="43.3846484" lon="11.1357709"><ele>186.0</ele><time>2026-04-13T09:06:53.238Z</time></trkpt><trkpt lat="43.3847212" lon="11.1356893"><ele>186.0</ele><time>2026-04-13T09:06:54.247Z</time></trkpt><trkpt lat="43.3847942" lon="11.1356061"><ele>186.0</ele><time>2026-04-13T09:06:55.238Z</time></trkpt><trkpt lat="43.3848701" lon="11.1355224"><ele>186.0</ele><time>2026-04-13T09:06:56.233Z</time></trkpt><trkpt lat="43.384944" lon="11.1354369"><ele>185.8</ele><time>2026-04-13T09:06:57.247Z</time></trkpt><trkpt lat="43.3850175" lon="11.1353531"><ele>185.60000000000002</ele><time>2026-04-13T09:06:58.252Z</time></trkpt><trkpt lat="43.3850886" lon="11.1352717"><ele>185.4</ele><time>2026-04-13T09:06:59.247Z</time></trkpt><trkpt lat="43.3851617" lon="11.1351879"><ele>185.2</ele><time>2026-04-13T09:07:00.256Z</time></trkpt><trkpt lat="43.3852343" lon="11.1351064"><ele>185.0</ele><time>2026-04-13T09:07:01.266Z</time></trkpt><trkpt lat="43.3853054" lon="11.1350244"><ele>185.0</ele><time>2026-04-13T09:07:02.249Z</time></trkpt><trkpt lat="43.3853731" lon="11.1349406"><ele>185.0</ele><time>2026-04-13T09:07:03.237Z</time></trkpt><trkpt lat="43.3854432" lon="11.1348616"><ele>185.0</ele><time>2026-04-13T09:07:04.216Z</time></trkpt><trkpt lat="43.3855181" lon="11.1347857"><ele>185.0</ele><time>2026-04-13T09:07:05.221Z</time></trkpt><trkpt lat="43.3855921" lon="11.1347088"><ele>185.0</ele><time>2026-04-13T09:07:06.218Z</time></trkpt><trkpt lat="43.3856618" lon="11.1346307"><ele>184.83333333333331</ele><time>2026-04-13T09:07:07.24Z</time></trkpt><trkpt lat="43.3857263" lon="11.1345544"><ele>184.66666666666666</ele><time>2026-04-13T09:07:08.235Z</time></trkpt><trkpt lat="43.3857944" lon="11.1344742"><ele>184.5</ele><time>2026-04-13T09:07:09.214Z</time></trkpt><trkpt lat="43.3858705" lon="11.1344044"><ele>184.33333333333334</ele><time>2026-04-13T09:07:10.219Z</time></trkpt><trkpt lat="43.3859403" lon="11.1343415"><ele>184.16666666666669</ele><time>2026-04-13T09:07:11.219Z</time></trkpt><trkpt lat="43.3859929" lon="11.1342657"><ele>184.0</ele><time>2026-04-13T09:07:12.215Z</time></trkpt><trkpt lat="43.3860504" lon="11.1341932"><ele>184.0</ele><time>2026-04-13T09:07:13.242Z</time></trkpt><trkpt lat="43.3861144" lon="11.1341254"><ele>184.0</ele><time>2026-04-13T09:07:14.246Z</time></trkpt><trkpt lat="43.3861663" lon="11.1340705"><ele>184.0</ele><time>2026-04-13T09:07:15.225Z</time></trkpt><trkpt lat="43.3862398" lon="11.1340164"><ele>184.0</ele><time>2026-04-13T09:07:17.221Z</time></trkpt><trkpt lat="43.3862896" lon="11.133918"><ele>184.0</ele><time>2026-04-13T09:07:20.324Z</time></trkpt><trkpt lat="43.3863223" lon="11.1338154"><ele>184.0</ele><time>2026-04-13T09:07:22.249Z</time></trkpt><trkpt lat="43.3862872" lon="11.1336939"><ele>183.0</ele><time>2026-04-13T09:07:24.217Z</time></trkpt><trkpt lat="43.3862289" lon="11.1336443"><ele>182.0</ele><time>2026-04-13T09:07:25.239Z</time></trkpt><trkpt lat="43.3861309" lon="11.1335616"><ele>181.0</ele><time>2026-04-13T09:07:27.228Z</time></trkpt><trkpt lat="43.3860557" lon="11.1334776"><ele>180.0</ele><time>2026-04-13T09:07:29.295Z</time></trkpt><trkpt lat="43.3859632" lon="11.1333672"><ele>179.0</ele><time>2026-04-13T09:07:31.305Z</time></trkpt><trkpt lat="43.3858764" lon="11.1333012"><ele>179.0</ele><time>2026-04-13T09:07:33.237Z</time></trkpt><trkpt lat="43.3857722" lon="11.1332506"><ele>179.0</ele><time>2026-04-13T09:07:35.241Z</time></trkpt><trkpt lat="43.3856574" lon="11.1332079"><ele>179.0</ele><time>2026-04-13T09:07:37.237Z</time></trkpt><trkpt lat="43.3855378" lon="11.13318"><ele>179.0</ele><time>2026-04-13T09:07:39.251Z</time></trkpt><trkpt lat="43.3854712" lon="11.1331621"><ele>179.0</ele><time>2026-04-13T09:07:40.312Z</time></trkpt><trkpt lat="43.385352" lon="11.133131"><ele>179.14285714285717</ele><time>2026-04-13T09:07:42.246Z</time></trkpt><trkpt lat="43.3852863" lon="11.1331092"><ele>179.28571428571428</ele><time>2026-04-13T09:07:43.236Z</time></trkpt><trkpt lat="43.3852206" lon="11.1330897"><ele>179.42857142857144</ele><time>2026-04-13T09:07:44.238Z</time></trkpt><trkpt lat="43.3851539" lon="11.1330613"><ele>179.57142857142858</ele><time>2026-04-13T09:07:45.245Z</time></trkpt><trkpt lat="43.385087" lon="11.1330333"><ele>179.71428571428572</ele><time>2026-04-13T09:07:46.296Z</time></trkpt><trkpt lat="43.3850241" lon="11.1330122"><ele>179.85714285714286</ele><time>2026-04-13T09:07:47.224Z</time></trkpt><trkpt lat="43.3849617" lon="11.1329868"><ele>180.0</ele><time>2026-04-13T09:07:48.233Z</time></trkpt><trkpt lat="43.3848496" lon="11.1329428"><ele>180.0</ele><time>2026-04-13T09:07:50.232Z</time></trkpt><trkpt lat="43.3847383" lon="11.1329149"><ele>180.0</ele><time>2026-04-13T09:07:52.251Z</time></trkpt><trkpt lat="43.3846423" lon="11.1328757"><ele>180.0</ele><time>2026-04-13T09:07:54.243Z</time></trkpt><trkpt lat="43.3846397" lon="11.1327691"><ele>180.0</ele><time>2026-04-13T09:07:56.301Z</time></trkpt><trkpt lat="43.3847363" lon="11.1327091"><ele>180.0</ele><time>2026-04-13T09:07:58.236Z</time></trkpt><trkpt lat="43.3848463" lon="11.1326793"><ele>180.0</ele><time>2026-04-13T09:08:00.301Z</time></trkpt><trkpt lat="43.3849373" lon="11.1326433"><ele>180.0</ele><time>2026-04-13T09:08:02.238Z</time></trkpt><trkpt lat="43.3850388" lon="11.1326259"><ele>180.0</ele><time>2026-04-13T09:08:04.249Z</time></trkpt><trkpt lat="43.3851272" lon="11.1325869"><ele>180.0</ele><time>2026-04-13T09:08:06.306Z</time></trkpt><trkpt lat="43.385207" lon="11.1325403"><ele>180.0</ele><time>2026-04-13T09:08:08.248Z</time></trkpt><trkpt lat="43.3852759" lon="11.1325239"><ele>180.0</ele><time>2026-04-13T09:08:10.251Z</time></trkpt><trkpt lat="43.3853441" lon="11.1324875"><ele>180.0</ele><time>2026-04-13T09:08:13.238Z</time></trkpt><trkpt lat="43.3854008" lon="11.1324473"><ele>180.0</ele><time>2026-04-13T09:08:17.234Z</time></trkpt><trkpt lat="43.3854441" lon="11.1323666"><ele>180.0</ele><time>2026-04-13T09:08:22.24Z</time></trkpt><trkpt lat="43.3854526" lon="11.1322682"><ele>180.0</ele><time>2026-04-13T09:08:27.235Z</time></trkpt><trkpt lat="43.3854463" lon="11.1321746"><ele>180.0</ele><time>2026-04-13T09:08:32.231Z</time></trkpt><trkpt lat="43.3854388" lon="11.1320028"><ele>180.0</ele><time>2026-04-13T09:08:39.23Z</time></trkpt><trkpt lat="43.3853993" lon="11.1319056"><ele>180.42857142857142</ele><time>2026-04-13T09:08:45.218Z</time></trkpt><trkpt lat="43.3854072" lon="11.1317859"><ele>180.85714285714286</ele><time>2026-04-13T09:08:57.238Z</time></trkpt><trkpt lat="43.385388" lon="11.1316967"><ele>181.28571428571428</ele><time>2026-04-13T09:09:00.23Z</time></trkpt><trkpt lat="43.3853848" lon="11.1316088"><ele>181.71428571428572</ele><time>2026-04-13T09:09:05.23Z</time></trkpt><trkpt lat="43.3853787" lon="11.1314841"><ele>182.14285714285717</ele><time>2026-04-13T09:09:13.239Z</time></trkpt><trkpt lat="43.3853829" lon="11.1313917"><ele>182.57142857142858</ele><time>2026-04-13T09:09:17.233Z</time></trkpt><trkpt lat="43.3853984" lon="11.1313019"><ele>183.0</ele><time>2026-04-13T09:09:23.238Z</time></trkpt><trkpt lat="43.3854068" lon="11.1312103"><ele>184.33333333333334</ele><time>2026-04-13T09:09:28.238Z</time></trkpt><trkpt lat="43.3854027" lon="11.1310888"><ele>185.66666666666666</ele><time>2026-04-13T09:09:33.223Z</time></trkpt><trkpt lat="43.3854314" lon="11.1309856"><ele>187.0</ele><time>2026-04-13T09:09:51.244Z</time></trkpt><trkpt lat="43.3854523" lon="11.1308866"><ele>188.33333333333331</ele><time>2026-04-13T09:09:57.243Z</time></trkpt><trkpt lat="43.3854802" lon="11.1307935"><ele>189.66666666666666</ele><time>2026-04-13T09:10:02.237Z</time></trkpt><trkpt lat="43.3854792" lon="11.1306968"><ele>191.0</ele><time>2026-04-13T09:10:08.233Z</time></trkpt><trkpt lat="43.3855242" lon="11.1306067"><ele>194.42857142857144</ele><time>2026-04-13T09:10:12.221Z</time></trkpt><trkpt lat="43.3855773" lon="11.1305391"><ele>197.85714285714283</ele><time>2026-04-13T09:10:17.214Z</time></trkpt><trkpt lat="43.385572" lon="11.1304493"><ele>201.28571428571428</ele><time>2026-04-13T09:10:27.225Z</time></trkpt><trkpt lat="43.385582" lon="11.1303571"><ele>204.71428571428572</ele><time>2026-04-13T09:10:33.247Z</time></trkpt><trkpt lat="43.3855965" lon="11.1302674"><ele>208.14285714285717</ele><time>2026-04-13T09:10:41.31Z</time></trkpt><trkpt lat="43.3855957" lon="11.1301694"><ele>211.57142857142856</ele><time>2026-04-13T09:10:45.245Z</time></trkpt><trkpt lat="43.38561" lon="11.1300751"><ele>215.0</ele><time>2026-04-13T09:10:50.32Z</time></trkpt><trkpt lat="43.3856199" lon="11.1299801"><ele>215.0</ele><time>2026-04-13T09:10:57.247Z</time></trkpt><trkpt lat="43.3856128" lon="11.129893"><ele>215.0</ele><time>2026-04-13T09:11:02.227Z</time></trkpt><trkpt lat="43.3856022" lon="11.1298011"><ele>215.0</ele><time>2026-04-13T09:11:07.24Z</time></trkpt><trkpt lat="43.3855566" lon="11.129703"><ele>215.0</ele><time>2026-04-13T09:11:19.237Z</time></trkpt><trkpt lat="43.3855033" lon="11.1296376"><ele>215.0</ele><time>2026-04-13T09:11:23.225Z</time></trkpt><trkpt lat="43.3854556" lon="11.1295699"><ele>215.0</ele><time>2026-04-13T09:11:27.23Z</time></trkpt><trkpt lat="43.3853988" lon="11.129497"><ele>215.0</ele><time>2026-04-13T09:11:32.24Z</time></trkpt><trkpt lat="43.385353" lon="11.12942"><ele>214.7142857142857</ele><time>2026-04-13T09:11:37.248Z</time></trkpt><trkpt lat="43.3853359" lon="11.1293198"><ele>214.42857142857144</ele><time>2026-04-13T09:11:42.241Z</time></trkpt><trkpt lat="43.3853051" lon="11.1292234"><ele>214.14285714285714</ele><time>2026-04-13T09:11:50.226Z</time></trkpt><trkpt lat="43.3853009" lon="11.1291341"><ele>213.85714285714283</ele><time>2026-04-13T09:11:54.296Z</time></trkpt><trkpt lat="43.3852865" lon="11.1290443"><ele>213.57142857142856</ele><time>2026-04-13T09:11:58.221Z</time></trkpt><trkpt lat="43.3852623" lon="11.1289605"><ele>213.28571428571428</ele><time>2026-04-13T09:12:05.218Z</time></trkpt><trkpt lat="43.385256" lon="11.1288694"><ele>213.0</ele><time>2026-04-13T09:12:16.303Z</time></trkpt><trkpt lat="43.38524" lon="11.1287765"><ele>214.33333333333334</ele><time>2026-04-13T09:12:19.238Z</time></trkpt><trkpt lat="43.385243" lon="11.1286775"><ele>215.66666666666669</ele><time>2026-04-13T09:12:22.226Z</time></trkpt><trkpt lat="43.3852122" lon="11.1285808"><ele>217.0</ele><time>2026-04-13T09:12:25.246Z</time></trkpt><trkpt lat="43.3851784" lon="11.1284861"><ele>218.33333333333334</ele><time>2026-04-13T09:12:31.305Z</time></trkpt><trkpt lat="43.3851481" lon="11.1283817"><ele>219.66666666666669</ele><time>2026-04-13T09:12:37.248Z</time></trkpt><trkpt lat="43.3851241" lon="11.1282902"><ele>221.0</ele><time>2026-04-13T09:12:41.231Z</time></trkpt><trkpt lat="43.3851171" lon="11.1281898"><ele>221.33333333333334</ele><time>2026-04-13T09:12:45.24Z</time></trkpt><trkpt lat="43.3850981" lon="11.1280926"><ele>221.66666666666669</ele><time>2026-04-13T09:12:52.232Z</time></trkpt><trkpt lat="43.385094" lon="11.1279484"><ele>222.0</ele><time>2026-04-13T09:12:58.232Z</time></trkpt><trkpt lat="43.3850336" lon="11.1279062"><ele>222.33333333333331</ele><time>2026-04-13T09:13:02.233Z</time></trkpt><trkpt lat="43.3850041" lon="11.1278227"><ele>222.66666666666666</ele><time>2026-04-13T09:13:06.295Z</time></trkpt><trkpt lat="43.3849618" lon="11.1277354"><ele>223.0</ele><time>2026-04-13T09:13:11.301Z</time></trkpt><trkpt lat="43.3849213" lon="11.1276509"><ele>222.99999999999997</ele><time>2026-04-13T09:13:14.305Z</time></trkpt><trkpt lat="43.3848642" lon="11.127575"><ele>223.0</ele><time>2026-04-13T09:13:19.243Z</time></trkpt><trkpt lat="43.3848178" lon="11.1274926"><ele>223.0</ele><time>2026-04-13T09:13:23.219Z</time></trkpt><trkpt lat="43.3847031" lon="11.1273464"><ele>223.0</ele><time>2026-04-13T09:13:28.239Z</time></trkpt><trkpt lat="43.384664" lon="11.1272779"><ele>222.99999999999997</ele><time>2026-04-13T09:13:32.232Z</time></trkpt><trkpt lat="43.3846513" lon="11.1271849"><ele>223.0</ele><time>2026-04-13T09:13:36.237Z</time></trkpt><trkpt lat="43.384607" lon="11.1270999"><ele>224.0</ele><time>2026-04-13T09:13:41.321Z</time></trkpt><trkpt lat="43.3845895" lon="11.1270086"><ele>225.0</ele><time>2026-04-13T09:13:46.301Z</time></trkpt><trkpt lat="43.3846134" lon="11.1269178"><ele>226.0</ele><time>2026-04-13T09:13:49.23Z</time></trkpt><trkpt lat="43.384581" lon="11.1268392"><ele>227.0</ele><time>2026-04-13T09:13:53.256Z</time></trkpt><trkpt lat="43.3845321" lon="11.1267655"><ele>228.0</ele><time>2026-04-13T09:13:57.229Z</time></trkpt><trkpt lat="43.3845135" lon="11.1266819"><ele>228.99999999999997</ele><time>2026-04-13T09:14:02.224Z</time></trkpt><trkpt lat="43.3844732" lon="11.126607"><ele>229.99999999999997</ele><time>2026-04-13T09:14:06.231Z</time></trkpt><trkpt lat="43.3844499" lon="11.1265251"><ele>230.85714285714283</ele><time>2026-04-13T09:14:10.213Z</time></trkpt><trkpt lat="43.3844113" lon="11.1264452"><ele>231.71428571428572</ele><time>2026-04-13T09:14:14.239Z</time></trkpt><trkpt lat="43.3843793" lon="11.1263514"><ele>232.57142857142856</ele><time>2026-04-13T09:14:19.221Z</time></trkpt><trkpt lat="43.3843605" lon="11.1262587"><ele>233.42857142857142</ele><time>2026-04-13T09:14:24.222Z</time></trkpt><trkpt lat="43.3843725" lon="11.1261692"><ele>234.28571428571428</ele><time>2026-04-13T09:14:28.252Z</time></trkpt><trkpt lat="43.3843277" lon="11.1261"><ele>235.14285714285714</ele><time>2026-04-13T09:14:33.234Z</time></trkpt><trkpt lat="43.3842938" lon="11.1260094"><ele>236.0</ele><time>2026-04-13T09:14:37.247Z</time></trkpt><trkpt lat="43.3842481" lon="11.1259243"><ele>236.0</ele><time>2026-04-13T09:14:42.224Z</time></trkpt><trkpt lat="43.3841989" lon="11.125832"><ele>236.0</ele><time>2026-04-13T09:14:46.306Z</time></trkpt><trkpt lat="43.3841502" lon="11.1257488"><ele>236.0</ele><time>2026-04-13T09:14:50.239Z</time></trkpt><trkpt lat="43.384122" lon="11.1256695"><ele>236.0</ele><time>2026-04-13T09:14:53.244Z</time></trkpt><trkpt lat="43.3840865" lon="11.1255791"><ele>236.0</ele><time>2026-04-13T09:14:57.254Z</time></trkpt><trkpt lat="43.3840644" lon="11.1254836"><ele>236.0</ele><time>2026-04-13T09:15:00.253Z</time></trkpt><trkpt lat="43.3840403" lon="11.1254011"><ele>236.0</ele><time>2026-04-13T09:15:03.246Z</time></trkpt><trkpt lat="43.384003" lon="11.125311"><ele>236.33333333333334</ele><time>2026-04-13T09:15:06.236Z</time></trkpt><trkpt lat="43.3839571" lon="11.1252167"><ele>236.66666666666669</ele><time>2026-04-13T09:15:09.246Z</time></trkpt><trkpt lat="43.3839035" lon="11.1251184"><ele>237.0</ele><time>2026-04-13T09:15:12.25Z</time></trkpt><trkpt lat="43.3838687" lon="11.1250273"><ele>237.33333333333331</ele><time>2026-04-13T09:15:14.301Z</time></trkpt><trkpt lat="43.3838565" lon="11.1249019"><ele>237.66666666666666</ele><time>2026-04-13T09:15:17.247Z</time></trkpt><trkpt lat="43.3838388" lon="11.1248107"><ele>238.0</ele><time>2026-04-13T09:15:19.245Z</time></trkpt><trkpt lat="43.3837981" lon="11.1247371"><ele>238.33333333333331</ele><time>2026-04-13T09:15:21.297Z</time></trkpt><trkpt lat="43.3837441" lon="11.1246152"><ele>238.66666666666666</ele><time>2026-04-13T09:15:24.249Z</time></trkpt><trkpt lat="43.3837026" lon="11.1245442"><ele>239.0</ele><time>2026-04-13T09:15:26.32Z</time></trkpt><trkpt lat="43.3836674" lon="11.1244687"><ele>239.33333333333331</ele><time>2026-04-13T09:15:28.245Z</time></trkpt><trkpt lat="43.3836342" lon="11.124395"><ele>239.66666666666666</ele><time>2026-04-13T09:15:30.309Z</time></trkpt><trkpt lat="43.3836245" lon="11.1243035"><ele>240.0</ele><time>2026-04-13T09:15:32.229Z</time></trkpt><trkpt lat="43.383568" lon="11.1242039"><ele>240.0</ele><time>2026-04-13T09:15:34.24Z</time></trkpt><trkpt lat="43.3835307" lon="11.1241317"><ele>240.0</ele><time>2026-04-13T09:15:36.237Z</time></trkpt><trkpt lat="43.3834903" lon="11.1240565"><ele>240.0</ele><time>2026-04-13T09:15:38.226Z</time></trkpt><trkpt lat="43.3834607" lon="11.1239721"><ele>240.0</ele><time>2026-04-13T09:15:40.238Z</time></trkpt><trkpt lat="43.3834137" lon="11.1238473"><ele>240.0</ele><time>2026-04-13T09:15:43.212Z</time></trkpt><trkpt lat="43.3833779" lon="11.1237656"><ele>240.0</ele><time>2026-04-13T09:15:45.23Z</time></trkpt><trkpt lat="43.3833451" lon="11.1236869"><ele>240.0</ele><time>2026-04-13T09:15:47.247Z</time></trkpt><trkpt lat="43.3833108" lon="11.1236059"><ele>240.28571428571428</ele><time>2026-04-13T09:15:49.24Z</time></trkpt><trkpt lat="43.3832783" lon="11.1235288"><ele>240.57142857142856</ele><time>2026-04-13T09:15:51.314Z</time></trkpt><trkpt lat="43.3832519" lon="11.1234485"><ele>240.85714285714283</ele><time>2026-04-13T09:15:53.247Z</time></trkpt><trkpt lat="43.3832189" lon="11.1233651"><ele>241.14285714285714</ele><time>2026-04-13T09:15:55.3Z</time></trkpt><trkpt lat="43.3831979" lon="11.1232397"><ele>241.4285714285714</ele><time>2026-04-13T09:15:58.238Z</time></trkpt><trkpt lat="43.3831458" lon="11.123162"><ele>241.7142857142857</ele><time>2026-04-13T09:16:00.315Z</time></trkpt><trkpt lat="43.3831039" lon="11.1230822"><ele>242.0</ele><time>2026-04-13T09:16:03.229Z</time></trkpt><trkpt lat="43.3830645" lon="11.1229988"><ele>242.16666666666669</ele><time>2026-04-13T09:16:05.306Z</time></trkpt><trkpt lat="43.3830167" lon="11.1228963"><ele>242.33333333333334</ele><time>2026-04-13T09:16:07.219Z</time></trkpt><trkpt lat="43.3829862" lon="11.1228185"><ele>242.5</ele><time>2026-04-13T09:16:09.239Z</time></trkpt><trkpt lat="43.3829533" lon="11.1227207"><ele>242.66666666666669</ele><time>2026-04-13T09:16:11.26Z</time></trkpt><trkpt lat="43.382913" lon="11.1226102"><ele>242.83333333333334</ele><time>2026-04-13T09:16:13.24Z</time></trkpt><trkpt lat="43.3828534" lon="11.1225255"><ele>243.0</ele><time>2026-04-13T09:16:16.244Z</time></trkpt><trkpt lat="43.3828218" lon="11.1224334"><ele>243.16666666666666</ele><time>2026-04-13T09:16:18.232Z</time></trkpt><trkpt lat="43.3827855" lon="11.1223503"><ele>243.33333333333331</ele><time>2026-04-13T09:16:20.242Z</time></trkpt><trkpt lat="43.3827407" lon="11.1222668"><ele>243.5</ele><time>2026-04-13T09:16:22.239Z</time></trkpt><trkpt lat="43.3827073" lon="11.1221789"><ele>243.66666666666666</ele><time>2026-04-13T09:16:24.234Z</time></trkpt><trkpt lat="43.3826707" lon="11.1220909"><ele>243.83333333333331</ele><time>2026-04-13T09:16:26.308Z</time></trkpt><trkpt lat="43.3826349" lon="11.1219967"><ele>244.0</ele><time>2026-04-13T09:16:28.246Z</time></trkpt><trkpt lat="43.3825814" lon="11.1218893"><ele>244.0</ele><time>2026-04-13T09:16:30.247Z</time></trkpt><trkpt lat="43.3825109" lon="11.1217713"><ele>243.99999999999997</ele><time>2026-04-13T09:16:32.25Z</time></trkpt><trkpt lat="43.3824383" lon="11.1216443"><ele>243.99999999999997</ele><time>2026-04-13T09:16:34.226Z</time></trkpt><trkpt lat="43.3823773" lon="11.1214981"><ele>244.0</ele><time>2026-04-13T09:16:36.242Z</time></trkpt><trkpt lat="43.3823355" lon="11.1214279"><ele>244.0</ele><time>2026-04-13T09:16:37.232Z</time></trkpt><trkpt lat="43.3822932" lon="11.1213604"><ele>243.33333333333331</ele><time>2026-04-13T09:16:38.238Z</time></trkpt><trkpt lat="43.3822222" lon="11.1212177"><ele>242.66666666666666</ele><time>2026-04-13T09:16:40.234Z</time></trkpt><trkpt lat="43.3821902" lon="11.1211428"><ele>242.0</ele><time>2026-04-13T09:16:41.225Z</time></trkpt><trkpt lat="43.3821625" lon="11.121059"><ele>241.33333333333331</ele><time>2026-04-13T09:16:42.223Z</time></trkpt><trkpt lat="43.3821354" lon="11.1209688"><ele>240.66666666666666</ele><time>2026-04-13T09:16:43.242Z</time></trkpt><trkpt lat="43.3821105" lon="11.1208796"><ele>240.0</ele><time>2026-04-13T09:16:44.25Z</time></trkpt><trkpt lat="43.3820901" lon="11.1207893"><ele>240.28571428571428</ele><time>2026-04-13T09:16:45.228Z</time></trkpt><trkpt lat="43.3820678" lon="11.1206977"><ele>240.57142857142856</ele><time>2026-04-13T09:16:46.232Z</time></trkpt><trkpt lat="43.3820501" lon="11.1206107"><ele>240.85714285714283</ele><time>2026-04-13T09:16:47.256Z</time></trkpt><trkpt lat="43.3820317" lon="11.1205245"><ele>241.14285714285714</ele><time>2026-04-13T09:16:48.222Z</time></trkpt><trkpt lat="43.3820154" lon="11.1204377"><ele>241.4285714285714</ele><time>2026-04-13T09:16:49.244Z</time></trkpt><trkpt lat="43.3820024" lon="11.1203504"><ele>241.7142857142857</ele><time>2026-04-13T09:16:50.219Z</time></trkpt><trkpt lat="43.3819887" lon="11.1202629"><ele>242.0</ele><time>2026-04-13T09:16:51.248Z</time></trkpt><trkpt lat="43.3819752" lon="11.1201751"><ele>242.0</ele><time>2026-04-13T09:16:52.24Z</time></trkpt><trkpt lat="43.3819588" lon="11.1200848"><ele>242.0</ele><time>2026-04-13T09:16:53.237Z</time></trkpt><trkpt lat="43.3819419" lon="11.1200002"><ele>242.0</ele><time>2026-04-13T09:16:54.249Z</time></trkpt><trkpt lat="43.3819244" lon="11.1199166"><ele>242.0</ele><time>2026-04-13T09:16:55.233Z</time></trkpt><trkpt lat="43.3818877" lon="11.1196798"><ele>242.0</ele><time>2026-04-13T09:16:58.277Z</time></trkpt><trkpt lat="43.3818518" lon="11.1194626"><ele>242.50000000000003</ele><time>2026-04-13T09:17:01.271Z</time></trkpt><trkpt lat="43.3818244" lon="11.1193272"><ele>243.0</ele><time>2026-04-13T09:17:03.241Z</time></trkpt><trkpt lat="43.3818005" lon="11.1192054"><ele>243.5</ele><time>2026-04-13T09:17:05.242Z</time></trkpt><trkpt lat="43.3817787" lon="11.1190957"><ele>244.0</ele><time>2026-04-13T09:17:07.225Z</time></trkpt><trkpt lat="43.38176" lon="11.1190023"><ele>244.50000000000003</ele><time>2026-04-13T09:17:09.229Z</time></trkpt><trkpt lat="43.3817348" lon="11.1189012"><ele>245.0</ele><time>2026-04-13T09:17:11.23Z</time></trkpt><trkpt lat="43.3817021" lon="11.1188089"><ele>245.0</ele><time>2026-04-13T09:17:13.235Z</time></trkpt><trkpt lat="43.3816669" lon="11.118737"><ele>245.0</ele><time>2026-04-13T09:17:15.217Z</time></trkpt><trkpt lat="43.3816287" lon="11.118652"><ele>245.0</ele><time>2026-04-13T09:17:17.229Z</time></trkpt><trkpt lat="43.3815845" lon="11.1185313"><ele>245.0</ele><time>2026-04-13T09:17:19.237Z</time></trkpt><trkpt lat="43.381572" lon="11.1183278"><ele>245.0</ele><time>2026-04-13T09:17:22.259Z</time></trkpt><trkpt lat="43.3815586" lon="11.1181716"><ele>244.00000000000003</ele><time>2026-04-13T09:17:24.234Z</time></trkpt><trkpt lat="43.381548" lon="11.1180737"><ele>243.0</ele><time>2026-04-13T09:17:25.239Z</time></trkpt><trkpt lat="43.3815338" lon="11.1179674"><ele>242.0</ele><time>2026-04-13T09:17:26.246Z</time></trkpt><trkpt lat="43.381521" lon="11.117858"><ele>241.0</ele><time>2026-04-13T09:17:27.25Z</time></trkpt><trkpt lat="43.3815094" lon="11.1177426"><ele>240.00000000000003</ele><time>2026-04-13T09:17:28.24Z</time></trkpt><trkpt lat="43.3814971" lon="11.1176245"><ele>239.0</ele><time>2026-04-13T09:17:29.215Z</time></trkpt><trkpt lat="43.381482" lon="11.1175035"><ele>237.39999999999998</ele><time>2026-04-13T09:17:30.224Z</time></trkpt><trkpt lat="43.3814666" lon="11.1173787"><ele>235.79999999999998</ele><time>2026-04-13T09:17:31.247Z</time></trkpt><trkpt lat="43.3814511" lon="11.1172516"><ele>234.20000000000002</ele><time>2026-04-13T09:17:32.246Z</time></trkpt><trkpt lat="43.3814334" lon="11.11712"><ele>232.60000000000002</ele><time>2026-04-13T09:17:33.247Z</time></trkpt><trkpt lat="43.3814124" lon="11.1169823"><ele>231.0</ele><time>2026-04-13T09:17:34.302Z</time></trkpt><trkpt lat="43.3813959" lon="11.1168327"><ele>231.0</ele><time>2026-04-13T09:17:35.316Z</time></trkpt><trkpt lat="43.381383" lon="11.1166746"><ele>231.00000000000003</ele><time>2026-04-13T09:17:36.247Z</time></trkpt><trkpt lat="43.3813635" lon="11.1165221"><ele>231.00000000000003</ele><time>2026-04-13T09:17:37.219Z</time></trkpt><trkpt lat="43.381342" lon="11.1163758"><ele>231.0</ele><time>2026-04-13T09:17:38.248Z</time></trkpt><trkpt lat="43.381323" lon="11.1162346"><ele>231.0</ele><time>2026-04-13T09:17:39.297Z</time></trkpt><trkpt lat="43.3813024" lon="11.1160894"><ele>230.75</ele><time>2026-04-13T09:17:40.247Z</time></trkpt><trkpt lat="43.3812778" lon="11.1159384"><ele>230.5</ele><time>2026-04-13T09:17:41.24Z</time></trkpt><trkpt lat="43.3812528" lon="11.1157775"><ele>230.25</ele><time>2026-04-13T09:17:42.238Z</time></trkpt><trkpt lat="43.3812347" lon="11.1156138"><ele>230.0</ele><time>2026-04-13T09:17:43.244Z</time></trkpt><trkpt lat="43.3812165" lon="11.1154507"><ele>228.75</ele><time>2026-04-13T09:17:44.247Z</time></trkpt><trkpt lat="43.3811991" lon="11.1152956"><ele>227.5</ele><time>2026-04-13T09:17:45.244Z</time></trkpt><trkpt lat="43.3811819" lon="11.1151415"><ele>226.25</ele><time>2026-04-13T09:17:46.236Z</time></trkpt><trkpt lat="43.3811645" lon="11.1149866"><ele>225.0</ele><time>2026-04-13T09:17:47.234Z</time></trkpt><trkpt lat="43.3811449" lon="11.114834"><ele>225.0</ele><time>2026-04-13T09:17:48.238Z</time></trkpt><trkpt lat="43.3811248" lon="11.1146892"><ele>225.0</ele><time>2026-04-13T09:17:49.231Z</time></trkpt><trkpt lat="43.3811049" lon="11.1145448"><ele>225.0</ele><time>2026-04-13T09:17:50.24Z</time></trkpt><trkpt lat="43.3810867" lon="11.1144036"><ele>225.0</ele><time>2026-04-13T09:17:51.241Z</time></trkpt><trkpt lat="43.3810665" lon="11.1142689"><ele>225.0</ele><time>2026-04-13T09:17:52.239Z</time></trkpt><trkpt lat="43.381044" lon="11.1141432"><ele>225.66666666666666</ele><time>2026-04-13T09:17:53.24Z</time></trkpt><trkpt lat="43.3810152" lon="11.1140254"><ele>226.33333333333331</ele><time>2026-04-13T09:17:54.22Z</time></trkpt><trkpt lat="43.3809795" lon="11.1139136"><ele>227.0</ele><time>2026-04-13T09:17:55.239Z</time></trkpt><trkpt lat="43.3809415" lon="11.1138097"><ele>227.66666666666666</ele><time>2026-04-13T09:17:56.301Z</time></trkpt><trkpt lat="43.3808953" lon="11.1137203"><ele>228.33333333333331</ele><time>2026-04-13T09:17:57.214Z</time></trkpt><trkpt lat="43.3808428" lon="11.1136316"><ele>229.0</ele><time>2026-04-13T09:17:58.232Z</time></trkpt><trkpt lat="43.3807888" lon="11.1135512"><ele>229.0</ele><time>2026-04-13T09:17:59.236Z</time></trkpt><trkpt lat="43.3807313" lon="11.1134758"><ele>229.0</ele><time>2026-04-13T09:18:00.304Z</time></trkpt><trkpt lat="43.3806865" lon="11.1133988"><ele>229.0</ele><time>2026-04-13T09:18:01.242Z</time></trkpt><trkpt lat="43.3806401" lon="11.1133225"><ele>229.0</ele><time>2026-04-13T09:18:02.244Z</time></trkpt><trkpt lat="43.3805834" lon="11.1132589"><ele>229.0</ele><time>2026-04-13T09:18:03.239Z</time></trkpt><trkpt lat="43.3805226" lon="11.1132016"><ele>229.0</ele><time>2026-04-13T09:18:04.239Z</time></trkpt><trkpt lat="43.3804697" lon="11.1131385"><ele>229.0</ele><time>2026-04-13T09:18:05.324Z</time></trkpt><trkpt lat="43.3804215" lon="11.113082"><ele>229.0</ele><time>2026-04-13T09:18:06.313Z</time></trkpt><trkpt lat="43.3803235" lon="11.1129658"><ele>229.0</ele><time>2026-04-13T09:18:08.243Z</time></trkpt><trkpt lat="43.3802239" lon="11.1128585"><ele>229.0</ele><time>2026-04-13T09:18:10.319Z</time></trkpt><trkpt lat="43.3801514" lon="11.1127677"><ele>229.0</ele><time>2026-04-13T09:18:12.223Z</time></trkpt><trkpt lat="43.3800812" lon="11.1126727"><ele>229.0</ele><time>2026-04-13T09:18:14.245Z</time></trkpt><trkpt lat="43.3800011" lon="11.1125773"><ele>228.99999999999997</ele><time>2026-04-13T09:18:16.314Z</time></trkpt><trkpt lat="43.379935" lon="11.1124988"><ele>228.99999999999997</ele><time>2026-04-13T09:18:18.25Z</time></trkpt><trkpt lat="43.3798652" lon="11.1124348"><ele>229.0</ele><time>2026-04-13T09:18:20.244Z</time></trkpt><trkpt lat="43.3798054" lon="11.1123452"><ele>229.0</ele><time>2026-04-13T09:18:22.226Z</time></trkpt><trkpt lat="43.3797464" lon="11.1122598"><ele>229.83333333333331</ele><time>2026-04-13T09:18:24.252Z</time></trkpt><trkpt lat="43.3796827" lon="11.112185"><ele>230.66666666666666</ele><time>2026-04-13T09:18:26.229Z</time></trkpt><trkpt lat="43.3796185" lon="11.1121062"><ele>231.5</ele><time>2026-04-13T09:18:28.23Z</time></trkpt><trkpt lat="43.3795382" lon="11.1120521"><ele>232.33333333333331</ele><time>2026-04-13T09:18:30.245Z</time></trkpt><trkpt lat="43.3794685" lon="11.1119901"><ele>233.16666666666666</ele><time>2026-04-13T09:18:32.243Z</time></trkpt><trkpt lat="43.3793941" lon="11.111919"><ele>234.0</ele><time>2026-04-13T09:18:34.307Z</time></trkpt><trkpt lat="43.3793177" lon="11.1118458"><ele>234.0</ele><time>2026-04-13T09:18:36.297Z</time></trkpt><trkpt lat="43.3792649" lon="11.1117842"><ele>234.0</ele><time>2026-04-13T09:18:38.21Z</time></trkpt><trkpt lat="43.3791975" lon="11.1117193"><ele>234.0</ele><time>2026-04-13T09:18:40.239Z</time></trkpt><trkpt lat="43.3791296" lon="11.111638"><ele>234.0</ele><time>2026-04-13T09:18:42.254Z</time></trkpt><trkpt lat="43.3790605" lon="11.1115459"><ele>234.0</ele><time>2026-04-13T09:18:44.219Z</time></trkpt><trkpt lat="43.3790056" lon="11.1114523"><ele>234.0</ele><time>2026-04-13T09:18:46.319Z</time></trkpt><trkpt lat="43.3789516" lon="11.1113595"><ele>234.0</ele><time>2026-04-13T09:18:48.249Z</time></trkpt><trkpt lat="43.3788945" lon="11.1112529"><ele>234.0</ele><time>2026-04-13T09:18:50.24Z</time></trkpt><trkpt lat="43.3788335" lon="11.1111669"><ele>234.0</ele><time>2026-04-13T09:18:52.233Z</time></trkpt><trkpt lat="43.378782" lon="11.1110594"><ele>234.0</ele><time>2026-04-13T09:18:54.308Z</time></trkpt><trkpt lat="43.3787349" lon="11.1109631"><ele>234.0</ele><time>2026-04-13T09:18:56.317Z</time></trkpt><trkpt lat="43.378684" lon="11.110892"><ele>234.0</ele><time>2026-04-13T09:18:58.256Z</time></trkpt><trkpt lat="43.3786292" lon="11.1108256"><ele>235.0</ele><time>2026-04-13T09:19:00.303Z</time></trkpt><trkpt lat="43.3785739" lon="11.1107466"><ele>236.00000000000003</ele><time>2026-04-13T09:19:02.25Z</time></trkpt><trkpt lat="43.3785265" lon="11.1106734"><ele>237.0</ele><time>2026-04-13T09:19:04.237Z</time></trkpt><trkpt lat="43.3784714" lon="11.110629"><ele>238.0</ele><time>2026-04-13T09:19:07.241Z</time></trkpt><trkpt lat="43.3784096" lon="11.1105915"><ele>239.00000000000003</ele><time>2026-04-13T09:19:10.226Z</time></trkpt><trkpt lat="43.3783634" lon="11.1105107"><ele>240.0</ele><time>2026-04-13T09:19:13.241Z</time></trkpt><trkpt lat="43.3783126" lon="11.1104463"><ele>241.0</ele><time>2026-04-13T09:19:16.242Z</time></trkpt><trkpt lat="43.3782674" lon="11.1103779"><ele>241.0</ele><time>2026-04-13T09:19:19.242Z</time></trkpt><trkpt lat="43.3782201" lon="11.110314"><ele>241.00000000000003</ele><time>2026-04-13T09:19:22.245Z</time></trkpt><trkpt lat="43.3781729" lon="11.1102482"><ele>241.0</ele><time>2026-04-13T09:19:25.221Z</time></trkpt><trkpt lat="43.3781305" lon="11.110165"><ele>241.0</ele><time>2026-04-13T09:19:28.243Z</time></trkpt><trkpt lat="43.3780853" lon="11.1100957"><ele>241.00000000000003</ele><time>2026-04-13T09:19:31.307Z</time></trkpt><trkpt lat="43.3780318" lon="11.1100212"><ele>241.0</ele><time>2026-04-13T09:19:35.298Z</time></trkpt><trkpt lat="43.3779817" lon="11.1099395"><ele>241.0</ele><time>2026-04-13T09:19:39.235Z</time></trkpt><trkpt lat="43.3779382" lon="11.1098726"><ele>242.14285714285717</ele><time>2026-04-13T09:19:42.216Z</time></trkpt><trkpt lat="43.3778865" lon="11.1097996"><ele>243.2857142857143</ele><time>2026-04-13T09:19:45.23Z</time></trkpt><trkpt lat="43.3778389" lon="11.1097269"><ele>244.42857142857144</ele><time>2026-04-13T09:19:48.23Z</time></trkpt><trkpt lat="43.3777917" lon="11.1096477"><ele>245.57142857142856</ele><time>2026-04-13T09:19:51.237Z</time></trkpt><trkpt lat="43.3777451" lon="11.1095717"><ele>246.7142857142857</ele><time>2026-04-13T09:19:54.239Z</time></trkpt><trkpt lat="43.377729" lon="11.1094872"><ele>247.85714285714283</ele><time>2026-04-13T09:19:57.243Z</time></trkpt><trkpt lat="43.3776791" lon="11.1094298"><ele>249.0</ele><time>2026-04-13T09:20:00.232Z</time></trkpt><trkpt lat="43.3776117" lon="11.1093463"><ele>249.0</ele><time>2026-04-13T09:20:03.227Z</time></trkpt><trkpt lat="43.377555" lon="11.1092604"><ele>249.0</ele><time>2026-04-13T09:20:06.312Z</time></trkpt><trkpt lat="43.3774935" lon="11.109181"><ele>249.0</ele><time>2026-04-13T09:20:09.244Z</time></trkpt><trkpt lat="43.3774429" lon="11.1090979"><ele>249.0</ele><time>2026-04-13T09:20:11.232Z</time></trkpt><trkpt lat="43.377385" lon="11.1090091"><ele>249.0</ele><time>2026-04-13T09:20:14.309Z</time></trkpt><trkpt lat="43.3773425" lon="11.1089324"><ele>249.0</ele><time>2026-04-13T09:20:17.23Z</time></trkpt><trkpt lat="43.3773047" lon="11.1088105"><ele>249.6</ele><time>2026-04-13T09:20:20.239Z</time></trkpt><trkpt lat="43.3772952" lon="11.1087077"><ele>250.2</ele><time>2026-04-13T09:20:22.239Z</time></trkpt><trkpt lat="43.3772461" lon="11.1086112"><ele>250.79999999999998</ele><time>2026-04-13T09:20:24.309Z</time></trkpt><trkpt lat="43.3772799" lon="11.1085236"><ele>251.39999999999998</ele><time>2026-04-13T09:20:26.221Z</time></trkpt><trkpt lat="43.3772426" lon="11.1083939"><ele>252.0</ele><time>2026-04-13T09:20:28.253Z</time></trkpt><trkpt lat="43.3772363" lon="11.1082332"><ele>252.2</ele><time>2026-04-13T09:20:30.237Z</time></trkpt><trkpt lat="43.3772273" lon="11.1080885"><ele>252.39999999999998</ele><time>2026-04-13T09:20:32.252Z</time></trkpt><trkpt lat="43.3772375" lon="11.1079578"><ele>252.60000000000002</ele><time>2026-04-13T09:20:34.235Z</time></trkpt><trkpt lat="43.3772503" lon="11.1078366"><ele>252.8</ele><time>2026-04-13T09:20:36.229Z</time></trkpt><trkpt lat="43.377256" lon="11.107721"><ele>253.0</ele><time>2026-04-13T09:20:38.234Z</time></trkpt><trkpt lat="43.3772555" lon="11.1076038"><ele>252.99999999999997</ele><time>2026-04-13T09:20:40.241Z</time></trkpt><trkpt lat="43.3772673" lon="11.1074927"><ele>253.0</ele><time>2026-04-13T09:20:42.237Z</time></trkpt><trkpt lat="43.377285" lon="11.1073785"><ele>253.0</ele><time>2026-04-13T09:20:44.25Z</time></trkpt><trkpt lat="43.3773046" lon="11.1072714"><ele>253.0</ele><time>2026-04-13T09:20:46.234Z</time></trkpt><trkpt lat="43.3773276" lon="11.1071726"><ele>252.99999999999997</ele><time>2026-04-13T09:20:48.237Z</time></trkpt><trkpt lat="43.3773477" lon="11.1070617"><ele>253.0</ele><time>2026-04-13T09:20:50.235Z</time></trkpt><trkpt lat="43.3773688" lon="11.1069547"><ele>253.66666666666666</ele><time>2026-04-13T09:20:52.237Z</time></trkpt><trkpt lat="43.3773869" lon="11.1068475"><ele>254.33333333333331</ele><time>2026-04-13T09:20:54.238Z</time></trkpt><trkpt lat="43.3774068" lon="11.1067414"><ele>255.0</ele><time>2026-04-13T09:20:56.237Z</time></trkpt><trkpt lat="43.3774132" lon="11.1066235"><ele>255.66666666666669</ele><time>2026-04-13T09:20:58.236Z</time></trkpt><trkpt lat="43.377421" lon="11.1065198"><ele>256.33333333333337</ele><time>2026-04-13T09:21:00.235Z</time></trkpt><trkpt lat="43.377435" lon="11.1064292"><ele>257.0</ele><time>2026-04-13T09:21:02.254Z</time></trkpt><trkpt lat="43.3774487" lon="11.1063343"><ele>257.1428571428571</ele><time>2026-04-13T09:21:04.245Z</time></trkpt><trkpt lat="43.3774622" lon="11.1062421"><ele>257.2857142857143</ele><time>2026-04-13T09:21:06.241Z</time></trkpt><trkpt lat="43.3774804" lon="11.1061525"><ele>257.42857142857144</ele><time>2026-04-13T09:21:08.248Z</time></trkpt><trkpt lat="43.3774937" lon="11.1060648"><ele>257.57142857142856</ele><time>2026-04-13T09:21:10.246Z</time></trkpt><trkpt lat="43.3775018" lon="11.1059619"><ele>257.7142857142857</ele><time>2026-04-13T09:21:12.241Z</time></trkpt><trkpt lat="43.377515" lon="11.105852"><ele>257.85714285714283</ele><time>2026-04-13T09:21:14.248Z</time></trkpt><trkpt lat="43.3775289" lon="11.105755"><ele>258.0</ele><time>2026-04-13T09:21:16.245Z</time></trkpt><trkpt lat="43.3775336" lon="11.1056459"><ele>258.0</ele><time>2026-04-13T09:21:18.236Z</time></trkpt><trkpt lat="43.3775386" lon="11.1055466"><ele>258.0</ele><time>2026-04-13T09:21:20.238Z</time></trkpt><trkpt lat="43.3775378" lon="11.1054428"><ele>258.0</ele><time>2026-04-13T09:21:22.23Z</time></trkpt><trkpt lat="43.3775262" lon="11.1053346"><ele>258.0</ele><time>2026-04-13T09:21:24.248Z</time></trkpt><trkpt lat="43.3775066" lon="11.1052252"><ele>258.0</ele><time>2026-04-13T09:21:26.247Z</time></trkpt><trkpt lat="43.3774868" lon="11.1051208"><ele>258.0</ele><time>2026-04-13T09:21:28.232Z</time></trkpt><trkpt lat="43.3774532" lon="11.1050197"><ele>258.0</ele><time>2026-04-13T09:21:30.237Z</time></trkpt><trkpt lat="43.3774197" lon="11.1049203"><ele>258.0</ele><time>2026-04-13T09:21:32.236Z</time></trkpt><trkpt lat="43.377391" lon="11.1048227"><ele>258.0</ele><time>2026-04-13T09:21:34.242Z</time></trkpt><trkpt lat="43.3773632" lon="11.1047254"><ele>258.0</ele><time>2026-04-13T09:21:36.246Z</time></trkpt><trkpt lat="43.3773329" lon="11.1046266"><ele>258.0</ele><time>2026-04-13T09:21:38.237Z</time></trkpt><trkpt lat="43.3773022" lon="11.1045231"><ele>258.0</ele><time>2026-04-13T09:21:40.242Z</time></trkpt><trkpt lat="43.3772738" lon="11.1044097"><ele>257.6</ele><time>2026-04-13T09:21:42.22Z</time></trkpt><trkpt lat="43.3772477" lon="11.1042867"><ele>257.20000000000005</ele><time>2026-04-13T09:21:44.219Z</time></trkpt><trkpt lat="43.3772152" lon="11.1041604"><ele>256.8</ele><time>2026-04-13T09:21:46.246Z</time></trkpt><trkpt lat="43.3771948" lon="11.104027"><ele>256.40000000000003</ele><time>2026-04-13T09:21:48.252Z</time></trkpt><trkpt lat="43.3771775" lon="11.1038961"><ele>256.0</ele><time>2026-04-13T09:21:50.219Z</time></trkpt><trkpt lat="43.3771542" lon="11.1037559"><ele>256.8</ele><time>2026-04-13T09:21:52.215Z</time></trkpt><trkpt lat="43.3771337" lon="11.1036237"><ele>257.6</ele><time>2026-04-13T09:21:54.25Z</time></trkpt><trkpt lat="43.3771102" lon="11.1034791"><ele>258.4</ele><time>2026-04-13T09:21:56.235Z</time></trkpt><trkpt lat="43.377089" lon="11.1033298"><ele>259.2</ele><time>2026-04-13T09:21:58.246Z</time></trkpt><trkpt lat="43.377071" lon="11.1031798"><ele>260.0</ele><time>2026-04-13T09:22:00.236Z</time></trkpt><trkpt lat="43.377051" lon="11.1030386"><ele>260.2</ele><time>2026-04-13T09:22:02.25Z</time></trkpt><trkpt lat="43.3770193" lon="11.1029004"><ele>260.4</ele><time>2026-04-13T09:22:04.227Z</time></trkpt><trkpt lat="43.3770024" lon="11.1027566"><ele>260.6</ele><time>2026-04-13T09:22:06.219Z</time></trkpt><trkpt lat="43.376983" lon="11.1026222"><ele>260.8</ele><time>2026-04-13T09:22:08.237Z</time></trkpt><trkpt lat="43.3769584" lon="11.1024849"><ele>261.0</ele><time>2026-04-13T09:22:10.214Z</time></trkpt><trkpt lat="43.3769379" lon="11.1023503"><ele>261.40000000000003</ele><time>2026-04-13T09:22:12.235Z</time></trkpt><trkpt lat="43.3769121" lon="11.102217"><ele>261.8</ele><time>2026-04-13T09:22:14.244Z</time></trkpt><trkpt lat="43.3768904" lon="11.1020881"><ele>262.20000000000005</ele><time>2026-04-13T09:22:16.234Z</time></trkpt><trkpt lat="43.3768701" lon="11.1019603"><ele>262.6</ele><time>2026-04-13T09:22:18.241Z</time></trkpt><trkpt lat="43.3768463" lon="11.1018459"><ele>263.0</ele><time>2026-04-13T09:22:20.243Z</time></trkpt><trkpt lat="43.376824" lon="11.101732"><ele>263.0</ele><time>2026-04-13T09:22:22.234Z</time></trkpt><trkpt lat="43.3768039" lon="11.1016292"><ele>263.0</ele><time>2026-04-13T09:22:24.241Z</time></trkpt><trkpt lat="43.3767769" lon="11.1015292"><ele>263.0</ele><time>2026-04-13T09:22:26.231Z</time></trkpt><trkpt lat="43.37675" lon="11.1014377"><ele>263.0</ele><time>2026-04-13T09:22:28.236Z</time></trkpt><trkpt lat="43.376715" lon="11.1013402"><ele>263.0</ele><time>2026-04-13T09:22:30.247Z</time></trkpt><trkpt lat="43.3766866" lon="11.101242"><ele>263.0</ele><time>2026-04-13T09:22:32.251Z</time></trkpt><trkpt lat="43.376651" lon="11.1011452"><ele>263.1666666666667</ele><time>2026-04-13T09:22:34.25Z</time></trkpt><trkpt lat="43.3766114" lon="11.1010496"><ele>263.33333333333337</ele><time>2026-04-13T09:22:36.253Z</time></trkpt><trkpt lat="43.3765675" lon="11.1009632"><ele>263.5</ele><time>2026-04-13T09:22:38.245Z</time></trkpt><trkpt lat="43.3765329" lon="11.1008739"><ele>263.6666666666667</ele><time>2026-04-13T09:22:40.243Z</time></trkpt><trkpt lat="43.3765072" lon="11.1007822"><ele>263.8333333333333</ele><time>2026-04-13T09:22:42.239Z</time></trkpt><trkpt lat="43.3764703" lon="11.1006879"><ele>264.0</ele><time>2026-04-13T09:22:44.246Z</time></trkpt><trkpt lat="43.3764348" lon="11.1005901"><ele>264.3333333333333</ele><time>2026-04-13T09:22:46.224Z</time></trkpt><trkpt lat="43.3763951" lon="11.1004932"><ele>264.6666666666667</ele><time>2026-04-13T09:22:48.242Z</time></trkpt><trkpt lat="43.3763561" lon="11.1003934"><ele>265.0</ele><time>2026-04-13T09:22:50.235Z</time></trkpt><trkpt lat="43.376319" lon="11.1002941"><ele>265.33333333333337</ele><time>2026-04-13T09:22:52.216Z</time></trkpt><trkpt lat="43.3762877" lon="11.1001931"><ele>265.6666666666667</ele><time>2026-04-13T09:22:54.241Z</time></trkpt><trkpt lat="43.3762543" lon="11.1000944"><ele>266.0</ele><time>2026-04-13T09:22:56.25Z</time></trkpt><trkpt lat="43.3762242" lon="11.0999986"><ele>266.5</ele><time>2026-04-13T09:22:58.239Z</time></trkpt><trkpt lat="43.3761933" lon="11.0998997"><ele>267.0</ele><time>2026-04-13T09:23:00.242Z</time></trkpt><trkpt lat="43.3761604" lon="11.0998074"><ele>267.5</ele><time>2026-04-13T09:23:02.235Z</time></trkpt><trkpt lat="43.3761172" lon="11.0997164"><ele>268.0</ele><time>2026-04-13T09:23:04.241Z</time></trkpt><trkpt lat="43.3760787" lon="11.0996396"><ele>268.5</ele><time>2026-04-13T09:23:06.295Z</time></trkpt><trkpt lat="43.3760296" lon="11.0995458"><ele>269.0</ele><time>2026-04-13T09:23:08.235Z</time></trkpt><trkpt lat="43.375976" lon="11.0994588"><ele>269.0</ele><time>2026-04-13T09:23:10.21Z</time></trkpt><trkpt lat="43.3759449" lon="11.0993587"><ele>269.0</ele><time>2026-04-13T09:23:12.233Z</time></trkpt><trkpt lat="43.3759043" lon="11.0992783"><ele>269.0</ele><time>2026-04-13T09:23:14.24Z</time></trkpt><trkpt lat="43.3758499" lon="11.0991997"><ele>269.0</ele><time>2026-04-13T09:23:16.234Z</time></trkpt><trkpt lat="43.3757755" lon="11.0990904"><ele>269.0</ele><time>2026-04-13T09:23:19.238Z</time></trkpt><trkpt lat="43.3757177" lon="11.0989931"><ele>269.0</ele><time>2026-04-13T09:23:21.222Z</time></trkpt><trkpt lat="43.3756758" lon="11.0989119"><ele>268.83333333333337</ele><time>2026-04-13T09:23:23.233Z</time></trkpt><trkpt lat="43.3756373" lon="11.0988206"><ele>268.6666666666667</ele><time>2026-04-13T09:23:25.245Z</time></trkpt><trkpt lat="43.3755944" lon="11.0987287"><ele>268.5</ele><time>2026-04-13T09:23:27.294Z</time></trkpt><trkpt lat="43.3755571" lon="11.0986419"><ele>268.3333333333333</ele><time>2026-04-13T09:23:29.244Z</time></trkpt><trkpt lat="43.3755181" lon="11.0985429"><ele>268.16666666666663</ele><time>2026-04-13T09:23:31.234Z</time></trkpt><trkpt lat="43.375485" lon="11.0984389"><ele>268.0</ele><time>2026-04-13T09:23:33.233Z</time></trkpt><trkpt lat="43.3754453" lon="11.0983381"><ele>268.8</ele><time>2026-04-13T09:23:35.244Z</time></trkpt><trkpt lat="43.3754184" lon="11.0982432"><ele>269.6</ele><time>2026-04-13T09:23:37.224Z</time></trkpt><trkpt lat="43.3753833" lon="11.0980651"><ele>270.4</ele><time>2026-04-13T09:23:40.235Z</time></trkpt><trkpt lat="43.3753649" lon="11.0979493"><ele>271.2</ele><time>2026-04-13T09:23:42.229Z</time></trkpt><trkpt lat="43.3753346" lon="11.0978489"><ele>272.0</ele><time>2026-04-13T09:23:44.252Z</time></trkpt><trkpt lat="43.3753094" lon="11.097716"><ele>272.0</ele><time>2026-04-13T09:23:46.324Z</time></trkpt><trkpt lat="43.3752849" lon="11.0975861"><ele>272.0</ele><time>2026-04-13T09:23:48.242Z</time></trkpt><trkpt lat="43.3752687" lon="11.0974621"><ele>272.0</ele><time>2026-04-13T09:23:50.232Z</time></trkpt><trkpt lat="43.3752533" lon="11.0973372"><ele>272.0</ele><time>2026-04-13T09:23:52.241Z</time></trkpt><trkpt lat="43.3752346" lon="11.0972126"><ele>272.0</ele><time>2026-04-13T09:23:54.245Z</time></trkpt><trkpt lat="43.3752277" lon="11.0970945"><ele>272.0</ele><time>2026-04-13T09:23:56.309Z</time></trkpt><trkpt lat="43.375222" lon="11.0969689"><ele>272.0</ele><time>2026-04-13T09:23:58.231Z</time></trkpt><trkpt lat="43.3752037" lon="11.0968402"><ele>272.0</ele><time>2026-04-13T09:24:00.309Z</time></trkpt><trkpt lat="43.3751798" lon="11.0967081"><ele>272.0</ele><time>2026-04-13T09:24:02.238Z</time></trkpt><trkpt lat="43.3751573" lon="11.0965661"><ele>272.0</ele><time>2026-04-13T09:24:04.24Z</time></trkpt><trkpt lat="43.3751315" lon="11.0964308"><ele>271.8</ele><time>2026-04-13T09:24:06.242Z</time></trkpt><trkpt lat="43.3751058" lon="11.0962938"><ele>271.6</ele><time>2026-04-13T09:24:08.242Z</time></trkpt><trkpt lat="43.3750832" lon="11.0961575"><ele>271.40000000000003</ele><time>2026-04-13T09:24:10.227Z</time></trkpt><trkpt lat="43.3750639" lon="11.0960313"><ele>271.2</ele><time>2026-04-13T09:24:12.302Z</time></trkpt><trkpt lat="43.3750471" lon="11.0959102"><ele>271.0</ele><time>2026-04-13T09:24:14.239Z</time></trkpt><trkpt lat="43.3750152" lon="11.09578"><ele>270.8</ele><time>2026-04-13T09:24:16.243Z</time></trkpt><trkpt lat="43.3749903" lon="11.095645"><ele>270.6</ele><time>2026-04-13T09:24:18.238Z</time></trkpt><trkpt lat="43.3749734" lon="11.0955059"><ele>270.4</ele><time>2026-04-13T09:24:20.251Z</time></trkpt><trkpt lat="43.3749489" lon="11.0953676"><ele>270.2</ele><time>2026-04-13T09:24:22.217Z</time></trkpt><trkpt lat="43.374923" lon="11.0952338"><ele>270.0</ele><time>2026-04-13T09:24:24.249Z</time></trkpt><trkpt lat="43.374911" lon="11.0951095"><ele>270.0</ele><time>2026-04-13T09:24:26.237Z</time></trkpt><trkpt lat="43.3748945" lon="11.0949979"><ele>270.0</ele><time>2026-04-13T09:24:28.233Z</time></trkpt><trkpt lat="43.3748746" lon="11.0948727"><ele>270.0</ele><time>2026-04-13T09:24:30.3Z</time></trkpt><trkpt lat="43.3748508" lon="11.0947483"><ele>270.0</ele><time>2026-04-13T09:24:32.239Z</time></trkpt><trkpt lat="43.3748367" lon="11.0946358"><ele>270.0</ele><time>2026-04-13T09:24:34.247Z</time></trkpt><trkpt lat="43.3748219" lon="11.0945134"><ele>270.0</ele><time>2026-04-13T09:24:36.301Z</time></trkpt><trkpt lat="43.3748042" lon="11.0943855"><ele>270.4</ele><time>2026-04-13T09:24:38.242Z</time></trkpt><trkpt lat="43.3747854" lon="11.0942545"><ele>270.8</ele><time>2026-04-13T09:24:40.22Z</time></trkpt><trkpt lat="43.3747682" lon="11.0941271"><ele>271.2</ele><time>2026-04-13T09:24:42.221Z</time></trkpt><trkpt lat="43.3747501" lon="11.0939974"><ele>271.6</ele><time>2026-04-13T09:24:44.223Z</time></trkpt><trkpt lat="43.3747302" lon="11.0938729"><ele>272.0</ele><time>2026-04-13T09:24:46.235Z</time></trkpt><trkpt lat="43.374716" lon="11.0937553"><ele>272.0</ele><time>2026-04-13T09:24:48.218Z</time></trkpt><trkpt lat="43.3746987" lon="11.0936213"><ele>272.0</ele><time>2026-04-13T09:24:50.315Z</time></trkpt><trkpt lat="43.3746808" lon="11.0935003"><ele>272.0</ele><time>2026-04-13T09:24:52.233Z</time></trkpt><trkpt lat="43.3746632" lon="11.0933717"><ele>272.0</ele><time>2026-04-13T09:24:54.241Z</time></trkpt><trkpt lat="43.3746408" lon="11.0932431"><ele>272.0</ele><time>2026-04-13T09:24:56.233Z</time></trkpt><trkpt lat="43.3746171" lon="11.0931195"><ele>272.4</ele><time>2026-04-13T09:24:58.232Z</time></trkpt><trkpt lat="43.3745896" lon="11.0929995"><ele>272.79999999999995</ele><time>2026-04-13T09:25:00.231Z</time></trkpt><trkpt lat="43.3745798" lon="11.0928671"><ele>273.2</ele><time>2026-04-13T09:25:02.234Z</time></trkpt><trkpt lat="43.3745615" lon="11.0927401"><ele>273.59999999999997</ele><time>2026-04-13T09:25:04.234Z</time></trkpt><trkpt lat="43.3745389" lon="11.0926097"><ele>274.0</ele><time>2026-04-13T09:25:06.299Z</time></trkpt><trkpt lat="43.3745218" lon="11.0924889"><ele>274.3333333333333</ele><time>2026-04-13T09:25:08.247Z</time></trkpt><trkpt lat="43.374506" lon="11.0923672"><ele>274.66666666666663</ele><time>2026-04-13T09:25:10.238Z</time></trkpt><trkpt lat="43.3744869" lon="11.0922449"><ele>275.0</ele><time>2026-04-13T09:25:12.233Z</time></trkpt><trkpt lat="43.3744697" lon="11.0921232"><ele>275.3333333333333</ele><time>2026-04-13T09:25:14.235Z</time></trkpt><trkpt lat="43.3744486" lon="11.0920004"><ele>275.6666666666667</ele><time>2026-04-13T09:25:16.307Z</time></trkpt><trkpt lat="43.3744207" lon="11.091907"><ele>276.0</ele><time>2026-04-13T09:25:18.223Z</time></trkpt><trkpt lat="43.37439" lon="11.0918171"><ele>276.0</ele><time>2026-04-13T09:25:20.306Z</time></trkpt><trkpt lat="43.3743659" lon="11.0916704"><ele>276.0</ele><time>2026-04-13T09:25:22.23Z</time></trkpt><trkpt lat="43.3743463" lon="11.0915205"><ele>276.0</ele><time>2026-04-13T09:25:24.234Z</time></trkpt><trkpt lat="43.3743487" lon="11.091382"><ele>276.0</ele><time>2026-04-13T09:25:26.238Z</time></trkpt><trkpt lat="43.3743242" lon="11.0912424"><ele>276.0</ele><time>2026-04-13T09:25:28.223Z</time></trkpt><trkpt lat="43.374299" lon="11.0911035"><ele>275.6</ele><time>2026-04-13T09:25:30.235Z</time></trkpt><trkpt lat="43.3742804" lon="11.0909444"><ele>275.20000000000005</ele><time>2026-04-13T09:25:32.237Z</time></trkpt><trkpt lat="43.3742543" lon="11.0908072"><ele>274.79999999999995</ele><time>2026-04-13T09:25:34.237Z</time></trkpt><trkpt lat="43.3742163" lon="11.0906766"><ele>274.4</ele><time>2026-04-13T09:25:36.304Z</time></trkpt><trkpt lat="43.3741659" lon="11.0905432"><ele>274.0</ele><time>2026-04-13T09:25:38.229Z</time></trkpt><trkpt lat="43.3741202" lon="11.0904057"><ele>273.0</ele><time>2026-04-13T09:25:40.249Z</time></trkpt><trkpt lat="43.3740554" lon="11.0902706"><ele>272.0</ele><time>2026-04-13T09:25:42.226Z</time></trkpt><trkpt lat="43.3739761" lon="11.0901433"><ele>271.0</ele><time>2026-04-13T09:25:44.247Z</time></trkpt><trkpt lat="43.3738886" lon="11.0900176"><ele>270.0</ele><time>2026-04-13T09:25:46.235Z</time></trkpt><trkpt lat="43.3737896" lon="11.0899073"><ele>269.6666666666667</ele><time>2026-04-13T09:25:48.234Z</time></trkpt><trkpt lat="43.3737333" lon="11.0898598"><ele>269.3333333333333</ele><time>2026-04-13T09:25:49.243Z</time></trkpt><trkpt lat="43.3736767" lon="11.0898189"><ele>269.0</ele><time>2026-04-13T09:25:50.225Z</time></trkpt><trkpt lat="43.3736164" lon="11.0897761"><ele>268.66666666666663</ele><time>2026-04-13T09:25:51.291Z</time></trkpt><trkpt lat="43.3735035" lon="11.0897101"><ele>268.3333333333333</ele><time>2026-04-13T09:25:53.236Z</time></trkpt><trkpt lat="43.3733859" lon="11.0896561"><ele>268.0</ele><time>2026-04-13T09:25:55.216Z</time></trkpt><trkpt lat="43.3732672" lon="11.0896053"><ele>268.0</ele><time>2026-04-13T09:25:57.231Z</time></trkpt><trkpt lat="43.3732055" lon="11.0895799"><ele>268.0</ele><time>2026-04-13T09:25:58.232Z</time></trkpt><trkpt lat="43.3731434" lon="11.0895527"><ele>268.0</ele><time>2026-04-13T09:25:59.241Z</time></trkpt><trkpt lat="43.3730806" lon="11.0895224"><ele>268.0</ele><time>2026-04-13T09:26:00.303Z</time></trkpt><trkpt lat="43.373016" lon="11.0894734"><ele>268.0</ele><time>2026-04-13T09:26:01.296Z</time></trkpt><trkpt lat="43.372942" lon="11.0894123"><ele>268.0</ele><time>2026-04-13T09:26:02.231Z</time></trkpt><trkpt lat="43.372872" lon="11.0893737"><ele>268.0</ele><time>2026-04-13T09:26:03.247Z</time></trkpt><trkpt lat="43.3727498" lon="11.0893228"><ele>267.8333333333333</ele><time>2026-04-13T09:26:05.233Z</time></trkpt><trkpt lat="43.3726828" lon="11.0892858"><ele>267.66666666666663</ele><time>2026-04-13T09:26:06.296Z</time></trkpt><trkpt lat="43.3726128" lon="11.0892501"><ele>267.5</ele><time>2026-04-13T09:26:07.229Z</time></trkpt><trkpt lat="43.3725459" lon="11.0892216"><ele>267.3333333333333</ele><time>2026-04-13T09:26:08.227Z</time></trkpt><trkpt lat="43.3724757" lon="11.0891952"><ele>267.1666666666667</ele><time>2026-04-13T09:26:09.241Z</time></trkpt><trkpt lat="43.3723934" lon="11.0891516"><ele>267.0</ele><time>2026-04-13T09:26:10.222Z</time></trkpt><trkpt lat="43.3722919" lon="11.0891064"><ele>266.5</ele><time>2026-04-13T09:26:11.3Z</time></trkpt><trkpt lat="43.3722062" lon="11.0890532"><ele>266.0</ele><time>2026-04-13T09:26:12.231Z</time></trkpt><trkpt lat="43.3721375" lon="11.0890022"><ele>265.5</ele><time>2026-04-13T09:26:13.234Z</time></trkpt><trkpt lat="43.3720753" lon="11.0889643"><ele>265.0</ele><time>2026-04-13T09:26:14.229Z</time></trkpt><trkpt lat="43.3720027" lon="11.0889325"><ele>264.5</ele><time>2026-04-13T09:26:15.297Z</time></trkpt><trkpt lat="43.3719248" lon="11.0888944"><ele>264.0</ele><time>2026-04-13T09:26:16.3Z</time></trkpt><trkpt lat="43.3718517" lon="11.0888412"><ele>263.2</ele><time>2026-04-13T09:26:17.237Z</time></trkpt><trkpt lat="43.3717694" lon="11.0887926"><ele>262.4</ele><time>2026-04-13T09:26:18.231Z</time></trkpt><trkpt lat="43.3716792" lon="11.088748"><ele>261.6</ele><time>2026-04-13T09:26:19.294Z</time></trkpt><trkpt lat="43.371591" lon="11.0887078"><ele>260.8</ele><time>2026-04-13T09:26:20.245Z</time></trkpt><trkpt lat="43.3715025" lon="11.0886694"><ele>260.0</ele><time>2026-04-13T09:26:21.308Z</time></trkpt><trkpt lat="43.3714201" lon="11.0886239"><ele>260.0</ele><time>2026-04-13T09:26:22.231Z</time></trkpt><trkpt lat="43.3713392" lon="11.0885778"><ele>260.0</ele><time>2026-04-13T09:26:23.237Z</time></trkpt><trkpt lat="43.3712623" lon="11.0885349"><ele>260.0</ele><time>2026-04-13T09:26:24.234Z</time></trkpt><trkpt lat="43.3711807" lon="11.088494"><ele>260.0</ele><time>2026-04-13T09:26:25.251Z</time></trkpt><trkpt lat="43.3711028" lon="11.0884559"><ele>260.0</ele><time>2026-04-13T09:26:26.247Z</time></trkpt><trkpt lat="43.3710248" lon="11.0884094"><ele>260.0</ele><time>2026-04-13T09:26:27.245Z</time></trkpt><trkpt lat="43.3709487" lon="11.0883589"><ele>260.0</ele><time>2026-04-13T09:26:28.221Z</time></trkpt><trkpt lat="43.370872" lon="11.0883037"><ele>260.0</ele><time>2026-04-13T09:26:29.245Z</time></trkpt><trkpt lat="43.3707986" lon="11.0882434"><ele>260.0</ele><time>2026-04-13T09:26:30.24Z</time></trkpt><trkpt lat="43.3707288" lon="11.0881732"><ele>260.0</ele><time>2026-04-13T09:26:31.301Z</time></trkpt><trkpt lat="43.3706646" lon="11.0881071"><ele>260.0</ele><time>2026-04-13T09:26:32.222Z</time></trkpt><trkpt lat="43.3706001" lon="11.0880363"><ele>260.0</ele><time>2026-04-13T09:26:33.236Z</time></trkpt><trkpt lat="43.3705396" lon="11.0879581"><ele>260.0</ele><time>2026-04-13T09:26:34.251Z</time></trkpt><trkpt lat="43.3704819" lon="11.0878772"><ele>260.0</ele><time>2026-04-13T09:26:35.231Z</time></trkpt><trkpt lat="43.3704251" lon="11.0877974"><ele>260.0</ele><time>2026-04-13T09:26:36.231Z</time></trkpt><trkpt lat="43.3703735" lon="11.0877182"><ele>260.0</ele><time>2026-04-13T09:26:37.218Z</time></trkpt><trkpt lat="43.3703286" lon="11.0876373"><ele>260.0</ele><time>2026-04-13T09:26:38.22Z</time></trkpt><trkpt lat="43.3702865" lon="11.0875559"><ele>260.0</ele><time>2026-04-13T09:26:39.23Z</time></trkpt><trkpt lat="43.3702457" lon="11.0874796"><ele>260.1666666666667</ele><time>2026-04-13T09:26:40.246Z</time></trkpt><trkpt lat="43.3702086" lon="11.0874017"><ele>260.33333333333337</ele><time>2026-04-13T09:26:41.236Z</time></trkpt><trkpt lat="43.3701733" lon="11.0873228"><ele>260.5</ele><time>2026-04-13T09:26:42.249Z</time></trkpt><trkpt lat="43.3701422" lon="11.0872465"><ele>260.6666666666667</ele><time>2026-04-13T09:26:43.237Z</time></trkpt><trkpt lat="43.3700873" lon="11.0870982"><ele>260.8333333333333</ele><time>2026-04-13T09:26:45.218Z</time></trkpt><trkpt lat="43.3700329" lon="11.0869606"><ele>261.0</ele><time>2026-04-13T09:26:47.237Z</time></trkpt><trkpt lat="43.3699641" lon="11.0868407"><ele>261.0</ele><time>2026-04-13T09:26:49.242Z</time></trkpt><trkpt lat="43.3698781" lon="11.0867334"><ele>261.0</ele><time>2026-04-13T09:26:51.3Z</time></trkpt><trkpt lat="43.3697919" lon="11.0866381"><ele>261.0</ele><time>2026-04-13T09:26:53.233Z</time></trkpt><trkpt lat="43.3697007" lon="11.086558"><ele>261.0</ele><time>2026-04-13T09:26:55.308Z</time></trkpt><trkpt lat="43.3696093" lon="11.0864866"><ele>261.0</ele><time>2026-04-13T09:26:57.294Z</time></trkpt><trkpt lat="43.3693987" lon="11.0862859"><ele>261.8333333333333</ele><time>2026-04-13T09:27:02.308Z</time></trkpt><trkpt lat="43.369305" lon="11.0862287"><ele>262.6666666666667</ele><time>2026-04-13T09:27:04.232Z</time></trkpt><trkpt lat="43.3692447" lon="11.086168"><ele>263.5</ele><time>2026-04-13T09:27:07.306Z</time></trkpt><trkpt lat="43.3691858" lon="11.0860967"><ele>264.33333333333337</ele><time>2026-04-13T09:27:10.228Z</time></trkpt><trkpt lat="43.3691095" lon="11.0860367"><ele>265.1666666666667</ele><time>2026-04-13T09:27:12.239Z</time></trkpt><trkpt lat="43.3690395" lon="11.0859782"><ele>266.0</ele><time>2026-04-13T09:27:14.232Z</time></trkpt><trkpt lat="43.3689568" lon="11.0859322"><ele>266.0</ele><time>2026-04-13T09:27:17.3Z</time></trkpt><trkpt lat="43.3688982" lon="11.0858943"><ele>266.0</ele><time>2026-04-13T09:27:19.227Z</time></trkpt><trkpt lat="43.3688363" lon="11.0858407"><ele>266.0</ele><time>2026-04-13T09:27:21.229Z</time></trkpt><trkpt lat="43.3687729" lon="11.08576"><ele>266.0</ele><time>2026-04-13T09:27:23.232Z</time></trkpt><trkpt lat="43.3687112" lon="11.0856639"><ele>266.0</ele><time>2026-04-13T09:27:25.238Z</time></trkpt><trkpt lat="43.3686532" lon="11.0855738"><ele>266.0</ele><time>2026-04-13T09:27:27.232Z</time></trkpt><trkpt lat="43.3686023" lon="11.0854905"><ele>266.5</ele><time>2026-04-13T09:27:29.24Z</time></trkpt><trkpt lat="43.3685506" lon="11.0854059"><ele>267.0</ele><time>2026-04-13T09:27:31.222Z</time></trkpt><trkpt lat="43.3685048" lon="11.0853157"><ele>267.5</ele><time>2026-04-13T09:27:33.246Z</time></trkpt><trkpt lat="43.3684518" lon="11.0852369"><ele>268.0</ele><time>2026-04-13T09:27:35.297Z</time></trkpt><trkpt lat="43.3683986" lon="11.0851482"><ele>268.5</ele><time>2026-04-13T09:27:37.302Z</time></trkpt><trkpt lat="43.3683338" lon="11.0850874"><ele>269.0</ele><time>2026-04-13T09:27:39.234Z</time></trkpt><trkpt lat="43.3682757" lon="11.0850441"><ele>269.0</ele><time>2026-04-13T09:27:41.296Z</time></trkpt><trkpt lat="43.3682248" lon="11.0849835"><ele>269.0</ele><time>2026-04-13T09:27:43.214Z</time></trkpt><trkpt lat="43.3681723" lon="11.0849283"><ele>269.0</ele><time>2026-04-13T09:27:45.231Z</time></trkpt><trkpt lat="43.3680991" lon="11.0848755"><ele>269.0</ele><time>2026-04-13T09:27:48.253Z</time></trkpt><trkpt lat="43.368022" lon="11.0848229"><ele>269.0</ele><time>2026-04-13T09:27:50.231Z</time></trkpt><trkpt lat="43.3679626" lon="11.0847604"><ele>269.0</ele><time>2026-04-13T09:27:52.307Z</time></trkpt><trkpt lat="43.367864" lon="11.0846935"><ele>269.1666666666667</ele><time>2026-04-13T09:27:55.222Z</time></trkpt><trkpt lat="43.367797" lon="11.0846796"><ele>269.33333333333337</ele><time>2026-04-13T09:27:57.24Z</time></trkpt><trkpt lat="43.3677223" lon="11.0846546"><ele>269.5</ele><time>2026-04-13T09:27:59.231Z</time></trkpt><trkpt lat="43.3676556" lon="11.0846257"><ele>269.6666666666667</ele><time>2026-04-13T09:28:01.305Z</time></trkpt><trkpt lat="43.3675123" lon="11.0845207"><ele>269.8333333333333</ele><time>2026-04-13T09:28:05.239Z</time></trkpt><trkpt lat="43.3674511" lon="11.0845473"><ele>270.0</ele><time>2026-04-13T09:28:07.247Z</time></trkpt><trkpt lat="43.3673839" lon="11.0845232"><ele>270.0</ele><time>2026-04-13T09:28:09.23Z</time></trkpt><trkpt lat="43.3673182" lon="11.0845045"><ele>270.0</ele><time>2026-04-13T09:28:11.299Z</time></trkpt><trkpt lat="43.3672496" lon="11.0844664"><ele>270.0</ele><time>2026-04-13T09:28:13.225Z</time></trkpt><trkpt lat="43.3671796" lon="11.0844471"><ele>270.0</ele><time>2026-04-13T09:28:15.23Z</time></trkpt><trkpt lat="43.3670976" lon="11.0844286"><ele>270.0</ele><time>2026-04-13T09:28:17.23Z</time></trkpt><trkpt lat="43.3670187" lon="11.0843976"><ele>270.0</ele><time>2026-04-13T09:28:19.227Z</time></trkpt><trkpt lat="43.3669499" lon="11.0843544"><ele>270.7142857142857</ele><time>2026-04-13T09:28:21.311Z</time></trkpt><trkpt lat="43.3668868" lon="11.0843135"><ele>271.4285714285714</ele><time>2026-04-13T09:28:23.23Z</time></trkpt><trkpt lat="43.3668211" lon="11.0842684"><ele>272.1428571428571</ele><time>2026-04-13T09:28:25.216Z</time></trkpt><trkpt lat="43.3667633" lon="11.0842219"><ele>272.85714285714283</ele><time>2026-04-13T09:28:27.308Z</time></trkpt><trkpt lat="43.3666978" lon="11.0841774"><ele>273.57142857142856</ele><time>2026-04-13T09:28:29.237Z</time></trkpt><trkpt lat="43.3666351" lon="11.0841289"><ele>274.2857142857143</ele><time>2026-04-13T09:28:31.308Z</time></trkpt><trkpt lat="43.3665757" lon="11.0840842"><ele>275.0</ele><time>2026-04-13T09:28:33.242Z</time></trkpt><trkpt lat="43.3665189" lon="11.0840372"><ele>275.0</ele><time>2026-04-13T09:28:35.245Z</time></trkpt><trkpt lat="43.3664608" lon="11.0839993"><ele>275.0</ele><time>2026-04-13T09:28:37.297Z</time></trkpt><trkpt lat="43.3663989" lon="11.0839599"><ele>275.0</ele><time>2026-04-13T09:28:39.238Z</time></trkpt><trkpt lat="43.366327" lon="11.0839402"><ele>275.0</ele><time>2026-04-13T09:28:42.236Z</time></trkpt><trkpt lat="43.3662687" lon="11.0838776"><ele>275.0</ele><time>2026-04-13T09:28:44.228Z</time></trkpt><trkpt lat="43.3662098" lon="11.0838151"><ele>275.0</ele><time>2026-04-13T09:28:46.314Z</time></trkpt><trkpt lat="43.3661525" lon="11.0837709"><ele>275.0</ele><time>2026-04-13T09:28:48.24Z</time></trkpt><trkpt lat="43.3660939" lon="11.0837175"><ele>275.42857142857144</ele><time>2026-04-13T09:28:50.24Z</time></trkpt><trkpt lat="43.3660376" lon="11.0836637"><ele>275.85714285714283</ele><time>2026-04-13T09:28:52.231Z</time></trkpt><trkpt lat="43.3659797" lon="11.0836218"><ele>276.2857142857143</ele><time>2026-04-13T09:28:54.236Z</time></trkpt><trkpt lat="43.3659258" lon="11.0835692"><ele>276.7142857142857</ele><time>2026-04-13T09:28:56.225Z</time></trkpt><trkpt lat="43.3658656" lon="11.0835236"><ele>277.14285714285717</ele><time>2026-04-13T09:28:58.229Z</time></trkpt><trkpt lat="43.3658014" lon="11.0834823"><ele>277.57142857142856</ele><time>2026-04-13T09:29:00.225Z</time></trkpt><trkpt lat="43.3657364" lon="11.083411"><ele>278.0</ele><time>2026-04-13T09:29:02.227Z</time></trkpt><trkpt lat="43.3656723" lon="11.0833678"><ele>278.0</ele><time>2026-04-13T09:29:04.227Z</time></trkpt><trkpt lat="43.3656105" lon="11.0833135"><ele>278.0</ele><time>2026-04-13T09:29:06.222Z</time></trkpt><trkpt lat="43.3655322" lon="11.083262"><ele>278.0</ele><time>2026-04-13T09:29:09.237Z</time></trkpt><trkpt lat="43.3654671" lon="11.0832206"><ele>278.0</ele><time>2026-04-13T09:29:11.297Z</time></trkpt><trkpt lat="43.3653859" lon="11.083146"><ele>278.0</ele><time>2026-04-13T09:29:13.238Z</time></trkpt><trkpt lat="43.3653116" lon="11.0830828"><ele>278.0</ele><time>2026-04-13T09:29:15.223Z</time></trkpt><trkpt lat="43.3652368" lon="11.0830131"><ele>278.4</ele><time>2026-04-13T09:29:17.295Z</time></trkpt><trkpt lat="43.3651665" lon="11.0829407"><ele>278.8</ele><time>2026-04-13T09:29:19.23Z</time></trkpt><trkpt lat="43.3650982" lon="11.0828547"><ele>279.2</ele><time>2026-04-13T09:29:21.236Z</time></trkpt><trkpt lat="43.3650255" lon="11.0827669"><ele>279.6</ele><time>2026-04-13T09:29:23.234Z</time></trkpt><trkpt lat="43.3649483" lon="11.0826768"><ele>280.0</ele><time>2026-04-13T09:29:25.213Z</time></trkpt><trkpt lat="43.3648737" lon="11.0825862"><ele>280.0</ele><time>2026-04-13T09:29:27.205Z</time></trkpt><trkpt lat="43.364795" lon="11.082495"><ele>280.0</ele><time>2026-04-13T09:29:29.228Z</time></trkpt><trkpt lat="43.3647165" lon="11.0824035"><ele>280.0</ele><time>2026-04-13T09:29:31.228Z</time></trkpt><trkpt lat="43.3646363" lon="11.0823094"><ele>280.0</ele><time>2026-04-13T09:29:33.235Z</time></trkpt><trkpt lat="43.3645549" lon="11.0822108"><ele>280.0</ele><time>2026-04-13T09:29:35.241Z</time></trkpt><trkpt lat="43.3644672" lon="11.0821202"><ele>279.6</ele><time>2026-04-13T09:29:37.234Z</time></trkpt><trkpt lat="43.3643876" lon="11.0820254"><ele>279.2</ele><time>2026-04-13T09:29:39.243Z</time></trkpt><trkpt lat="43.3643121" lon="11.0819237"><ele>278.8</ele><time>2026-04-13T09:29:41.294Z</time></trkpt><trkpt lat="43.3642213" lon="11.0818217"><ele>278.4</ele><time>2026-04-13T09:29:43.231Z</time></trkpt><trkpt lat="43.3641524" lon="11.0817128"><ele>278.0</ele><time>2026-04-13T09:29:45.231Z</time></trkpt><trkpt lat="43.3640968" lon="11.0815931"><ele>278.0</ele><time>2026-04-13T09:29:47.244Z</time></trkpt><trkpt lat="43.3640399" lon="11.0814763"><ele>278.0</ele><time>2026-04-13T09:29:49.223Z</time></trkpt><trkpt lat="43.3639781" lon="11.0813626"><ele>278.0</ele><time>2026-04-13T09:29:51.229Z</time></trkpt><trkpt lat="43.3639059" lon="11.0812539"><ele>278.0</ele><time>2026-04-13T09:29:53.231Z</time></trkpt><trkpt lat="43.3638525" lon="11.0811212"><ele>278.0</ele><time>2026-04-13T09:29:55.22Z</time></trkpt><trkpt lat="43.3637959" lon="11.0809893"><ele>278.0</ele><time>2026-04-13T09:29:57.229Z</time></trkpt><trkpt lat="43.3637332" lon="11.0808671"><ele>278.0</ele><time>2026-04-13T09:29:59.227Z</time></trkpt><trkpt lat="43.3636867" lon="11.0807612"><ele>278.0</ele><time>2026-04-13T09:30:01.312Z</time></trkpt><trkpt lat="43.3636262" lon="11.0806093"><ele>278.0</ele><time>2026-04-13T09:30:03.234Z</time></trkpt><trkpt lat="43.3635736" lon="11.0804719"><ele>278.0</ele><time>2026-04-13T09:30:05.239Z</time></trkpt><trkpt lat="43.3635463" lon="11.0803302"><ele>278.6</ele><time>2026-04-13T09:30:07.32Z</time></trkpt><trkpt lat="43.3635284" lon="11.0801741"><ele>279.20000000000005</ele><time>2026-04-13T09:30:09.245Z</time></trkpt><trkpt lat="43.3635081" lon="11.0800398"><ele>279.8</ele><time>2026-04-13T09:30:11.301Z</time></trkpt><trkpt lat="43.3635031" lon="11.079895"><ele>280.40000000000003</ele><time>2026-04-13T09:30:13.228Z</time></trkpt><trkpt lat="43.3634949" lon="11.0797407"><ele>281.0</ele><time>2026-04-13T09:30:15.227Z</time></trkpt><trkpt lat="43.363485" lon="11.0795765"><ele>281.2</ele><time>2026-04-13T09:30:17.246Z</time></trkpt><trkpt lat="43.3634775" lon="11.0794902"><ele>281.40000000000003</ele><time>2026-04-13T09:30:18.217Z</time></trkpt><trkpt lat="43.363476" lon="11.0793288"><ele>281.6</ele><time>2026-04-13T09:30:20.283Z</time></trkpt><trkpt lat="43.3634725" lon="11.0791551"><ele>281.8</ele><time>2026-04-13T09:30:22.229Z</time></trkpt><trkpt lat="43.3634642" lon="11.078985"><ele>282.0</ele><time>2026-04-13T09:30:24.247Z</time></trkpt><trkpt lat="43.3634447" lon="11.0788124"><ele>281.6</ele><time>2026-04-13T09:30:26.286Z</time></trkpt><trkpt lat="43.3634205" lon="11.0786449"><ele>281.2</ele><time>2026-04-13T09:30:28.237Z</time></trkpt><trkpt lat="43.3633884" lon="11.0784739"><ele>280.8</ele><time>2026-04-13T09:30:30.233Z</time></trkpt><trkpt lat="43.3633488" lon="11.0783083"><ele>280.4</ele><time>2026-04-13T09:30:32.235Z</time></trkpt><trkpt lat="43.363326" lon="11.0782232"><ele>280.0</ele><time>2026-04-13T09:30:33.244Z</time></trkpt><trkpt lat="43.3633034" lon="11.0781381"><ele>280.0</ele><time>2026-04-13T09:30:34.244Z</time></trkpt><trkpt lat="43.3632811" lon="11.0780517"><ele>280.0</ele><time>2026-04-13T09:30:35.23Z</time></trkpt><trkpt lat="43.3632587" lon="11.0779651"><ele>280.0</ele><time>2026-04-13T09:30:36.251Z</time></trkpt><trkpt lat="43.3632345" lon="11.0778796"><ele>280.0</ele><time>2026-04-13T09:30:37.246Z</time></trkpt><trkpt lat="43.3632085" lon="11.0777919"><ele>280.0</ele><time>2026-04-13T09:30:38.244Z</time></trkpt><trkpt lat="43.3631805" lon="11.0777061"><ele>280.0</ele><time>2026-04-13T09:30:39.25Z</time></trkpt><trkpt lat="43.3631533" lon="11.0776212"><ele>280.0</ele><time>2026-04-13T09:30:40.229Z</time></trkpt><trkpt lat="43.363123" lon="11.0775398"><ele>280.0</ele><time>2026-04-13T09:30:41.239Z</time></trkpt><trkpt lat="43.3630974" lon="11.0774606"><ele>280.0</ele><time>2026-04-13T09:30:42.302Z</time></trkpt><trkpt lat="43.3630603" lon="11.0773063"><ele>280.0</ele><time>2026-04-13T09:30:44.225Z</time></trkpt><trkpt lat="43.3630366" lon="11.0772206"><ele>280.0</ele><time>2026-04-13T09:30:45.227Z</time></trkpt><trkpt lat="43.3630044" lon="11.0771341"><ele>280.0</ele><time>2026-04-13T09:30:46.234Z</time></trkpt><trkpt lat="43.362974" lon="11.0770415"><ele>280.0</ele><time>2026-04-13T09:30:47.299Z</time></trkpt><trkpt lat="43.3629512" lon="11.0769463"><ele>280.2</ele><time>2026-04-13T09:30:48.208Z</time></trkpt><trkpt lat="43.3629276" lon="11.0768498"><ele>280.4</ele><time>2026-04-13T09:30:49.216Z</time></trkpt><trkpt lat="43.362894" lon="11.0767515"><ele>280.6</ele><time>2026-04-13T09:30:50.239Z</time></trkpt><trkpt lat="43.3628577" lon="11.0766519"><ele>280.8</ele><time>2026-04-13T09:30:51.248Z</time></trkpt><trkpt lat="43.3628232" lon="11.0765457"><ele>281.0</ele><time>2026-04-13T09:30:52.334Z</time></trkpt><trkpt lat="43.3627525" lon="11.0763157"><ele>279.2</ele><time>2026-04-13T09:30:54.241Z</time></trkpt><trkpt lat="43.3627123" lon="11.0761961"><ele>277.40000000000003</ele><time>2026-04-13T09:30:55.243Z</time></trkpt><trkpt lat="43.3626702" lon="11.0760716"><ele>275.6</ele><time>2026-04-13T09:30:56.314Z</time></trkpt><trkpt lat="43.3626207" lon="11.0759567"><ele>273.8</ele><time>2026-04-13T09:30:57.239Z</time></trkpt><trkpt lat="43.3625565" lon="11.0758478"><ele>272.0</ele><time>2026-04-13T09:30:58.236Z</time></trkpt><trkpt lat="43.3624802" lon="11.0757527"><ele>271.0</ele><time>2026-04-13T09:30:59.236Z</time></trkpt><trkpt lat="43.3623941" lon="11.0756708"><ele>270.0</ele><time>2026-04-13T09:31:00.216Z</time></trkpt><trkpt lat="43.3623038" lon="11.0755979"><ele>269.0</ele><time>2026-04-13T09:31:01.232Z</time></trkpt><trkpt lat="43.3622138" lon="11.0755343"><ele>268.0</ele><time>2026-04-13T09:31:02.238Z</time></trkpt><trkpt lat="43.3621238" lon="11.0754755"><ele>267.0</ele><time>2026-04-13T09:31:03.234Z</time></trkpt><trkpt lat="43.3620369" lon="11.0754175"><ele>267.0</ele><time>2026-04-13T09:31:04.234Z</time></trkpt><trkpt lat="43.3619453" lon="11.0753571"><ele>267.0</ele><time>2026-04-13T09:31:05.232Z</time></trkpt><trkpt lat="43.3618499" lon="11.0752975"><ele>267.0</ele><time>2026-04-13T09:31:06.32Z</time></trkpt><trkpt lat="43.3617619" lon="11.0752347"><ele>267.0</ele><time>2026-04-13T09:31:07.24Z</time></trkpt><trkpt lat="43.361665" lon="11.0751635"><ele>267.0</ele><time>2026-04-13T09:31:08.246Z</time></trkpt><trkpt lat="43.3615778" lon="11.0750985"><ele>267.0</ele><time>2026-04-13T09:31:09.247Z</time></trkpt><trkpt lat="43.3614955" lon="11.0750285"><ele>267.0</ele><time>2026-04-13T09:31:10.226Z</time></trkpt><trkpt lat="43.3614211" lon="11.0749472"><ele>267.0</ele><time>2026-04-13T09:31:11.233Z</time></trkpt><trkpt lat="43.361356" lon="11.0748586"><ele>267.0</ele><time>2026-04-13T09:31:12.226Z</time></trkpt><trkpt lat="43.3612984" lon="11.0747646"><ele>267.0</ele><time>2026-04-13T09:31:13.241Z</time></trkpt><trkpt lat="43.3612554" lon="11.0746598"><ele>267.3333333333333</ele><time>2026-04-13T09:31:14.238Z</time></trkpt><trkpt lat="43.3612178" lon="11.0745509"><ele>267.6666666666667</ele><time>2026-04-13T09:31:15.214Z</time></trkpt><trkpt lat="43.3611796" lon="11.0744391"><ele>268.0</ele><time>2026-04-13T09:31:16.333Z</time></trkpt><trkpt lat="43.3611433" lon="11.0743386"><ele>268.33333333333337</ele><time>2026-04-13T09:31:17.268Z</time></trkpt><trkpt lat="43.3611092" lon="11.074233"><ele>268.6666666666667</ele><time>2026-04-13T09:31:18.242Z</time></trkpt><trkpt lat="43.3610745" lon="11.0741297"><ele>269.0</ele><time>2026-04-13T09:31:19.239Z</time></trkpt><trkpt lat="43.3610393" lon="11.0740294"><ele>268.1666666666667</ele><time>2026-04-13T09:31:20.241Z</time></trkpt><trkpt lat="43.3610066" lon="11.073934"><ele>267.33333333333337</ele><time>2026-04-13T09:31:21.242Z</time></trkpt><trkpt lat="43.3609728" lon="11.073837"><ele>266.5</ele><time>2026-04-13T09:31:22.314Z</time></trkpt><trkpt lat="43.3609408" lon="11.0737366"><ele>265.6666666666667</ele><time>2026-04-13T09:31:23.226Z</time></trkpt><trkpt lat="43.3609095" lon="11.0736302"><ele>264.8333333333333</ele><time>2026-04-13T09:31:24.232Z</time></trkpt><trkpt lat="43.3608817" lon="11.073529"><ele>264.0</ele><time>2026-04-13T09:31:25.247Z</time></trkpt><trkpt lat="43.3608585" lon="11.0734207"><ele>264.0</ele><time>2026-04-13T09:31:26.23Z</time></trkpt><trkpt lat="43.3608388" lon="11.0733029"><ele>264.0</ele><time>2026-04-13T09:31:27.299Z</time></trkpt><trkpt lat="43.3608207" lon="11.0731916"><ele>264.0</ele><time>2026-04-13T09:31:28.235Z</time></trkpt><trkpt lat="43.3608002" lon="11.0730779"><ele>264.0</ele><time>2026-04-13T09:31:29.22Z</time></trkpt><trkpt lat="43.3607818" lon="11.072967"><ele>264.0</ele><time>2026-04-13T09:31:30.219Z</time></trkpt><trkpt lat="43.3607622" lon="11.0728587"><ele>264.0</ele><time>2026-04-13T09:31:31.234Z</time></trkpt><trkpt lat="43.3607396" lon="11.0727489"><ele>263.5</ele><time>2026-04-13T09:31:32.315Z</time></trkpt><trkpt lat="43.3607155" lon="11.0726432"><ele>263.0</ele><time>2026-04-13T09:31:33.236Z</time></trkpt><trkpt lat="43.3606861" lon="11.0725297"><ele>262.5</ele><time>2026-04-13T09:31:34.29Z</time></trkpt><trkpt lat="43.3606563" lon="11.0724224"><ele>262.0</ele><time>2026-04-13T09:31:35.23Z</time></trkpt><trkpt lat="43.3606255" lon="11.0723121"><ele>261.5</ele><time>2026-04-13T09:31:36.242Z</time></trkpt><trkpt lat="43.3605957" lon="11.0722069"><ele>261.0</ele><time>2026-04-13T09:31:37.232Z</time></trkpt><trkpt lat="43.3605662" lon="11.0720921"><ele>261.0</ele><time>2026-04-13T09:31:38.231Z</time></trkpt><trkpt lat="43.3605386" lon="11.0719725"><ele>261.0</ele><time>2026-04-13T09:31:39.237Z</time></trkpt><trkpt lat="43.3605075" lon="11.071857"><ele>261.0</ele><time>2026-04-13T09:31:40.235Z</time></trkpt><trkpt lat="43.3604685" lon="11.0717402"><ele>261.0</ele><time>2026-04-13T09:31:41.231Z</time></trkpt><trkpt lat="43.3604301" lon="11.0716221"><ele>261.0</ele><time>2026-04-13T09:31:42.305Z</time></trkpt><trkpt lat="43.3603952" lon="11.0715115"><ele>261.0</ele><time>2026-04-13T09:31:43.232Z</time></trkpt><trkpt lat="43.3603602" lon="11.0713912"><ele>261.0</ele><time>2026-04-13T09:31:44.241Z</time></trkpt><trkpt lat="43.3603275" lon="11.0712717"><ele>261.0</ele><time>2026-04-13T09:31:45.224Z</time></trkpt><trkpt lat="43.3602949" lon="11.0711527"><ele>261.0</ele><time>2026-04-13T09:31:46.234Z</time></trkpt><trkpt lat="43.3602625" lon="11.0710379"><ele>261.0</ele><time>2026-04-13T09:31:47.225Z</time></trkpt><trkpt lat="43.3602296" lon="11.070921"><ele>261.0</ele><time>2026-04-13T09:31:48.239Z</time></trkpt><trkpt lat="43.3601958" lon="11.0708054"><ele>261.0</ele><time>2026-04-13T09:31:49.239Z</time></trkpt><trkpt lat="43.3601644" lon="11.0706929"><ele>261.0</ele><time>2026-04-13T09:31:50.246Z</time></trkpt><trkpt lat="43.3601338" lon="11.0705819"><ele>261.0</ele><time>2026-04-13T09:31:51.228Z</time></trkpt><trkpt lat="43.360105" lon="11.0704737"><ele>261.0</ele><time>2026-04-13T09:31:52.229Z</time></trkpt><trkpt lat="43.3600783" lon="11.0703703"><ele>261.0</ele><time>2026-04-13T09:31:53.241Z</time></trkpt><trkpt lat="43.3600526" lon="11.0702755"><ele>261.6666666666667</ele><time>2026-04-13T09:31:54.228Z</time></trkpt><trkpt lat="43.360026" lon="11.0701901"><ele>262.3333333333333</ele><time>2026-04-13T09:31:55.228Z</time></trkpt><trkpt lat="43.3599991" lon="11.0701067"><ele>263.0</ele><time>2026-04-13T09:31:56.24Z</time></trkpt><trkpt lat="43.3599543" lon="11.0699613"><ele>263.66666666666663</ele><time>2026-04-13T09:31:58.247Z</time></trkpt><trkpt lat="43.3599146" lon="11.069827"><ele>264.3333333333333</ele><time>2026-04-13T09:32:00.226Z</time></trkpt><trkpt lat="43.3598784" lon="11.0697062"><ele>265.0</ele><time>2026-04-13T09:32:02.327Z</time></trkpt><trkpt lat="43.3598501" lon="11.0695955"><ele>265.3333333333333</ele><time>2026-04-13T09:32:04.24Z</time></trkpt><trkpt lat="43.3598233" lon="11.0694841"><ele>265.66666666666663</ele><time>2026-04-13T09:32:06.221Z</time></trkpt><trkpt lat="43.3598038" lon="11.0693722"><ele>266.0</ele><time>2026-04-13T09:32:08.217Z</time></trkpt><trkpt lat="43.3597871" lon="11.0692588"><ele>266.3333333333333</ele><time>2026-04-13T09:32:10.229Z</time></trkpt><trkpt lat="43.3597684" lon="11.0691666"><ele>266.6666666666667</ele><time>2026-04-13T09:32:12.31Z</time></trkpt><trkpt lat="43.3597413" lon="11.0690438"><ele>267.0</ele><time>2026-04-13T09:32:15.23Z</time></trkpt><trkpt lat="43.3597353" lon="11.068947"><ele>267.0</ele><time>2026-04-13T09:32:17.312Z</time></trkpt><trkpt lat="43.3597418" lon="11.0688375"><ele>267.0</ele><time>2026-04-13T09:32:19.245Z</time></trkpt><trkpt lat="43.3597111" lon="11.0687318"><ele>267.0</ele><time>2026-04-13T09:32:21.216Z</time></trkpt><trkpt lat="43.3596932" lon="11.0686034"><ele>267.0</ele><time>2026-04-13T09:32:23.232Z</time></trkpt><trkpt lat="43.3596817" lon="11.0684615"><ele>267.0</ele><time>2026-04-13T09:32:25.254Z</time></trkpt><trkpt lat="43.3596624" lon="11.0683173"><ele>267.2</ele><time>2026-04-13T09:32:27.298Z</time></trkpt><trkpt lat="43.3596401" lon="11.0681703"><ele>267.4</ele><time>2026-04-13T09:32:29.228Z</time></trkpt><trkpt lat="43.3596103" lon="11.0680302"><ele>267.6</ele><time>2026-04-13T09:32:31.229Z</time></trkpt><trkpt lat="43.3595751" lon="11.0678971"><ele>267.8</ele><time>2026-04-13T09:32:33.215Z</time></trkpt><trkpt lat="43.359525" lon="11.0677786"><ele>268.0</ele><time>2026-04-13T09:32:35.23Z</time></trkpt><trkpt lat="43.3594601" lon="11.0676735"><ele>268.0</ele><time>2026-04-13T09:32:37.215Z</time></trkpt><trkpt lat="43.3593762" lon="11.0675821"><ele>268.0</ele><time>2026-04-13T09:32:39.233Z</time></trkpt><trkpt lat="43.3592905" lon="11.0674917"><ele>268.0</ele><time>2026-04-13T09:32:41.246Z</time></trkpt><trkpt lat="43.3592082" lon="11.0673928"><ele>268.0</ele><time>2026-04-13T09:32:43.224Z</time></trkpt><trkpt lat="43.3591078" lon="11.067309"><ele>268.0</ele><time>2026-04-13T09:32:45.242Z</time></trkpt><trkpt lat="43.3590156" lon="11.0672229"><ele>267.8</ele><time>2026-04-13T09:32:47.234Z</time></trkpt><trkpt lat="43.3589218" lon="11.0671411"><ele>267.6</ele><time>2026-04-13T09:32:49.23Z</time></trkpt><trkpt lat="43.3588359" lon="11.0670568"><ele>267.4</ele><time>2026-04-13T09:32:51.222Z</time></trkpt><trkpt lat="43.3587565" lon="11.0669547"><ele>267.2</ele><time>2026-04-13T09:32:53.249Z</time></trkpt><trkpt lat="43.3586692" lon="11.066877"><ele>267.0</ele><time>2026-04-13T09:32:55.297Z</time></trkpt><trkpt lat="43.3585812" lon="11.066795"><ele>267.0</ele><time>2026-04-13T09:32:57.241Z</time></trkpt><trkpt lat="43.3585106" lon="11.0666972"><ele>267.0</ele><time>2026-04-13T09:32:59.231Z</time></trkpt><trkpt lat="43.358444" lon="11.0666045"><ele>267.0</ele><time>2026-04-13T09:33:01.22Z</time></trkpt><trkpt lat="43.358372" lon="11.0665015"><ele>267.0</ele><time>2026-04-13T09:33:03.232Z</time></trkpt><trkpt lat="43.3582922" lon="11.0664125"><ele>267.0</ele><time>2026-04-13T09:33:05.233Z</time></trkpt><trkpt lat="43.3582115" lon="11.0663115"><ele>266.4</ele><time>2026-04-13T09:33:07.305Z</time></trkpt><trkpt lat="43.3581488" lon="11.0662396"><ele>265.79999999999995</ele><time>2026-04-13T09:33:09.238Z</time></trkpt><trkpt lat="43.3580781" lon="11.0661259"><ele>265.2</ele><time>2026-04-13T09:33:11.24Z</time></trkpt><trkpt lat="43.3579894" lon="11.066"><ele>264.59999999999997</ele><time>2026-04-13T09:33:13.242Z</time></trkpt><trkpt lat="43.3579056" lon="11.0658752"><ele>264.0</ele><time>2026-04-13T09:33:15.242Z</time></trkpt><trkpt lat="43.3578411" lon="11.0657446"><ele>265.4</ele><time>2026-04-13T09:33:17.295Z</time></trkpt><trkpt lat="43.3577983" lon="11.0656112"><ele>266.79999999999995</ele><time>2026-04-13T09:33:19.246Z</time></trkpt><trkpt lat="43.3576976" lon="11.0654883"><ele>268.20000000000005</ele><time>2026-04-13T09:33:21.253Z</time></trkpt><trkpt lat="43.3576477" lon="11.0654215"><ele>269.6</ele><time>2026-04-13T09:33:22.249Z</time></trkpt><trkpt lat="43.3575661" lon="11.0653029"><ele>271.0</ele><time>2026-04-13T09:33:24.238Z</time></trkpt><trkpt lat="43.3574785" lon="11.0651821"><ele>271.0</ele><time>2026-04-13T09:33:26.304Z</time></trkpt><trkpt lat="43.3573845" lon="11.0650739"><ele>271.0</ele><time>2026-04-13T09:33:28.223Z</time></trkpt><trkpt lat="43.3572898" lon="11.0649769"><ele>271.0</ele><time>2026-04-13T09:33:30.297Z</time></trkpt><trkpt lat="43.3572227" lon="11.0648693"><ele>271.0</ele><time>2026-04-13T09:33:32.298Z</time></trkpt><trkpt lat="43.3571397" lon="11.0647761"><ele>270.8</ele><time>2026-04-13T09:33:34.233Z</time></trkpt><trkpt lat="43.3570549" lon="11.0646943"><ele>270.6</ele><time>2026-04-13T09:33:36.31Z</time></trkpt><trkpt lat="43.3569754" lon="11.0645837"><ele>270.4</ele><time>2026-04-13T09:33:38.236Z</time></trkpt><trkpt lat="43.3569279" lon="11.0645238"><ele>270.2</ele><time>2026-04-13T09:33:39.233Z</time></trkpt><trkpt lat="43.3568335" lon="11.064427"><ele>270.0</ele><time>2026-04-13T09:33:41.305Z</time></trkpt><trkpt lat="43.3567526" lon="11.064329"><ele>270.0</ele><time>2026-04-13T09:33:43.229Z</time></trkpt><trkpt lat="43.3566944" lon="11.0642894"><ele>270.0</ele><time>2026-04-13T09:33:44.231Z</time></trkpt><trkpt lat="43.3565898" lon="11.0642029"><ele>270.0</ele><time>2026-04-13T09:33:46.306Z</time></trkpt><trkpt lat="43.3564793" lon="11.064132"><ele>270.0</ele><time>2026-04-13T09:33:48.237Z</time></trkpt><trkpt lat="43.3563753" lon="11.0640417"><ele>270.0</ele><time>2026-04-13T09:33:50.222Z</time></trkpt><trkpt lat="43.3563255" lon="11.0639722"><ele>269.8333333333333</ele><time>2026-04-13T09:33:51.209Z</time></trkpt><trkpt lat="43.3562768" lon="11.0639092"><ele>269.6666666666667</ele><time>2026-04-13T09:33:52.216Z</time></trkpt><trkpt lat="43.3562257" lon="11.0638497"><ele>269.5</ele><time>2026-04-13T09:33:53.217Z</time></trkpt><trkpt lat="43.3561297" lon="11.063738"><ele>269.33333333333337</ele><time>2026-04-13T09:33:55.209Z</time></trkpt><trkpt lat="43.35608" lon="11.063683"><ele>269.1666666666667</ele><time>2026-04-13T09:33:56.21Z</time></trkpt><trkpt lat="43.3559864" lon="11.0635776"><ele>269.0</ele><time>2026-04-13T09:33:58.216Z</time></trkpt><trkpt lat="43.3558958" lon="11.0634739"><ele>269.0</ele><time>2026-04-13T09:34:00.23Z</time></trkpt><trkpt lat="43.3558025" lon="11.0633786"><ele>269.0</ele><time>2026-04-13T09:34:02.216Z</time></trkpt><trkpt lat="43.3557057" lon="11.0632749"><ele>269.0</ele><time>2026-04-13T09:34:04.241Z</time></trkpt><trkpt lat="43.3556118" lon="11.0631775"><ele>269.0</ele><time>2026-04-13T09:34:06.23Z</time></trkpt><trkpt lat="43.3555142" lon="11.0630866"><ele>268.59999999999997</ele><time>2026-04-13T09:34:08.231Z</time></trkpt><trkpt lat="43.3554083" lon="11.0629971"><ele>268.2</ele><time>2026-04-13T09:34:10.236Z</time></trkpt><trkpt lat="43.3552928" lon="11.0629228"><ele>267.79999999999995</ele><time>2026-04-13T09:34:12.299Z</time></trkpt><trkpt lat="43.3552352" lon="11.0628863"><ele>267.4</ele><time>2026-04-13T09:34:13.226Z</time></trkpt><trkpt lat="43.3551739" lon="11.0628458"><ele>267.0</ele><time>2026-04-13T09:34:14.238Z</time></trkpt><trkpt lat="43.3551135" lon="11.062806"><ele>267.0</ele><time>2026-04-13T09:34:15.292Z</time></trkpt><trkpt lat="43.3550548" lon="11.0627665"><ele>267.0</ele><time>2026-04-13T09:34:16.308Z</time></trkpt><trkpt lat="43.35481" lon="11.0626155"><ele>267.0</ele><time>2026-04-13T09:34:20.228Z</time></trkpt><trkpt lat="43.3547203" lon="11.0625338"><ele>267.0</ele><time>2026-04-13T09:34:22.228Z</time></trkpt><trkpt lat="43.3546176" lon="11.0624612"><ele>266.6</ele><time>2026-04-13T09:34:24.227Z</time></trkpt><trkpt lat="43.3545182" lon="11.0623914"><ele>266.2</ele><time>2026-04-13T09:34:26.307Z</time></trkpt><trkpt lat="43.354411" lon="11.0623159"><ele>265.8</ele><time>2026-04-13T09:34:28.242Z</time></trkpt><trkpt lat="43.3543517" lon="11.0622846"><ele>265.4</ele><time>2026-04-13T09:34:29.232Z</time></trkpt><trkpt lat="43.3542639" lon="11.0622229"><ele>265.0</ele><time>2026-04-13T09:34:31.228Z</time></trkpt><trkpt lat="43.3541722" lon="11.0621392"><ele>265.0</ele><time>2026-04-13T09:34:33.21Z</time></trkpt><trkpt lat="43.3540778" lon="11.0620754"><ele>265.0</ele><time>2026-04-13T09:34:35.305Z</time></trkpt><trkpt lat="43.3539827" lon="11.0620062"><ele>265.0</ele><time>2026-04-13T09:34:37.297Z</time></trkpt><trkpt lat="43.353875" lon="11.0619371"><ele>265.0</ele><time>2026-04-13T09:34:39.234Z</time></trkpt><trkpt lat="43.3537872" lon="11.061859"><ele>265.0</ele><time>2026-04-13T09:34:41.24Z</time></trkpt><trkpt lat="43.3536965" lon="11.0617916"><ele>265.5</ele><time>2026-04-13T09:34:43.23Z</time></trkpt><trkpt lat="43.3535955" lon="11.061722"><ele>266.0</ele><time>2026-04-13T09:34:45.301Z</time></trkpt><trkpt lat="43.3535035" lon="11.0616405"><ele>266.5</ele><time>2026-04-13T09:34:47.249Z</time></trkpt><trkpt lat="43.3534002" lon="11.0615784"><ele>267.0</ele><time>2026-04-13T09:34:49.239Z</time></trkpt><trkpt lat="43.3532762" lon="11.0615319"><ele>266.3333333333333</ele><time>2026-04-13T09:34:51.249Z</time></trkpt><trkpt lat="43.3532113" lon="11.0615103"><ele>265.6666666666667</ele><time>2026-04-13T09:34:52.33Z</time></trkpt><trkpt lat="43.3530825" lon="11.0614886"><ele>265.0</ele><time>2026-04-13T09:34:54.237Z</time></trkpt><trkpt lat="43.3530108" lon="11.061488"><ele>264.33333333333337</ele><time>2026-04-13T09:34:55.231Z</time></trkpt><trkpt lat="43.3529359" lon="11.0614899"><ele>263.6666666666667</ele><time>2026-04-13T09:34:56.306Z</time></trkpt><trkpt lat="43.3528653" lon="11.0614889"><ele>263.0</ele><time>2026-04-13T09:34:57.243Z</time></trkpt><trkpt lat="43.3527899" lon="11.0614787"><ele>263.0</ele><time>2026-04-13T09:34:58.234Z</time></trkpt><trkpt lat="43.3527153" lon="11.0614595"><ele>263.0</ele><time>2026-04-13T09:34:59.233Z</time></trkpt><trkpt lat="43.3526386" lon="11.061431"><ele>263.0</ele><time>2026-04-13T09:35:00.235Z</time></trkpt><trkpt lat="43.3525614" lon="11.0613912"><ele>263.0</ele><time>2026-04-13T09:35:01.301Z</time></trkpt><trkpt lat="43.3524938" lon="11.0613414"><ele>263.0</ele><time>2026-04-13T09:35:02.304Z</time></trkpt><trkpt lat="43.3524333" lon="11.0612928"><ele>263.0</ele><time>2026-04-13T09:35:03.235Z</time></trkpt><trkpt lat="43.3523669" lon="11.0612437"><ele>263.0</ele><time>2026-04-13T09:35:04.24Z</time></trkpt><trkpt lat="43.3523014" lon="11.0611867"><ele>263.0</ele><time>2026-04-13T09:35:05.22Z</time></trkpt><trkpt lat="43.3522412" lon="11.0611198"><ele>263.0</ele><time>2026-04-13T09:35:06.238Z</time></trkpt><trkpt lat="43.3521794" lon="11.0610571"><ele>263.0</ele><time>2026-04-13T09:35:07.245Z</time></trkpt><trkpt lat="43.3521253" lon="11.0609876"><ele>263.0</ele><time>2026-04-13T09:35:08.234Z</time></trkpt><trkpt lat="43.3520739" lon="11.0609098"><ele>263.0</ele><time>2026-04-13T09:35:09.241Z</time></trkpt><trkpt lat="43.3520212" lon="11.0608348"><ele>262.7142857142857</ele><time>2026-04-13T09:35:10.254Z</time></trkpt><trkpt lat="43.3519734" lon="11.0607653"><ele>262.4285714285714</ele><time>2026-04-13T09:35:11.246Z</time></trkpt><trkpt lat="43.3519237" lon="11.0606986"><ele>262.1428571428571</ele><time>2026-04-13T09:35:12.214Z</time></trkpt><trkpt lat="43.3518715" lon="11.0606311"><ele>261.85714285714283</ele><time>2026-04-13T09:35:13.238Z</time></trkpt><trkpt lat="43.3518241" lon="11.0605557"><ele>261.57142857142856</ele><time>2026-04-13T09:35:14.247Z</time></trkpt><trkpt lat="43.351782" lon="11.0604883"><ele>261.2857142857143</ele><time>2026-04-13T09:35:15.236Z</time></trkpt><trkpt lat="43.3517382" lon="11.0604237"><ele>261.0</ele><time>2026-04-13T09:35:16.243Z</time></trkpt><trkpt lat="43.3516548" lon="11.0602967"><ele>261.0</ele><time>2026-04-13T09:35:18.241Z</time></trkpt><trkpt lat="43.3515817" lon="11.0601744"><ele>261.0</ele><time>2026-04-13T09:35:20.233Z</time></trkpt><trkpt lat="43.3515113" lon="11.0600635"><ele>261.0</ele><time>2026-04-13T09:35:22.239Z</time></trkpt><trkpt lat="43.3514447" lon="11.0599714"><ele>261.0</ele><time>2026-04-13T09:35:24.24Z</time></trkpt><trkpt lat="43.3513841" lon="11.0598879"><ele>261.0</ele><time>2026-04-13T09:35:26.299Z</time></trkpt><trkpt lat="43.3513408" lon="11.0598145"><ele>261.1666666666667</ele><time>2026-04-13T09:35:28.231Z</time></trkpt><trkpt lat="43.3513304" lon="11.0597175"><ele>261.3333333333333</ele><time>2026-04-13T09:35:31.223Z</time></trkpt><trkpt lat="43.3513998" lon="11.0597813"><ele>261.5</ele><time>2026-04-13T09:36:12.311Z</time></trkpt><trkpt lat="43.3514521" lon="11.059712"><ele>261.66666666666663</ele><time>2026-04-13T09:36:33.238Z</time></trkpt><trkpt lat="43.3515428" lon="11.0597532"><ele>261.8333333333333</ele><time>2026-04-13T09:36:36.23Z</time></trkpt><trkpt lat="43.3516431" lon="11.0597739"><ele>262.0</ele><time>2026-04-13T09:36:38.238Z</time></trkpt><trkpt lat="43.3517493" lon="11.0597939"><ele>262.0</ele><time>2026-04-13T09:36:40.242Z</time></trkpt><trkpt lat="43.3518582" lon="11.0598022"><ele>262.0</ele><time>2026-04-13T09:36:42.235Z</time></trkpt><trkpt lat="43.3519818" lon="11.0598183"><ele>262.0</ele><time>2026-04-13T09:36:44.22Z</time></trkpt><trkpt lat="43.3521006" lon="11.0598325"><ele>262.0</ele><time>2026-04-13T09:36:46.238Z</time></trkpt><trkpt lat="43.3521672" lon="11.059834"><ele>262.0</ele><time>2026-04-13T09:36:47.241Z</time></trkpt><trkpt lat="43.3522325" lon="11.0598383"><ele>261.42857142857144</ele><time>2026-04-13T09:36:48.24Z</time></trkpt><trkpt lat="43.3523017" lon="11.0598383"><ele>260.8571428571429</ele><time>2026-04-13T09:36:49.241Z</time></trkpt><trkpt lat="43.3523707" lon="11.0598396"><ele>260.2857142857143</ele><time>2026-04-13T09:36:50.226Z</time></trkpt><trkpt lat="43.3524391" lon="11.0598419"><ele>259.7142857142857</ele><time>2026-04-13T09:36:51.303Z</time></trkpt><trkpt lat="43.3525109" lon="11.0598474"><ele>259.1428571428571</ele><time>2026-04-13T09:36:52.301Z</time></trkpt><trkpt lat="43.3525817" lon="11.0598526"><ele>258.57142857142856</ele><time>2026-04-13T09:36:53.228Z</time></trkpt><trkpt lat="43.3526543" lon="11.0598594"><ele>258.0</ele><time>2026-04-13T09:36:54.243Z</time></trkpt><trkpt lat="43.3527252" lon="11.0598664"><ele>257.99999999999994</ele><time>2026-04-13T09:36:55.239Z</time></trkpt><trkpt lat="43.3527991" lon="11.0598746"><ele>258.0</ele><time>2026-04-13T09:36:56.223Z</time></trkpt><trkpt lat="43.3528705" lon="11.0598809"><ele>258.0</ele><time>2026-04-13T09:36:57.315Z</time></trkpt><trkpt lat="43.3529431" lon="11.0598901"><ele>258.0</ele><time>2026-04-13T09:36:58.227Z</time></trkpt><trkpt lat="43.3530147" lon="11.0598973"><ele>258.0</ele><time>2026-04-13T09:36:59.235Z</time></trkpt><trkpt lat="43.3530882" lon="11.0599045"><ele>257.99999999999994</ele><time>2026-04-13T09:37:00.219Z</time></trkpt><trkpt lat="43.3531623" lon="11.059911"><ele>258.0</ele><time>2026-04-13T09:37:01.236Z</time></trkpt><trkpt lat="43.3532373" lon="11.0599144"><ele>258.1428571428571</ele><time>2026-04-13T09:37:02.241Z</time></trkpt><trkpt lat="43.3533105" lon="11.0599227"><ele>258.2857142857143</ele><time>2026-04-13T09:37:03.24Z</time></trkpt><trkpt lat="43.3533855" lon="11.0599321"><ele>258.42857142857144</ele><time>2026-04-13T09:37:04.243Z</time></trkpt><trkpt lat="43.3534589" lon="11.0599419"><ele>258.57142857142856</ele><time>2026-04-13T09:37:05.248Z</time></trkpt><trkpt lat="43.3535309" lon="11.0599465"><ele>258.7142857142857</ele><time>2026-04-13T09:37:06.239Z</time></trkpt><trkpt lat="43.3536017" lon="11.059948"><ele>258.85714285714283</ele><time>2026-04-13T09:37:07.32Z</time></trkpt><trkpt lat="43.3536749" lon="11.0599568"><ele>259.0</ele><time>2026-04-13T09:37:08.248Z</time></trkpt><trkpt lat="43.3537471" lon="11.0599709"><ele>259.0</ele><time>2026-04-13T09:37:09.243Z</time></trkpt><trkpt lat="43.353821" lon="11.0599858"><ele>259.0</ele><time>2026-04-13T09:37:10.236Z</time></trkpt><trkpt lat="43.3538913" lon="11.0599925"><ele>259.0</ele><time>2026-04-13T09:37:11.298Z</time></trkpt><trkpt lat="43.3539574" lon="11.0600024"><ele>259.0</ele><time>2026-04-13T09:37:12.307Z</time></trkpt><trkpt lat="43.3540274" lon="11.0600215"><ele>259.0</ele><time>2026-04-13T09:37:13.255Z</time></trkpt><trkpt lat="43.3540989" lon="11.0600351"><ele>259.0</ele><time>2026-04-13T09:37:14.232Z</time></trkpt><trkpt lat="43.3541647" lon="11.060045"><ele>259.0</ele><time>2026-04-13T09:37:15.244Z</time></trkpt><trkpt lat="43.3542433" lon="11.0600502"><ele>258.7142857142857</ele><time>2026-04-13T09:37:16.234Z</time></trkpt><trkpt lat="43.3543123" lon="11.0600502"><ele>258.42857142857144</ele><time>2026-04-13T09:37:17.245Z</time></trkpt><trkpt lat="43.3543854" lon="11.0600516"><ele>258.1428571428571</ele><time>2026-04-13T09:37:18.23Z</time></trkpt><trkpt lat="43.3544585" lon="11.0600531"><ele>257.8571428571429</ele><time>2026-04-13T09:37:19.238Z</time></trkpt><trkpt lat="43.3545322" lon="11.0600543"><ele>257.57142857142856</ele><time>2026-04-13T09:37:20.314Z</time></trkpt><trkpt lat="43.3546032" lon="11.0600559"><ele>257.2857142857143</ele><time>2026-04-13T09:37:21.241Z</time></trkpt><trkpt lat="43.3546719" lon="11.0600597"><ele>257.0</ele><time>2026-04-13T09:37:22.234Z</time></trkpt><trkpt lat="43.3547415" lon="11.0600626"><ele>256.7142857142857</ele><time>2026-04-13T09:37:23.244Z</time></trkpt><trkpt lat="43.3548069" lon="11.0600683"><ele>256.42857142857144</ele><time>2026-04-13T09:37:24.242Z</time></trkpt><trkpt lat="43.3548759" lon="11.0600762"><ele>256.14285714285717</ele><time>2026-04-13T09:37:25.234Z</time></trkpt><trkpt lat="43.3549439" lon="11.0600847"><ele>255.85714285714286</ele><time>2026-04-13T09:37:26.221Z</time></trkpt><trkpt lat="43.3550113" lon="11.0600912"><ele>255.5714285714286</ele><time>2026-04-13T09:37:27.297Z</time></trkpt><trkpt lat="43.3550854" lon="11.060095"><ele>255.2857142857143</ele><time>2026-04-13T09:37:28.242Z</time></trkpt><trkpt lat="43.3551633" lon="11.0601034"><ele>255.0</ele><time>2026-04-13T09:37:29.237Z</time></trkpt><trkpt lat="43.3552303" lon="11.0601085"><ele>255.0</ele><time>2026-04-13T09:37:30.308Z</time></trkpt><trkpt lat="43.3552945" lon="11.0601126"><ele>255.00000000000003</ele><time>2026-04-13T09:37:31.298Z</time></trkpt><trkpt lat="43.3553585" lon="11.060116"><ele>255.0</ele><time>2026-04-13T09:37:32.301Z</time></trkpt><trkpt lat="43.3554234" lon="11.0601209"><ele>255.0</ele><time>2026-04-13T09:37:33.251Z</time></trkpt><trkpt lat="43.3554922" lon="11.060123"><ele>255.00000000000003</ele><time>2026-04-13T09:37:34.245Z</time></trkpt><trkpt lat="43.3555613" lon="11.0601275"><ele>255.0</ele><time>2026-04-13T09:37:35.232Z</time></trkpt><trkpt lat="43.3556291" lon="11.0601315"><ele>255.0</ele><time>2026-04-13T09:37:36.307Z</time></trkpt><trkpt lat="43.3556925" lon="11.0601368"><ele>255.0</ele><time>2026-04-13T09:37:37.303Z</time></trkpt><trkpt lat="43.355769" lon="11.0601604"><ele>255.0</ele><time>2026-04-13T09:37:38.226Z</time></trkpt><trkpt lat="43.3558478" lon="11.0601757"><ele>255.0</ele><time>2026-04-13T09:37:39.26Z</time></trkpt><trkpt lat="43.3559116" lon="11.0601773"><ele>255.0</ele><time>2026-04-13T09:37:40.232Z</time></trkpt><trkpt lat="43.3560284" lon="11.0601854"><ele>255.0</ele><time>2026-04-13T09:37:42.31Z</time></trkpt><trkpt lat="43.3561341" lon="11.0601817"><ele>255.0</ele><time>2026-04-13T09:37:44.24Z</time></trkpt><trkpt lat="43.3562004" lon="11.0601872"><ele>255.0</ele><time>2026-04-13T09:37:45.246Z</time></trkpt><trkpt lat="43.3562632" lon="11.0602016"><ele>255.0</ele><time>2026-04-13T09:37:46.316Z</time></trkpt><trkpt lat="43.356333" lon="11.0602155"><ele>255.0</ele><time>2026-04-13T09:37:47.303Z</time></trkpt><trkpt lat="43.356406" lon="11.0602113"><ele>255.0</ele><time>2026-04-13T09:37:48.218Z</time></trkpt><trkpt lat="43.3564747" lon="11.0602175"><ele>255.0</ele><time>2026-04-13T09:37:49.251Z</time></trkpt><trkpt lat="43.3565386" lon="11.0602239"><ele>255.0</ele><time>2026-04-13T09:37:50.244Z</time></trkpt><trkpt lat="43.356661" lon="11.0602325"><ele>255.16666666666666</ele><time>2026-04-13T09:37:52.241Z</time></trkpt><trkpt lat="43.3567821" lon="11.0602441"><ele>255.33333333333331</ele><time>2026-04-13T09:37:54.243Z</time></trkpt><trkpt lat="43.3569032" lon="11.0602536"><ele>255.5</ele><time>2026-04-13T09:37:56.229Z</time></trkpt><trkpt lat="43.3569669" lon="11.0602574"><ele>255.66666666666666</ele><time>2026-04-13T09:37:57.31Z</time></trkpt><trkpt lat="43.3570343" lon="11.0602612"><ele>255.83333333333331</ele><time>2026-04-13T09:37:58.286Z</time></trkpt><trkpt lat="43.3570996" lon="11.0602646"><ele>256.0</ele><time>2026-04-13T09:37:59.219Z</time></trkpt><trkpt lat="43.3572074" lon="11.0602887"><ele>256.0</ele><time>2026-04-13T09:38:01.226Z</time></trkpt><trkpt lat="43.3573129" lon="11.0603003"><ele>256.0</ele><time>2026-04-13T09:38:03.232Z</time></trkpt><trkpt lat="43.3574408" lon="11.0603125"><ele>256.0</ele><time>2026-04-13T09:38:05.3Z</time></trkpt><trkpt lat="43.3575136" lon="11.0603163"><ele>256.0</ele><time>2026-04-13T09:38:06.235Z</time></trkpt><trkpt lat="43.3575767" lon="11.0603172"><ele>256.0</ele><time>2026-04-13T09:38:07.235Z</time></trkpt><trkpt lat="43.357694" lon="11.0603404"><ele>256.0</ele><time>2026-04-13T09:38:09.216Z</time></trkpt><trkpt lat="43.3577635" lon="11.060351"><ele>256.0</ele><time>2026-04-13T09:38:10.224Z</time></trkpt><trkpt lat="43.357832" lon="11.0603583"><ele>256.0</ele><time>2026-04-13T09:38:11.217Z</time></trkpt><trkpt lat="43.3580133" lon="11.0603784"><ele>256.0</ele><time>2026-04-13T09:38:14.266Z</time></trkpt><trkpt lat="43.358134" lon="11.0603895"><ele>256.0</ele><time>2026-04-13T09:38:16.242Z</time></trkpt><trkpt lat="43.3581994" lon="11.0603921"><ele>255.7142857142857</ele><time>2026-04-13T09:38:17.251Z</time></trkpt><trkpt lat="43.3582642" lon="11.0603991"><ele>255.4285714285714</ele><time>2026-04-13T09:38:18.227Z</time></trkpt><trkpt lat="43.3583306" lon="11.0604088"><ele>255.14285714285714</ele><time>2026-04-13T09:38:19.242Z</time></trkpt><trkpt lat="43.3583955" lon="11.0604163"><ele>254.85714285714283</ele><time>2026-04-13T09:38:20.237Z</time></trkpt><trkpt lat="43.3584649" lon="11.0604261"><ele>254.57142857142856</ele><time>2026-04-13T09:38:21.23Z</time></trkpt><trkpt lat="43.3585313" lon="11.0604345"><ele>254.28571428571428</ele><time>2026-04-13T09:38:22.238Z</time></trkpt><trkpt lat="43.3585988" lon="11.0604399"><ele>254.0</ele><time>2026-04-13T09:38:23.249Z</time></trkpt><trkpt lat="43.3586665" lon="11.0604475"><ele>254.0</ele><time>2026-04-13T09:38:24.221Z</time></trkpt><trkpt lat="43.3587354" lon="11.0604547"><ele>254.0</ele><time>2026-04-13T09:38:25.229Z</time></trkpt><trkpt lat="43.3588082" lon="11.060458"><ele>254.0</ele><time>2026-04-13T09:38:26.223Z</time></trkpt><trkpt lat="43.3588824" lon="11.0604623"><ele>254.0</ele><time>2026-04-13T09:38:27.229Z</time></trkpt><trkpt lat="43.3589549" lon="11.0604667"><ele>254.0</ele><time>2026-04-13T09:38:28.222Z</time></trkpt><trkpt lat="43.3590271" lon="11.0604709"><ele>254.0</ele><time>2026-04-13T09:38:29.217Z</time></trkpt><trkpt lat="43.3590992" lon="11.0604709"><ele>254.0</ele><time>2026-04-13T09:38:30.223Z</time></trkpt><trkpt lat="43.3591685" lon="11.0604766"><ele>253.71428571428572</ele><time>2026-04-13T09:38:31.242Z</time></trkpt><trkpt lat="43.3592372" lon="11.0604837"><ele>253.42857142857142</ele><time>2026-04-13T09:38:32.226Z</time></trkpt><trkpt lat="43.3593066" lon="11.0604875"><ele>253.14285714285714</ele><time>2026-04-13T09:38:33.246Z</time></trkpt><trkpt lat="43.359374" lon="11.0604925"><ele>252.85714285714286</ele><time>2026-04-13T09:38:34.217Z</time></trkpt><trkpt lat="43.359443" lon="11.0604998"><ele>252.57142857142856</ele><time>2026-04-13T09:38:35.233Z</time></trkpt><trkpt lat="43.3595128" lon="11.0605026"><ele>252.28571428571428</ele><time>2026-04-13T09:38:36.235Z</time></trkpt><trkpt lat="43.3595834" lon="11.060509"><ele>252.0</ele><time>2026-04-13T09:38:37.23Z</time></trkpt><trkpt lat="43.3596538" lon="11.0605176"><ele>252.0</ele><time>2026-04-13T09:38:38.231Z</time></trkpt><trkpt lat="43.3597235" lon="11.0605229"><ele>252.0</ele><time>2026-04-13T09:38:39.233Z</time></trkpt><trkpt lat="43.3597907" lon="11.0605295"><ele>252.0</ele><time>2026-04-13T09:38:40.232Z</time></trkpt><trkpt lat="43.3598596" lon="11.0605331"><ele>252.0</ele><time>2026-04-13T09:38:41.221Z</time></trkpt><trkpt lat="43.3599305" lon="11.0605367"><ele>252.0</ele><time>2026-04-13T09:38:42.244Z</time></trkpt><trkpt lat="43.3599993" lon="11.0605421"><ele>252.0</ele><time>2026-04-13T09:38:43.222Z</time></trkpt><trkpt lat="43.3600671" lon="11.060549"><ele>252.0</ele><time>2026-04-13T09:38:44.232Z</time></trkpt><trkpt lat="43.3601339" lon="11.0605557"><ele>252.0</ele><time>2026-04-13T09:38:45.236Z</time></trkpt><trkpt lat="43.3602024" lon="11.0605635"><ele>252.0</ele><time>2026-04-13T09:38:46.235Z</time></trkpt><trkpt lat="43.3602712" lon="11.0605674"><ele>252.0</ele><time>2026-04-13T09:38:47.239Z</time></trkpt><trkpt lat="43.36034" lon="11.0605725"><ele>252.0</ele><time>2026-04-13T09:38:48.244Z</time></trkpt><trkpt lat="43.3604083" lon="11.0605766"><ele>252.0</ele><time>2026-04-13T09:38:49.225Z</time></trkpt><trkpt lat="43.3604751" lon="11.06058"><ele>252.0</ele><time>2026-04-13T09:38:50.234Z</time></trkpt><trkpt lat="43.3605411" lon="11.0605849"><ele>252.0</ele><time>2026-04-13T09:38:51.25Z</time></trkpt><trkpt lat="43.3606049" lon="11.0605897"><ele>252.0</ele><time>2026-04-13T09:38:52.231Z</time></trkpt><trkpt lat="43.3606708" lon="11.0605951"><ele>252.0</ele><time>2026-04-13T09:38:53.239Z</time></trkpt><trkpt lat="43.3607375" lon="11.0606022"><ele>252.0</ele><time>2026-04-13T09:38:54.235Z</time></trkpt><trkpt lat="43.3608032" lon="11.0606101"><ele>252.0</ele><time>2026-04-13T09:38:55.228Z</time></trkpt><trkpt lat="43.36087" lon="11.0606159"><ele>252.0</ele><time>2026-04-13T09:38:56.219Z</time></trkpt><trkpt lat="43.3609369" lon="11.0606222"><ele>252.0</ele><time>2026-04-13T09:38:57.232Z</time></trkpt><trkpt lat="43.3610007" lon="11.0606302"><ele>252.0</ele><time>2026-04-13T09:38:58.226Z</time></trkpt><trkpt lat="43.3610652" lon="11.0606364"><ele>252.0</ele><time>2026-04-13T09:38:59.23Z</time></trkpt><trkpt lat="43.3611288" lon="11.0606444"><ele>252.0</ele><time>2026-04-13T09:39:00.218Z</time></trkpt><trkpt lat="43.3611954" lon="11.0606507"><ele>252.0</ele><time>2026-04-13T09:39:01.224Z</time></trkpt><trkpt lat="43.361262" lon="11.0606587"><ele>252.0</ele><time>2026-04-13T09:39:02.225Z</time></trkpt><trkpt lat="43.3613267" lon="11.0606659"><ele>252.0</ele><time>2026-04-13T09:39:03.237Z</time></trkpt><trkpt lat="43.3613906" lon="11.0606708"><ele>252.0</ele><time>2026-04-13T09:39:04.228Z</time></trkpt><trkpt lat="43.361518" lon="11.0606832"><ele>252.14285714285714</ele><time>2026-04-13T09:39:06.254Z</time></trkpt><trkpt lat="43.3615832" lon="11.0606852"><ele>252.28571428571428</ele><time>2026-04-13T09:39:07.244Z</time></trkpt><trkpt lat="43.3616484" lon="11.0606922"><ele>252.42857142857144</ele><time>2026-04-13T09:39:08.239Z</time></trkpt><trkpt lat="43.3617143" lon="11.060706"><ele>252.57142857142858</ele><time>2026-04-13T09:39:09.236Z</time></trkpt><trkpt lat="43.3617764" lon="11.0607323"><ele>252.71428571428572</ele><time>2026-04-13T09:39:10.223Z</time></trkpt><trkpt lat="43.3618344" lon="11.0607773"><ele>252.8571428571429</ele><time>2026-04-13T09:39:11.236Z</time></trkpt><trkpt lat="43.3618911" lon="11.0608259"><ele>253.00000000000003</ele><time>2026-04-13T09:39:12.228Z</time></trkpt><trkpt lat="43.3619491" lon="11.060873"><ele>252.99999999999997</ele><time>2026-04-13T09:39:13.238Z</time></trkpt><trkpt lat="43.3620077" lon="11.0609137"><ele>253.0</ele><time>2026-04-13T09:39:14.224Z</time></trkpt><trkpt lat="43.3620739" lon="11.0609211"><ele>253.0</ele><time>2026-04-13T09:39:15.225Z</time></trkpt><trkpt lat="43.3621376" lon="11.0609069"><ele>253.0</ele><time>2026-04-13T09:39:16.225Z</time></trkpt><trkpt lat="43.3622532" lon="11.0608466"><ele>252.99999999999997</ele><time>2026-04-13T09:39:18.245Z</time></trkpt><trkpt lat="43.3623669" lon="11.0608058"><ele>253.0</ele><time>2026-04-13T09:39:20.224Z</time></trkpt><trkpt lat="43.36243" lon="11.0608118"><ele>253.00000000000003</ele><time>2026-04-13T09:39:21.227Z</time></trkpt><trkpt lat="43.3624922" lon="11.0608267"><ele>253.0</ele><time>2026-04-13T09:39:22.226Z</time></trkpt><trkpt lat="43.3625584" lon="11.060845"><ele>253.00000000000003</ele><time>2026-04-13T09:39:23.215Z</time></trkpt><trkpt lat="43.3626229" lon="11.0608605"><ele>253.00000000000003</ele><time>2026-04-13T09:39:24.223Z</time></trkpt><trkpt lat="43.3626864" lon="11.0608774"><ele>253.0</ele><time>2026-04-13T09:39:25.219Z</time></trkpt><trkpt lat="43.3627485" lon="11.060896"><ele>253.00000000000003</ele><time>2026-04-13T09:39:26.233Z</time></trkpt><trkpt lat="43.3628103" lon="11.0609144"><ele>253.00000000000003</ele><time>2026-04-13T09:39:27.237Z</time></trkpt><trkpt lat="43.3628739" lon="11.0609321"><ele>253.00000000000003</ele><time>2026-04-13T09:39:28.242Z</time></trkpt><trkpt lat="43.3629376" lon="11.0609525"><ele>253.0</ele><time>2026-04-13T09:39:29.253Z</time></trkpt><trkpt lat="43.3630021" lon="11.0609665"><ele>253.00000000000003</ele><time>2026-04-13T09:39:30.218Z</time></trkpt><trkpt lat="43.3630682" lon="11.0609837"><ele>253.00000000000003</ele><time>2026-04-13T09:39:31.225Z</time></trkpt><trkpt lat="43.3631348" lon="11.0609971"><ele>253.0</ele><time>2026-04-13T09:39:32.216Z</time></trkpt><trkpt lat="43.3632024" lon="11.061017"><ele>253.00000000000003</ele><time>2026-04-13T09:39:33.231Z</time></trkpt><trkpt lat="43.3632658" lon="11.061038"><ele>253.00000000000003</ele><time>2026-04-13T09:39:34.26Z</time></trkpt><trkpt lat="43.3633286" lon="11.06106"><ele>252.8571428571429</ele><time>2026-04-13T09:39:35.228Z</time></trkpt><trkpt lat="43.3633924" lon="11.0610851"><ele>252.71428571428572</ele><time>2026-04-13T09:39:36.228Z</time></trkpt><trkpt lat="43.363454" lon="11.0611105"><ele>252.57142857142858</ele><time>2026-04-13T09:39:37.23Z</time></trkpt><trkpt lat="43.363519" lon="11.0611339"><ele>252.42857142857144</ele><time>2026-04-13T09:39:38.241Z</time></trkpt><trkpt lat="43.3635842" lon="11.0611586"><ele>252.28571428571428</ele><time>2026-04-13T09:39:39.23Z</time></trkpt><trkpt lat="43.3636487" lon="11.0611826"><ele>252.14285714285714</ele><time>2026-04-13T09:39:40.243Z</time></trkpt><trkpt lat="43.3637147" lon="11.0612063"><ele>252.0</ele><time>2026-04-13T09:39:41.237Z</time></trkpt><trkpt lat="43.363777" lon="11.0612306"><ele>252.16666666666666</ele><time>2026-04-13T09:39:42.251Z</time></trkpt><trkpt lat="43.3638952" lon="11.0612825"><ele>252.33333333333331</ele><time>2026-04-13T09:39:44.229Z</time></trkpt><trkpt lat="43.3640088" lon="11.0613407"><ele>252.5</ele><time>2026-04-13T09:39:46.232Z</time></trkpt><trkpt lat="43.364068" lon="11.0613747"><ele>252.66666666666666</ele><time>2026-04-13T09:39:47.23Z</time></trkpt><trkpt lat="43.3641286" lon="11.0614075"><ele>252.83333333333331</ele><time>2026-04-13T09:39:48.243Z</time></trkpt><trkpt lat="43.3641905" lon="11.0614395"><ele>253.0</ele><time>2026-04-13T09:39:49.236Z</time></trkpt><trkpt lat="43.3642549" lon="11.0614677"><ele>253.00000000000003</ele><time>2026-04-13T09:39:50.256Z</time></trkpt><trkpt lat="43.3643151" lon="11.0615008"><ele>253.0</ele><time>2026-04-13T09:39:51.237Z</time></trkpt><trkpt lat="43.364378" lon="11.0615317"><ele>253.00000000000003</ele><time>2026-04-13T09:39:52.231Z</time></trkpt><trkpt lat="43.3644407" lon="11.0615599"><ele>253.00000000000003</ele><time>2026-04-13T09:39:53.22Z</time></trkpt><trkpt lat="43.364502" lon="11.0615908"><ele>253.0</ele><time>2026-04-13T09:39:54.227Z</time></trkpt><trkpt lat="43.3645635" lon="11.0616235"><ele>253.00000000000003</ele><time>2026-04-13T09:39:55.214Z</time></trkpt><trkpt lat="43.3646247" lon="11.0616552"><ele>253.00000000000003</ele><time>2026-04-13T09:39:56.228Z</time></trkpt><trkpt lat="43.3646856" lon="11.0616843"><ele>252.99999999999997</ele><time>2026-04-13T09:39:57.216Z</time></trkpt><trkpt lat="43.3647456" lon="11.0617129"><ele>253.0</ele><time>2026-04-13T09:39:58.226Z</time></trkpt><trkpt lat="43.3648053" lon="11.061741"><ele>253.0</ele><time>2026-04-13T09:39:59.223Z</time></trkpt><trkpt lat="43.3649232" lon="11.0617988"><ele>253.0</ele><time>2026-04-13T09:40:01.214Z</time></trkpt><trkpt lat="43.3649832" lon="11.0618309"><ele>252.99999999999997</ele><time>2026-04-13T09:40:02.222Z</time></trkpt><trkpt lat="43.3650419" lon="11.0618638"><ele>253.0</ele><time>2026-04-13T09:40:03.237Z</time></trkpt><trkpt lat="43.3651607" lon="11.0619239"><ele>253.0</ele><time>2026-04-13T09:40:05.24Z</time></trkpt><trkpt lat="43.3652777" lon="11.0619827"><ele>253.0</ele><time>2026-04-13T09:40:07.239Z</time></trkpt><trkpt lat="43.3653945" lon="11.06204"><ele>253.0</ele><time>2026-04-13T09:40:09.238Z</time></trkpt><trkpt lat="43.3655095" lon="11.0621033"><ele>253.0</ele><time>2026-04-13T09:40:11.223Z</time></trkpt><trkpt lat="43.3656289" lon="11.0621604"><ele>253.0</ele><time>2026-04-13T09:40:13.241Z</time></trkpt><trkpt lat="43.3657474" lon="11.0622156"><ele>253.0</ele><time>2026-04-13T09:40:15.228Z</time></trkpt><trkpt lat="43.365866" lon="11.0622785"><ele>253.0</ele><time>2026-04-13T09:40:17.223Z</time></trkpt><trkpt lat="43.3659837" lon="11.0623419"><ele>253.0</ele><time>2026-04-13T09:40:19.245Z</time></trkpt><trkpt lat="43.3661004" lon="11.0623985"><ele>252.4</ele><time>2026-04-13T09:40:21.227Z</time></trkpt><trkpt lat="43.3662181" lon="11.062457"><ele>251.8</ele><time>2026-04-13T09:40:23.233Z</time></trkpt><trkpt lat="43.3662782" lon="11.0624882"><ele>251.2</ele><time>2026-04-13T09:40:24.232Z</time></trkpt><trkpt lat="43.3663968" lon="11.0625444"><ele>250.6</ele><time>2026-04-13T09:40:26.243Z</time></trkpt><trkpt lat="43.3665126" lon="11.0626032"><ele>250.0</ele><time>2026-04-13T09:40:28.227Z</time></trkpt><trkpt lat="43.3666268" lon="11.0626625"><ele>249.75</ele><time>2026-04-13T09:40:30.227Z</time></trkpt><trkpt lat="43.3667406" lon="11.0627212"><ele>249.5</ele><time>2026-04-13T09:40:32.241Z</time></trkpt><trkpt lat="43.3668541" lon="11.0627824"><ele>249.25</ele><time>2026-04-13T09:40:34.245Z</time></trkpt><trkpt lat="43.3669535" lon="11.0628667"><ele>249.0</ele><time>2026-04-13T09:40:36.227Z</time></trkpt><trkpt lat="43.3670402" lon="11.0629832"><ele>249.0</ele><time>2026-04-13T09:40:38.237Z</time></trkpt><trkpt lat="43.3671224" lon="11.0630926"><ele>248.99999999999997</ele><time>2026-04-13T09:40:40.227Z</time></trkpt><trkpt lat="43.3672124" lon="11.0631745"><ele>248.99999999999997</ele><time>2026-04-13T09:40:42.24Z</time></trkpt><trkpt lat="43.3673193" lon="11.0631867"><ele>249.0</ele><time>2026-04-13T09:40:44.223Z</time></trkpt><trkpt lat="43.3674328" lon="11.0631627"><ele>249.0</ele><time>2026-04-13T09:40:46.217Z</time></trkpt><trkpt lat="43.3675487" lon="11.0631646"><ele>249.0</ele><time>2026-04-13T09:40:48.244Z</time></trkpt><trkpt lat="43.3676662" lon="11.0631947"><ele>249.0</ele><time>2026-04-13T09:40:50.24Z</time></trkpt><trkpt lat="43.3677799" lon="11.063254"><ele>249.0</ele><time>2026-04-13T09:40:52.225Z</time></trkpt><trkpt lat="43.3678881" lon="11.0633258"><ele>249.0</ele><time>2026-04-13T09:40:54.242Z</time></trkpt><trkpt lat="43.3680024" lon="11.0633815"><ele>249.2</ele><time>2026-04-13T09:40:56.255Z</time></trkpt><trkpt lat="43.3680618" lon="11.0634114"><ele>249.39999999999998</ele><time>2026-04-13T09:40:57.236Z</time></trkpt><trkpt lat="43.3681217" lon="11.0634396"><ele>249.6</ele><time>2026-04-13T09:40:58.215Z</time></trkpt><trkpt lat="43.3682333" lon="11.0634967"><ele>249.8</ele><time>2026-04-13T09:41:00.21Z</time></trkpt><trkpt lat="43.3683432" lon="11.0635606"><ele>250.0</ele><time>2026-04-13T09:41:02.232Z</time></trkpt><trkpt lat="43.3684569" lon="11.0636173"><ele>249.99999999999997</ele><time>2026-04-13T09:41:04.223Z</time></trkpt><trkpt lat="43.3685687" lon="11.0636597"><ele>250.0</ele><time>2026-04-13T09:41:06.24Z</time></trkpt><trkpt lat="43.3686289" lon="11.0636872"><ele>250.0</ele><time>2026-04-13T09:41:07.22Z</time></trkpt><trkpt lat="43.3686874" lon="11.0637205"><ele>250.0</ele><time>2026-04-13T09:41:08.219Z</time></trkpt><trkpt lat="43.3688011" lon="11.0637863"><ele>249.99999999999997</ele><time>2026-04-13T09:41:10.239Z</time></trkpt><trkpt lat="43.3688637" lon="11.0638126"><ele>250.0</ele><time>2026-04-13T09:41:11.244Z</time></trkpt><trkpt lat="43.3689252" lon="11.0638409"><ele>250.14285714285714</ele><time>2026-04-13T09:41:12.227Z</time></trkpt><trkpt lat="43.3689843" lon="11.0638787"><ele>250.28571428571428</ele><time>2026-04-13T09:41:13.223Z</time></trkpt><trkpt lat="43.3690443" lon="11.0639114"><ele>250.42857142857142</ele><time>2026-04-13T09:41:14.229Z</time></trkpt><trkpt lat="43.3691031" lon="11.0639441"><ele>250.57142857142856</ele><time>2026-04-13T09:41:15.225Z</time></trkpt><trkpt lat="43.3691632" lon="11.0639759"><ele>250.71428571428572</ele><time>2026-04-13T09:41:16.221Z</time></trkpt><trkpt lat="43.3692252" lon="11.0640079"><ele>250.85714285714283</ele><time>2026-04-13T09:41:17.223Z</time></trkpt><trkpt lat="43.3692861" lon="11.0640388"><ele>250.99999999999997</ele><time>2026-04-13T09:41:18.225Z</time></trkpt><trkpt lat="43.3693479" lon="11.0640713"><ele>250.99999999999997</ele><time>2026-04-13T09:41:19.239Z</time></trkpt><trkpt lat="43.3694084" lon="11.0641022"><ele>251.0</ele><time>2026-04-13T09:41:20.222Z</time></trkpt><trkpt lat="43.3694702" lon="11.064132"><ele>250.99999999999997</ele><time>2026-04-13T09:41:21.242Z</time></trkpt><trkpt lat="43.3695312" lon="11.06416"><ele>250.99999999999997</ele><time>2026-04-13T09:41:22.235Z</time></trkpt><trkpt lat="43.3695923" lon="11.0641902"><ele>251.0</ele><time>2026-04-13T09:41:23.216Z</time></trkpt><trkpt lat="43.3696524" lon="11.0642225"><ele>250.99999999999997</ele><time>2026-04-13T09:41:24.215Z</time></trkpt><trkpt lat="43.3697131" lon="11.0642534"><ele>250.99999999999997</ele><time>2026-04-13T09:41:25.223Z</time></trkpt><trkpt lat="43.3697721" lon="11.0642859"><ele>250.57142857142856</ele><time>2026-04-13T09:41:26.234Z</time></trkpt><trkpt lat="43.3698322" lon="11.064315"><ele>250.14285714285714</ele><time>2026-04-13T09:41:27.231Z</time></trkpt><trkpt lat="43.3698922" lon="11.0643466"><ele>249.71428571428572</ele><time>2026-04-13T09:41:28.228Z</time></trkpt><trkpt lat="43.3699524" lon="11.0643783"><ele>249.28571428571428</ele><time>2026-04-13T09:41:29.247Z</time></trkpt><trkpt lat="43.3700122" lon="11.0644074"><ele>248.8571428571429</ele><time>2026-04-13T09:41:30.225Z</time></trkpt><trkpt lat="43.370072" lon="11.0644404"><ele>248.42857142857144</ele><time>2026-04-13T09:41:31.217Z</time></trkpt><trkpt lat="43.3701315" lon="11.0644717"><ele>248.0</ele><time>2026-04-13T09:41:32.229Z</time></trkpt><trkpt lat="43.370247" lon="11.0645343"><ele>248.0</ele><time>2026-04-13T09:41:34.224Z</time></trkpt><trkpt lat="43.3703065" lon="11.0645666"><ele>248.00000000000003</ele><time>2026-04-13T09:41:35.238Z</time></trkpt><trkpt lat="43.3703654" lon="11.0645997"><ele>248.0</ele><time>2026-04-13T09:41:36.219Z</time></trkpt><trkpt lat="43.3704261" lon="11.0646343"><ele>248.0</ele><time>2026-04-13T09:41:37.234Z</time></trkpt><trkpt lat="43.3704842" lon="11.0646684"><ele>248.00000000000003</ele><time>2026-04-13T09:41:38.22Z</time></trkpt><trkpt lat="43.3705429" lon="11.0647014"><ele>248.0</ele><time>2026-04-13T09:41:39.23Z</time></trkpt><trkpt lat="43.3706542" lon="11.0647605"><ele>248.0</ele><time>2026-04-13T09:41:41.221Z</time></trkpt><trkpt lat="43.3707665" lon="11.0648193"><ele>248.2</ele><time>2026-04-13T09:41:43.228Z</time></trkpt><trkpt lat="43.3708807" lon="11.0648753"><ele>248.4</ele><time>2026-04-13T09:41:45.216Z</time></trkpt><trkpt lat="43.3709405" lon="11.0649031"><ele>248.59999999999997</ele><time>2026-04-13T09:41:46.218Z</time></trkpt><trkpt lat="43.3710527" lon="11.064953"><ele>248.79999999999998</ele><time>2026-04-13T09:41:48.232Z</time></trkpt><trkpt lat="43.371163" lon="11.065013"><ele>249.0</ele><time>2026-04-13T09:41:50.222Z</time></trkpt><trkpt lat="43.3712757" lon="11.0650758"><ele>249.6</ele><time>2026-04-13T09:41:52.211Z</time></trkpt><trkpt lat="43.3713837" lon="11.0651362"><ele>250.2</ele><time>2026-04-13T09:41:54.236Z</time></trkpt><trkpt lat="43.3714845" lon="11.0651972"><ele>250.79999999999998</ele><time>2026-04-13T09:41:56.219Z</time></trkpt><trkpt lat="43.37159" lon="11.0652489"><ele>251.39999999999998</ele><time>2026-04-13T09:41:58.229Z</time></trkpt><trkpt lat="43.371691" lon="11.0652932"><ele>252.0</ele><time>2026-04-13T09:42:00.228Z</time></trkpt><trkpt lat="43.3717902" lon="11.0653437"><ele>252.0</ele><time>2026-04-13T09:42:02.241Z</time></trkpt><trkpt lat="43.3718889" lon="11.0653898"><ele>252.0</ele><time>2026-04-13T09:42:04.229Z</time></trkpt><trkpt lat="43.3719826" lon="11.0654326"><ele>252.0</ele><time>2026-04-13T09:42:06.252Z</time></trkpt><trkpt lat="43.3720759" lon="11.0654857"><ele>252.0</ele><time>2026-04-13T09:42:08.234Z</time></trkpt><trkpt lat="43.3721707" lon="11.0655368"><ele>252.0</ele><time>2026-04-13T09:42:10.244Z</time></trkpt><trkpt lat="43.3722701" lon="11.0655988"><ele>252.0</ele><time>2026-04-13T09:42:12.248Z</time></trkpt><trkpt lat="43.3723704" lon="11.065659"><ele>252.0</ele><time>2026-04-13T09:42:14.221Z</time></trkpt><trkpt lat="43.3724765" lon="11.0657293"><ele>252.0</ele><time>2026-04-13T09:42:16.24Z</time></trkpt><trkpt lat="43.3725816" lon="11.0658143"><ele>252.0</ele><time>2026-04-13T09:42:18.224Z</time></trkpt><trkpt lat="43.372685" lon="11.0659033"><ele>252.0</ele><time>2026-04-13T09:42:20.22Z</time></trkpt><trkpt lat="43.3727363" lon="11.0659536"><ele>252.0</ele><time>2026-04-13T09:42:21.236Z</time></trkpt><trkpt lat="43.3728414" lon="11.0660455"><ele>252.0</ele><time>2026-04-13T09:42:23.228Z</time></trkpt><trkpt lat="43.3728939" lon="11.0660951"><ele>252.0</ele><time>2026-04-13T09:42:24.242Z</time></trkpt><trkpt lat="43.3729967" lon="11.06619"><ele>252.0</ele><time>2026-04-13T09:42:26.232Z</time></trkpt><trkpt lat="43.373049" lon="11.0662408"><ele>252.0</ele><time>2026-04-13T09:42:27.244Z</time></trkpt><trkpt lat="43.3731024" lon="11.0662919"><ele>251.2</ele><time>2026-04-13T09:42:28.235Z</time></trkpt><trkpt lat="43.3731558" lon="11.0663442"><ele>250.39999999999998</ele><time>2026-04-13T09:42:29.243Z</time></trkpt><trkpt lat="43.3732514" lon="11.0664523"><ele>249.60000000000002</ele><time>2026-04-13T09:42:31.232Z</time></trkpt><trkpt lat="43.3733403" lon="11.0665729"><ele>248.8</ele><time>2026-04-13T09:42:33.233Z</time></trkpt><trkpt lat="43.3734262" lon="11.0666893"><ele>248.0</ele><time>2026-04-13T09:42:35.219Z</time></trkpt><trkpt lat="43.3735122" lon="11.0668076"><ele>247.75</ele><time>2026-04-13T09:42:37.228Z</time></trkpt><trkpt lat="43.3735911" lon="11.06693"><ele>247.5</ele><time>2026-04-13T09:42:39.215Z</time></trkpt><trkpt lat="43.3736696" lon="11.0670589"><ele>247.25</ele><time>2026-04-13T09:42:41.232Z</time></trkpt><trkpt lat="43.373745" lon="11.0671831"><ele>247.0</ele><time>2026-04-13T09:42:43.218Z</time></trkpt><trkpt lat="43.3738143" lon="11.0673067"><ele>247.0</ele><time>2026-04-13T09:42:45.217Z</time></trkpt><trkpt lat="43.3738869" lon="11.067426"><ele>247.0</ele><time>2026-04-13T09:42:47.223Z</time></trkpt><trkpt lat="43.3739563" lon="11.0675587"><ele>247.0</ele><time>2026-04-13T09:42:49.236Z</time></trkpt><trkpt lat="43.3740256" lon="11.0676834"><ele>247.0</ele><time>2026-04-13T09:42:51.227Z</time></trkpt><trkpt lat="43.3740999" lon="11.0678078"><ele>247.0</ele><time>2026-04-13T09:42:53.218Z</time></trkpt><trkpt lat="43.3741771" lon="11.0679295"><ele>247.0</ele><time>2026-04-13T09:42:55.22Z</time></trkpt><trkpt lat="43.3742497" lon="11.0680606"><ele>247.0</ele><time>2026-04-13T09:42:57.238Z</time></trkpt><trkpt lat="43.3743271" lon="11.0681927"><ele>247.0</ele><time>2026-04-13T09:42:59.236Z</time></trkpt><trkpt lat="43.3744036" lon="11.0683258"><ele>247.25</ele><time>2026-04-13T09:43:01.224Z</time></trkpt><trkpt lat="43.3744816" lon="11.0684589"><ele>247.5</ele><time>2026-04-13T09:43:03.232Z</time></trkpt><trkpt lat="43.3745604" lon="11.0685924"><ele>247.75</ele><time>2026-04-13T09:43:05.217Z</time></trkpt><trkpt lat="43.3746323" lon="11.0687313"><ele>248.0</ele><time>2026-04-13T09:43:07.23Z</time></trkpt><trkpt lat="43.3747112" lon="11.0688642"><ele>247.60000000000002</ele><time>2026-04-13T09:43:09.239Z</time></trkpt><trkpt lat="43.3747882" lon="11.0690035"><ele>247.20000000000002</ele><time>2026-04-13T09:43:11.227Z</time></trkpt><trkpt lat="43.374867" lon="11.0691395"><ele>246.8</ele><time>2026-04-13T09:43:13.226Z</time></trkpt><trkpt lat="43.3749079" lon="11.0692072"><ele>246.4</ele><time>2026-04-13T09:43:14.223Z</time></trkpt><trkpt lat="43.3749855" lon="11.069338"><ele>246.0</ele><time>2026-04-13T09:43:16.221Z</time></trkpt><trkpt lat="43.3750607" lon="11.0694675"><ele>246.00000000000003</ele><time>2026-04-13T09:43:18.223Z</time></trkpt><trkpt lat="43.3750991" lon="11.0695387"><ele>246.0</ele><time>2026-04-13T09:43:19.229Z</time></trkpt><trkpt lat="43.3751392" lon="11.0696102"><ele>246.00000000000003</ele><time>2026-04-13T09:43:20.24Z</time></trkpt><trkpt lat="43.3751796" lon="11.069681"><ele>246.00000000000003</ele><time>2026-04-13T09:43:21.218Z</time></trkpt><trkpt lat="43.3752207" lon="11.0697518"><ele>246.0</ele><time>2026-04-13T09:43:22.231Z</time></trkpt><trkpt lat="43.3752609" lon="11.0698214"><ele>246.00000000000003</ele><time>2026-04-13T09:43:23.228Z</time></trkpt><trkpt lat="43.3753002" lon="11.0698922"><ele>246.00000000000003</ele><time>2026-04-13T09:43:24.229Z</time></trkpt><trkpt lat="43.3753404" lon="11.069962"><ele>245.8571428571429</ele><time>2026-04-13T09:43:25.236Z</time></trkpt><trkpt lat="43.3753819" lon="11.0700293"><ele>245.71428571428572</ele><time>2026-04-13T09:43:26.226Z</time></trkpt><trkpt lat="43.375424" lon="11.0700962"><ele>245.57142857142858</ele><time>2026-04-13T09:43:27.229Z</time></trkpt><trkpt lat="43.3754653" lon="11.0701633"><ele>245.42857142857144</ele><time>2026-04-13T09:43:28.237Z</time></trkpt><trkpt lat="43.3755082" lon="11.0702331"><ele>245.28571428571428</ele><time>2026-04-13T09:43:29.234Z</time></trkpt><trkpt lat="43.3755483" lon="11.0703045"><ele>245.14285714285714</ele><time>2026-04-13T09:43:30.235Z</time></trkpt><trkpt lat="43.3755871" lon="11.0703739"><ele>245.0</ele><time>2026-04-13T09:43:31.226Z</time></trkpt><trkpt lat="43.37566" lon="11.0705117"><ele>245.00000000000003</ele><time>2026-04-13T09:43:33.231Z</time></trkpt><trkpt lat="43.3757361" lon="11.0706463"><ele>245.0</ele><time>2026-04-13T09:43:35.218Z</time></trkpt><trkpt lat="43.3758157" lon="11.0707814"><ele>245.0</ele><time>2026-04-13T09:43:37.228Z</time></trkpt><trkpt lat="43.3758557" lon="11.070852"><ele>245.0</ele><time>2026-04-13T09:43:38.233Z</time></trkpt><trkpt lat="43.3758968" lon="11.0709222"><ele>245.00000000000003</ele><time>2026-04-13T09:43:39.228Z</time></trkpt><trkpt lat="43.3759386" lon="11.0709917"><ele>245.0</ele><time>2026-04-13T09:43:40.239Z</time></trkpt><trkpt lat="43.3759798" lon="11.0710572"><ele>245.00000000000003</ele><time>2026-04-13T09:43:41.217Z</time></trkpt><trkpt lat="43.3760212" lon="11.0711261"><ele>245.0</ele><time>2026-04-13T09:43:42.219Z</time></trkpt><trkpt lat="43.3760587" lon="11.0711969"><ele>245.0</ele><time>2026-04-13T09:43:43.236Z</time></trkpt><trkpt lat="43.3761323" lon="11.0713366"><ele>245.0</ele><time>2026-04-13T09:43:45.227Z</time></trkpt><trkpt lat="43.3761698" lon="11.0714083"><ele>245.00000000000003</ele><time>2026-04-13T09:43:46.232Z</time></trkpt><trkpt lat="43.3762492" lon="11.0715389"><ele>245.0</ele><time>2026-04-13T09:43:48.235Z</time></trkpt><trkpt lat="43.3763266" lon="11.0716695"><ele>245.0</ele><time>2026-04-13T09:43:50.235Z</time></trkpt><trkpt lat="43.3763986" lon="11.0717996"><ele>245.0</ele><time>2026-04-13T09:43:52.213Z</time></trkpt><trkpt lat="43.376473" lon="11.0719324"><ele>245.0</ele><time>2026-04-13T09:43:54.227Z</time></trkpt><trkpt lat="43.3765128" lon="11.0720005"><ele>245.0</ele><time>2026-04-13T09:43:55.23Z</time></trkpt><trkpt lat="43.3765909" lon="11.0721308"><ele>245.0</ele><time>2026-04-13T09:43:57.224Z</time></trkpt><trkpt lat="43.3766699" lon="11.0722603"><ele>245.0</ele><time>2026-04-13T09:43:59.229Z</time></trkpt><trkpt lat="43.3767493" lon="11.0723864"><ele>245.0</ele><time>2026-04-13T09:44:01.241Z</time></trkpt><trkpt lat="43.3768256" lon="11.0725153"><ele>245.0</ele><time>2026-04-13T09:44:03.219Z</time></trkpt><trkpt lat="43.3768996" lon="11.0726485"><ele>245.0</ele><time>2026-04-13T09:44:05.225Z</time></trkpt><trkpt lat="43.3769717" lon="11.07278"><ele>245.0</ele><time>2026-04-13T09:44:07.225Z</time></trkpt><trkpt lat="43.3770446" lon="11.0729081"><ele>245.0</ele><time>2026-04-13T09:44:09.233Z</time></trkpt><trkpt lat="43.3771156" lon="11.0730386"><ele>245.0</ele><time>2026-04-13T09:44:11.226Z</time></trkpt><trkpt lat="43.3771897" lon="11.0731639"><ele>245.0</ele><time>2026-04-13T09:44:13.226Z</time></trkpt><trkpt lat="43.3772663" lon="11.0732877"><ele>244.75</ele><time>2026-04-13T09:44:15.221Z</time></trkpt><trkpt lat="43.3773433" lon="11.0734166"><ele>244.5</ele><time>2026-04-13T09:44:17.21Z</time></trkpt><trkpt lat="43.3774212" lon="11.0735476"><ele>244.25</ele><time>2026-04-13T09:44:19.224Z</time></trkpt><trkpt lat="43.3774966" lon="11.0736835"><ele>244.0</ele><time>2026-04-13T09:44:21.209Z</time></trkpt><trkpt lat="43.3775714" lon="11.073814"><ele>244.0</ele><time>2026-04-13T09:44:23.24Z</time></trkpt><trkpt lat="43.3776414" lon="11.073942"><ele>244.0</ele><time>2026-04-13T09:44:25.233Z</time></trkpt><trkpt lat="43.3777103" lon="11.0740665"><ele>244.0</ele><time>2026-04-13T09:44:27.231Z</time></trkpt><trkpt lat="43.3777805" lon="11.074189"><ele>244.0</ele><time>2026-04-13T09:44:29.22Z</time></trkpt><trkpt lat="43.3778535" lon="11.0743093"><ele>244.0</ele><time>2026-04-13T09:44:31.246Z</time></trkpt><trkpt lat="43.3779277" lon="11.0744247"><ele>244.0</ele><time>2026-04-13T09:44:33.214Z</time></trkpt><trkpt lat="43.3779986" lon="11.0745465"><ele>244.0</ele><time>2026-04-13T09:44:35.218Z</time></trkpt><trkpt lat="43.3780713" lon="11.0746683"><ele>244.0</ele><time>2026-04-13T09:44:37.228Z</time></trkpt><trkpt lat="43.3781419" lon="11.0747889"><ele>244.39999999999998</ele><time>2026-04-13T09:44:39.225Z</time></trkpt><trkpt lat="43.3782121" lon="11.0749093"><ele>244.79999999999998</ele><time>2026-04-13T09:44:41.242Z</time></trkpt><trkpt lat="43.37828" lon="11.0750339"><ele>245.20000000000002</ele><time>2026-04-13T09:44:43.239Z</time></trkpt><trkpt lat="43.3783443" lon="11.0751558"><ele>245.60000000000002</ele><time>2026-04-13T09:44:45.209Z</time></trkpt><trkpt lat="43.378413" lon="11.075278"><ele>246.0</ele><time>2026-04-13T09:44:47.222Z</time></trkpt><trkpt lat="43.3784843" lon="11.0753953"><ele>246.0</ele><time>2026-04-13T09:44:49.235Z</time></trkpt><trkpt lat="43.3785553" lon="11.0755172"><ele>246.00000000000003</ele><time>2026-04-13T09:44:51.221Z</time></trkpt><trkpt lat="43.3786213" lon="11.0756417"><ele>246.00000000000003</ele><time>2026-04-13T09:44:53.225Z</time></trkpt><trkpt lat="43.3786907" lon="11.0757656"><ele>246.0</ele><time>2026-04-13T09:44:55.238Z</time></trkpt><trkpt lat="43.3787613" lon="11.0758789"><ele>246.0</ele><time>2026-04-13T09:44:57.221Z</time></trkpt><trkpt lat="43.3788346" lon="11.0760003"><ele>246.4</ele><time>2026-04-13T09:44:59.216Z</time></trkpt><trkpt lat="43.3789047" lon="11.0761185"><ele>246.8</ele><time>2026-04-13T09:45:01.243Z</time></trkpt><trkpt lat="43.3789726" lon="11.0762325"><ele>247.20000000000002</ele><time>2026-04-13T09:45:03.231Z</time></trkpt><trkpt lat="43.3790385" lon="11.0763494"><ele>247.60000000000002</ele><time>2026-04-13T09:45:05.238Z</time></trkpt><trkpt lat="43.379108" lon="11.0764626"><ele>248.0</ele><time>2026-04-13T09:45:07.227Z</time></trkpt><trkpt lat="43.3791777" lon="11.076591"><ele>247.5</ele><time>2026-04-13T09:45:09.236Z</time></trkpt><trkpt lat="43.3792511" lon="11.0767182"><ele>247.0</ele><time>2026-04-13T09:45:11.23Z</time></trkpt><trkpt lat="43.3793238" lon="11.0768466"><ele>246.5</ele><time>2026-04-13T09:45:13.227Z</time></trkpt><trkpt lat="43.3793994" lon="11.0769783"><ele>246.0</ele><time>2026-04-13T09:45:15.218Z</time></trkpt><trkpt lat="43.379474" lon="11.0771072"><ele>246.0</ele><time>2026-04-13T09:45:17.228Z</time></trkpt><trkpt lat="43.379547" lon="11.0772355"><ele>246.00000000000003</ele><time>2026-04-13T09:45:19.214Z</time></trkpt><trkpt lat="43.3796181" lon="11.0773581"><ele>246.00000000000003</ele><time>2026-04-13T09:45:21.214Z</time></trkpt><trkpt lat="43.3796904" lon="11.077474"><ele>246.0</ele><time>2026-04-13T09:45:23.236Z</time></trkpt><trkpt lat="43.3797496" lon="11.0775928"><ele>246.0</ele><time>2026-04-13T09:45:25.23Z</time></trkpt><trkpt lat="43.3798149" lon="11.0777111"><ele>247.0</ele><time>2026-04-13T09:45:27.232Z</time></trkpt><trkpt lat="43.3798815" lon="11.0778253"><ele>248.00000000000003</ele><time>2026-04-13T09:45:29.244Z</time></trkpt><trkpt lat="43.3799469" lon="11.0779346"><ele>249.00000000000003</ele><time>2026-04-13T09:45:31.221Z</time></trkpt><trkpt lat="43.3800153" lon="11.0780411"><ele>250.0</ele><time>2026-04-13T09:45:33.238Z</time></trkpt><trkpt lat="43.3800692" lon="11.0781483"><ele>251.0</ele><time>2026-04-13T09:45:35.248Z</time></trkpt><trkpt lat="43.3801205" lon="11.0782477"><ele>251.00000000000003</ele><time>2026-04-13T09:45:37.217Z</time></trkpt><trkpt lat="43.3801731" lon="11.0783471"><ele>251.0</ele><time>2026-04-13T09:45:39.225Z</time></trkpt><trkpt lat="43.3802356" lon="11.0784501"><ele>251.0</ele><time>2026-04-13T09:45:41.235Z</time></trkpt><trkpt lat="43.3803026" lon="11.078553"><ele>251.0</ele><time>2026-04-13T09:45:43.238Z</time></trkpt><trkpt lat="43.3803569" lon="11.0786352"><ele>251.00000000000003</ele><time>2026-04-13T09:45:45.226Z</time></trkpt><trkpt lat="43.3804138" lon="11.0787132"><ele>251.0</ele><time>2026-04-13T09:45:47.222Z</time></trkpt><trkpt lat="43.3804734" lon="11.0787958"><ele>251.4</ele><time>2026-04-13T09:45:49.224Z</time></trkpt><trkpt lat="43.3805399" lon="11.0788813"><ele>251.8</ele><time>2026-04-13T09:45:51.217Z</time></trkpt><trkpt lat="43.3806139" lon="11.0789608"><ele>252.20000000000002</ele><time>2026-04-13T09:45:53.232Z</time></trkpt><trkpt lat="43.3806881" lon="11.0790369"><ele>252.60000000000002</ele><time>2026-04-13T09:45:55.213Z</time></trkpt><trkpt lat="43.3807653" lon="11.0791131"><ele>253.0</ele><time>2026-04-13T09:45:57.229Z</time></trkpt><trkpt lat="43.3808511" lon="11.0791935"><ele>252.99999999999997</ele><time>2026-04-13T09:45:59.227Z</time></trkpt><trkpt lat="43.3809379" lon="11.0792731"><ele>253.0</ele><time>2026-04-13T09:46:01.226Z</time></trkpt><trkpt lat="43.381018" lon="11.0793499"><ele>253.0</ele><time>2026-04-13T09:46:03.225Z</time></trkpt><trkpt lat="43.3810883" lon="11.0794299"><ele>253.0</ele><time>2026-04-13T09:46:05.22Z</time></trkpt><trkpt lat="43.3811506" lon="11.0795018"><ele>252.99999999999997</ele><time>2026-04-13T09:46:07.223Z</time></trkpt><trkpt lat="43.3812024" lon="11.0795695"><ele>253.0</ele><time>2026-04-13T09:46:09.225Z</time></trkpt><trkpt lat="43.3812605" lon="11.079633"><ele>253.00000000000003</ele><time>2026-04-13T09:46:11.228Z</time></trkpt><trkpt lat="43.381316" lon="11.0797034"><ele>253.0</ele><time>2026-04-13T09:46:13.23Z</time></trkpt><trkpt lat="43.381366" lon="11.0797719"><ele>253.00000000000003</ele><time>2026-04-13T09:46:15.225Z</time></trkpt><trkpt lat="43.3814207" lon="11.0798384"><ele>253.00000000000003</ele><time>2026-04-13T09:46:17.23Z</time></trkpt><trkpt lat="43.3814777" lon="11.0798979"><ele>253.0</ele><time>2026-04-13T09:46:19.222Z</time></trkpt><trkpt lat="43.3815335" lon="11.079951"><ele>253.00000000000003</ele><time>2026-04-13T09:46:21.216Z</time></trkpt><trkpt lat="43.3815891" lon="11.0800079"><ele>253.00000000000003</ele><time>2026-04-13T09:46:23.224Z</time></trkpt><trkpt lat="43.3816432" lon="11.0800643"><ele>253.5714285714286</ele><time>2026-04-13T09:46:25.229Z</time></trkpt><trkpt lat="43.381693" lon="11.0801192"><ele>254.14285714285717</ele><time>2026-04-13T09:46:27.219Z</time></trkpt><trkpt lat="43.3817504" lon="11.0801882"><ele>254.71428571428572</ele><time>2026-04-13T09:46:29.23Z</time></trkpt><trkpt lat="43.3818155" lon="11.0802475"><ele>255.2857142857143</ele><time>2026-04-13T09:46:31.216Z</time></trkpt><trkpt lat="43.3818817" lon="11.0802983"><ele>255.8571428571429</ele><time>2026-04-13T09:46:33.234Z</time></trkpt><trkpt lat="43.3819403" lon="11.0803535"><ele>256.42857142857144</ele><time>2026-04-13T09:46:35.234Z</time></trkpt><trkpt lat="43.3820004" lon="11.0804026"><ele>257.0</ele><time>2026-04-13T09:46:37.224Z</time></trkpt><trkpt lat="43.3820592" lon="11.0804536"><ele>257.0</ele><time>2026-04-13T09:46:39.24Z</time></trkpt><trkpt lat="43.3821215" lon="11.0805071"><ele>257.0</ele><time>2026-04-13T09:46:41.222Z</time></trkpt><trkpt lat="43.3821895" lon="11.08057"><ele>257.0</ele><time>2026-04-13T09:46:43.22Z</time></trkpt><trkpt lat="43.38227" lon="11.0806365"><ele>257.0</ele><time>2026-04-13T09:46:45.218Z</time></trkpt><trkpt lat="43.38237" lon="11.0806934"><ele>257.0</ele><time>2026-04-13T09:46:47.231Z</time></trkpt><trkpt lat="43.3824409" lon="11.0807463"><ele>257.0</ele><time>2026-04-13T09:46:49.211Z</time></trkpt><trkpt lat="43.3825193" lon="11.0808096"><ele>257.6</ele><time>2026-04-13T09:46:51.225Z</time></trkpt><trkpt lat="43.3825907" lon="11.0808784"><ele>258.2</ele><time>2026-04-13T09:46:53.234Z</time></trkpt><trkpt lat="43.3826739" lon="11.0809537"><ele>258.8</ele><time>2026-04-13T09:46:55.237Z</time></trkpt><trkpt lat="43.3827538" lon="11.0810387"><ele>259.4</ele><time>2026-04-13T09:46:57.237Z</time></trkpt><trkpt lat="43.3828145" lon="11.0811284"><ele>260.0</ele><time>2026-04-13T09:46:59.239Z</time></trkpt><trkpt lat="43.3828752" lon="11.0812171"><ele>260.0</ele><time>2026-04-13T09:47:01.225Z</time></trkpt><trkpt lat="43.3829355" lon="11.0813051"><ele>260.0</ele><time>2026-04-13T09:47:03.243Z</time></trkpt><trkpt lat="43.3829933" lon="11.0814046"><ele>260.0</ele><time>2026-04-13T09:47:05.23Z</time></trkpt><trkpt lat="43.3830439" lon="11.0815033"><ele>260.0</ele><time>2026-04-13T09:47:07.216Z</time></trkpt><trkpt lat="43.3830965" lon="11.0815933"><ele>260.0</ele><time>2026-04-13T09:47:09.218Z</time></trkpt><trkpt lat="43.3831536" lon="11.0816923"><ele>260.0</ele><time>2026-04-13T09:47:11.218Z</time></trkpt><trkpt lat="43.3832016" lon="11.081797"><ele>260.2</ele><time>2026-04-13T09:47:13.212Z</time></trkpt><trkpt lat="43.3832577" lon="11.0819108"><ele>260.4</ele><time>2026-04-13T09:47:15.248Z</time></trkpt><trkpt lat="43.3833208" lon="11.0820295"><ele>260.6</ele><time>2026-04-13T09:47:17.241Z</time></trkpt><trkpt lat="43.383379" lon="11.08215"><ele>260.8</ele><time>2026-04-13T09:47:19.227Z</time></trkpt><trkpt lat="43.3834322" lon="11.08227"><ele>261.0</ele><time>2026-04-13T09:47:21.219Z</time></trkpt><trkpt lat="43.3834945" lon="11.0823822"><ele>260.40000000000003</ele><time>2026-04-13T09:47:23.226Z</time></trkpt><trkpt lat="43.3835586" lon="11.082508"><ele>259.8</ele><time>2026-04-13T09:47:25.232Z</time></trkpt><trkpt lat="43.3836195" lon="11.0826309"><ele>259.20000000000005</ele><time>2026-04-13T09:47:27.221Z</time></trkpt><trkpt lat="43.3836854" lon="11.0827636"><ele>258.6</ele><time>2026-04-13T09:47:29.226Z</time></trkpt><trkpt lat="43.3837407" lon="11.0828973"><ele>258.0</ele><time>2026-04-13T09:47:31.236Z</time></trkpt><trkpt lat="43.3838004" lon="11.0830329"><ele>258.25</ele><time>2026-04-13T09:47:33.234Z</time></trkpt><trkpt lat="43.3838714" lon="11.0831715"><ele>258.5</ele><time>2026-04-13T09:47:35.24Z</time></trkpt><trkpt lat="43.3839428" lon="11.083313"><ele>258.75</ele><time>2026-04-13T09:47:37.25Z</time></trkpt><trkpt lat="43.3840079" lon="11.0834503"><ele>259.0</ele><time>2026-04-13T09:47:39.221Z</time></trkpt><trkpt lat="43.3840848" lon="11.0835819"><ele>259.0</ele><time>2026-04-13T09:47:41.222Z</time></trkpt><trkpt lat="43.3841606" lon="11.0837008"><ele>259.0</ele><time>2026-04-13T09:47:43.222Z</time></trkpt><trkpt lat="43.3842486" lon="11.083807"><ele>259.0</ele><time>2026-04-13T09:47:45.223Z</time></trkpt><trkpt lat="43.3843277" lon="11.0839107"><ele>259.0</ele><time>2026-04-13T09:47:47.216Z</time></trkpt><trkpt lat="43.3844027" lon="11.0840226"><ele>258.4</ele><time>2026-04-13T09:47:49.227Z</time></trkpt><trkpt lat="43.3844768" lon="11.0841329"><ele>257.79999999999995</ele><time>2026-04-13T09:47:51.221Z</time></trkpt><trkpt lat="43.3845481" lon="11.0842513"><ele>257.20000000000005</ele><time>2026-04-13T09:47:53.239Z</time></trkpt><trkpt lat="43.3846255" lon="11.0843451"><ele>256.6</ele><time>2026-04-13T09:47:55.241Z</time></trkpt><trkpt lat="43.3846921" lon="11.0844531"><ele>256.0</ele><time>2026-04-13T09:47:57.21Z</time></trkpt><trkpt lat="43.384756" lon="11.0845569"><ele>255.8</ele><time>2026-04-13T09:47:59.244Z</time></trkpt><trkpt lat="43.384828" lon="11.0846623"><ele>255.60000000000002</ele><time>2026-04-13T09:48:01.231Z</time></trkpt><trkpt lat="43.384897" lon="11.0847649"><ele>255.4</ele><time>2026-04-13T09:48:03.215Z</time></trkpt><trkpt lat="43.3849653" lon="11.0848613"><ele>255.2</ele><time>2026-04-13T09:48:05.219Z</time></trkpt><trkpt lat="43.3850354" lon="11.0849703"><ele>255.0</ele><time>2026-04-13T09:48:07.239Z</time></trkpt><trkpt lat="43.3851076" lon="11.0850726"><ele>255.0</ele><time>2026-04-13T09:48:09.218Z</time></trkpt><trkpt lat="43.3851826" lon="11.0851769"><ele>255.0</ele><time>2026-04-13T09:48:11.23Z</time></trkpt><trkpt lat="43.3852524" lon="11.0852793"><ele>255.0</ele><time>2026-04-13T09:48:13.25Z</time></trkpt><trkpt lat="43.3853208" lon="11.0853804"><ele>255.0</ele><time>2026-04-13T09:48:15.255Z</time></trkpt><trkpt lat="43.3853894" lon="11.0854782"><ele>255.0</ele><time>2026-04-13T09:48:17.239Z</time></trkpt><trkpt lat="43.3854623" lon="11.0855786"><ele>255.6</ele><time>2026-04-13T09:48:19.24Z</time></trkpt><trkpt lat="43.3855316" lon="11.0856775"><ele>256.2</ele><time>2026-04-13T09:48:21.222Z</time></trkpt><trkpt lat="43.3856001" lon="11.0857853"><ele>256.8</ele><time>2026-04-13T09:48:23.221Z</time></trkpt><trkpt lat="43.3856706" lon="11.0858779"><ele>257.4</ele><time>2026-04-13T09:48:25.216Z</time></trkpt><trkpt lat="43.3857488" lon="11.0859718"><ele>258.0</ele><time>2026-04-13T09:48:27.234Z</time></trkpt><trkpt lat="43.3858251" lon="11.0860542"><ele>258.2</ele><time>2026-04-13T09:48:29.235Z</time></trkpt><trkpt lat="43.3859067" lon="11.0861272"><ele>258.4</ele><time>2026-04-13T09:48:31.227Z</time></trkpt><trkpt lat="43.385992" lon="11.0861968"><ele>258.59999999999997</ele><time>2026-04-13T09:48:33.22Z</time></trkpt><trkpt lat="43.3860908" lon="11.0862447"><ele>258.8</ele><time>2026-04-13T09:48:35.24Z</time></trkpt><trkpt lat="43.3861918" lon="11.0862798"><ele>259.0</ele><time>2026-04-13T09:48:37.228Z</time></trkpt><trkpt lat="43.3862963" lon="11.0862994"><ele>258.5</ele><time>2026-04-13T09:48:39.245Z</time></trkpt><trkpt lat="43.3864071" lon="11.0863155"><ele>258.0</ele><time>2026-04-13T09:48:41.243Z</time></trkpt><trkpt lat="43.3865215" lon="11.0863227"><ele>257.5</ele><time>2026-04-13T09:48:43.236Z</time></trkpt><trkpt lat="43.3866329" lon="11.0863328"><ele>257.0</ele><time>2026-04-13T09:48:45.223Z</time></trkpt><trkpt lat="43.3867448" lon="11.0863515"><ele>257.0</ele><time>2026-04-13T09:48:47.251Z</time></trkpt><trkpt lat="43.3868592" lon="11.0863724"><ele>257.0</ele><time>2026-04-13T09:48:49.251Z</time></trkpt><trkpt lat="43.3869756" lon="11.0863859"><ele>257.0</ele><time>2026-04-13T09:48:51.22Z</time></trkpt><trkpt lat="43.3870974" lon="11.0864061"><ele>257.0</ele><time>2026-04-13T09:48:53.231Z</time></trkpt><trkpt lat="43.3872215" lon="11.0864257"><ele>256.7142857142857</ele><time>2026-04-13T09:48:55.234Z</time></trkpt><trkpt lat="43.3873454" lon="11.0864457"><ele>256.42857142857144</ele><time>2026-04-13T09:48:57.23Z</time></trkpt><trkpt lat="43.3874094" lon="11.0864572"><ele>256.14285714285717</ele><time>2026-04-13T09:48:58.224Z</time></trkpt><trkpt lat="43.3874744" lon="11.0864627"><ele>255.85714285714286</ele><time>2026-04-13T09:48:59.226Z</time></trkpt><trkpt lat="43.3875388" lon="11.0864718"><ele>255.5714285714286</ele><time>2026-04-13T09:49:00.228Z</time></trkpt><trkpt lat="43.3876039" lon="11.0864803"><ele>255.2857142857143</ele><time>2026-04-13T09:49:01.244Z</time></trkpt><trkpt lat="43.3876684" lon="11.0864856"><ele>255.0</ele><time>2026-04-13T09:49:02.229Z</time></trkpt><trkpt lat="43.3877354" lon="11.0864927"><ele>255.0</ele><time>2026-04-13T09:49:03.243Z</time></trkpt><trkpt lat="43.3878025" lon="11.0865043"><ele>255.00000000000003</ele><time>2026-04-13T09:49:04.224Z</time></trkpt><trkpt lat="43.3878732" lon="11.0865177"><ele>255.0</ele><time>2026-04-13T09:49:05.237Z</time></trkpt><trkpt lat="43.3879414" lon="11.0865275"><ele>255.0</ele><time>2026-04-13T09:49:06.222Z</time></trkpt><trkpt lat="43.3880106" lon="11.0865362"><ele>255.00000000000003</ele><time>2026-04-13T09:49:07.217Z</time></trkpt><trkpt lat="43.3880779" lon="11.0865474"><ele>255.0</ele><time>2026-04-13T09:49:08.235Z</time></trkpt><trkpt lat="43.3881449" lon="11.0865604"><ele>255.0</ele><time>2026-04-13T09:49:09.244Z</time></trkpt><trkpt lat="43.3882114" lon="11.0865742"><ele>255.14285714285717</ele><time>2026-04-13T09:49:10.223Z</time></trkpt><trkpt lat="43.3882797" lon="11.0865874"><ele>255.2857142857143</ele><time>2026-04-13T09:49:11.226Z</time></trkpt><trkpt lat="43.388349" lon="11.0866045"><ele>255.42857142857144</ele><time>2026-04-13T09:49:12.221Z</time></trkpt><trkpt lat="43.3884187" lon="11.0866278"><ele>255.57142857142856</ele><time>2026-04-13T09:49:13.226Z</time></trkpt><trkpt lat="43.3884891" lon="11.086656"><ele>255.7142857142857</ele><time>2026-04-13T09:49:14.223Z</time></trkpt><trkpt lat="43.3885561" lon="11.086689"><ele>255.85714285714283</ele><time>2026-04-13T09:49:15.236Z</time></trkpt><trkpt lat="43.3886232" lon="11.086726"><ele>256.0</ele><time>2026-04-13T09:49:16.232Z</time></trkpt><trkpt lat="43.3886861" lon="11.0867645"><ele>256.1428571428571</ele><time>2026-04-13T09:49:17.222Z</time></trkpt><trkpt lat="43.38875" lon="11.0867994"><ele>256.2857142857143</ele><time>2026-04-13T09:49:18.235Z</time></trkpt><trkpt lat="43.3888117" lon="11.086838"><ele>256.42857142857144</ele><time>2026-04-13T09:49:19.223Z</time></trkpt><trkpt lat="43.3888754" lon="11.086879"><ele>256.57142857142856</ele><time>2026-04-13T09:49:20.232Z</time></trkpt><trkpt lat="43.3889393" lon="11.0869183"><ele>256.7142857142857</ele><time>2026-04-13T09:49:21.221Z</time></trkpt><trkpt lat="43.3890059" lon="11.0869594"><ele>256.85714285714283</ele><time>2026-04-13T09:49:22.225Z</time></trkpt><trkpt lat="43.3890739" lon="11.0870046"><ele>257.0</ele><time>2026-04-13T09:49:23.238Z</time></trkpt><trkpt lat="43.3891402" lon="11.0870481"><ele>256.7142857142857</ele><time>2026-04-13T09:49:24.216Z</time></trkpt><trkpt lat="43.3892051" lon="11.0870939"><ele>256.42857142857144</ele><time>2026-04-13T09:49:25.222Z</time></trkpt><trkpt lat="43.3892684" lon="11.0871402"><ele>256.14285714285717</ele><time>2026-04-13T09:49:26.224Z</time></trkpt><trkpt lat="43.3893328" lon="11.0871914"><ele>255.85714285714286</ele><time>2026-04-13T09:49:27.243Z</time></trkpt><trkpt lat="43.3893908" lon="11.0872483"><ele>255.5714285714286</ele><time>2026-04-13T09:49:28.221Z</time></trkpt><trkpt lat="43.3894485" lon="11.0873178"><ele>255.2857142857143</ele><time>2026-04-13T09:49:29.244Z</time></trkpt><trkpt lat="43.3895045" lon="11.0873894"><ele>255.0</ele><time>2026-04-13T09:49:30.227Z</time></trkpt><trkpt lat="43.3895589" lon="11.0874625"><ele>254.83333333333334</ele><time>2026-04-13T09:49:31.223Z</time></trkpt><trkpt lat="43.389609" lon="11.0875413"><ele>254.66666666666669</ele><time>2026-04-13T09:49:32.233Z</time></trkpt><trkpt lat="43.3896576" lon="11.0876222"><ele>254.5</ele><time>2026-04-13T09:49:33.224Z</time></trkpt><trkpt lat="43.3897028" lon="11.0877062"><ele>254.33333333333334</ele><time>2026-04-13T09:49:34.217Z</time></trkpt><trkpt lat="43.3897446" lon="11.087792"><ele>254.16666666666669</ele><time>2026-04-13T09:49:35.235Z</time></trkpt><trkpt lat="43.389786" lon="11.0878773"><ele>254.0</ele><time>2026-04-13T09:49:36.227Z</time></trkpt><trkpt lat="43.3898273" lon="11.0879644"><ele>253.66666666666669</ele><time>2026-04-13T09:49:37.218Z</time></trkpt><trkpt lat="43.3898635" lon="11.0880532"><ele>253.33333333333334</ele><time>2026-04-13T09:49:38.246Z</time></trkpt><trkpt lat="43.3899015" lon="11.0881445"><ele>253.0</ele><time>2026-04-13T09:49:39.226Z</time></trkpt><trkpt lat="43.3899442" lon="11.0882303"><ele>252.66666666666669</ele><time>2026-04-13T09:49:40.225Z</time></trkpt><trkpt lat="43.3899841" lon="11.0883178"><ele>252.33333333333334</ele><time>2026-04-13T09:49:41.228Z</time></trkpt><trkpt lat="43.3900265" lon="11.0884075"><ele>252.0</ele><time>2026-04-13T09:49:42.217Z</time></trkpt><trkpt lat="43.3900701" lon="11.0884949"><ele>252.0</ele><time>2026-04-13T09:49:43.236Z</time></trkpt><trkpt lat="43.3901125" lon="11.088581"><ele>252.0</ele><time>2026-04-13T09:49:44.212Z</time></trkpt><trkpt lat="43.3901521" lon="11.0886681"><ele>252.0</ele><time>2026-04-13T09:49:45.21Z</time></trkpt><trkpt lat="43.3901896" lon="11.0887563"><ele>252.0</ele><time>2026-04-13T09:49:46.223Z</time></trkpt><trkpt lat="43.3902293" lon="11.0888459"><ele>252.0</ele><time>2026-04-13T09:49:47.232Z</time></trkpt><trkpt lat="43.3902688" lon="11.0889299"><ele>252.0</ele><time>2026-04-13T09:49:48.244Z</time></trkpt><trkpt lat="43.3903103" lon="11.0890098"><ele>252.0</ele><time>2026-04-13T09:49:49.217Z</time></trkpt><trkpt lat="43.3903514" lon="11.0890839"><ele>251.85714285714286</ele><time>2026-04-13T09:49:50.228Z</time></trkpt><trkpt lat="43.3903987" lon="11.0891583"><ele>251.71428571428572</ele><time>2026-04-13T09:49:51.229Z</time></trkpt><trkpt lat="43.3904468" lon="11.0892316"><ele>251.57142857142856</ele><time>2026-04-13T09:49:52.227Z</time></trkpt><trkpt lat="43.3904962" lon="11.0893032"><ele>251.42857142857142</ele><time>2026-04-13T09:49:53.24Z</time></trkpt><trkpt lat="43.3905456" lon="11.0893683"><ele>251.28571428571428</ele><time>2026-04-13T09:49:54.229Z</time></trkpt><trkpt lat="43.3905963" lon="11.0894281"><ele>251.1428571428571</ele><time>2026-04-13T09:49:55.221Z</time></trkpt><trkpt lat="43.3906491" lon="11.0894827"><ele>250.99999999999997</ele><time>2026-04-13T09:49:56.225Z</time></trkpt><trkpt lat="43.3907028" lon="11.0895336"><ele>251.00000000000003</ele><time>2026-04-13T09:49:57.232Z</time></trkpt><trkpt lat="43.3907561" lon="11.0895896"><ele>251.0</ele><time>2026-04-13T09:49:58.23Z</time></trkpt><trkpt lat="43.3908115" lon="11.0896425"><ele>251.0</ele><time>2026-04-13T09:49:59.241Z</time></trkpt><trkpt lat="43.3908702" lon="11.0896883"><ele>251.0</ele><time>2026-04-13T09:50:00.233Z</time></trkpt><trkpt lat="43.3909263" lon="11.0897382"><ele>251.00000000000003</ele><time>2026-04-13T09:50:01.237Z</time></trkpt><trkpt lat="43.3909828" lon="11.0897791"><ele>251.0</ele><time>2026-04-13T09:50:02.227Z</time></trkpt><trkpt lat="43.3910957" lon="11.0898419"><ele>251.00000000000003</ele><time>2026-04-13T09:50:04.23Z</time></trkpt><trkpt lat="43.3911558" lon="11.0898716"><ele>251.0</ele><time>2026-04-13T09:50:05.225Z</time></trkpt><trkpt lat="43.3912161" lon="11.0899074"><ele>251.0</ele><time>2026-04-13T09:50:06.219Z</time></trkpt><trkpt lat="43.3913313" lon="11.0899735"><ele>251.0</ele><time>2026-04-13T09:50:08.24Z</time></trkpt><trkpt lat="43.391393" lon="11.0900101"><ele>251.00000000000003</ele><time>2026-04-13T09:50:09.226Z</time></trkpt><trkpt lat="43.391453" lon="11.0900452"><ele>251.0</ele><time>2026-04-13T09:50:10.23Z</time></trkpt><trkpt lat="43.3915646" lon="11.0900987"><ele>250.5</ele><time>2026-04-13T09:50:12.217Z</time></trkpt><trkpt lat="43.3916797" lon="11.0901389"><ele>250.0</ele><time>2026-04-13T09:50:14.226Z</time></trkpt><trkpt lat="43.3917922" lon="11.0901611"><ele>249.5</ele><time>2026-04-13T09:50:16.221Z</time></trkpt><trkpt lat="43.3919134" lon="11.090171"><ele>249.0</ele><time>2026-04-13T09:50:18.22Z</time></trkpt><trkpt lat="43.3920308" lon="11.090173"><ele>249.0</ele><time>2026-04-13T09:50:20.238Z</time></trkpt><trkpt lat="43.3920973" lon="11.0901766"><ele>248.99999999999997</ele><time>2026-04-13T09:50:21.247Z</time></trkpt><trkpt lat="43.3921615" lon="11.09018"><ele>249.0</ele><time>2026-04-13T09:50:22.23Z</time></trkpt><trkpt lat="43.3922266" lon="11.0901755"><ele>249.0</ele><time>2026-04-13T09:50:23.239Z</time></trkpt><trkpt lat="43.3922918" lon="11.0901744"><ele>248.99999999999997</ele><time>2026-04-13T09:50:24.224Z</time></trkpt><trkpt lat="43.3923569" lon="11.0901748"><ele>249.0</ele><time>2026-04-13T09:50:25.211Z</time></trkpt><trkpt lat="43.3924226" lon="11.0901769"><ele>249.0</ele><time>2026-04-13T09:50:26.225Z</time></trkpt><trkpt lat="43.3924873" lon="11.0901811"><ele>248.7142857142857</ele><time>2026-04-13T09:50:27.219Z</time></trkpt><trkpt lat="43.3925514" lon="11.0901877"><ele>248.4285714285714</ele><time>2026-04-13T09:50:28.24Z</time></trkpt><trkpt lat="43.3926143" lon="11.0901959"><ele>248.14285714285714</ele><time>2026-04-13T09:50:29.235Z</time></trkpt><trkpt lat="43.3926791" lon="11.0902001"><ele>247.85714285714283</ele><time>2026-04-13T09:50:30.224Z</time></trkpt><trkpt lat="43.3927433" lon="11.0902014"><ele>247.57142857142856</ele><time>2026-04-13T09:50:31.225Z</time></trkpt><trkpt lat="43.3928094" lon="11.090202"><ele>247.28571428571428</ele><time>2026-04-13T09:50:32.211Z</time></trkpt><trkpt lat="43.3928794" lon="11.0902037"><ele>247.0</ele><time>2026-04-13T09:50:33.24Z</time></trkpt><trkpt lat="43.3929467" lon="11.0902089"><ele>245.99999999999997</ele><time>2026-04-13T09:50:34.234Z</time></trkpt><trkpt lat="43.3930183" lon="11.0902123"><ele>245.0</ele><time>2026-04-13T09:50:35.213Z</time></trkpt><trkpt lat="43.393094" lon="11.0902115"><ele>244.0</ele><time>2026-04-13T09:50:36.229Z</time></trkpt><trkpt lat="43.3931709" lon="11.0902131"><ele>243.0</ele><time>2026-04-13T09:50:37.23Z</time></trkpt><trkpt lat="43.3932482" lon="11.0902146"><ele>241.99999999999997</ele><time>2026-04-13T09:50:38.223Z</time></trkpt><trkpt lat="43.3933276" lon="11.0902108"><ele>241.0</ele><time>2026-04-13T09:50:39.224Z</time></trkpt><trkpt lat="43.3934066" lon="11.09021"><ele>240.99999999999997</ele><time>2026-04-13T09:50:40.233Z</time></trkpt><trkpt lat="43.3934893" lon="11.0902121"><ele>241.0</ele><time>2026-04-13T09:50:41.224Z</time></trkpt><trkpt lat="43.3935754" lon="11.0902132"><ele>241.0</ele><time>2026-04-13T09:50:42.221Z</time></trkpt><trkpt lat="43.3936626" lon="11.0902151"><ele>241.0</ele><time>2026-04-13T09:50:43.237Z</time></trkpt><trkpt lat="43.3937496" lon="11.0902152"><ele>240.99999999999997</ele><time>2026-04-13T09:50:44.216Z</time></trkpt><trkpt lat="43.3938393" lon="11.0902137"><ele>241.0</ele><time>2026-04-13T09:50:45.221Z</time></trkpt><trkpt lat="43.3939311" lon="11.0902166"><ele>240.20000000000002</ele><time>2026-04-13T09:50:46.228Z</time></trkpt><trkpt lat="43.3940231" lon="11.0902179"><ele>239.40000000000003</ele><time>2026-04-13T09:50:47.225Z</time></trkpt><trkpt lat="43.3941167" lon="11.0902188"><ele>238.6</ele><time>2026-04-13T09:50:48.223Z</time></trkpt><trkpt lat="43.3942127" lon="11.0902192"><ele>237.8</ele><time>2026-04-13T09:50:49.225Z</time></trkpt><trkpt lat="43.394307" lon="11.0902214"><ele>237.0</ele><time>2026-04-13T09:50:50.229Z</time></trkpt><trkpt lat="43.3944016" lon="11.090226"><ele>237.0</ele><time>2026-04-13T09:50:51.225Z</time></trkpt><trkpt lat="43.3944971" lon="11.0902324"><ele>237.0</ele><time>2026-04-13T09:50:52.217Z</time></trkpt><trkpt lat="43.3945908" lon="11.0902333"><ele>237.0</ele><time>2026-04-13T09:50:53.225Z</time></trkpt><trkpt lat="43.3946858" lon="11.090229"><ele>237.0</ele><time>2026-04-13T09:50:54.236Z</time></trkpt><trkpt lat="43.394779" lon="11.0902231"><ele>237.0</ele><time>2026-04-13T09:50:55.222Z</time></trkpt><trkpt lat="43.3948707" lon="11.0902107"><ele>236.2</ele><time>2026-04-13T09:50:56.208Z</time></trkpt><trkpt lat="43.3949625" lon="11.0901906"><ele>235.39999999999998</ele><time>2026-04-13T09:50:57.215Z</time></trkpt><trkpt lat="43.3950521" lon="11.0901655"><ele>234.60000000000002</ele><time>2026-04-13T09:50:58.229Z</time></trkpt><trkpt lat="43.3951386" lon="11.0901332"><ele>233.8</ele><time>2026-04-13T09:50:59.215Z</time></trkpt><trkpt lat="43.3952235" lon="11.0900928"><ele>233.0</ele><time>2026-04-13T09:51:00.225Z</time></trkpt><trkpt lat="43.3953052" lon="11.0900519"><ele>233.00000000000003</ele><time>2026-04-13T09:51:01.225Z</time></trkpt><trkpt lat="43.3953864" lon="11.0900078"><ele>233.0</ele><time>2026-04-13T09:51:02.215Z</time></trkpt><trkpt lat="43.3954651" lon="11.0899597"><ele>233.0</ele><time>2026-04-13T09:51:03.228Z</time></trkpt><trkpt lat="43.3955405" lon="11.0899016"><ele>233.0</ele><time>2026-04-13T09:51:04.216Z</time></trkpt><trkpt lat="43.3956178" lon="11.0898404"><ele>233.00000000000003</ele><time>2026-04-13T09:51:05.233Z</time></trkpt><trkpt lat="43.3956959" lon="11.0897797"><ele>233.0</ele><time>2026-04-13T09:51:06.233Z</time></trkpt><trkpt lat="43.3957728" lon="11.0897215"><ele>233.00000000000003</ele><time>2026-04-13T09:51:07.23Z</time></trkpt><trkpt lat="43.395849" lon="11.0896623"><ele>233.0</ele><time>2026-04-13T09:51:08.233Z</time></trkpt><trkpt lat="43.3959235" lon="11.0896039"><ele>233.0</ele><time>2026-04-13T09:51:09.238Z</time></trkpt><trkpt lat="43.3959986" lon="11.0895435"><ele>233.0</ele><time>2026-04-13T09:51:10.219Z</time></trkpt><trkpt lat="43.3960745" lon="11.0894872"><ele>233.00000000000003</ele><time>2026-04-13T09:51:11.239Z</time></trkpt><trkpt lat="43.3961476" lon="11.089433"><ele>233.0</ele><time>2026-04-13T09:51:12.214Z</time></trkpt><trkpt lat="43.3962206" lon="11.0893811"><ele>233.00000000000003</ele><time>2026-04-13T09:51:13.22Z</time></trkpt><trkpt lat="43.3962937" lon="11.0893355"><ele>233.0</ele><time>2026-04-13T09:51:14.234Z</time></trkpt><trkpt lat="43.3963674" lon="11.0892961"><ele>233.0</ele><time>2026-04-13T09:51:15.22Z</time></trkpt><trkpt lat="43.3964443" lon="11.0892649"><ele>233.0</ele><time>2026-04-13T09:51:16.238Z</time></trkpt><trkpt lat="43.3965206" lon="11.0892417"><ele>233.00000000000003</ele><time>2026-04-13T09:51:17.223Z</time></trkpt><trkpt lat="43.3966003" lon="11.0892239"><ele>233.0</ele><time>2026-04-13T09:51:18.225Z</time></trkpt><trkpt lat="43.3966798" lon="11.0892134"><ele>232.50000000000003</ele><time>2026-04-13T09:51:19.217Z</time></trkpt><trkpt lat="43.3967571" lon="11.0892054"><ele>232.0</ele><time>2026-04-13T09:51:20.219Z</time></trkpt><trkpt lat="43.396835" lon="11.0892029"><ele>231.5</ele><time>2026-04-13T09:51:21.239Z</time></trkpt><trkpt lat="43.3969123" lon="11.0892051"><ele>231.0</ele><time>2026-04-13T09:51:22.235Z</time></trkpt><trkpt lat="43.3969879" lon="11.0892131"><ele>230.50000000000003</ele><time>2026-04-13T09:51:23.222Z</time></trkpt><trkpt lat="43.3970638" lon="11.0892252"><ele>230.0</ele><time>2026-04-13T09:51:24.233Z</time></trkpt><trkpt lat="43.3971388" lon="11.0892432"><ele>229.83333333333334</ele><time>2026-04-13T09:51:25.221Z</time></trkpt><trkpt lat="43.3972113" lon="11.0892648"><ele>229.66666666666669</ele><time>2026-04-13T09:51:26.233Z</time></trkpt><trkpt lat="43.3972817" lon="11.0892958"><ele>229.5</ele><time>2026-04-13T09:51:27.236Z</time></trkpt><trkpt lat="43.3973524" lon="11.0893321"><ele>229.33333333333331</ele><time>2026-04-13T09:51:28.236Z</time></trkpt><trkpt lat="43.3974236" lon="11.0893697"><ele>229.16666666666666</ele><time>2026-04-13T09:51:29.237Z</time></trkpt><trkpt lat="43.3974954" lon="11.0894074"><ele>229.0</ele><time>2026-04-13T09:51:30.22Z</time></trkpt><trkpt lat="43.3975679" lon="11.0894487"><ele>228.99999999999997</ele><time>2026-04-13T09:51:31.245Z</time></trkpt><trkpt lat="43.3976385" lon="11.0894912"><ele>229.0</ele><time>2026-04-13T09:51:32.227Z</time></trkpt><trkpt lat="43.3977118" lon="11.0895367"><ele>229.0</ele><time>2026-04-13T09:51:33.237Z</time></trkpt><trkpt lat="43.3977841" lon="11.0895829"><ele>229.0</ele><time>2026-04-13T09:51:34.247Z</time></trkpt><trkpt lat="43.3978547" lon="11.0896271"><ele>228.99999999999997</ele><time>2026-04-13T09:51:35.222Z</time></trkpt><trkpt lat="43.3979277" lon="11.0896718"><ele>229.0</ele><time>2026-04-13T09:51:36.223Z</time></trkpt><trkpt lat="43.3980034" lon="11.0897163"><ele>228.83333333333331</ele><time>2026-04-13T09:51:37.227Z</time></trkpt><trkpt lat="43.3980777" lon="11.0897578"><ele>228.66666666666666</ele><time>2026-04-13T09:51:38.222Z</time></trkpt><trkpt lat="43.3981528" lon="11.0897997"><ele>228.5</ele><time>2026-04-13T09:51:39.228Z</time></trkpt><trkpt lat="43.3982298" lon="11.0898443"><ele>228.33333333333331</ele><time>2026-04-13T09:51:40.226Z</time></trkpt><trkpt lat="43.3983059" lon="11.0898881"><ele>228.16666666666666</ele><time>2026-04-13T09:51:41.246Z</time></trkpt><trkpt lat="43.3983842" lon="11.0899295"><ele>228.0</ele><time>2026-04-13T09:51:42.24Z</time></trkpt><trkpt lat="43.3984632" lon="11.0899718"><ele>227.66666666666666</ele><time>2026-04-13T09:51:43.23Z</time></trkpt><trkpt lat="43.3985438" lon="11.0900191"><ele>227.33333333333331</ele><time>2026-04-13T09:51:44.234Z</time></trkpt><trkpt lat="43.3986281" lon="11.0900648"><ele>227.0</ele><time>2026-04-13T09:51:45.227Z</time></trkpt><trkpt lat="43.3987114" lon="11.0901097"><ele>226.66666666666666</ele><time>2026-04-13T09:51:46.227Z</time></trkpt><trkpt lat="43.3987952" lon="11.0901546"><ele>226.33333333333331</ele><time>2026-04-13T09:51:47.226Z</time></trkpt><trkpt lat="43.3988802" lon="11.0902006"><ele>226.0</ele><time>2026-04-13T09:51:48.243Z</time></trkpt><trkpt lat="43.3989649" lon="11.0902479"><ele>225.20000000000002</ele><time>2026-04-13T09:51:49.22Z</time></trkpt><trkpt lat="43.3990528" lon="11.090294"><ele>224.40000000000003</ele><time>2026-04-13T09:51:50.232Z</time></trkpt><trkpt lat="43.3991422" lon="11.0903371"><ele>223.6</ele><time>2026-04-13T09:51:51.232Z</time></trkpt><trkpt lat="43.3992326" lon="11.0903806"><ele>222.8</ele><time>2026-04-13T09:51:52.251Z</time></trkpt><trkpt lat="43.3993208" lon="11.0904235"><ele>222.0</ele><time>2026-04-13T09:51:53.226Z</time></trkpt><trkpt lat="43.3994074" lon="11.0904689"><ele>222.0</ele><time>2026-04-13T09:51:54.246Z</time></trkpt><trkpt lat="43.3994931" lon="11.0905104"><ele>222.0</ele><time>2026-04-13T09:51:55.231Z</time></trkpt><trkpt lat="43.399579" lon="11.0905518"><ele>222.0</ele><time>2026-04-13T09:51:56.238Z</time></trkpt><trkpt lat="43.3996611" lon="11.0905949"><ele>222.0</ele><time>2026-04-13T09:51:57.22Z</time></trkpt><trkpt lat="43.3997386" lon="11.0906427"><ele>222.0</ele><time>2026-04-13T09:51:58.231Z</time></trkpt><trkpt lat="43.3998161" lon="11.0906893"><ele>222.0</ele><time>2026-04-13T09:51:59.234Z</time></trkpt><trkpt lat="43.3998927" lon="11.0907303"><ele>221.83333333333334</ele><time>2026-04-13T09:52:00.223Z</time></trkpt><trkpt lat="43.3999692" lon="11.0907674"><ele>221.66666666666669</ele><time>2026-04-13T09:52:01.22Z</time></trkpt><trkpt lat="43.4000444" lon="11.0908085"><ele>221.5</ele><time>2026-04-13T09:52:02.235Z</time></trkpt><trkpt lat="43.4001178" lon="11.090845"><ele>221.33333333333334</ele><time>2026-04-13T09:52:03.214Z</time></trkpt><trkpt lat="43.4001898" lon="11.0908834"><ele>221.16666666666669</ele><time>2026-04-13T09:52:04.227Z</time></trkpt><trkpt lat="43.4002591" lon="11.0909212"><ele>221.0</ele><time>2026-04-13T09:52:05.254Z</time></trkpt><trkpt lat="43.4003303" lon="11.0909568"><ele>221.00000000000003</ele><time>2026-04-13T09:52:06.241Z</time></trkpt><trkpt lat="43.4004001" lon="11.0909914"><ele>221.0</ele><time>2026-04-13T09:52:07.249Z</time></trkpt><trkpt lat="43.4004709" lon="11.0910275"><ele>221.0</ele><time>2026-04-13T09:52:08.225Z</time></trkpt><trkpt lat="43.4005422" lon="11.0910618"><ele>221.0</ele><time>2026-04-13T09:52:09.22Z</time></trkpt><trkpt lat="43.4006103" lon="11.091094"><ele>221.0</ele><time>2026-04-13T09:52:10.245Z</time></trkpt><trkpt lat="43.4006759" lon="11.0911269"><ele>221.00000000000003</ele><time>2026-04-13T09:52:11.228Z</time></trkpt><trkpt lat="43.4007401" lon="11.0911528"><ele>221.0</ele><time>2026-04-13T09:52:12.218Z</time></trkpt><trkpt lat="43.4008074" lon="11.0911775"><ele>220.83333333333334</ele><time>2026-04-13T09:52:13.23Z</time></trkpt><trkpt lat="43.4008705" lon="11.0912025"><ele>220.66666666666669</ele><time>2026-04-13T09:52:14.227Z</time></trkpt><trkpt lat="43.4009348" lon="11.0912205"><ele>220.5</ele><time>2026-04-13T09:52:15.221Z</time></trkpt><trkpt lat="43.4010033" lon="11.0912282"><ele>220.33333333333331</ele><time>2026-04-13T09:52:16.24Z</time></trkpt><trkpt lat="43.4010682" lon="11.0912283"><ele>220.16666666666666</ele><time>2026-04-13T09:52:17.22Z</time></trkpt><trkpt lat="43.401189" lon="11.0912329"><ele>220.0</ele><time>2026-04-13T09:52:19.228Z</time></trkpt><trkpt lat="43.4013055" lon="11.091235"><ele>220.2</ele><time>2026-04-13T09:52:21.232Z</time></trkpt><trkpt lat="43.4014211" lon="11.0912367"><ele>220.4</ele><time>2026-04-13T09:52:23.222Z</time></trkpt><trkpt lat="43.4015349" lon="11.0912419"><ele>220.60000000000002</ele><time>2026-04-13T09:52:25.227Z</time></trkpt><trkpt lat="43.4016467" lon="11.0912566"><ele>220.8</ele><time>2026-04-13T09:52:27.229Z</time></trkpt><trkpt lat="43.4017525" lon="11.0912576"><ele>221.0</ele><time>2026-04-13T09:52:29.224Z</time></trkpt><trkpt lat="43.4018518" lon="11.0912637"><ele>221.0</ele><time>2026-04-13T09:52:31.234Z</time></trkpt><trkpt lat="43.4019515" lon="11.0912702"><ele>221.00000000000003</ele><time>2026-04-13T09:52:33.223Z</time></trkpt><trkpt lat="43.4020511" lon="11.0912752"><ele>221.00000000000003</ele><time>2026-04-13T09:52:35.222Z</time></trkpt><trkpt lat="43.4021499" lon="11.0912763"><ele>221.0</ele><time>2026-04-13T09:52:37.237Z</time></trkpt><trkpt lat="43.4022456" lon="11.0912853"><ele>221.0</ele><time>2026-04-13T09:52:39.238Z</time></trkpt><trkpt lat="43.4023392" lon="11.0912964"><ele>221.8</ele><time>2026-04-13T09:52:41.241Z</time></trkpt><trkpt lat="43.4024325" lon="11.0913007"><ele>222.60000000000002</ele><time>2026-04-13T09:52:43.241Z</time></trkpt><trkpt lat="43.402526" lon="11.0913047"><ele>223.4</ele><time>2026-04-13T09:52:45.242Z</time></trkpt><trkpt lat="43.4026176" lon="11.0913105"><ele>224.2</ele><time>2026-04-13T09:52:47.212Z</time></trkpt><trkpt lat="43.4027047" lon="11.0913166"><ele>225.0</ele><time>2026-04-13T09:52:49.223Z</time></trkpt><trkpt lat="43.4028002" lon="11.0913197"><ele>225.0</ele><time>2026-04-13T09:52:51.235Z</time></trkpt><trkpt lat="43.402891" lon="11.0913257"><ele>225.0</ele><time>2026-04-13T09:52:53.23Z</time></trkpt><trkpt lat="43.4029753" lon="11.0913382"><ele>225.0</ele><time>2026-04-13T09:52:55.233Z</time></trkpt><trkpt lat="43.4030637" lon="11.0913514"><ele>225.0</ele><time>2026-04-13T09:52:57.224Z</time></trkpt><trkpt lat="43.4031545" lon="11.0913504"><ele>225.0</ele><time>2026-04-13T09:52:59.234Z</time></trkpt><trkpt lat="43.4032475" lon="11.0913492"><ele>225.0</ele><time>2026-04-13T09:53:01.219Z</time></trkpt><trkpt lat="43.4033418" lon="11.0913526"><ele>225.6</ele><time>2026-04-13T09:53:03.214Z</time></trkpt><trkpt lat="43.4034321" lon="11.0913568"><ele>226.2</ele><time>2026-04-13T09:53:05.218Z</time></trkpt><trkpt lat="43.40352" lon="11.0913582"><ele>226.8</ele><time>2026-04-13T09:53:07.24Z</time></trkpt><trkpt lat="43.4036121" lon="11.0913606"><ele>227.4</ele><time>2026-04-13T09:53:09.221Z</time></trkpt><trkpt lat="43.4037015" lon="11.0913611"><ele>228.0</ele><time>2026-04-13T09:53:11.244Z</time></trkpt><trkpt lat="43.4037918" lon="11.0913638"><ele>228.4</ele><time>2026-04-13T09:53:13.229Z</time></trkpt><trkpt lat="43.4038854" lon="11.0913714"><ele>228.8</ele><time>2026-04-13T09:53:15.214Z</time></trkpt><trkpt lat="43.4039763" lon="11.0913803"><ele>229.2</ele><time>2026-04-13T09:53:17.232Z</time></trkpt><trkpt lat="43.4040652" lon="11.0913841"><ele>229.6</ele><time>2026-04-13T09:53:19.222Z</time></trkpt><trkpt lat="43.4041545" lon="11.0913848"><ele>230.0</ele><time>2026-04-13T09:53:21.223Z</time></trkpt><trkpt lat="43.4042436" lon="11.0913869"><ele>230.00000000000003</ele><time>2026-04-13T09:53:23.222Z</time></trkpt><trkpt lat="43.404336" lon="11.0913961"><ele>230.0</ele><time>2026-04-13T09:53:25.225Z</time></trkpt><trkpt lat="43.4044233" lon="11.0914006"><ele>230.0</ele><time>2026-04-13T09:53:27.214Z</time></trkpt><trkpt lat="43.4045138" lon="11.0914075"><ele>230.0</ele><time>2026-04-13T09:53:29.247Z</time></trkpt><trkpt lat="43.4045993" lon="11.091407"><ele>230.00000000000003</ele><time>2026-04-13T09:53:31.234Z</time></trkpt><trkpt lat="43.4046867" lon="11.0914136"><ele>230.0</ele><time>2026-04-13T09:53:33.215Z</time></trkpt><trkpt lat="43.4047731" lon="11.0914219"><ele>230.50000000000003</ele><time>2026-04-13T09:53:35.218Z</time></trkpt><trkpt lat="43.4048604" lon="11.0914338"><ele>231.0</ele><time>2026-04-13T09:53:37.235Z</time></trkpt><trkpt lat="43.4049449" lon="11.0914486"><ele>231.5</ele><time>2026-04-13T09:53:39.229Z</time></trkpt><trkpt lat="43.4050302" lon="11.0914547"><ele>232.0</ele><time>2026-04-13T09:53:41.24Z</time></trkpt><trkpt lat="43.4051098" lon="11.0914653"><ele>232.50000000000003</ele><time>2026-04-13T09:53:43.225Z</time></trkpt><trkpt lat="43.4051985" lon="11.0914799"><ele>233.0</ele><time>2026-04-13T09:53:45.219Z</time></trkpt><trkpt lat="43.4052873" lon="11.0914971"><ele>233.0</ele><time>2026-04-13T09:53:47.238Z</time></trkpt><trkpt lat="43.4053776" lon="11.0915038"><ele>233.0</ele><time>2026-04-13T09:53:49.232Z</time></trkpt><trkpt lat="43.4054675" lon="11.09152"><ele>233.0</ele><time>2026-04-13T09:53:51.231Z</time></trkpt><trkpt lat="43.4055548" lon="11.0915358"><ele>233.0</ele><time>2026-04-13T09:53:53.221Z</time></trkpt><trkpt lat="43.4056536" lon="11.0915452"><ele>233.0</ele><time>2026-04-13T09:53:55.217Z</time></trkpt><trkpt lat="43.405753" lon="11.091556"><ele>233.0</ele><time>2026-04-13T09:53:57.23Z</time></trkpt><trkpt lat="43.4058481" lon="11.0915716"><ele>233.0</ele><time>2026-04-13T09:53:59.233Z</time></trkpt><trkpt lat="43.4059367" lon="11.091579"><ele>233.0</ele><time>2026-04-13T09:54:01.247Z</time></trkpt><trkpt lat="43.4060279" lon="11.0915904"><ele>233.0</ele><time>2026-04-13T09:54:03.229Z</time></trkpt><trkpt lat="43.4061191" lon="11.0916021"><ele>233.0</ele><time>2026-04-13T09:54:05.238Z</time></trkpt><trkpt lat="43.4062115" lon="11.0916171"><ele>233.0</ele><time>2026-04-13T09:54:07.214Z</time></trkpt><trkpt lat="43.4063096" lon="11.0916348"><ele>233.0</ele><time>2026-04-13T09:54:09.233Z</time></trkpt><trkpt lat="43.4064076" lon="11.091647"><ele>233.0</ele><time>2026-04-13T09:54:11.219Z</time></trkpt><trkpt lat="43.4065077" lon="11.0916593"><ele>233.0</ele><time>2026-04-13T09:54:13.234Z</time></trkpt><trkpt lat="43.4066044" lon="11.091672"><ele>233.0</ele><time>2026-04-13T09:54:15.215Z</time></trkpt><trkpt lat="43.4067002" lon="11.0916867"><ele>232.8</ele><time>2026-04-13T09:54:17.237Z</time></trkpt><trkpt lat="43.4067966" lon="11.0916999"><ele>232.60000000000002</ele><time>2026-04-13T09:54:19.219Z</time></trkpt><trkpt lat="43.4068933" lon="11.091713"><ele>232.39999999999998</ele><time>2026-04-13T09:54:21.222Z</time></trkpt><trkpt lat="43.4069877" lon="11.0917293"><ele>232.2</ele><time>2026-04-13T09:54:23.224Z</time></trkpt><trkpt lat="43.4070856" lon="11.091742"><ele>232.0</ele><time>2026-04-13T09:54:25.228Z</time></trkpt><trkpt lat="43.4071818" lon="11.0917534"><ele>232.6</ele><time>2026-04-13T09:54:27.224Z</time></trkpt><trkpt lat="43.4072772" lon="11.0917642"><ele>233.2</ele><time>2026-04-13T09:54:29.22Z</time></trkpt><trkpt lat="43.4073719" lon="11.0917789"><ele>233.8</ele><time>2026-04-13T09:54:31.238Z</time></trkpt><trkpt lat="43.4074653" lon="11.0917944"><ele>234.4</ele><time>2026-04-13T09:54:33.225Z</time></trkpt><trkpt lat="43.4075604" lon="11.0918054"><ele>235.0</ele><time>2026-04-13T09:54:35.224Z</time></trkpt><trkpt lat="43.4076572" lon="11.0918217"><ele>235.0</ele><time>2026-04-13T09:54:37.223Z</time></trkpt><trkpt lat="43.4077566" lon="11.0918311"><ele>235.0</ele><time>2026-04-13T09:54:39.228Z</time></trkpt><trkpt lat="43.4078514" lon="11.0918396"><ele>235.0</ele><time>2026-04-13T09:54:41.225Z</time></trkpt><trkpt lat="43.4079358" lon="11.0918461"><ele>235.0</ele><time>2026-04-13T09:54:43.226Z</time></trkpt><trkpt lat="43.4080211" lon="11.0918503"><ele>235.0</ele><time>2026-04-13T09:54:45.231Z</time></trkpt><trkpt lat="43.4081091" lon="11.0918424"><ele>235.4</ele><time>2026-04-13T09:54:47.239Z</time></trkpt><trkpt lat="43.4082027" lon="11.0918325"><ele>235.8</ele><time>2026-04-13T09:54:49.229Z</time></trkpt><trkpt lat="43.4082951" lon="11.0918171"><ele>236.2</ele><time>2026-04-13T09:54:51.239Z</time></trkpt><trkpt lat="43.4083917" lon="11.0917968"><ele>236.6</ele><time>2026-04-13T09:54:53.239Z</time></trkpt><trkpt lat="43.4084913" lon="11.0917724"><ele>237.0</ele><time>2026-04-13T09:54:55.23Z</time></trkpt><trkpt lat="43.4085897" lon="11.0917458"><ele>237.0</ele><time>2026-04-13T09:54:57.232Z</time></trkpt><trkpt lat="43.4086914" lon="11.0917239"><ele>237.0</ele><time>2026-04-13T09:54:59.247Z</time></trkpt><trkpt lat="43.4087947" lon="11.0917052"><ele>237.0</ele><time>2026-04-13T09:55:01.23Z</time></trkpt><trkpt lat="43.4088971" lon="11.0916774"><ele>237.0</ele><time>2026-04-13T09:55:03.233Z</time></trkpt><trkpt lat="43.4089975" lon="11.0916493"><ele>237.0</ele><time>2026-04-13T09:55:05.23Z</time></trkpt><trkpt lat="43.4091036" lon="11.091626"><ele>236.6</ele><time>2026-04-13T09:55:07.224Z</time></trkpt><trkpt lat="43.4092097" lon="11.0916004"><ele>236.2</ele><time>2026-04-13T09:55:09.226Z</time></trkpt><trkpt lat="43.4093147" lon="11.0915746"><ele>235.8</ele><time>2026-04-13T09:55:11.232Z</time></trkpt><trkpt lat="43.4094123" lon="11.0915506"><ele>235.4</ele><time>2026-04-13T09:55:13.235Z</time></trkpt><trkpt lat="43.4095145" lon="11.0915255"><ele>235.0</ele><time>2026-04-13T09:55:15.223Z</time></trkpt><trkpt lat="43.4096173" lon="11.0915062"><ele>235.0</ele><time>2026-04-13T09:55:17.232Z</time></trkpt><trkpt lat="43.4097221" lon="11.0914877"><ele>235.0</ele><time>2026-04-13T09:55:19.221Z</time></trkpt><trkpt lat="43.4098272" lon="11.0914773"><ele>235.0</ele><time>2026-04-13T09:55:21.241Z</time></trkpt><trkpt lat="43.409933" lon="11.0914758"><ele>235.0</ele><time>2026-04-13T09:55:23.219Z</time></trkpt><trkpt lat="43.4100376" lon="11.091487"><ele>235.0</ele><time>2026-04-13T09:55:25.23Z</time></trkpt><trkpt lat="43.4101382" lon="11.0915143"><ele>235.0</ele><time>2026-04-13T09:55:27.242Z</time></trkpt><trkpt lat="43.4102364" lon="11.091558"><ele>235.0</ele><time>2026-04-13T09:55:29.241Z</time></trkpt><trkpt lat="43.4103323" lon="11.0916227"><ele>235.0</ele><time>2026-04-13T09:55:31.223Z</time></trkpt><trkpt lat="43.4104251" lon="11.0916954"><ele>235.0</ele><time>2026-04-13T09:55:33.227Z</time></trkpt><trkpt lat="43.4105116" lon="11.0917805"><ele>235.0</ele><time>2026-04-13T09:55:35.24Z</time></trkpt><trkpt lat="43.4105914" lon="11.0918607"><ele>234.8</ele><time>2026-04-13T09:55:37.222Z</time></trkpt><trkpt lat="43.4106688" lon="11.0919382"><ele>234.6</ele><time>2026-04-13T09:55:39.233Z</time></trkpt><trkpt lat="43.4107487" lon="11.0920135"><ele>234.39999999999998</ele><time>2026-04-13T09:55:41.246Z</time></trkpt><trkpt lat="43.4108321" lon="11.0920909"><ele>234.2</ele><time>2026-04-13T09:55:43.218Z</time></trkpt><trkpt lat="43.410915" lon="11.0921654"><ele>234.0</ele><time>2026-04-13T09:55:45.233Z</time></trkpt><trkpt lat="43.4109972" lon="11.0922487"><ele>234.0</ele><time>2026-04-13T09:55:47.243Z</time></trkpt><trkpt lat="43.411075" lon="11.092329"><ele>233.99999999999997</ele><time>2026-04-13T09:55:49.214Z</time></trkpt><trkpt lat="43.4111568" lon="11.0924069"><ele>233.99999999999997</ele><time>2026-04-13T09:55:51.229Z</time></trkpt><trkpt lat="43.4112379" lon="11.0924907"><ele>234.0</ele><time>2026-04-13T09:55:53.244Z</time></trkpt><trkpt lat="43.4113153" lon="11.0925721"><ele>234.0</ele><time>2026-04-13T09:55:55.22Z</time></trkpt><trkpt lat="43.4113963" lon="11.092646"><ele>234.79999999999998</ele><time>2026-04-13T09:55:57.217Z</time></trkpt><trkpt lat="43.411474" lon="11.0927284"><ele>235.59999999999997</ele><time>2026-04-13T09:55:59.246Z</time></trkpt><trkpt lat="43.4115511" lon="11.092808"><ele>236.4</ele><time>2026-04-13T09:56:01.224Z</time></trkpt><trkpt lat="43.4116352" lon="11.0928835"><ele>237.2</ele><time>2026-04-13T09:56:03.221Z</time></trkpt><trkpt lat="43.4117212" lon="11.0929535"><ele>238.0</ele><time>2026-04-13T09:56:05.238Z</time></trkpt><trkpt lat="43.4118093" lon="11.0930208"><ele>238.0</ele><time>2026-04-13T09:56:07.222Z</time></trkpt><trkpt lat="43.4118939" lon="11.0930919"><ele>238.0</ele><time>2026-04-13T09:56:09.218Z</time></trkpt><trkpt lat="43.4119868" lon="11.0931662"><ele>238.0</ele><time>2026-04-13T09:56:11.225Z</time></trkpt><trkpt lat="43.4120779" lon="11.0932355"><ele>238.0</ele><time>2026-04-13T09:56:13.22Z</time></trkpt><trkpt lat="43.4121685" lon="11.093302"><ele>238.0</ele><time>2026-04-13T09:56:15.221Z</time></trkpt><trkpt lat="43.4122611" lon="11.0933682"><ele>237.4</ele><time>2026-04-13T09:56:17.218Z</time></trkpt><trkpt lat="43.4123524" lon="11.0934367"><ele>236.8</ele><time>2026-04-13T09:56:19.235Z</time></trkpt><trkpt lat="43.412444" lon="11.0935033"><ele>236.2</ele><time>2026-04-13T09:56:21.245Z</time></trkpt><trkpt lat="43.4125377" lon="11.0935689"><ele>235.6</ele><time>2026-04-13T09:56:23.229Z</time></trkpt><trkpt lat="43.4126326" lon="11.0936355"><ele>235.0</ele><time>2026-04-13T09:56:25.217Z</time></trkpt><trkpt lat="43.4127258" lon="11.0936994"><ele>235.0</ele><time>2026-04-13T09:56:27.232Z</time></trkpt><trkpt lat="43.4128098" lon="11.0937655"><ele>235.0</ele><time>2026-04-13T09:56:29.226Z</time></trkpt><trkpt lat="43.4128964" lon="11.093828"><ele>235.0</ele><time>2026-04-13T09:56:31.228Z</time></trkpt><trkpt lat="43.412991" lon="11.0938933"><ele>235.0</ele><time>2026-04-13T09:56:33.231Z</time></trkpt><trkpt lat="43.4130895" lon="11.093962"><ele>235.0</ele><time>2026-04-13T09:56:35.225Z</time></trkpt><trkpt lat="43.4131919" lon="11.0940382"><ele>235.0</ele><time>2026-04-13T09:56:37.242Z</time></trkpt><trkpt lat="43.413297" lon="11.0941138"><ele>235.0</ele><time>2026-04-13T09:56:39.225Z</time></trkpt><trkpt lat="43.4134016" lon="11.0941867"><ele>235.0</ele><time>2026-04-13T09:56:41.228Z</time></trkpt><trkpt lat="43.4135129" lon="11.0942675"><ele>235.0</ele><time>2026-04-13T09:56:43.218Z</time></trkpt><trkpt lat="43.4135686" lon="11.0943091"><ele>235.0</ele><time>2026-04-13T09:56:44.22Z</time></trkpt><trkpt lat="43.4136268" lon="11.0943516"><ele>235.0</ele><time>2026-04-13T09:56:45.239Z</time></trkpt><trkpt lat="43.4136853" lon="11.0943931"><ele>234.99999999999997</ele><time>2026-04-13T09:56:46.215Z</time></trkpt><trkpt lat="43.4137437" lon="11.0944418"><ele>235.0</ele><time>2026-04-13T09:56:47.23Z</time></trkpt><trkpt lat="43.4138036" lon="11.0944894"><ele>235.0</ele><time>2026-04-13T09:56:48.229Z</time></trkpt><trkpt lat="43.4138644" lon="11.0945399"><ele>234.99999999999997</ele><time>2026-04-13T09:56:49.222Z</time></trkpt><trkpt lat="43.413926" lon="11.0945867"><ele>235.0</ele><time>2026-04-13T09:56:50.216Z</time></trkpt><trkpt lat="43.4139901" lon="11.0946338"><ele>235.0</ele><time>2026-04-13T09:56:51.218Z</time></trkpt><trkpt lat="43.4140555" lon="11.0946822"><ele>234.33333333333331</ele><time>2026-04-13T09:56:52.229Z</time></trkpt><trkpt lat="43.4141207" lon="11.0947288"><ele>233.66666666666666</ele><time>2026-04-13T09:56:53.234Z</time></trkpt><trkpt lat="43.4141863" lon="11.094776"><ele>233.0</ele><time>2026-04-13T09:56:54.23Z</time></trkpt><trkpt lat="43.414253" lon="11.0948237"><ele>232.33333333333331</ele><time>2026-04-13T09:56:55.211Z</time></trkpt><trkpt lat="43.4143241" lon="11.0948739"><ele>231.66666666666666</ele><time>2026-04-13T09:56:56.228Z</time></trkpt><trkpt lat="43.4143968" lon="11.0949239"><ele>231.0</ele><time>2026-04-13T09:56:57.215Z</time></trkpt><trkpt lat="43.4144694" lon="11.0949725"><ele>230.83333333333334</ele><time>2026-04-13T09:56:58.237Z</time></trkpt><trkpt lat="43.4145395" lon="11.0950187"><ele>230.66666666666669</ele><time>2026-04-13T09:56:59.224Z</time></trkpt><trkpt lat="43.414608" lon="11.0950651"><ele>230.5</ele><time>2026-04-13T09:57:00.234Z</time></trkpt><trkpt lat="43.4146784" lon="11.0951134"><ele>230.33333333333334</ele><time>2026-04-13T09:57:01.231Z</time></trkpt><trkpt lat="43.4147449" lon="11.095162"><ele>230.16666666666669</ele><time>2026-04-13T09:57:02.228Z</time></trkpt><trkpt lat="43.4148082" lon="11.0952074"><ele>230.0</ele><time>2026-04-13T09:57:03.232Z</time></trkpt><trkpt lat="43.4148697" lon="11.0952542"><ele>229.99999999999997</ele><time>2026-04-13T09:57:04.231Z</time></trkpt><trkpt lat="43.4149312" lon="11.0953007"><ele>230.0</ele><time>2026-04-13T09:57:05.235Z</time></trkpt><trkpt lat="43.4149925" lon="11.0953454"><ele>229.99999999999997</ele><time>2026-04-13T09:57:06.219Z</time></trkpt><trkpt lat="43.4150518" lon="11.0953916"><ele>229.99999999999997</ele><time>2026-04-13T09:57:07.217Z</time></trkpt><trkpt lat="43.4151094" lon="11.0954338"><ele>230.0</ele><time>2026-04-13T09:57:08.228Z</time></trkpt><trkpt lat="43.4151663" lon="11.0954746"><ele>229.99999999999997</ele><time>2026-04-13T09:57:09.226Z</time></trkpt><trkpt lat="43.415224" lon="11.0955181"><ele>229.99999999999997</ele><time>2026-04-13T09:57:10.219Z</time></trkpt><trkpt lat="43.4152832" lon="11.0955638"><ele>230.0</ele><time>2026-04-13T09:57:11.221Z</time></trkpt><trkpt lat="43.415339" lon="11.0956044"><ele>230.0</ele><time>2026-04-13T09:57:12.222Z</time></trkpt><trkpt lat="43.415445" lon="11.0956835"><ele>230.0</ele><time>2026-04-13T09:57:14.232Z</time></trkpt><trkpt lat="43.4155446" lon="11.0957569"><ele>230.0</ele><time>2026-04-13T09:57:16.235Z</time></trkpt><trkpt lat="43.4156355" lon="11.0958203"><ele>230.0</ele><time>2026-04-13T09:57:18.244Z</time></trkpt><trkpt lat="43.4157145" lon="11.0958802"><ele>231.6</ele><time>2026-04-13T09:57:20.238Z</time></trkpt><trkpt lat="43.415788" lon="11.0959369"><ele>233.2</ele><time>2026-04-13T09:57:22.224Z</time></trkpt><trkpt lat="43.4158625" lon="11.0959896"><ele>234.8</ele><time>2026-04-13T09:57:24.222Z</time></trkpt><trkpt lat="43.4159571" lon="11.0960277"><ele>236.4</ele><time>2026-04-13T09:57:26.21Z</time></trkpt><trkpt lat="43.4160553" lon="11.0960603"><ele>238.0</ele><time>2026-04-13T09:57:28.226Z</time></trkpt><trkpt lat="43.4161422" lon="11.0960991"><ele>237.99999999999997</ele><time>2026-04-13T09:57:30.225Z</time></trkpt><trkpt lat="43.4162257" lon="11.096129"><ele>238.0</ele><time>2026-04-13T09:57:32.228Z</time></trkpt><trkpt lat="43.4163084" lon="11.0961507"><ele>238.0</ele><time>2026-04-13T09:57:34.215Z</time></trkpt><trkpt lat="43.4163914" lon="11.096173"><ele>238.0</ele><time>2026-04-13T09:57:36.219Z</time></trkpt><trkpt lat="43.4164744" lon="11.0961982"><ele>237.99999999999997</ele><time>2026-04-13T09:57:38.219Z</time></trkpt><trkpt lat="43.4165532" lon="11.0962288"><ele>238.0</ele><time>2026-04-13T09:57:40.226Z</time></trkpt><trkpt lat="43.4166283" lon="11.096255"><ele>238.49999999999997</ele><time>2026-04-13T09:57:42.208Z</time></trkpt><trkpt lat="43.4167005" lon="11.0962748"><ele>239.0</ele><time>2026-04-13T09:57:44.221Z</time></trkpt><trkpt lat="43.416784" lon="11.0963068"><ele>239.5</ele><time>2026-04-13T09:57:46.23Z</time></trkpt><trkpt lat="43.4168647" lon="11.0963458"><ele>240.0</ele><time>2026-04-13T09:57:48.236Z</time></trkpt><trkpt lat="43.416948" lon="11.096375"><ele>240.49999999999997</ele><time>2026-04-13T09:57:50.215Z</time></trkpt><trkpt lat="43.4170335" lon="11.0964005"><ele>241.0</ele><time>2026-04-13T09:57:52.232Z</time></trkpt><trkpt lat="43.4171208" lon="11.096432"><ele>241.20000000000002</ele><time>2026-04-13T09:57:54.223Z</time></trkpt><trkpt lat="43.4172116" lon="11.0964536"><ele>241.40000000000003</ele><time>2026-04-13T09:57:56.214Z</time></trkpt><trkpt lat="43.4173019" lon="11.096493"><ele>241.6</ele><time>2026-04-13T09:57:58.238Z</time></trkpt><trkpt lat="43.4173871" lon="11.0965405"><ele>241.8</ele><time>2026-04-13T09:58:00.223Z</time></trkpt><trkpt lat="43.4174731" lon="11.0966096"><ele>242.0</ele><time>2026-04-13T09:58:02.233Z</time></trkpt><trkpt lat="43.417551" lon="11.0966826"><ele>242.00000000000003</ele><time>2026-04-13T09:58:04.218Z</time></trkpt><trkpt lat="43.4176294" lon="11.0967537"><ele>242.0</ele><time>2026-04-13T09:58:06.219Z</time></trkpt><trkpt lat="43.4177012" lon="11.0968299"><ele>242.0</ele><time>2026-04-13T09:58:08.216Z</time></trkpt><trkpt lat="43.4177707" lon="11.0969073"><ele>242.0</ele><time>2026-04-13T09:58:10.223Z</time></trkpt><trkpt lat="43.4178356" lon="11.0969882"><ele>242.00000000000003</ele><time>2026-04-13T09:58:12.244Z</time></trkpt><trkpt lat="43.417899" lon="11.0970642"><ele>242.0</ele><time>2026-04-13T09:58:14.239Z</time></trkpt><trkpt lat="43.4179662" lon="11.0971335"><ele>242.2</ele><time>2026-04-13T09:58:16.239Z</time></trkpt><trkpt lat="43.4180278" lon="11.0972136"><ele>242.39999999999998</ele><time>2026-04-13T09:58:18.228Z</time></trkpt><trkpt lat="43.4181008" lon="11.0972868"><ele>242.60000000000002</ele><time>2026-04-13T09:58:20.248Z</time></trkpt><trkpt lat="43.4181726" lon="11.0973615"><ele>242.8</ele><time>2026-04-13T09:58:22.227Z</time></trkpt><trkpt lat="43.4182454" lon="11.0974449"><ele>243.0</ele><time>2026-04-13T09:58:24.229Z</time></trkpt><trkpt lat="43.4183225" lon="11.097523"><ele>243.0</ele><time>2026-04-13T09:58:26.234Z</time></trkpt><trkpt lat="43.4183955" lon="11.0976154"><ele>243.0</ele><time>2026-04-13T09:58:28.229Z</time></trkpt><trkpt lat="43.4184726" lon="11.0977061"><ele>243.0</ele><time>2026-04-13T09:58:30.229Z</time></trkpt><trkpt lat="43.4185505" lon="11.0978002"><ele>243.0</ele><time>2026-04-13T09:58:32.233Z</time></trkpt><trkpt lat="43.4186341" lon="11.0978913"><ele>243.0</ele><time>2026-04-13T09:58:34.218Z</time></trkpt><trkpt lat="43.4187175" lon="11.0979923"><ele>243.0</ele><time>2026-04-13T09:58:36.22Z</time></trkpt><trkpt lat="43.4188054" lon="11.0980879"><ele>243.0</ele><time>2026-04-13T09:58:38.233Z</time></trkpt><trkpt lat="43.4188903" lon="11.0981896"><ele>243.0</ele><time>2026-04-13T09:58:40.218Z</time></trkpt><trkpt lat="43.4189732" lon="11.0982876"><ele>243.0</ele><time>2026-04-13T09:58:42.221Z</time></trkpt><trkpt lat="43.4190606" lon="11.0983822"><ele>243.0</ele><time>2026-04-13T09:58:44.216Z</time></trkpt><trkpt lat="43.419142" lon="11.0984761"><ele>243.2</ele><time>2026-04-13T09:58:46.214Z</time></trkpt><trkpt lat="43.4192263" lon="11.0985719"><ele>243.4</ele><time>2026-04-13T09:58:48.219Z</time></trkpt><trkpt lat="43.4193063" lon="11.0986757"><ele>243.59999999999997</ele><time>2026-04-13T09:58:50.23Z</time></trkpt><trkpt lat="43.4193768" lon="11.0987864"><ele>243.79999999999998</ele><time>2026-04-13T09:58:52.224Z</time></trkpt><trkpt lat="43.4194392" lon="11.0989012"><ele>244.0</ele><time>2026-04-13T09:58:54.241Z</time></trkpt><trkpt lat="43.4194965" lon="11.0990288"><ele>244.0</ele><time>2026-04-13T09:58:56.247Z</time></trkpt><trkpt lat="43.4195497" lon="11.0991572"><ele>244.0</ele><time>2026-04-13T09:58:58.229Z</time></trkpt><trkpt lat="43.4196106" lon="11.099293"><ele>244.0</ele><time>2026-04-13T09:59:00.225Z</time></trkpt><trkpt lat="43.4196553" lon="11.0994406"><ele>244.0</ele><time>2026-04-13T09:59:02.238Z</time></trkpt><trkpt lat="43.4196999" lon="11.0995995"><ele>243.79999999999998</ele><time>2026-04-13T09:59:04.243Z</time></trkpt><trkpt lat="43.4197491" lon="11.0997501"><ele>243.59999999999997</ele><time>2026-04-13T09:59:06.228Z</time></trkpt><trkpt lat="43.4197965" lon="11.0998993"><ele>243.4</ele><time>2026-04-13T09:59:08.231Z</time></trkpt><trkpt lat="43.4198456" lon="11.1000544"><ele>243.2</ele><time>2026-04-13T09:59:10.215Z</time></trkpt><trkpt lat="43.4198705" lon="11.1001354"><ele>243.0</ele><time>2026-04-13T09:59:11.23Z</time></trkpt><trkpt lat="43.4199163" lon="11.1002956"><ele>243.0</ele><time>2026-04-13T09:59:13.224Z</time></trkpt><trkpt lat="43.4199377" lon="11.1003781"><ele>243.0</ele><time>2026-04-13T09:59:14.24Z</time></trkpt><trkpt lat="43.4199582" lon="11.1004614"><ele>243.0</ele><time>2026-04-13T09:59:15.236Z</time></trkpt><trkpt lat="43.4199789" lon="11.1005453"><ele>243.0</ele><time>2026-04-13T09:59:16.244Z</time></trkpt><trkpt lat="43.4200018" lon="11.1006291"><ele>243.0</ele><time>2026-04-13T09:59:17.251Z</time></trkpt><trkpt lat="43.420024" lon="11.1007121"><ele>243.0</ele><time>2026-04-13T09:59:18.235Z</time></trkpt><trkpt lat="43.4200464" lon="11.1007983"><ele>243.0</ele><time>2026-04-13T09:59:19.225Z</time></trkpt><trkpt lat="43.4200705" lon="11.1008844"><ele>243.0</ele><time>2026-04-13T09:59:20.228Z</time></trkpt><trkpt lat="43.4200943" lon="11.1009685"><ele>243.0</ele><time>2026-04-13T09:59:21.242Z</time></trkpt><trkpt lat="43.420141" lon="11.101128"><ele>243.0</ele><time>2026-04-13T09:59:23.231Z</time></trkpt><trkpt lat="43.4201793" lon="11.1012903"><ele>243.0</ele><time>2026-04-13T09:59:25.235Z</time></trkpt><trkpt lat="43.4202229" lon="11.1014439"><ele>243.0</ele><time>2026-04-13T09:59:27.235Z</time></trkpt><trkpt lat="43.4202598" lon="11.1016046"><ele>243.0</ele><time>2026-04-13T09:59:29.214Z</time></trkpt><trkpt lat="43.4202901" lon="11.1017639"><ele>243.0</ele><time>2026-04-13T09:59:31.233Z</time></trkpt><trkpt lat="43.4202907" lon="11.1019174"><ele>243.0</ele><time>2026-04-13T09:59:33.233Z</time></trkpt><trkpt lat="43.4203383" lon="11.1020479"><ele>243.0</ele><time>2026-04-13T09:59:35.225Z</time></trkpt><trkpt lat="43.4204193" lon="11.1021747"><ele>243.0</ele><time>2026-04-13T09:59:37.23Z</time></trkpt><trkpt lat="43.4204763" lon="11.1023245"><ele>243.0</ele><time>2026-04-13T09:59:39.242Z</time></trkpt><trkpt lat="43.420522" lon="11.1024852"><ele>243.0</ele><time>2026-04-13T09:59:41.223Z</time></trkpt><trkpt lat="43.4205636" lon="11.1026481"><ele>243.0</ele><time>2026-04-13T09:59:43.227Z</time></trkpt><trkpt lat="43.4206046" lon="11.1028102"><ele>242.0</ele><time>2026-04-13T09:59:45.239Z</time></trkpt><trkpt lat="43.4206442" lon="11.1029617"><ele>241.0</ele><time>2026-04-13T09:59:47.226Z</time></trkpt><trkpt lat="43.4206871" lon="11.1031074"><ele>240.0</ele><time>2026-04-13T09:59:49.228Z</time></trkpt><trkpt lat="43.4207195" lon="11.1032623"><ele>239.0</ele><time>2026-04-13T09:59:51.234Z</time></trkpt><trkpt lat="43.4207603" lon="11.1034207"><ele>239.00000000000003</ele><time>2026-04-13T09:59:53.237Z</time></trkpt><trkpt lat="43.4207819" lon="11.1035025"><ele>239.0</ele><time>2026-04-13T09:59:54.221Z</time></trkpt><trkpt lat="43.4208037" lon="11.1035882"><ele>239.00000000000003</ele><time>2026-04-13T09:59:55.245Z</time></trkpt><trkpt lat="43.4208257" lon="11.1036717"><ele>239.00000000000003</ele><time>2026-04-13T09:59:56.236Z</time></trkpt><trkpt lat="43.4208493" lon="11.1037558"><ele>239.0</ele><time>2026-04-13T09:59:57.24Z</time></trkpt><trkpt lat="43.420872" lon="11.1038378"><ele>239.00000000000003</ele><time>2026-04-13T09:59:58.239Z</time></trkpt><trkpt lat="43.4208956" lon="11.1039216"><ele>239.00000000000003</ele><time>2026-04-13T09:59:59.225Z</time></trkpt><trkpt lat="43.4209193" lon="11.104005"><ele>239.00000000000003</ele><time>2026-04-13T10:00:00.228Z</time></trkpt><trkpt lat="43.4209427" lon="11.1040885"><ele>239.0</ele><time>2026-04-13T10:00:01.242Z</time></trkpt><trkpt lat="43.4209634" lon="11.1041732"><ele>239.00000000000003</ele><time>2026-04-13T10:00:02.232Z</time></trkpt><trkpt lat="43.4209863" lon="11.1042602"><ele>239.00000000000003</ele><time>2026-04-13T10:00:03.239Z</time></trkpt><trkpt lat="43.4210108" lon="11.1043458"><ele>239.0</ele><time>2026-04-13T10:00:04.232Z</time></trkpt><trkpt lat="43.4210362" lon="11.104435"><ele>239.00000000000003</ele><time>2026-04-13T10:00:05.224Z</time></trkpt><trkpt lat="43.4210662" lon="11.1045249"><ele>239.00000000000003</ele><time>2026-04-13T10:00:06.229Z</time></trkpt><trkpt lat="43.421095" lon="11.1046114"><ele>239.00000000000003</ele><time>2026-04-13T10:00:07.223Z</time></trkpt><trkpt lat="43.4211222" lon="11.1046964"><ele>239.0</ele><time>2026-04-13T10:00:08.225Z</time></trkpt><trkpt lat="43.4211494" lon="11.1047891"><ele>239.00000000000003</ele><time>2026-04-13T10:00:09.235Z</time></trkpt><trkpt lat="43.4211772" lon="11.1048759"><ele>239.00000000000003</ele><time>2026-04-13T10:00:10.241Z</time></trkpt><trkpt lat="43.4212028" lon="11.1049644"><ele>239.0</ele><time>2026-04-13T10:00:11.24Z</time></trkpt><trkpt lat="43.4212281" lon="11.1050525"><ele>239.00000000000003</ele><time>2026-04-13T10:00:12.225Z</time></trkpt><trkpt lat="43.4212506" lon="11.1051399"><ele>239.00000000000003</ele><time>2026-04-13T10:00:13.239Z</time></trkpt><trkpt lat="43.4212907" lon="11.1052975"><ele>238.83333333333334</ele><time>2026-04-13T10:00:15.238Z</time></trkpt><trkpt lat="43.4213132" lon="11.1053826"><ele>238.66666666666669</ele><time>2026-04-13T10:00:16.246Z</time></trkpt><trkpt lat="43.4213553" lon="11.1055444"><ele>238.5</ele><time>2026-04-13T10:00:18.248Z</time></trkpt><trkpt lat="43.4213816" lon="11.1056242"><ele>238.33333333333331</ele><time>2026-04-13T10:00:19.235Z</time></trkpt><trkpt lat="43.421406" lon="11.1057091"><ele>238.16666666666666</ele><time>2026-04-13T10:00:20.233Z</time></trkpt><trkpt lat="43.4214336" lon="11.1057974"><ele>238.0</ele><time>2026-04-13T10:00:21.225Z</time></trkpt><trkpt lat="43.4214621" lon="11.1058846"><ele>238.0</ele><time>2026-04-13T10:00:22.232Z</time></trkpt><trkpt lat="43.4214875" lon="11.1059756"><ele>238.0</ele><time>2026-04-13T10:00:23.225Z</time></trkpt><trkpt lat="43.4215133" lon="11.1060666"><ele>238.0</ele><time>2026-04-13T10:00:24.242Z</time></trkpt><trkpt lat="43.4215344" lon="11.1061578"><ele>238.0</ele><time>2026-04-13T10:00:25.237Z</time></trkpt><trkpt lat="43.4215598" lon="11.1062498"><ele>238.0</ele><time>2026-04-13T10:00:26.232Z</time></trkpt><trkpt lat="43.4215863" lon="11.1063434"><ele>238.0</ele><time>2026-04-13T10:00:27.224Z</time></trkpt><trkpt lat="43.4216135" lon="11.1064363"><ele>238.0</ele><time>2026-04-13T10:00:28.23Z</time></trkpt><trkpt lat="43.4216412" lon="11.1065261"><ele>238.0</ele><time>2026-04-13T10:00:29.246Z</time></trkpt><trkpt lat="43.4216706" lon="11.1066173"><ele>238.0</ele><time>2026-04-13T10:00:30.232Z</time></trkpt><trkpt lat="43.4216987" lon="11.1067097"><ele>238.0</ele><time>2026-04-13T10:00:31.235Z</time></trkpt><trkpt lat="43.4217257" lon="11.1068005"><ele>238.0</ele><time>2026-04-13T10:00:32.226Z</time></trkpt><trkpt lat="43.4217505" lon="11.1068925"><ele>238.0</ele><time>2026-04-13T10:00:33.221Z</time></trkpt><trkpt lat="43.4217714" lon="11.1069863"><ele>238.0</ele><time>2026-04-13T10:00:34.232Z</time></trkpt><trkpt lat="43.4217903" lon="11.1070795"><ele>238.0</ele><time>2026-04-13T10:00:35.221Z</time></trkpt><trkpt lat="43.4218024" lon="11.107173"><ele>238.0</ele><time>2026-04-13T10:00:36.228Z</time></trkpt><trkpt lat="43.4218118" lon="11.1072721"><ele>238.0</ele><time>2026-04-13T10:00:37.242Z</time></trkpt><trkpt lat="43.4218183" lon="11.1073727"><ele>238.0</ele><time>2026-04-13T10:00:38.223Z</time></trkpt><trkpt lat="43.4218193" lon="11.1074741"><ele>238.0</ele><time>2026-04-13T10:00:39.222Z</time></trkpt><trkpt lat="43.4218138" lon="11.1075805"><ele>238.0</ele><time>2026-04-13T10:00:40.234Z</time></trkpt><trkpt lat="43.4218057" lon="11.1076818"><ele>238.0</ele><time>2026-04-13T10:00:41.229Z</time></trkpt><trkpt lat="43.4217959" lon="11.1077856"><ele>238.0</ele><time>2026-04-13T10:00:42.225Z</time></trkpt><trkpt lat="43.4217847" lon="11.1078921"><ele>237.49999999999997</ele><time>2026-04-13T10:00:43.246Z</time></trkpt><trkpt lat="43.4217758" lon="11.1079957"><ele>237.0</ele><time>2026-04-13T10:00:44.244Z</time></trkpt><trkpt lat="43.4217676" lon="11.108098"><ele>236.5</ele><time>2026-04-13T10:00:45.24Z</time></trkpt><trkpt lat="43.4217625" lon="11.1082028"><ele>236.0</ele><time>2026-04-13T10:00:46.223Z</time></trkpt><trkpt lat="43.4217549" lon="11.1083121"><ele>235.49999999999997</ele><time>2026-04-13T10:00:47.227Z</time></trkpt><trkpt lat="43.4217439" lon="11.1084168"><ele>235.0</ele><time>2026-04-13T10:00:48.237Z</time></trkpt><trkpt lat="43.4217359" lon="11.1085242"><ele>234.33333333333331</ele><time>2026-04-13T10:00:49.241Z</time></trkpt><trkpt lat="43.4217281" lon="11.1086285"><ele>233.66666666666666</ele><time>2026-04-13T10:00:50.239Z</time></trkpt><trkpt lat="43.4217195" lon="11.1087361"><ele>233.0</ele><time>2026-04-13T10:00:51.225Z</time></trkpt><trkpt lat="43.4217091" lon="11.1088445"><ele>232.33333333333331</ele><time>2026-04-13T10:00:52.229Z</time></trkpt><trkpt lat="43.4216987" lon="11.108953"><ele>231.66666666666666</ele><time>2026-04-13T10:00:53.248Z</time></trkpt><trkpt lat="43.4216917" lon="11.1090644"><ele>231.0</ele><time>2026-04-13T10:00:54.239Z</time></trkpt><trkpt lat="43.4216856" lon="11.1091779"><ele>231.0</ele><time>2026-04-13T10:00:55.225Z</time></trkpt><trkpt lat="43.4216751" lon="11.1092921"><ele>231.0</ele><time>2026-04-13T10:00:56.249Z</time></trkpt><trkpt lat="43.421662" lon="11.1094003"><ele>231.0</ele><time>2026-04-13T10:00:57.223Z</time></trkpt><trkpt lat="43.421648" lon="11.1095158"><ele>231.0</ele><time>2026-04-13T10:00:58.224Z</time></trkpt><trkpt lat="43.4216365" lon="11.1096317"><ele>231.0</ele><time>2026-04-13T10:00:59.235Z</time></trkpt><trkpt lat="43.4216255" lon="11.109747"><ele>231.0</ele><time>2026-04-13T10:01:00.236Z</time></trkpt><trkpt lat="43.4216171" lon="11.1098607"><ele>231.16666666666666</ele><time>2026-04-13T10:01:01.218Z</time></trkpt><trkpt lat="43.4216092" lon="11.1099742"><ele>231.33333333333331</ele><time>2026-04-13T10:01:02.23Z</time></trkpt><trkpt lat="43.4215988" lon="11.1100883"><ele>231.5</ele><time>2026-04-13T10:01:03.236Z</time></trkpt><trkpt lat="43.4215883" lon="11.1102019"><ele>231.66666666666666</ele><time>2026-04-13T10:01:04.224Z</time></trkpt><trkpt lat="43.4215799" lon="11.1103143"><ele>231.83333333333331</ele><time>2026-04-13T10:01:05.228Z</time></trkpt><trkpt lat="43.4215711" lon="11.1104267"><ele>232.0</ele><time>2026-04-13T10:01:06.236Z</time></trkpt><trkpt lat="43.4215623" lon="11.1105412"><ele>231.99999999999997</ele><time>2026-04-13T10:01:07.241Z</time></trkpt><trkpt lat="43.4215537" lon="11.1106515"><ele>232.0</ele><time>2026-04-13T10:01:08.225Z</time></trkpt><trkpt lat="43.4215449" lon="11.1107649"><ele>232.0</ele><time>2026-04-13T10:01:09.222Z</time></trkpt><trkpt lat="43.4215377" lon="11.1108748"><ele>232.0</ele><time>2026-04-13T10:01:10.229Z</time></trkpt><trkpt lat="43.421532" lon="11.1109844"><ele>231.99999999999997</ele><time>2026-04-13T10:01:11.244Z</time></trkpt><trkpt lat="43.4215245" lon="11.1110979"><ele>232.0</ele><time>2026-04-13T10:01:12.223Z</time></trkpt><trkpt lat="43.4215124" lon="11.1112116"><ele>231.99999999999997</ele><time>2026-04-13T10:01:13.232Z</time></trkpt><trkpt lat="43.4215012" lon="11.1113261"><ele>232.0</ele><time>2026-04-13T10:01:14.236Z</time></trkpt><trkpt lat="43.4214982" lon="11.1114408"><ele>232.0</ele><time>2026-04-13T10:01:15.224Z</time></trkpt><trkpt lat="43.4215112" lon="11.111556"><ele>232.0</ele><time>2026-04-13T10:01:16.229Z</time></trkpt><trkpt lat="43.4215373" lon="11.1116597"><ele>231.99999999999997</ele><time>2026-04-13T10:01:17.242Z</time></trkpt><trkpt lat="43.4215863" lon="11.1117496"><ele>232.0</ele><time>2026-04-13T10:01:18.219Z</time></trkpt><trkpt lat="43.421646" lon="11.1118318"><ele>232.0</ele><time>2026-04-13T10:01:19.228Z</time></trkpt><trkpt lat="43.4217246" lon="11.1118984"><ele>232.0</ele><time>2026-04-13T10:01:20.236Z</time></trkpt><trkpt lat="43.4217953" lon="11.1119733"><ele>232.0</ele><time>2026-04-13T10:01:21.215Z</time></trkpt><trkpt lat="43.4218661" lon="11.1120485"><ele>232.0</ele><time>2026-04-13T10:01:22.24Z</time></trkpt><trkpt lat="43.4219351" lon="11.1121328"><ele>232.0</ele><time>2026-04-13T10:01:23.229Z</time></trkpt><trkpt lat="43.4220033" lon="11.1122123"><ele>232.0</ele><time>2026-04-13T10:01:24.222Z</time></trkpt><trkpt lat="43.4220745" lon="11.1122911"><ele>232.0</ele><time>2026-04-13T10:01:25.225Z</time></trkpt><trkpt lat="43.4221459" lon="11.1123755"><ele>232.0</ele><time>2026-04-13T10:01:26.228Z</time></trkpt><trkpt lat="43.4222144" lon="11.1124598"><ele>232.0</ele><time>2026-04-13T10:01:27.244Z</time></trkpt><trkpt lat="43.4222829" lon="11.1125452"><ele>232.0</ele><time>2026-04-13T10:01:28.221Z</time></trkpt><trkpt lat="43.4223544" lon="11.1126234"><ele>231.2</ele><time>2026-04-13T10:01:29.231Z</time></trkpt><trkpt lat="43.4224279" lon="11.1127004"><ele>230.39999999999998</ele><time>2026-04-13T10:01:30.233Z</time></trkpt><trkpt lat="43.4224977" lon="11.1127784"><ele>229.60000000000002</ele><time>2026-04-13T10:01:31.232Z</time></trkpt><trkpt lat="43.4225702" lon="11.1128548"><ele>228.8</ele><time>2026-04-13T10:01:32.249Z</time></trkpt><trkpt lat="43.4226439" lon="11.1129325"><ele>228.0</ele><time>2026-04-13T10:01:33.22Z</time></trkpt><trkpt lat="43.422714" lon="11.1130108"><ele>228.0</ele><time>2026-04-13T10:01:34.242Z</time></trkpt><trkpt lat="43.4227786" lon="11.1130955"><ele>228.0</ele><time>2026-04-13T10:01:35.236Z</time></trkpt><trkpt lat="43.4228359" lon="11.1131771"><ele>228.0</ele><time>2026-04-13T10:01:36.241Z</time></trkpt><trkpt lat="43.4228937" lon="11.1132693"><ele>228.0</ele><time>2026-04-13T10:01:37.236Z</time></trkpt><trkpt lat="43.4229503" lon="11.1133647"><ele>228.0</ele><time>2026-04-13T10:01:38.217Z</time></trkpt><trkpt lat="43.4229994" lon="11.1134671"><ele>228.0</ele><time>2026-04-13T10:01:39.221Z</time></trkpt><trkpt lat="43.4230409" lon="11.1135717"><ele>228.0</ele><time>2026-04-13T10:01:40.245Z</time></trkpt><trkpt lat="43.4230818" lon="11.1136746"><ele>228.0</ele><time>2026-04-13T10:01:41.238Z</time></trkpt><trkpt lat="43.423116" lon="11.1137829"><ele>228.0</ele><time>2026-04-13T10:01:42.22Z</time></trkpt><trkpt lat="43.4231438" lon="11.1138981"><ele>228.0</ele><time>2026-04-13T10:01:43.242Z</time></trkpt><trkpt lat="43.4231658" lon="11.1140172"><ele>228.0</ele><time>2026-04-13T10:01:44.235Z</time></trkpt><trkpt lat="43.423187" lon="11.1141328"><ele>228.0</ele><time>2026-04-13T10:01:45.231Z</time></trkpt><trkpt lat="43.4232065" lon="11.1142474"><ele>227.83333333333334</ele><time>2026-04-13T10:01:46.235Z</time></trkpt><trkpt lat="43.42322" lon="11.1143666"><ele>227.66666666666669</ele><time>2026-04-13T10:01:47.225Z</time></trkpt><trkpt lat="43.4232285" lon="11.1144872"><ele>227.5</ele><time>2026-04-13T10:01:48.237Z</time></trkpt><trkpt lat="43.4232366" lon="11.11461"><ele>227.33333333333334</ele><time>2026-04-13T10:01:49.242Z</time></trkpt><trkpt lat="43.4232402" lon="11.1147322"><ele>227.16666666666669</ele><time>2026-04-13T10:01:50.234Z</time></trkpt><trkpt lat="43.4232368" lon="11.114854"><ele>227.0</ele><time>2026-04-13T10:01:51.238Z</time></trkpt><trkpt lat="43.4232367" lon="11.1149753"><ele>226.8</ele><time>2026-04-13T10:01:52.229Z</time></trkpt><trkpt lat="43.4232418" lon="11.1150971"><ele>226.6</ele><time>2026-04-13T10:01:53.23Z</time></trkpt><trkpt lat="43.4232483" lon="11.1152209"><ele>226.40000000000003</ele><time>2026-04-13T10:01:54.244Z</time></trkpt><trkpt lat="43.4232559" lon="11.115345"><ele>226.20000000000002</ele><time>2026-04-13T10:01:55.226Z</time></trkpt><trkpt lat="43.4232676" lon="11.1154744"><ele>226.0</ele><time>2026-04-13T10:01:56.223Z</time></trkpt><trkpt lat="43.4232811" lon="11.1156026"><ele>226.0</ele><time>2026-04-13T10:01:57.23Z</time></trkpt><trkpt lat="43.42329" lon="11.1157301"><ele>226.00000000000003</ele><time>2026-04-13T10:01:58.244Z</time></trkpt><trkpt lat="43.4232991" lon="11.1158629"><ele>226.00000000000003</ele><time>2026-04-13T10:01:59.239Z</time></trkpt><trkpt lat="43.4233087" lon="11.1159927"><ele>226.0</ele><time>2026-04-13T10:02:00.224Z</time></trkpt><trkpt lat="43.4233129" lon="11.116128"><ele>226.0</ele><time>2026-04-13T10:02:01.226Z</time></trkpt><trkpt lat="43.4233033" lon="11.1162601"><ele>225.60000000000002</ele><time>2026-04-13T10:02:02.232Z</time></trkpt><trkpt lat="43.4232756" lon="11.1163999"><ele>225.20000000000002</ele><time>2026-04-13T10:02:03.229Z</time></trkpt><trkpt lat="43.4232299" lon="11.1165146"><ele>224.79999999999998</ele><time>2026-04-13T10:02:04.223Z</time></trkpt><trkpt lat="43.4231422" lon="11.1165916"><ele>224.39999999999998</ele><time>2026-04-13T10:02:05.241Z</time></trkpt><trkpt lat="43.4230383" lon="11.1166364"><ele>224.0</ele><time>2026-04-13T10:02:06.216Z</time></trkpt><trkpt lat="43.4229258" lon="11.1166784"><ele>222.79999999999998</ele><time>2026-04-13T10:02:07.212Z</time></trkpt><trkpt lat="43.4228179" lon="11.1167215"><ele>221.59999999999997</ele><time>2026-04-13T10:02:08.228Z</time></trkpt><trkpt lat="43.422712" lon="11.1167574"><ele>220.4</ele><time>2026-04-13T10:02:09.223Z</time></trkpt><trkpt lat="43.4226075" lon="11.1167443"><ele>219.2</ele><time>2026-04-13T10:02:10.234Z</time></trkpt><trkpt lat="43.4225077" lon="11.116667"><ele>218.0</ele><time>2026-04-13T10:02:11.23Z</time></trkpt><trkpt lat="43.4224269" lon="11.1165492"><ele>218.0</ele><time>2026-04-13T10:02:12.224Z</time></trkpt><trkpt lat="43.4223564" lon="11.1164042"><ele>218.0</ele><time>2026-04-13T10:02:13.225Z</time></trkpt><trkpt lat="43.4222906" lon="11.1162656"><ele>218.0</ele><time>2026-04-13T10:02:14.223Z</time></trkpt><trkpt lat="43.4222196" lon="11.1161392"><ele>218.0</ele><time>2026-04-13T10:02:15.229Z</time></trkpt><trkpt lat="43.4221491" lon="11.1160152"><ele>216.0</ele><time>2026-04-13T10:02:16.231Z</time></trkpt><trkpt lat="43.4220791" lon="11.115886"><ele>214.0</ele><time>2026-04-13T10:02:17.234Z</time></trkpt><trkpt lat="43.422023" lon="11.1157489"><ele>212.0</ele><time>2026-04-13T10:02:18.231Z</time></trkpt><trkpt lat="43.4219887" lon="11.1156006"><ele>210.0</ele><time>2026-04-13T10:02:19.215Z</time></trkpt><trkpt lat="43.421964" lon="11.1154494"><ele>210.0</ele><time>2026-04-13T10:02:20.224Z</time></trkpt><trkpt lat="43.4219456" lon="11.1153022"><ele>210.0</ele><time>2026-04-13T10:02:21.235Z</time></trkpt><trkpt lat="43.4219566" lon="11.1151526"><ele>210.0</ele><time>2026-04-13T10:02:22.234Z</time></trkpt><trkpt lat="43.4219934" lon="11.1150118"><ele>210.0</ele><time>2026-04-13T10:02:23.24Z</time></trkpt><trkpt lat="43.4220375" lon="11.1148726"><ele>210.0</ele><time>2026-04-13T10:02:24.227Z</time></trkpt><trkpt lat="43.4220608" lon="11.1147465"><ele>211.5</ele><time>2026-04-13T10:02:25.24Z</time></trkpt><trkpt lat="43.4220501" lon="11.1146372"><ele>213.0</ele><time>2026-04-13T10:02:26.231Z</time></trkpt><trkpt lat="43.4220008" lon="11.1145555"><ele>214.5</ele><time>2026-04-13T10:02:27.239Z</time></trkpt><trkpt lat="43.4219153" lon="11.1145288"><ele>216.0</ele><time>2026-04-13T10:02:28.244Z</time></trkpt><trkpt lat="43.4218187" lon="11.1145571"><ele>217.5</ele><time>2026-04-13T10:02:29.238Z</time></trkpt><trkpt lat="43.4217365" lon="11.1146145"><ele>219.0</ele><time>2026-04-13T10:02:30.22Z</time></trkpt><trkpt lat="43.4216743" lon="11.1147102"><ele>219.0</ele><time>2026-04-13T10:02:31.223Z</time></trkpt><trkpt lat="43.4216295" lon="11.1148352"><ele>218.99999999999997</ele><time>2026-04-13T10:02:32.236Z</time></trkpt><trkpt lat="43.421603" lon="11.1149699"><ele>218.99999999999997</ele><time>2026-04-13T10:02:33.228Z</time></trkpt><trkpt lat="43.421601" lon="11.1151052"><ele>219.0</ele><time>2026-04-13T10:02:34.226Z</time></trkpt><trkpt lat="43.4216237" lon="11.1152468"><ele>219.0</ele><time>2026-04-13T10:02:35.239Z</time></trkpt><trkpt lat="43.4216646" lon="11.1153735"><ele>217.2</ele><time>2026-04-13T10:02:36.229Z</time></trkpt><trkpt lat="43.4217132" lon="11.1155019"><ele>215.39999999999998</ele><time>2026-04-13T10:02:37.221Z</time></trkpt><trkpt lat="43.4217642" lon="11.1156298"><ele>213.6</ele><time>2026-04-13T10:02:38.225Z</time></trkpt><trkpt lat="43.4218135" lon="11.1157576"><ele>211.8</ele><time>2026-04-13T10:02:39.23Z</time></trkpt><trkpt lat="43.4218626" lon="11.1158867"><ele>210.0</ele><time>2026-04-13T10:02:40.21Z</time></trkpt><trkpt lat="43.4219132" lon="11.1160249"><ele>207.75</ele><time>2026-04-13T10:02:41.221Z</time></trkpt><trkpt lat="43.4219651" lon="11.1161681"><ele>205.5</ele><time>2026-04-13T10:02:42.23Z</time></trkpt><trkpt lat="43.4220147" lon="11.1163084"><ele>203.25</ele><time>2026-04-13T10:02:43.224Z</time></trkpt><trkpt lat="43.4220619" lon="11.1164544"><ele>201.0</ele><time>2026-04-13T10:02:44.246Z</time></trkpt><trkpt lat="43.4221064" lon="11.116603"><ele>202.5</ele><time>2026-04-13T10:02:45.24Z</time></trkpt><trkpt lat="43.4221504" lon="11.1167522"><ele>204.0</ele><time>2026-04-13T10:02:46.243Z</time></trkpt><trkpt lat="43.4221926" lon="11.1169021"><ele>205.5</ele><time>2026-04-13T10:02:47.241Z</time></trkpt><trkpt lat="43.4222359" lon="11.117054"><ele>207.0</ele><time>2026-04-13T10:02:48.24Z</time></trkpt><trkpt lat="43.4222793" lon="11.1172127"><ele>207.0</ele><time>2026-04-13T10:02:49.238Z</time></trkpt><trkpt lat="43.4223198" lon="11.117377"><ele>207.0</ele><time>2026-04-13T10:02:50.235Z</time></trkpt><trkpt lat="43.422357" lon="11.1175317"><ele>207.0</ele><time>2026-04-13T10:02:51.234Z</time></trkpt><trkpt lat="43.4223976" lon="11.1176783"><ele>207.0</ele><time>2026-04-13T10:02:52.237Z</time></trkpt><trkpt lat="43.4224522" lon="11.117803"><ele>204.2</ele><time>2026-04-13T10:02:53.221Z</time></trkpt><trkpt lat="43.4225384" lon="11.1178819"><ele>201.39999999999998</ele><time>2026-04-13T10:02:54.218Z</time></trkpt><trkpt lat="43.4226453" lon="11.1179309"><ele>198.60000000000002</ele><time>2026-04-13T10:02:55.236Z</time></trkpt><trkpt lat="43.4227459" lon="11.1179924"><ele>195.8</ele><time>2026-04-13T10:02:56.224Z</time></trkpt><trkpt lat="43.4228262" lon="11.1180889"><ele>193.0</ele><time>2026-04-13T10:02:57.239Z</time></trkpt><trkpt lat="43.4228664" lon="11.1182156"><ele>193.60000000000002</ele><time>2026-04-13T10:02:58.219Z</time></trkpt><trkpt lat="43.4228935" lon="11.11836"><ele>194.20000000000002</ele><time>2026-04-13T10:02:59.229Z</time></trkpt><trkpt lat="43.4229283" lon="11.118503"><ele>194.8</ele><time>2026-04-13T10:03:00.231Z</time></trkpt><trkpt lat="43.4229879" lon="11.1186219"><ele>195.4</ele><time>2026-04-13T10:03:01.231Z</time></trkpt><trkpt lat="43.4230763" lon="11.1187179"><ele>196.0</ele><time>2026-04-13T10:03:02.249Z</time></trkpt><trkpt lat="43.4231735" lon="11.1188023"><ele>196.0</ele><time>2026-04-13T10:03:03.234Z</time></trkpt><trkpt lat="43.4232662" lon="11.1188961"><ele>196.0</ele><time>2026-04-13T10:03:04.223Z</time></trkpt><trkpt lat="43.4233536" lon="11.1190011"><ele>196.0</ele><time>2026-04-13T10:03:05.224Z</time></trkpt><trkpt lat="43.4234281" lon="11.1191249"><ele>196.0</ele><time>2026-04-13T10:03:06.233Z</time></trkpt><trkpt lat="43.4234861" lon="11.1192626"><ele>193.0</ele><time>2026-04-13T10:03:07.222Z</time></trkpt><trkpt lat="43.4235391" lon="11.119405"><ele>190.0</ele><time>2026-04-13T10:03:08.22Z</time></trkpt><trkpt lat="43.4235944" lon="11.1195446"><ele>187.0</ele><time>2026-04-13T10:03:09.229Z</time></trkpt><trkpt lat="43.4236606" lon="11.1196768"><ele>184.0</ele><time>2026-04-13T10:03:10.236Z</time></trkpt><trkpt lat="43.4237357" lon="11.1197989"><ele>184.5</ele><time>2026-04-13T10:03:11.235Z</time></trkpt><trkpt lat="43.4238121" lon="11.1199203"><ele>185.0</ele><time>2026-04-13T10:03:12.216Z</time></trkpt><trkpt lat="43.4238888" lon="11.1200534"><ele>185.5</ele><time>2026-04-13T10:03:13.242Z</time></trkpt><trkpt lat="43.4239612" lon="11.1201954"><ele>186.0</ele><time>2026-04-13T10:03:14.236Z</time></trkpt><trkpt lat="43.4240271" lon="11.12035"><ele>186.0</ele><time>2026-04-13T10:03:15.235Z</time></trkpt><trkpt lat="43.4240786" lon="11.1205083"><ele>186.0</ele><time>2026-04-13T10:03:16.225Z</time></trkpt><trkpt lat="43.424125" lon="11.1206737"><ele>186.0</ele><time>2026-04-13T10:03:17.233Z</time></trkpt><trkpt lat="43.4241706" lon="11.120837"><ele>186.0</ele><time>2026-04-13T10:03:18.227Z</time></trkpt><trkpt lat="43.4242165" lon="11.1210015"><ele>183.0</ele><time>2026-04-13T10:03:19.235Z</time></trkpt><trkpt lat="43.424269" lon="11.1211649"><ele>180.0</ele><time>2026-04-13T10:03:20.248Z</time></trkpt><trkpt lat="43.4243229" lon="11.1213253"><ele>177.0</ele><time>2026-04-13T10:03:21.226Z</time></trkpt><trkpt lat="43.4243807" lon="11.1214813"><ele>174.0</ele><time>2026-04-13T10:03:22.222Z</time></trkpt><trkpt lat="43.4244381" lon="11.121637"><ele>171.75</ele><time>2026-04-13T10:03:23.231Z</time></trkpt><trkpt lat="43.4244951" lon="11.1217929"><ele>169.5</ele><time>2026-04-13T10:03:24.225Z</time></trkpt><trkpt lat="43.4245534" lon="11.1219457"><ele>167.25</ele><time>2026-04-13T10:03:25.22Z</time></trkpt><trkpt lat="43.4246156" lon="11.1220935"><ele>165.0</ele><time>2026-04-13T10:03:26.22Z</time></trkpt><trkpt lat="43.4246809" lon="11.1222446"><ele>166.0</ele><time>2026-04-13T10:03:27.224Z</time></trkpt><trkpt lat="43.4247453" lon="11.1223931"><ele>167.0</ele><time>2026-04-13T10:03:28.223Z</time></trkpt><trkpt lat="43.4248094" lon="11.1225415"><ele>168.0</ele><time>2026-04-13T10:03:29.224Z</time></trkpt><trkpt lat="43.4248731" lon="11.1226846"><ele>169.0</ele><time>2026-04-13T10:03:30.222Z</time></trkpt><trkpt lat="43.4249349" lon="11.1228173"><ele>169.0</ele><time>2026-04-13T10:03:31.215Z</time></trkpt><trkpt lat="43.424996" lon="11.1229479"><ele>169.0</ele><time>2026-04-13T10:03:32.234Z</time></trkpt><trkpt lat="43.4250462" lon="11.1230665"><ele>169.0</ele><time>2026-04-13T10:03:33.244Z</time></trkpt><trkpt lat="43.4250874" lon="11.1231831"><ele>169.0</ele><time>2026-04-13T10:03:34.23Z</time></trkpt><trkpt lat="43.4251163" lon="11.123309"><ele>169.0</ele><time>2026-04-13T10:03:35.239Z</time></trkpt><trkpt lat="43.4251253" lon="11.1234427"><ele>166.2</ele><time>2026-04-13T10:03:36.237Z</time></trkpt><trkpt lat="43.4251271" lon="11.1235839"><ele>163.39999999999998</ele><time>2026-04-13T10:03:37.228Z</time></trkpt><trkpt lat="43.4251256" lon="11.1237318"><ele>160.6</ele><time>2026-04-13T10:03:38.239Z</time></trkpt><trkpt lat="43.425126" lon="11.1238763"><ele>157.8</ele><time>2026-04-13T10:03:39.234Z</time></trkpt><trkpt lat="43.4251298" lon="11.1240274"><ele>155.0</ele><time>2026-04-13T10:03:40.222Z</time></trkpt><trkpt lat="43.4251362" lon="11.1241783"><ele>153.2</ele><time>2026-04-13T10:03:41.221Z</time></trkpt><trkpt lat="43.4251439" lon="11.1243257"><ele>151.4</ele><time>2026-04-13T10:03:42.244Z</time></trkpt><trkpt lat="43.4251518" lon="11.1244735"><ele>149.6</ele><time>2026-04-13T10:03:43.221Z</time></trkpt><trkpt lat="43.4251563" lon="11.1246189"><ele>147.8</ele><time>2026-04-13T10:03:44.23Z</time></trkpt><trkpt lat="43.4251561" lon="11.1247624"><ele>146.0</ele><time>2026-04-13T10:03:45.226Z</time></trkpt><trkpt lat="43.4251583" lon="11.1249038"><ele>145.33333333333331</ele><time>2026-04-13T10:03:46.231Z</time></trkpt><trkpt lat="43.4251639" lon="11.1250357"><ele>144.66666666666666</ele><time>2026-04-13T10:03:47.233Z</time></trkpt><trkpt lat="43.4251715" lon="11.1251576"><ele>144.0</ele><time>2026-04-13T10:03:48.228Z</time></trkpt><trkpt lat="43.4251784" lon="11.1252675"><ele>143.33333333333334</ele><time>2026-04-13T10:03:49.229Z</time></trkpt><trkpt lat="43.4251804" lon="11.125371"><ele>142.66666666666669</ele><time>2026-04-13T10:03:50.226Z</time></trkpt><trkpt lat="43.4251758" lon="11.1254665"><ele>142.0</ele><time>2026-04-13T10:03:51.212Z</time></trkpt><trkpt lat="43.4251678" lon="11.1255562"><ele>142.0</ele><time>2026-04-13T10:03:52.243Z</time></trkpt><trkpt lat="43.4251288" lon="11.125708"><ele>142.0</ele><time>2026-04-13T10:03:54.234Z</time></trkpt><trkpt lat="43.4250181" lon="11.1257662"><ele>142.0</ele><time>2026-04-13T10:03:56.241Z</time></trkpt><trkpt lat="43.424922" lon="11.1258325"><ele>142.0</ele><time>2026-04-13T10:03:58.249Z</time></trkpt><trkpt lat="43.4249188" lon="11.1259853"><ele>142.0</ele><time>2026-04-13T10:04:00.22Z</time></trkpt><trkpt lat="43.4250357" lon="11.126023"><ele>142.0</ele><time>2026-04-13T10:04:02.238Z</time></trkpt><trkpt lat="43.4251038" lon="11.1259971"><ele>142.0</ele><time>2026-04-13T10:04:03.223Z</time></trkpt><trkpt lat="43.4251638" lon="11.1259663"><ele>142.0</ele><time>2026-04-13T10:04:04.226Z</time></trkpt><trkpt lat="43.4252796" lon="11.1259585"><ele>142.0</ele><time>2026-04-13T10:04:06.23Z</time></trkpt><trkpt lat="43.4253979" lon="11.1259969"><ele>142.0</ele><time>2026-04-13T10:04:08.226Z</time></trkpt><trkpt lat="43.4254602" lon="11.1260137"><ele>142.0</ele><time>2026-04-13T10:04:09.228Z</time></trkpt><trkpt lat="43.4255811" lon="11.1260476"><ele>142.0</ele><time>2026-04-13T10:04:11.226Z</time></trkpt><trkpt lat="43.4256441" lon="11.1260557"><ele>142.0</ele><time>2026-04-13T10:04:12.218Z</time></trkpt><trkpt lat="43.4257072" lon="11.1260611"><ele>142.0</ele><time>2026-04-13T10:04:13.217Z</time></trkpt><trkpt lat="43.4257722" lon="11.1260707"><ele>142.0</ele><time>2026-04-13T10:04:14.234Z</time></trkpt><trkpt lat="43.4258365" lon="11.1260815"><ele>142.0</ele><time>2026-04-13T10:04:15.225Z</time></trkpt><trkpt lat="43.4259004" lon="11.1260936"><ele>141.71428571428572</ele><time>2026-04-13T10:04:16.246Z</time></trkpt><trkpt lat="43.4259649" lon="11.1261015"><ele>141.42857142857142</ele><time>2026-04-13T10:04:17.238Z</time></trkpt><trkpt lat="43.4260314" lon="11.1261088"><ele>141.14285714285714</ele><time>2026-04-13T10:04:18.235Z</time></trkpt><trkpt lat="43.4260952" lon="11.1261206"><ele>140.85714285714286</ele><time>2026-04-13T10:04:19.225Z</time></trkpt><trkpt lat="43.4261594" lon="11.126135"><ele>140.57142857142856</ele><time>2026-04-13T10:04:20.247Z</time></trkpt><trkpt lat="43.4262219" lon="11.126153"><ele>140.28571428571428</ele><time>2026-04-13T10:04:21.223Z</time></trkpt><trkpt lat="43.4262864" lon="11.1261694"><ele>140.0</ele><time>2026-04-13T10:04:22.239Z</time></trkpt><trkpt lat="43.4263489" lon="11.1261843"><ele>139.85714285714286</ele><time>2026-04-13T10:04:23.242Z</time></trkpt><trkpt lat="43.4264129" lon="11.1262"><ele>139.71428571428572</ele><time>2026-04-13T10:04:24.233Z</time></trkpt><trkpt lat="43.4264769" lon="11.1262156"><ele>139.57142857142856</ele><time>2026-04-13T10:04:25.233Z</time></trkpt><trkpt lat="43.4265407" lon="11.1262307"><ele>139.42857142857144</ele><time>2026-04-13T10:04:26.233Z</time></trkpt><trkpt lat="43.4266066" lon="11.1262503"><ele>139.28571428571428</ele><time>2026-04-13T10:04:27.237Z</time></trkpt><trkpt lat="43.4266734" lon="11.1262641"><ele>139.14285714285714</ele><time>2026-04-13T10:04:28.237Z</time></trkpt><trkpt lat="43.4267395" lon="11.1262731"><ele>139.0</ele><time>2026-04-13T10:04:29.234Z</time></trkpt><trkpt lat="43.4268073" lon="11.1262833"><ele>139.0</ele><time>2026-04-13T10:04:30.233Z</time></trkpt><trkpt lat="43.4268754" lon="11.1262951"><ele>139.0</ele><time>2026-04-13T10:04:31.226Z</time></trkpt><trkpt lat="43.426942" lon="11.1263086"><ele>139.0</ele><time>2026-04-13T10:04:32.225Z</time></trkpt><trkpt lat="43.427007" lon="11.1263203"><ele>139.0</ele><time>2026-04-13T10:04:33.241Z</time></trkpt><trkpt lat="43.4271339" lon="11.1263324"><ele>139.0</ele><time>2026-04-13T10:04:35.225Z</time></trkpt><trkpt lat="43.4272044" lon="11.1263412"><ele>139.0</ele><time>2026-04-13T10:04:36.229Z</time></trkpt><trkpt lat="43.4272767" lon="11.1263544"><ele>139.14285714285714</ele><time>2026-04-13T10:04:37.234Z</time></trkpt><trkpt lat="43.427348" lon="11.1263696"><ele>139.28571428571428</ele><time>2026-04-13T10:04:38.246Z</time></trkpt><trkpt lat="43.4274171" lon="11.1263848"><ele>139.42857142857144</ele><time>2026-04-13T10:04:39.235Z</time></trkpt><trkpt lat="43.4274819" lon="11.1263974"><ele>139.57142857142856</ele><time>2026-04-13T10:04:40.216Z</time></trkpt><trkpt lat="43.4275474" lon="11.1264112"><ele>139.71428571428572</ele><time>2026-04-13T10:04:41.232Z</time></trkpt><trkpt lat="43.4276125" lon="11.1264257"><ele>139.85714285714286</ele><time>2026-04-13T10:04:42.243Z</time></trkpt><trkpt lat="43.4276785" lon="11.1264404"><ele>140.0</ele><time>2026-04-13T10:04:43.233Z</time></trkpt><trkpt lat="43.4277474" lon="11.1264501"><ele>140.0</ele><time>2026-04-13T10:04:44.228Z</time></trkpt><trkpt lat="43.4278159" lon="11.1264604"><ele>140.0</ele><time>2026-04-13T10:04:45.229Z</time></trkpt><trkpt lat="43.4278809" lon="11.1264718"><ele>140.0</ele><time>2026-04-13T10:04:46.227Z</time></trkpt><trkpt lat="43.4279428" lon="11.126488"><ele>140.0</ele><time>2026-04-13T10:04:47.238Z</time></trkpt><trkpt lat="43.4280115" lon="11.1265044"><ele>140.0</ele><time>2026-04-13T10:04:48.226Z</time></trkpt><trkpt lat="43.4280809" lon="11.1265208"><ele>140.0</ele><time>2026-04-13T10:04:49.256Z</time></trkpt><trkpt lat="43.428148" lon="11.1265301"><ele>140.0</ele><time>2026-04-13T10:04:50.224Z</time></trkpt><trkpt lat="43.4282149" lon="11.1265416"><ele>140.14285714285714</ele><time>2026-04-13T10:04:51.225Z</time></trkpt><trkpt lat="43.4282839" lon="11.1265547"><ele>140.28571428571428</ele><time>2026-04-13T10:04:52.229Z</time></trkpt><trkpt lat="43.4283503" lon="11.1265687"><ele>140.42857142857144</ele><time>2026-04-13T10:04:53.236Z</time></trkpt><trkpt lat="43.428416" lon="11.1265792"><ele>140.57142857142856</ele><time>2026-04-13T10:04:54.25Z</time></trkpt><trkpt lat="43.4284798" lon="11.1265922"><ele>140.71428571428572</ele><time>2026-04-13T10:04:55.215Z</time></trkpt><trkpt lat="43.4285468" lon="11.1266029"><ele>140.85714285714286</ele><time>2026-04-13T10:04:56.241Z</time></trkpt><trkpt lat="43.4286152" lon="11.1266146"><ele>141.0</ele><time>2026-04-13T10:04:57.226Z</time></trkpt><trkpt lat="43.4286816" lon="11.126629"><ele>140.14285714285714</ele><time>2026-04-13T10:04:58.223Z</time></trkpt><trkpt lat="43.4287477" lon="11.1266416"><ele>139.28571428571428</ele><time>2026-04-13T10:04:59.239Z</time></trkpt><trkpt lat="43.4288138" lon="11.1266521"><ele>138.42857142857142</ele><time>2026-04-13T10:05:00.221Z</time></trkpt><trkpt lat="43.4288812" lon="11.1266675"><ele>137.57142857142856</ele><time>2026-04-13T10:05:01.225Z</time></trkpt><trkpt lat="43.4289476" lon="11.1266913"><ele>136.7142857142857</ele><time>2026-04-13T10:05:02.243Z</time></trkpt><trkpt lat="43.4290114" lon="11.1267236"><ele>135.85714285714286</ele><time>2026-04-13T10:05:03.226Z</time></trkpt><trkpt lat="43.4290762" lon="11.1267604"><ele>135.0</ele><time>2026-04-13T10:05:04.234Z</time></trkpt><trkpt lat="43.4291483" lon="11.1268013"><ele>135.0</ele><time>2026-04-13T10:05:05.236Z</time></trkpt><trkpt lat="43.4292158" lon="11.1268444"><ele>135.0</ele><time>2026-04-13T10:05:06.231Z</time></trkpt><trkpt lat="43.4292804" lon="11.1268914"><ele>135.0</ele><time>2026-04-13T10:05:07.209Z</time></trkpt><trkpt lat="43.4293454" lon="11.1269422"><ele>135.0</ele><time>2026-04-13T10:05:08.233Z</time></trkpt><trkpt lat="43.4294085" lon="11.1269951"><ele>135.0</ele><time>2026-04-13T10:05:09.219Z</time></trkpt><trkpt lat="43.4294688" lon="11.1270543"><ele>135.0</ele><time>2026-04-13T10:05:10.219Z</time></trkpt><trkpt lat="43.4295298" lon="11.1271149"><ele>135.0</ele><time>2026-04-13T10:05:11.235Z</time></trkpt><trkpt lat="43.4295909" lon="11.1271779"><ele>134.83333333333334</ele><time>2026-04-13T10:05:12.255Z</time></trkpt><trkpt lat="43.4296484" lon="11.1272419"><ele>134.66666666666666</ele><time>2026-04-13T10:05:13.237Z</time></trkpt><trkpt lat="43.4297117" lon="11.1273055"><ele>134.5</ele><time>2026-04-13T10:05:14.215Z</time></trkpt><trkpt lat="43.4297708" lon="11.1273722"><ele>134.33333333333331</ele><time>2026-04-13T10:05:15.224Z</time></trkpt><trkpt lat="43.4298315" lon="11.1274426"><ele>134.16666666666666</ele><time>2026-04-13T10:05:16.238Z</time></trkpt><trkpt lat="43.4298883" lon="11.1275142"><ele>134.0</ele><time>2026-04-13T10:05:17.223Z</time></trkpt><trkpt lat="43.4299407" lon="11.1275876"><ele>133.83333333333331</ele><time>2026-04-13T10:05:18.22Z</time></trkpt><trkpt lat="43.4299903" lon="11.1276657"><ele>133.66666666666666</ele><time>2026-04-13T10:05:19.236Z</time></trkpt><trkpt lat="43.4300389" lon="11.1277466"><ele>133.5</ele><time>2026-04-13T10:05:20.236Z</time></trkpt><trkpt lat="43.4300864" lon="11.1278297"><ele>133.33333333333334</ele><time>2026-04-13T10:05:21.23Z</time></trkpt><trkpt lat="43.4301308" lon="11.1279143"><ele>133.16666666666669</ele><time>2026-04-13T10:05:22.238Z</time></trkpt><trkpt lat="43.4301729" lon="11.1280043"><ele>133.0</ele><time>2026-04-13T10:05:23.224Z</time></trkpt><trkpt lat="43.4302136" lon="11.1280955"><ele>133.0</ele><time>2026-04-13T10:05:24.223Z</time></trkpt><trkpt lat="43.4302527" lon="11.1281905"><ele>133.0</ele><time>2026-04-13T10:05:25.236Z</time></trkpt><trkpt lat="43.4302882" lon="11.1282838"><ele>133.0</ele><time>2026-04-13T10:05:26.216Z</time></trkpt><trkpt lat="43.4303241" lon="11.1283797"><ele>133.0</ele><time>2026-04-13T10:05:27.234Z</time></trkpt><trkpt lat="43.4303593" lon="11.1284749"><ele>133.0</ele><time>2026-04-13T10:05:28.227Z</time></trkpt><trkpt lat="43.4303942" lon="11.1285723"><ele>133.0</ele><time>2026-04-13T10:05:29.236Z</time></trkpt><trkpt lat="43.430429" lon="11.1286703"><ele>133.0</ele><time>2026-04-13T10:05:30.213Z</time></trkpt><trkpt lat="43.4304642" lon="11.1287691"><ele>133.0</ele><time>2026-04-13T10:05:31.231Z</time></trkpt><trkpt lat="43.4305017" lon="11.1288681"><ele>133.0</ele><time>2026-04-13T10:05:32.235Z</time></trkpt><trkpt lat="43.4305382" lon="11.1289672"><ele>133.0</ele><time>2026-04-13T10:05:33.238Z</time></trkpt><trkpt lat="43.4305758" lon="11.1290674"><ele>133.0</ele><time>2026-04-13T10:05:34.23Z</time></trkpt><trkpt lat="43.4306138" lon="11.1291677"><ele>133.0</ele><time>2026-04-13T10:05:35.235Z</time></trkpt><trkpt lat="43.4306543" lon="11.1292683"><ele>132.83333333333334</ele><time>2026-04-13T10:05:36.26Z</time></trkpt><trkpt lat="43.430692" lon="11.1293689"><ele>132.66666666666669</ele><time>2026-04-13T10:05:37.216Z</time></trkpt><trkpt lat="43.4307349" lon="11.1294734"><ele>132.5</ele><time>2026-04-13T10:05:38.235Z</time></trkpt><trkpt lat="43.4307752" lon="11.1295746"><ele>132.33333333333334</ele><time>2026-04-13T10:05:39.243Z</time></trkpt><trkpt lat="43.4308129" lon="11.129674"><ele>132.16666666666666</ele><time>2026-04-13T10:05:40.216Z</time></trkpt><trkpt lat="43.4308514" lon="11.1297768"><ele>132.0</ele><time>2026-04-13T10:05:41.236Z</time></trkpt><trkpt lat="43.4308915" lon="11.1298773"><ele>130.83333333333334</ele><time>2026-04-13T10:05:42.226Z</time></trkpt><trkpt lat="43.4309287" lon="11.1299768"><ele>129.66666666666666</ele><time>2026-04-13T10:05:43.235Z</time></trkpt><trkpt lat="43.4309649" lon="11.1300765"><ele>128.5</ele><time>2026-04-13T10:05:44.237Z</time></trkpt><trkpt lat="43.4310023" lon="11.1301773"><ele>127.33333333333333</ele><time>2026-04-13T10:05:45.222Z</time></trkpt><trkpt lat="43.4310379" lon="11.1302807"><ele>126.16666666666666</ele><time>2026-04-13T10:05:46.237Z</time></trkpt><trkpt lat="43.4310773" lon="11.1303829"><ele>125.0</ele><time>2026-04-13T10:05:47.24Z</time></trkpt><trkpt lat="43.4311189" lon="11.1304843"><ele>124.99999999999999</ele><time>2026-04-13T10:05:48.24Z</time></trkpt><trkpt lat="43.4311554" lon="11.1305828"><ele>125.0</ele><time>2026-04-13T10:05:49.227Z</time></trkpt><trkpt lat="43.4311918" lon="11.1306829"><ele>125.0</ele><time>2026-04-13T10:05:50.227Z</time></trkpt><trkpt lat="43.4312281" lon="11.1307884"><ele>125.0</ele><time>2026-04-13T10:05:51.22Z</time></trkpt><trkpt lat="43.4312658" lon="11.1308982"><ele>124.99999999999999</ele><time>2026-04-13T10:05:52.23Z</time></trkpt><trkpt lat="43.4313047" lon="11.1310105"><ele>125.0</ele><time>2026-04-13T10:05:53.225Z</time></trkpt><trkpt lat="43.4313341" lon="11.1311272"><ele>128.2</ele><time>2026-04-13T10:05:54.228Z</time></trkpt><trkpt lat="43.4313526" lon="11.1312541"><ele>131.4</ele><time>2026-04-13T10:05:55.24Z</time></trkpt><trkpt lat="43.4313613" lon="11.1313822"><ele>134.6</ele><time>2026-04-13T10:05:56.239Z</time></trkpt><trkpt lat="43.4313609" lon="11.1315096"><ele>137.8</ele><time>2026-04-13T10:05:57.228Z</time></trkpt><trkpt lat="43.4313542" lon="11.1316379"><ele>141.0</ele><time>2026-04-13T10:05:58.236Z</time></trkpt><trkpt lat="43.4313451" lon="11.1317637"><ele>141.0</ele><time>2026-04-13T10:05:59.225Z</time></trkpt><trkpt lat="43.4313373" lon="11.1318915"><ele>141.0</ele><time>2026-04-13T10:06:00.225Z</time></trkpt><trkpt lat="43.4313302" lon="11.1320186"><ele>141.0</ele><time>2026-04-13T10:06:01.216Z</time></trkpt><trkpt lat="43.4313232" lon="11.1321438"><ele>141.0</ele><time>2026-04-13T10:06:02.237Z</time></trkpt><trkpt lat="43.4313173" lon="11.1322662"><ele>141.0</ele><time>2026-04-13T10:06:03.235Z</time></trkpt><trkpt lat="43.4313107" lon="11.1323891"><ele>136.4</ele><time>2026-04-13T10:06:04.228Z</time></trkpt><trkpt lat="43.4312995" lon="11.1325116"><ele>131.8</ele><time>2026-04-13T10:06:05.229Z</time></trkpt><trkpt lat="43.4312869" lon="11.132636"><ele>127.20000000000002</ele><time>2026-04-13T10:06:06.23Z</time></trkpt><trkpt lat="43.4312797" lon="11.1327597"><ele>122.60000000000001</ele><time>2026-04-13T10:06:07.228Z</time></trkpt><trkpt lat="43.4312787" lon="11.132885"><ele>118.0</ele><time>2026-04-13T10:06:08.233Z</time></trkpt><trkpt lat="43.4312897" lon="11.1330092"><ele>120.2</ele><time>2026-04-13T10:06:09.22Z</time></trkpt><trkpt lat="43.4313096" lon="11.1331275"><ele>122.4</ele><time>2026-04-13T10:06:10.251Z</time></trkpt><trkpt lat="43.4313432" lon="11.1332333"><ele>124.60000000000001</ele><time>2026-04-13T10:06:11.228Z</time></trkpt><trkpt lat="43.4313975" lon="11.1333313"><ele>126.80000000000001</ele><time>2026-04-13T10:06:12.237Z</time></trkpt><trkpt lat="43.4314673" lon="11.1334227"><ele>129.0</ele><time>2026-04-13T10:06:13.225Z</time></trkpt><trkpt lat="43.4315358" lon="11.1335128"><ele>129.0</ele><time>2026-04-13T10:06:14.22Z</time></trkpt><trkpt lat="43.4316062" lon="11.133603"><ele>129.0</ele><time>2026-04-13T10:06:15.232Z</time></trkpt><trkpt lat="43.4316774" lon="11.1336913"><ele>129.0</ele><time>2026-04-13T10:06:16.232Z</time></trkpt><trkpt lat="43.431745" lon="11.133788"><ele>129.0</ele><time>2026-04-13T10:06:17.226Z</time></trkpt><trkpt lat="43.4318022" lon="11.1339006"><ele>129.0</ele><time>2026-04-13T10:06:18.227Z</time></trkpt><trkpt lat="43.431845" lon="11.1340258"><ele>127.0</ele><time>2026-04-13T10:06:19.229Z</time></trkpt><trkpt lat="43.431877" lon="11.1341601"><ele>125.0</ele><time>2026-04-13T10:06:20.232Z</time></trkpt><trkpt lat="43.4318966" lon="11.1343015"><ele>123.0</ele><time>2026-04-13T10:06:21.233Z</time></trkpt><trkpt lat="43.4318991" lon="11.1344422"><ele>121.0</ele><time>2026-04-13T10:06:22.22Z</time></trkpt><trkpt lat="43.4318913" lon="11.1345809"><ele>119.0</ele><time>2026-04-13T10:06:23.239Z</time></trkpt><trkpt lat="43.4318813" lon="11.13471"><ele>118.99999999999999</ele><time>2026-04-13T10:06:24.233Z</time></trkpt><trkpt lat="43.4318664" lon="11.1348319"><ele>119.0</ele><time>2026-04-13T10:06:25.234Z</time></trkpt><trkpt lat="43.43185" lon="11.1349501"><ele>119.0</ele><time>2026-04-13T10:06:26.227Z</time></trkpt><trkpt lat="43.43184" lon="11.1350652"><ele>119.0</ele><time>2026-04-13T10:06:27.234Z</time></trkpt><trkpt lat="43.4318296" lon="11.1351744"><ele>118.99999999999999</ele><time>2026-04-13T10:06:28.221Z</time></trkpt><trkpt lat="43.4318214" lon="11.1352798"><ele>119.0</ele><time>2026-04-13T10:06:29.227Z</time></trkpt><trkpt lat="43.4318111" lon="11.1353855"><ele>118.99999999999999</ele><time>2026-04-13T10:06:30.226Z</time></trkpt><trkpt lat="43.4318001" lon="11.1354919"><ele>119.0</ele><time>2026-04-13T10:06:31.248Z</time></trkpt><trkpt lat="43.4317891" lon="11.1355994"><ele>119.0</ele><time>2026-04-13T10:06:32.215Z</time></trkpt><trkpt lat="43.4317776" lon="11.135707"><ele>119.0</ele><time>2026-04-13T10:06:33.24Z</time></trkpt><trkpt lat="43.4317654" lon="11.1358144"><ele>118.99999999999999</ele><time>2026-04-13T10:06:34.237Z</time></trkpt><trkpt lat="43.431752" lon="11.1359222"><ele>119.0</ele><time>2026-04-13T10:06:35.242Z</time></trkpt><trkpt lat="43.4317395" lon="11.1360299"><ele>119.14285714285714</ele><time>2026-04-13T10:06:36.235Z</time></trkpt><trkpt lat="43.4317271" lon="11.1361351"><ele>119.28571428571428</ele><time>2026-04-13T10:06:37.233Z</time></trkpt><trkpt lat="43.4317149" lon="11.1362378"><ele>119.42857142857143</ele><time>2026-04-13T10:06:38.224Z</time></trkpt><trkpt lat="43.431702" lon="11.1363368"><ele>119.57142857142857</ele><time>2026-04-13T10:06:39.235Z</time></trkpt><trkpt lat="43.4316883" lon="11.1364302"><ele>119.71428571428571</ele><time>2026-04-13T10:06:40.236Z</time></trkpt><trkpt lat="43.4316762" lon="11.1365248"><ele>119.85714285714286</ele><time>2026-04-13T10:06:41.22Z</time></trkpt><trkpt lat="43.4316668" lon="11.1366185"><ele>120.0</ele><time>2026-04-13T10:06:42.248Z</time></trkpt><trkpt lat="43.4316593" lon="11.1367054"><ele>120.2</ele><time>2026-04-13T10:06:43.223Z</time></trkpt><trkpt lat="43.4316506" lon="11.1367918"><ele>120.4</ele><time>2026-04-13T10:06:44.234Z</time></trkpt><trkpt lat="43.431639" lon="11.1368787"><ele>120.6</ele><time>2026-04-13T10:06:45.216Z</time></trkpt><trkpt lat="43.4316186" lon="11.1370505"><ele>120.8</ele><time>2026-04-13T10:06:47.227Z</time></trkpt><trkpt lat="43.4315981" lon="11.1372125"><ele>121.0</ele><time>2026-04-13T10:06:49.239Z</time></trkpt><trkpt lat="43.4315795" lon="11.1373718"><ele>121.6</ele><time>2026-04-13T10:06:51.226Z</time></trkpt><trkpt lat="43.4315655" lon="11.1375297"><ele>122.19999999999999</ele><time>2026-04-13T10:06:53.248Z</time></trkpt><trkpt lat="43.4315529" lon="11.1376808"><ele>122.80000000000001</ele><time>2026-04-13T10:06:55.242Z</time></trkpt><trkpt lat="43.4315425" lon="11.1378322"><ele>123.4</ele><time>2026-04-13T10:06:57.242Z</time></trkpt><trkpt lat="43.4315346" lon="11.1379813"><ele>124.0</ele><time>2026-04-13T10:06:59.24Z</time></trkpt><trkpt lat="43.4315493" lon="11.1381339"><ele>123.75</ele><time>2026-04-13T10:07:01.221Z</time></trkpt><trkpt lat="43.4315872" lon="11.1382752"><ele>123.5</ele><time>2026-04-13T10:07:03.234Z</time></trkpt><trkpt lat="43.4316461" lon="11.1384028"><ele>123.25</ele><time>2026-04-13T10:07:05.233Z</time></trkpt><trkpt lat="43.4317278" lon="11.1385214"><ele>123.0</ele><time>2026-04-13T10:07:07.225Z</time></trkpt><trkpt lat="43.4318182" lon="11.1386314"><ele>123.0</ele><time>2026-04-13T10:07:09.249Z</time></trkpt><trkpt lat="43.4319117" lon="11.138729"><ele>123.0</ele><time>2026-04-13T10:07:11.229Z</time></trkpt><trkpt lat="43.4320011" lon="11.1388247"><ele>123.0</ele><time>2026-04-13T10:07:13.232Z</time></trkpt><trkpt lat="43.432099" lon="11.1389065"><ele>123.0</ele><time>2026-04-13T10:07:15.213Z</time></trkpt><trkpt lat="43.4322014" lon="11.1389761"><ele>123.2</ele><time>2026-04-13T10:07:17.232Z</time></trkpt><trkpt lat="43.4322984" lon="11.1390454"><ele>123.4</ele><time>2026-04-13T10:07:19.241Z</time></trkpt><trkpt lat="43.4323996" lon="11.1391158"><ele>123.60000000000001</ele><time>2026-04-13T10:07:21.211Z</time></trkpt><trkpt lat="43.4325001" lon="11.1391847"><ele>123.80000000000001</ele><time>2026-04-13T10:07:23.233Z</time></trkpt><trkpt lat="43.4325898" lon="11.1392572"><ele>124.0</ele><time>2026-04-13T10:07:25.231Z</time></trkpt><trkpt lat="43.4326803" lon="11.1393259"><ele>124.0</ele><time>2026-04-13T10:07:27.243Z</time></trkpt><trkpt lat="43.4327704" lon="11.1393996"><ele>124.0</ele><time>2026-04-13T10:07:29.238Z</time></trkpt><trkpt lat="43.4328578" lon="11.1394745"><ele>124.0</ele><time>2026-04-13T10:07:31.262Z</time></trkpt><trkpt lat="43.4329393" lon="11.1395623"><ele>124.0</ele><time>2026-04-13T10:07:33.217Z</time></trkpt><trkpt lat="43.432994" lon="11.1396793"><ele>124.0</ele><time>2026-04-13T10:07:35.213Z</time></trkpt><trkpt lat="43.4329986" lon="11.1398228"><ele>122.6</ele><time>2026-04-13T10:07:37.226Z</time></trkpt><trkpt lat="43.4329689" lon="11.1399586"><ele>121.2</ele><time>2026-04-13T10:07:39.225Z</time></trkpt><trkpt lat="43.4329277" lon="11.1400918"><ele>119.79999999999998</ele><time>2026-04-13T10:07:41.231Z</time></trkpt><trkpt lat="43.4328852" lon="11.1402292"><ele>118.39999999999999</ele><time>2026-04-13T10:07:43.228Z</time></trkpt><trkpt lat="43.4328428" lon="11.1403668"><ele>117.0</ele><time>2026-04-13T10:07:45.223Z</time></trkpt><trkpt lat="43.4328117" lon="11.1405061"><ele>117.0</ele><time>2026-04-13T10:07:47.224Z</time></trkpt><trkpt lat="43.4328042" lon="11.1406418"><ele>116.99999999999999</ele><time>2026-04-13T10:07:49.238Z</time></trkpt><trkpt lat="43.4328215" lon="11.1407682"><ele>116.99999999999999</ele><time>2026-04-13T10:07:51.225Z</time></trkpt><trkpt lat="43.432854" lon="11.140884"><ele>117.0</ele><time>2026-04-13T10:07:53.227Z</time></trkpt><trkpt lat="43.4329087" lon="11.1409968"><ele>117.0</ele><time>2026-04-13T10:07:55.209Z</time></trkpt><trkpt lat="43.4329751" lon="11.141103"><ele>117.8</ele><time>2026-04-13T10:07:57.237Z</time></trkpt><trkpt lat="43.4330464" lon="11.1412009"><ele>118.6</ele><time>2026-04-13T10:07:59.213Z</time></trkpt><trkpt lat="43.4331216" lon="11.1412948"><ele>119.39999999999999</ele><time>2026-04-13T10:08:01.227Z</time></trkpt><trkpt lat="43.4331936" lon="11.1413879"><ele>120.19999999999999</ele><time>2026-04-13T10:08:03.224Z</time></trkpt><trkpt lat="43.4332643" lon="11.141482"><ele>121.0</ele><time>2026-04-13T10:08:05.222Z</time></trkpt><trkpt lat="43.4333285" lon="11.1415807"><ele>122.0</ele><time>2026-04-13T10:08:07.215Z</time></trkpt><trkpt lat="43.4333967" lon="11.1416785"><ele>123.0</ele><time>2026-04-13T10:08:09.217Z</time></trkpt><trkpt lat="43.4334667" lon="11.1417737"><ele>124.0</ele><time>2026-04-13T10:08:11.227Z</time></trkpt><trkpt lat="43.4335305" lon="11.141874"><ele>125.0</ele><time>2026-04-13T10:08:13.23Z</time></trkpt><trkpt lat="43.4335896" lon="11.1419709"><ele>126.0</ele><time>2026-04-13T10:08:15.235Z</time></trkpt><trkpt lat="43.4336574" lon="11.142064"><ele>126.0</ele><time>2026-04-13T10:08:17.222Z</time></trkpt><trkpt lat="43.4337155" lon="11.1421635"><ele>126.0</ele><time>2026-04-13T10:08:19.217Z</time></trkpt><trkpt lat="43.4337655" lon="11.1422679"><ele>126.0</ele><time>2026-04-13T10:08:21.232Z</time></trkpt><trkpt lat="43.4338198" lon="11.142369"><ele>126.0</ele><time>2026-04-13T10:08:23.236Z</time></trkpt><trkpt lat="43.4338716" lon="11.1424784"><ele>126.0</ele><time>2026-04-13T10:08:25.225Z</time></trkpt><trkpt lat="43.4339081" lon="11.1425936"><ele>125.4</ele><time>2026-04-13T10:08:27.238Z</time></trkpt><trkpt lat="43.4339344" lon="11.1427123"><ele>124.8</ele><time>2026-04-13T10:08:29.237Z</time></trkpt><trkpt lat="43.4339456" lon="11.1428352"><ele>124.20000000000002</ele><time>2026-04-13T10:08:31.222Z</time></trkpt><trkpt lat="43.4339499" lon="11.1429578"><ele>123.60000000000001</ele><time>2026-04-13T10:08:33.224Z</time></trkpt><trkpt lat="43.4339551" lon="11.1430851"><ele>123.0</ele><time>2026-04-13T10:08:35.227Z</time></trkpt><trkpt lat="43.4339532" lon="11.1432161"><ele>123.0</ele><time>2026-04-13T10:08:37.233Z</time></trkpt><trkpt lat="43.4339532" lon="11.143342"><ele>123.0</ele><time>2026-04-13T10:08:39.228Z</time></trkpt><trkpt lat="43.4339367" lon="11.1434586"><ele>123.0</ele><time>2026-04-13T10:08:41.22Z</time></trkpt><trkpt lat="43.4339022" lon="11.1435606"><ele>123.0</ele><time>2026-04-13T10:08:43.226Z</time></trkpt><trkpt lat="43.4338603" lon="11.1436586"><ele>123.0</ele><time>2026-04-13T10:08:45.227Z</time></trkpt><trkpt lat="43.4338107" lon="11.1437602"><ele>123.0</ele><time>2026-04-13T10:08:47.226Z</time></trkpt><trkpt lat="43.4337742" lon="11.1438695"><ele>122.60000000000001</ele><time>2026-04-13T10:08:49.243Z</time></trkpt><trkpt lat="43.4337782" lon="11.1439882"><ele>122.20000000000002</ele><time>2026-04-13T10:08:51.222Z</time></trkpt><trkpt lat="43.433855" lon="11.1440699"><ele>121.8</ele><time>2026-04-13T10:08:53.217Z</time></trkpt><trkpt lat="43.4339621" lon="11.1441138"><ele>121.4</ele><time>2026-04-13T10:08:55.235Z</time></trkpt><trkpt lat="43.4340614" lon="11.1441883"><ele>121.0</ele><time>2026-04-13T10:08:57.223Z</time></trkpt><trkpt lat="43.4341287" lon="11.1443096"><ele>121.0</ele><time>2026-04-13T10:08:59.231Z</time></trkpt><trkpt lat="43.4342022" lon="11.1444173"><ele>121.0</ele><time>2026-04-13T10:09:01.231Z</time></trkpt><trkpt lat="43.4342772" lon="11.1445193"><ele>121.0</ele><time>2026-04-13T10:09:03.242Z</time></trkpt><trkpt lat="43.4343601" lon="11.1446074"><ele>121.0</ele><time>2026-04-13T10:09:05.222Z</time></trkpt><trkpt lat="43.4344477" lon="11.1446878"><ele>121.0</ele><time>2026-04-13T10:09:07.222Z</time></trkpt><trkpt lat="43.4345286" lon="11.14476"><ele>121.00000000000001</ele><time>2026-04-13T10:09:09.22Z</time></trkpt><trkpt lat="43.4346127" lon="11.1448132"><ele>121.0</ele><time>2026-04-13T10:09:11.239Z</time></trkpt><trkpt lat="43.434697" lon="11.1448572"><ele>121.0</ele><time>2026-04-13T10:09:13.235Z</time></trkpt><trkpt lat="43.4347707" lon="11.1449091"><ele>121.0</ele><time>2026-04-13T10:09:15.237Z</time></trkpt><trkpt lat="43.4348434" lon="11.1449535"><ele>121.00000000000001</ele><time>2026-04-13T10:09:17.24Z</time></trkpt><trkpt lat="43.4349125" lon="11.144996"><ele>121.0</ele><time>2026-04-13T10:09:19.233Z</time></trkpt><trkpt lat="43.4349753" lon="11.1450388"><ele>122.0</ele><time>2026-04-13T10:09:21.243Z</time></trkpt><trkpt lat="43.4350443" lon="11.1450829"><ele>122.99999999999999</ele><time>2026-04-13T10:09:23.219Z</time></trkpt><trkpt lat="43.435113" lon="11.1451302"><ele>124.0</ele><time>2026-04-13T10:09:25.23Z</time></trkpt><trkpt lat="43.435185" lon="11.1451724"><ele>125.0</ele><time>2026-04-13T10:09:27.238Z</time></trkpt><trkpt lat="43.4352469" lon="11.1452075"><ele>125.99999999999999</ele><time>2026-04-13T10:09:29.225Z</time></trkpt><trkpt lat="43.435319" lon="11.1452474"><ele>127.0</ele><time>2026-04-13T10:09:31.246Z</time></trkpt><trkpt lat="43.4353869" lon="11.1452824"><ele>128.0</ele><time>2026-04-13T10:09:33.225Z</time></trkpt><trkpt lat="43.4354484" lon="11.1453216"><ele>128.42857142857142</ele><time>2026-04-13T10:09:35.231Z</time></trkpt><trkpt lat="43.4355127" lon="11.1453571"><ele>128.85714285714283</ele><time>2026-04-13T10:09:37.229Z</time></trkpt><trkpt lat="43.435579" lon="11.1453795"><ele>129.28571428571428</ele><time>2026-04-13T10:09:39.231Z</time></trkpt><trkpt lat="43.4356445" lon="11.145388"><ele>129.71428571428572</ele><time>2026-04-13T10:09:41.236Z</time></trkpt><trkpt lat="43.435716" lon="11.1453901"><ele>130.14285714285717</ele><time>2026-04-13T10:09:43.229Z</time></trkpt><trkpt lat="43.4357862" lon="11.1453821"><ele>130.57142857142858</ele><time>2026-04-13T10:09:45.216Z</time></trkpt><trkpt lat="43.4358505" lon="11.1453821"><ele>131.0</ele><time>2026-04-13T10:09:47.226Z</time></trkpt><trkpt lat="43.4359315" lon="11.1453901"><ele>131.0</ele><time>2026-04-13T10:09:50.233Z</time></trkpt><trkpt lat="43.4360121" lon="11.1453784"><ele>131.0</ele><time>2026-04-13T10:09:53.235Z</time></trkpt><trkpt lat="43.4360988" lon="11.1453715"><ele>131.0</ele><time>2026-04-13T10:09:56.228Z</time></trkpt><trkpt lat="43.4361778" lon="11.1453685"><ele>131.0</ele><time>2026-04-13T10:09:59.232Z</time></trkpt><trkpt lat="43.4362526" lon="11.1453648"><ele>131.0</ele><time>2026-04-13T10:10:02.233Z</time></trkpt><trkpt lat="43.4363189" lon="11.1453689"><ele>131.0</ele><time>2026-04-13T10:10:05.227Z</time></trkpt><trkpt lat="43.436396" lon="11.1453742"><ele>131.71428571428572</ele><time>2026-04-13T10:10:09.216Z</time></trkpt><trkpt lat="43.4364628" lon="11.1453989"><ele>132.42857142857144</ele><time>2026-04-13T10:10:13.225Z</time></trkpt><trkpt lat="43.4365283" lon="11.145421"><ele>133.14285714285714</ele><time>2026-04-13T10:10:17.225Z</time></trkpt><trkpt lat="43.4365968" lon="11.1454533"><ele>133.85714285714286</ele><time>2026-04-13T10:10:21.216Z</time></trkpt><trkpt lat="43.4366623" lon="11.1454899"><ele>134.57142857142856</ele><time>2026-04-13T10:10:25.234Z</time></trkpt><trkpt lat="43.4367342" lon="11.1455379"><ele>135.28571428571428</ele><time>2026-04-13T10:10:29.248Z</time></trkpt><trkpt lat="43.4367928" lon="11.1455781"><ele>136.0</ele><time>2026-04-13T10:10:32.228Z</time></trkpt><trkpt lat="43.4368609" lon="11.1456266"><ele>136.0</ele><time>2026-04-13T10:10:36.233Z</time></trkpt><trkpt lat="43.4369228" lon="11.1456736"><ele>136.0</ele><time>2026-04-13T10:10:40.225Z</time></trkpt><trkpt lat="43.4369842" lon="11.1457395"><ele>136.0</ele><time>2026-04-13T10:10:44.215Z</time></trkpt><trkpt lat="43.4370463" lon="11.1458137"><ele>136.0</ele><time>2026-04-13T10:10:48.223Z</time></trkpt><trkpt lat="43.4370954" lon="11.1458818"><ele>136.0</ele><time>2026-04-13T10:10:52.226Z</time></trkpt><trkpt lat="43.4371527" lon="11.145952"><ele>136.0</ele><time>2026-04-13T10:10:56.237Z</time></trkpt><trkpt lat="43.4372026" lon="11.1460248"><ele>137.16666666666669</ele><time>2026-04-13T10:11:00.24Z</time></trkpt><trkpt lat="43.4372543" lon="11.1460994"><ele>138.33333333333334</ele><time>2026-04-13T10:11:04.217Z</time></trkpt><trkpt lat="43.4373127" lon="11.1461789"><ele>139.5</ele><time>2026-04-13T10:11:08.23Z</time></trkpt><trkpt lat="43.4373754" lon="11.1462518"><ele>140.66666666666666</ele><time>2026-04-13T10:11:12.225Z</time></trkpt><trkpt lat="43.437425" lon="11.1463125"><ele>141.83333333333331</ele><time>2026-04-13T10:11:15.234Z</time></trkpt><trkpt lat="43.4374776" lon="11.1463883"><ele>143.0</ele><time>2026-04-13T10:11:19.224Z</time></trkpt><trkpt lat="43.437526" lon="11.1464692"><ele>144.83333333333331</ele><time>2026-04-13T10:11:23.228Z</time></trkpt><trkpt lat="43.4375773" lon="11.1465496"><ele>146.66666666666666</ele><time>2026-04-13T10:11:27.231Z</time></trkpt><trkpt lat="43.4376392" lon="11.1466227"><ele>148.5</ele><time>2026-04-13T10:11:31.227Z</time></trkpt><trkpt lat="43.4376989" lon="11.1467023"><ele>150.33333333333334</ele><time>2026-04-13T10:11:35.24Z</time></trkpt><trkpt lat="43.4377569" lon="11.1467792"><ele>152.16666666666669</ele><time>2026-04-13T10:11:39.235Z</time></trkpt><trkpt lat="43.4378008" lon="11.1468443"><ele>154.0</ele><time>2026-04-13T10:11:42.229Z</time></trkpt><trkpt lat="43.4378575" lon="11.1469292"><ele>154.0</ele><time>2026-04-13T10:11:46.225Z</time></trkpt><trkpt lat="43.4379179" lon="11.147009"><ele>154.0</ele><time>2026-04-13T10:11:50.222Z</time></trkpt><trkpt lat="43.4379703" lon="11.1470836"><ele>154.0</ele><time>2026-04-13T10:11:54.231Z</time></trkpt><trkpt lat="43.4380253" lon="11.14717"><ele>154.0</ele><time>2026-04-13T10:11:58.239Z</time></trkpt><trkpt lat="43.4380833" lon="11.1472463"><ele>154.0</ele><time>2026-04-13T10:12:02.226Z</time></trkpt><trkpt lat="43.4381271" lon="11.1473105"><ele>154.0</ele><time>2026-04-13T10:12:05.223Z</time></trkpt><trkpt lat="43.438175" lon="11.1473683"><ele>154.66666666666669</ele><time>2026-04-13T10:12:08.235Z</time></trkpt><trkpt lat="43.4382294" lon="11.147454"><ele>155.33333333333334</ele><time>2026-04-13T10:12:12.224Z</time></trkpt><trkpt lat="43.4382753" lon="11.1475182"><ele>156.0</ele><time>2026-04-13T10:12:15.228Z</time></trkpt><trkpt lat="43.4383316" lon="11.1475886"><ele>156.66666666666666</ele><time>2026-04-13T10:12:19.232Z</time></trkpt><trkpt lat="43.4383842" lon="11.1476584"><ele>157.33333333333331</ele><time>2026-04-13T10:12:23.224Z</time></trkpt><trkpt lat="43.4384345" lon="11.1477363"><ele>158.0</ele><time>2026-04-13T10:12:27.232Z</time></trkpt><trkpt lat="43.4384908" lon="11.147817"><ele>158.00000000000003</ele><time>2026-04-13T10:12:31.232Z</time></trkpt><trkpt lat="43.4385276" lon="11.1478881"><ele>158.0</ele><time>2026-04-13T10:12:34.225Z</time></trkpt><trkpt lat="43.4385834" lon="11.147977"><ele>158.0</ele><time>2026-04-13T10:12:38.228Z</time></trkpt><trkpt lat="43.4386284" lon="11.1480432"><ele>158.0</ele><time>2026-04-13T10:12:40.22Z</time></trkpt><trkpt lat="43.4386736" lon="11.1481068"><ele>158.0</ele><time>2026-04-13T10:12:42.221Z</time></trkpt><trkpt lat="43.4387197" lon="11.1481746"><ele>158.00000000000003</ele><time>2026-04-13T10:12:44.226Z</time></trkpt><trkpt lat="43.4387586" lon="11.1482434"><ele>158.0</ele><time>2026-04-13T10:12:46.224Z</time></trkpt><trkpt lat="43.4388083" lon="11.1483084"><ele>159.33333333333331</ele><time>2026-04-13T10:12:48.218Z</time></trkpt><trkpt lat="43.4388595" lon="11.1483798"><ele>160.66666666666666</ele><time>2026-04-13T10:12:50.221Z</time></trkpt><trkpt lat="43.4389312" lon="11.1484683"><ele>162.0</ele><time>2026-04-13T10:12:52.248Z</time></trkpt><trkpt lat="43.4389831" lon="11.1485487"><ele>163.33333333333334</ele><time>2026-04-13T10:12:54.237Z</time></trkpt><trkpt lat="43.4390395" lon="11.1486266"><ele>164.66666666666669</ele><time>2026-04-13T10:12:56.225Z</time></trkpt><trkpt lat="43.4391002" lon="11.1487024"><ele>166.0</ele><time>2026-04-13T10:12:58.218Z</time></trkpt><trkpt lat="43.439166" lon="11.1487859"><ele>166.0</ele><time>2026-04-13T10:13:00.224Z</time></trkpt><trkpt lat="43.4392253" lon="11.1488675"><ele>166.0</ele><time>2026-04-13T10:13:02.23Z</time></trkpt><trkpt lat="43.4393056" lon="11.1489445"><ele>166.0</ele><time>2026-04-13T10:13:04.239Z</time></trkpt><trkpt lat="43.4393996" lon="11.1490214"><ele>166.0</ele><time>2026-04-13T10:13:06.221Z</time></trkpt><trkpt lat="43.4394985" lon="11.1490922"><ele>166.0</ele><time>2026-04-13T10:13:08.23Z</time></trkpt><trkpt lat="43.4395563" lon="11.1491294"><ele>165.0</ele><time>2026-04-13T10:13:09.234Z</time></trkpt><trkpt lat="43.4396154" lon="11.1491685"><ele>164.0</ele><time>2026-04-13T10:13:10.216Z</time></trkpt><trkpt lat="43.4396769" lon="11.1492147"><ele>163.0</ele><time>2026-04-13T10:13:11.23Z</time></trkpt><trkpt lat="43.4397484" lon="11.1492661"><ele>162.0</ele><time>2026-04-13T10:13:12.235Z</time></trkpt><trkpt lat="43.4398283" lon="11.1493221"><ele>161.0</ele><time>2026-04-13T10:13:13.22Z</time></trkpt><trkpt lat="43.4399207" lon="11.1493799"><ele>160.0</ele><time>2026-04-13T10:13:14.222Z</time></trkpt><trkpt lat="43.4400247" lon="11.1494366"><ele>160.0</ele><time>2026-04-13T10:13:15.229Z</time></trkpt><trkpt lat="43.4401301" lon="11.1494795"><ele>160.0</ele><time>2026-04-13T10:13:16.207Z</time></trkpt><trkpt lat="43.4402324" lon="11.1495218"><ele>160.0</ele><time>2026-04-13T10:13:17.237Z</time></trkpt><trkpt lat="43.4403373" lon="11.1495592"><ele>160.0</ele><time>2026-04-13T10:13:18.222Z</time></trkpt><trkpt lat="43.4404463" lon="11.1495869"><ele>160.0</ele><time>2026-04-13T10:13:19.218Z</time></trkpt><trkpt lat="43.4405536" lon="11.1496126"><ele>160.0</ele><time>2026-04-13T10:13:20.233Z</time></trkpt><trkpt lat="43.4406563" lon="11.1496307"><ele>160.0</ele><time>2026-04-13T10:13:21.238Z</time></trkpt><trkpt lat="43.4407597" lon="11.1496534"><ele>160.0</ele><time>2026-04-13T10:13:22.246Z</time></trkpt><trkpt lat="43.4408577" lon="11.149675"><ele>160.0</ele><time>2026-04-13T10:13:23.222Z</time></trkpt><trkpt lat="43.4409538" lon="11.1496935"><ele>160.0</ele><time>2026-04-13T10:13:24.228Z</time></trkpt><trkpt lat="43.4410465" lon="11.1497147"><ele>160.0</ele><time>2026-04-13T10:13:25.217Z</time></trkpt><trkpt lat="43.4411371" lon="11.1497309"><ele>160.0</ele><time>2026-04-13T10:13:26.221Z</time></trkpt><trkpt lat="43.441219" lon="11.1497425"><ele>160.0</ele><time>2026-04-13T10:13:27.224Z</time></trkpt><trkpt lat="43.4413007" lon="11.1497479"><ele>160.0</ele><time>2026-04-13T10:13:28.249Z</time></trkpt><trkpt lat="43.4413935" lon="11.1497425"><ele>160.0</ele><time>2026-04-13T10:13:29.22Z</time></trkpt><trkpt lat="43.4414831" lon="11.1497398"><ele>160.0</ele><time>2026-04-13T10:13:30.229Z</time></trkpt><trkpt lat="43.4415697" lon="11.14974"><ele>161.0</ele><time>2026-04-13T10:13:31.222Z</time></trkpt><trkpt lat="43.4416622" lon="11.1497288"><ele>162.0</ele><time>2026-04-13T10:13:32.227Z</time></trkpt><trkpt lat="43.4417646" lon="11.1497108"><ele>163.0</ele><time>2026-04-13T10:13:33.228Z</time></trkpt><trkpt lat="43.4418751" lon="11.1496935"><ele>164.0</ele><time>2026-04-13T10:13:34.238Z</time></trkpt><trkpt lat="43.4419896" lon="11.1496779"><ele>165.0</ele><time>2026-04-13T10:13:35.225Z</time></trkpt><trkpt lat="43.4421054" lon="11.1496604"><ele>162.0</ele><time>2026-04-13T10:13:36.221Z</time></trkpt><trkpt lat="43.4422263" lon="11.1496417"><ele>159.0</ele><time>2026-04-13T10:13:37.245Z</time></trkpt><trkpt lat="43.4423473" lon="11.1496271"><ele>156.0</ele><time>2026-04-13T10:13:38.218Z</time></trkpt><trkpt lat="43.4424713" lon="11.1496228"><ele>153.0</ele><time>2026-04-13T10:13:39.239Z</time></trkpt><trkpt lat="43.4425968" lon="11.1496213"><ele>153.0</ele><time>2026-04-13T10:13:40.225Z</time></trkpt><trkpt lat="43.4427267" lon="11.1496237"><ele>153.0</ele><time>2026-04-13T10:13:41.23Z</time></trkpt><trkpt lat="43.4428593" lon="11.1496258"><ele>153.0</ele><time>2026-04-13T10:13:42.225Z</time></trkpt><trkpt lat="43.4429925" lon="11.1496332"><ele>153.0</ele><time>2026-04-13T10:13:43.222Z</time></trkpt><trkpt lat="43.4431254" lon="11.1496373"><ele>150.25</ele><time>2026-04-13T10:13:44.212Z</time></trkpt><trkpt lat="43.4432617" lon="11.1496425"><ele>147.5</ele><time>2026-04-13T10:13:45.229Z</time></trkpt><trkpt lat="43.4433975" lon="11.1496487"><ele>144.75</ele><time>2026-04-13T10:13:46.225Z</time></trkpt><trkpt lat="43.4435334" lon="11.1496512"><ele>142.0</ele><time>2026-04-13T10:13:47.242Z</time></trkpt><trkpt lat="43.4436748" lon="11.1496464"><ele>139.75</ele><time>2026-04-13T10:13:48.24Z</time></trkpt><trkpt lat="43.4438169" lon="11.1496397"><ele>137.5</ele><time>2026-04-13T10:13:49.222Z</time></trkpt><trkpt lat="43.44396" lon="11.1496329"><ele>135.25</ele><time>2026-04-13T10:13:50.23Z</time></trkpt><trkpt lat="43.4440999" lon="11.1496328"><ele>133.0</ele><time>2026-04-13T10:13:51.234Z</time></trkpt><trkpt lat="43.4442333" lon="11.1496326"><ele>133.0</ele><time>2026-04-13T10:13:52.235Z</time></trkpt><trkpt lat="43.4443608" lon="11.1496317"><ele>133.0</ele><time>2026-04-13T10:13:53.229Z</time></trkpt><trkpt lat="43.4444857" lon="11.149628"><ele>133.0</ele><time>2026-04-13T10:13:54.218Z</time></trkpt><trkpt lat="43.4446081" lon="11.1496233"><ele>133.0</ele><time>2026-04-13T10:13:55.227Z</time></trkpt><trkpt lat="43.4447233" lon="11.1496184"><ele>133.0</ele><time>2026-04-13T10:13:56.249Z</time></trkpt><trkpt lat="43.4448334" lon="11.1496131"><ele>133.0</ele><time>2026-04-13T10:13:57.227Z</time></trkpt><trkpt lat="43.4449413" lon="11.1496088"><ele>133.0</ele><time>2026-04-13T10:13:58.229Z</time></trkpt><trkpt lat="43.4450407" lon="11.1496039"><ele>133.0</ele><time>2026-04-13T10:13:59.215Z</time></trkpt><trkpt lat="43.4451382" lon="11.1495961"><ele>133.0</ele><time>2026-04-13T10:14:00.224Z</time></trkpt><trkpt lat="43.4452308" lon="11.1495875"><ele>133.0</ele><time>2026-04-13T10:14:01.234Z</time></trkpt><trkpt lat="43.4453207" lon="11.1495793"><ele>133.0</ele><time>2026-04-13T10:14:02.231Z</time></trkpt><trkpt lat="43.4454058" lon="11.1495752"><ele>133.0</ele><time>2026-04-13T10:14:03.225Z</time></trkpt><trkpt lat="43.4454876" lon="11.149573"><ele>133.0</ele><time>2026-04-13T10:14:04.213Z</time></trkpt><trkpt lat="43.4455679" lon="11.1495688"><ele>133.0</ele><time>2026-04-13T10:14:05.235Z</time></trkpt><trkpt lat="43.445646" lon="11.1495612"><ele>133.0</ele><time>2026-04-13T10:14:06.219Z</time></trkpt><trkpt lat="43.4457242" lon="11.1495503"><ele>133.42857142857142</ele><time>2026-04-13T10:14:07.229Z</time></trkpt><trkpt lat="43.4458001" lon="11.149539"><ele>133.85714285714286</ele><time>2026-04-13T10:14:08.232Z</time></trkpt><trkpt lat="43.4458723" lon="11.1495269"><ele>134.28571428571428</ele><time>2026-04-13T10:14:09.221Z</time></trkpt><trkpt lat="43.4459429" lon="11.1495141"><ele>134.71428571428572</ele><time>2026-04-13T10:14:10.236Z</time></trkpt><trkpt lat="43.4460114" lon="11.1495027"><ele>135.14285714285714</ele><time>2026-04-13T10:14:11.234Z</time></trkpt><trkpt lat="43.4460809" lon="11.1494915"><ele>135.57142857142856</ele><time>2026-04-13T10:14:12.223Z</time></trkpt><trkpt lat="43.4461467" lon="11.1494816"><ele>136.0</ele><time>2026-04-13T10:14:13.234Z</time></trkpt><trkpt lat="43.4462135" lon="11.1494698"><ele>136.0</ele><time>2026-04-13T10:14:14.223Z</time></trkpt><trkpt lat="43.4462804" lon="11.1494573"><ele>136.0</ele><time>2026-04-13T10:14:15.221Z</time></trkpt><trkpt lat="43.4463446" lon="11.1494447"><ele>136.0</ele><time>2026-04-13T10:14:16.252Z</time></trkpt><trkpt lat="43.4464666" lon="11.1494261"><ele>136.0</ele><time>2026-04-13T10:14:18.215Z</time></trkpt><trkpt lat="43.4465925" lon="11.1494087"><ele>136.0</ele><time>2026-04-13T10:14:20.234Z</time></trkpt><trkpt lat="43.4467155" lon="11.1493872"><ele>135.66666666666669</ele><time>2026-04-13T10:14:22.227Z</time></trkpt><trkpt lat="43.446836" lon="11.1493754"><ele>135.33333333333334</ele><time>2026-04-13T10:14:24.218Z</time></trkpt><trkpt lat="43.4468997" lon="11.1493698"><ele>135.0</ele><time>2026-04-13T10:14:25.211Z</time></trkpt><trkpt lat="43.446967" lon="11.1493671"><ele>134.66666666666666</ele><time>2026-04-13T10:14:26.226Z</time></trkpt><trkpt lat="43.4470355" lon="11.1493649"><ele>134.33333333333331</ele><time>2026-04-13T10:14:27.233Z</time></trkpt><trkpt lat="43.4471104" lon="11.1493635"><ele>134.0</ele><time>2026-04-13T10:14:28.224Z</time></trkpt><trkpt lat="43.4471864" lon="11.1493592"><ele>133.5</ele><time>2026-04-13T10:14:29.241Z</time></trkpt><trkpt lat="43.447261" lon="11.1493481"><ele>133.0</ele><time>2026-04-13T10:14:30.24Z</time></trkpt><trkpt lat="43.4473349" lon="11.1493339"><ele>132.5</ele><time>2026-04-13T10:14:31.243Z</time></trkpt><trkpt lat="43.4474156" lon="11.1493137"><ele>132.0</ele><time>2026-04-13T10:14:32.234Z</time></trkpt><trkpt lat="43.4475011" lon="11.1492828"><ele>131.5</ele><time>2026-04-13T10:14:33.236Z</time></trkpt><trkpt lat="43.4475845" lon="11.149241"><ele>131.0</ele><time>2026-04-13T10:14:34.226Z</time></trkpt><trkpt lat="43.4476599" lon="11.1491921"><ele>131.0</ele><time>2026-04-13T10:14:35.232Z</time></trkpt><trkpt lat="43.4477272" lon="11.1491387"><ele>131.0</ele><time>2026-04-13T10:14:36.243Z</time></trkpt><trkpt lat="43.4477924" lon="11.1490801"><ele>131.0</ele><time>2026-04-13T10:14:37.238Z</time></trkpt><trkpt lat="43.4478571" lon="11.1490142"><ele>131.0</ele><time>2026-04-13T10:14:38.23Z</time></trkpt><trkpt lat="43.4479199" lon="11.1489486"><ele>131.0</ele><time>2026-04-13T10:14:39.224Z</time></trkpt><trkpt lat="43.4479839" lon="11.1488833"><ele>131.0</ele><time>2026-04-13T10:14:40.215Z</time></trkpt><trkpt lat="43.4480443" lon="11.1488147"><ele>130.33333333333331</ele><time>2026-04-13T10:14:41.226Z</time></trkpt><trkpt lat="43.4481027" lon="11.1487414"><ele>129.66666666666666</ele><time>2026-04-13T10:14:42.225Z</time></trkpt><trkpt lat="43.4481622" lon="11.1486614"><ele>129.0</ele><time>2026-04-13T10:14:43.247Z</time></trkpt><trkpt lat="43.4482209" lon="11.1485811"><ele>128.33333333333334</ele><time>2026-04-13T10:14:44.224Z</time></trkpt><trkpt lat="43.4482846" lon="11.1484978"><ele>127.66666666666667</ele><time>2026-04-13T10:14:45.239Z</time></trkpt><trkpt lat="43.4483509" lon="11.148422"><ele>127.0</ele><time>2026-04-13T10:14:46.229Z</time></trkpt><trkpt lat="43.4484204" lon="11.1483509"><ele>127.00000000000001</ele><time>2026-04-13T10:14:47.226Z</time></trkpt><trkpt lat="43.4484889" lon="11.1482896"><ele>127.0</ele><time>2026-04-13T10:14:48.227Z</time></trkpt><trkpt lat="43.4485603" lon="11.1482335"><ele>127.0</ele><time>2026-04-13T10:14:49.215Z</time></trkpt><trkpt lat="43.4486307" lon="11.1481833"><ele>127.0</ele><time>2026-04-13T10:14:50.232Z</time></trkpt><trkpt lat="43.4486952" lon="11.1481319"><ele>127.00000000000001</ele><time>2026-04-13T10:14:51.222Z</time></trkpt><trkpt lat="43.4487619" lon="11.1480871"><ele>127.0</ele><time>2026-04-13T10:14:52.227Z</time></trkpt><trkpt lat="43.448828" lon="11.1480537"><ele>128.0</ele><time>2026-04-13T10:14:53.225Z</time></trkpt><trkpt lat="43.4488971" lon="11.1480283"><ele>129.0</ele><time>2026-04-13T10:14:54.235Z</time></trkpt><trkpt lat="43.4489655" lon="11.1480108"><ele>130.0</ele><time>2026-04-13T10:14:55.226Z</time></trkpt><trkpt lat="43.4490369" lon="11.1479952"><ele>131.0</ele><time>2026-04-13T10:14:56.232Z</time></trkpt><trkpt lat="43.4491071" lon="11.1479903"><ele>132.0</ele><time>2026-04-13T10:14:57.224Z</time></trkpt><trkpt lat="43.4491746" lon="11.147994"><ele>133.0</ele><time>2026-04-13T10:14:58.218Z</time></trkpt><trkpt lat="43.449242" lon="11.1480116"><ele>134.0</ele><time>2026-04-13T10:14:59.231Z</time></trkpt><trkpt lat="43.449307" lon="11.148031"><ele>134.0</ele><time>2026-04-13T10:15:00.22Z</time></trkpt><trkpt lat="43.4493756" lon="11.1480575"><ele>134.0</ele><time>2026-04-13T10:15:01.235Z</time></trkpt><trkpt lat="43.4494414" lon="11.1480888"><ele>134.0</ele><time>2026-04-13T10:15:02.24Z</time></trkpt><trkpt lat="43.4495001" lon="11.1481246"><ele>134.0</ele><time>2026-04-13T10:15:03.232Z</time></trkpt><trkpt lat="43.449559" lon="11.1481677"><ele>134.0</ele><time>2026-04-13T10:15:04.216Z</time></trkpt><trkpt lat="43.4496189" lon="11.1482235"><ele>134.0</ele><time>2026-04-13T10:15:05.236Z</time></trkpt><trkpt lat="43.4496723" lon="11.1482892"><ele>134.0</ele><time>2026-04-13T10:15:06.242Z</time></trkpt><trkpt lat="43.4497251" lon="11.1483606"><ele>132.5</ele><time>2026-04-13T10:15:07.216Z</time></trkpt><trkpt lat="43.449784" lon="11.1484379"><ele>131.0</ele><time>2026-04-13T10:15:08.237Z</time></trkpt><trkpt lat="43.4498406" lon="11.148518"><ele>129.5</ele><time>2026-04-13T10:15:09.22Z</time></trkpt><trkpt lat="43.4499" lon="11.1486047"><ele>128.0</ele><time>2026-04-13T10:15:10.216Z</time></trkpt><trkpt lat="43.4499625" lon="11.1486942"><ele>126.49999999999999</ele><time>2026-04-13T10:15:11.237Z</time></trkpt><trkpt lat="43.4500237" lon="11.148784"><ele>125.0</ele><time>2026-04-13T10:15:12.22Z</time></trkpt><trkpt lat="43.4500878" lon="11.1488747"><ele>125.0</ele><time>2026-04-13T10:15:13.24Z</time></trkpt><trkpt lat="43.4501546" lon="11.1489654"><ele>125.0</ele><time>2026-04-13T10:15:14.223Z</time></trkpt><trkpt lat="43.450222" lon="11.1490561"><ele>125.0</ele><time>2026-04-13T10:15:15.219Z</time></trkpt><trkpt lat="43.4503002" lon="11.1491446"><ele>125.0</ele><time>2026-04-13T10:15:16.248Z</time></trkpt><trkpt lat="43.4503832" lon="11.1492266"><ele>125.0</ele><time>2026-04-13T10:15:17.223Z</time></trkpt><trkpt lat="43.4504756" lon="11.149298"><ele>124.8</ele><time>2026-04-13T10:15:18.212Z</time></trkpt><trkpt lat="43.4505745" lon="11.149358"><ele>124.6</ele><time>2026-04-13T10:15:19.228Z</time></trkpt><trkpt lat="43.4506746" lon="11.1494057"><ele>124.4</ele><time>2026-04-13T10:15:20.228Z</time></trkpt><trkpt lat="43.4507751" lon="11.1494502"><ele>124.2</ele><time>2026-04-13T10:15:21.234Z</time></trkpt><trkpt lat="43.4508723" lon="11.1494969"><ele>124.0</ele><time>2026-04-13T10:15:22.224Z</time></trkpt><trkpt lat="43.4509676" lon="11.1495457"><ele>124.0</ele><time>2026-04-13T10:15:23.226Z</time></trkpt><trkpt lat="43.4510606" lon="11.149598"><ele>124.0</ele><time>2026-04-13T10:15:24.241Z</time></trkpt><trkpt lat="43.4511483" lon="11.1496548"><ele>124.0</ele><time>2026-04-13T10:15:25.229Z</time></trkpt><trkpt lat="43.451233" lon="11.1497219"><ele>124.0</ele><time>2026-04-13T10:15:26.226Z</time></trkpt><trkpt lat="43.4513125" lon="11.149791"><ele>124.0</ele><time>2026-04-13T10:15:27.229Z</time></trkpt><trkpt lat="43.4513893" lon="11.1498642"><ele>122.50000000000001</ele><time>2026-04-13T10:15:28.226Z</time></trkpt><trkpt lat="43.4514615" lon="11.1499427"><ele>121.0</ele><time>2026-04-13T10:15:29.208Z</time></trkpt><trkpt lat="43.4515333" lon="11.1500235"><ele>119.5</ele><time>2026-04-13T10:15:30.226Z</time></trkpt><trkpt lat="43.4516032" lon="11.1500998"><ele>118.0</ele><time>2026-04-13T10:15:31.238Z</time></trkpt><trkpt lat="43.4516684" lon="11.1501739"><ele>116.50000000000001</ele><time>2026-04-13T10:15:32.22Z</time></trkpt><trkpt lat="43.4517402" lon="11.1502386"><ele>115.0</ele><time>2026-04-13T10:15:33.229Z</time></trkpt><trkpt lat="43.4518183" lon="11.1502904"><ele>115.00000000000001</ele><time>2026-04-13T10:15:34.22Z</time></trkpt><trkpt lat="43.4518969" lon="11.1503328"><ele>115.0</ele><time>2026-04-13T10:15:35.231Z</time></trkpt><trkpt lat="43.4519692" lon="11.1503659"><ele>115.0</ele><time>2026-04-13T10:15:36.225Z</time></trkpt><trkpt lat="43.4520434" lon="11.1503839"><ele>115.0</ele><time>2026-04-13T10:15:37.231Z</time></trkpt><trkpt lat="43.4521179" lon="11.1504004"><ele>115.00000000000001</ele><time>2026-04-13T10:15:38.209Z</time></trkpt><trkpt lat="43.4521922" lon="11.1504182"><ele>115.0</ele><time>2026-04-13T10:15:39.244Z</time></trkpt><trkpt lat="43.452255" lon="11.1504457"><ele>115.2</ele><time>2026-04-13T10:15:40.23Z</time></trkpt><trkpt lat="43.4523164" lon="11.1504759"><ele>115.4</ele><time>2026-04-13T10:15:41.226Z</time></trkpt><trkpt lat="43.4523781" lon="11.1505086"><ele>115.6</ele><time>2026-04-13T10:15:42.236Z</time></trkpt><trkpt lat="43.4524816" lon="11.1505828"><ele>115.8</ele><time>2026-04-13T10:15:44.23Z</time></trkpt><trkpt lat="43.4525686" lon="11.1506837"><ele>116.0</ele><time>2026-04-13T10:15:46.215Z</time></trkpt><trkpt lat="43.4526354" lon="11.1507759"><ele>116.0</ele><time>2026-04-13T10:15:48.218Z</time></trkpt><trkpt lat="43.4526784" lon="11.1508823"><ele>116.0</ele><time>2026-04-13T10:15:50.232Z</time></trkpt><trkpt lat="43.4527171" lon="11.1509921"><ele>116.0</ele><time>2026-04-13T10:15:52.218Z</time></trkpt><trkpt lat="43.452751" lon="11.1511088"><ele>116.0</ele><time>2026-04-13T10:15:54.218Z</time></trkpt><trkpt lat="43.4527809" lon="11.1512433"><ele>116.0</ele><time>2026-04-13T10:15:56.209Z</time></trkpt><trkpt lat="43.4528067" lon="11.151366"><ele>116.0</ele><time>2026-04-13T10:15:58.231Z</time></trkpt><trkpt lat="43.4528357" lon="11.1515005"><ele>116.0</ele><time>2026-04-13T10:16:00.229Z</time></trkpt><trkpt lat="43.4528727" lon="11.1516358"><ele>116.0</ele><time>2026-04-13T10:16:02.228Z</time></trkpt><trkpt lat="43.4529182" lon="11.1517679"><ele>116.0</ele><time>2026-04-13T10:16:04.222Z</time></trkpt><trkpt lat="43.4529772" lon="11.1518949"><ele>116.0</ele><time>2026-04-13T10:16:06.225Z</time></trkpt><trkpt lat="43.4530589" lon="11.1520241"><ele>116.19999999999999</ele><time>2026-04-13T10:16:08.241Z</time></trkpt><trkpt lat="43.4531483" lon="11.1521374"><ele>116.39999999999999</ele><time>2026-04-13T10:16:10.237Z</time></trkpt><trkpt lat="43.4532483" lon="11.1522438"><ele>116.6</ele><time>2026-04-13T10:16:12.234Z</time></trkpt><trkpt lat="43.4533043" lon="11.1522946"><ele>116.8</ele><time>2026-04-13T10:16:13.239Z</time></trkpt><trkpt lat="43.4533619" lon="11.1523482"><ele>117.0</ele><time>2026-04-13T10:16:14.217Z</time></trkpt><trkpt lat="43.4534202" lon="11.152399"><ele>117.0</ele><time>2026-04-13T10:16:15.225Z</time></trkpt><trkpt lat="43.4534789" lon="11.1524449"><ele>117.00000000000001</ele><time>2026-04-13T10:16:16.229Z</time></trkpt><trkpt lat="43.45354" lon="11.1524871"><ele>117.0</ele><time>2026-04-13T10:16:17.243Z</time></trkpt><trkpt lat="43.4535996" lon="11.1525357"><ele>117.0</ele><time>2026-04-13T10:16:18.224Z</time></trkpt><trkpt lat="43.4536517" lon="11.1526014"><ele>117.00000000000001</ele><time>2026-04-13T10:16:19.234Z</time></trkpt><trkpt lat="43.4536927" lon="11.1526779"><ele>117.0</ele><time>2026-04-13T10:16:20.235Z</time></trkpt><trkpt lat="43.4537064" lon="11.1527635"><ele>117.0</ele><time>2026-04-13T10:16:21.239Z</time></trkpt><trkpt lat="43.4537034" lon="11.1528534"><ele>117.0</ele><time>2026-04-13T10:16:22.237Z</time></trkpt><trkpt lat="43.4536711" lon="11.1529314"><ele>117.00000000000001</ele><time>2026-04-13T10:16:23.232Z</time></trkpt><trkpt lat="43.4536116" lon="11.1529948"><ele>117.0</ele><time>2026-04-13T10:16:24.249Z</time></trkpt><trkpt lat="43.453535" lon="11.1530051"><ele>117.0</ele><time>2026-04-13T10:16:25.223Z</time></trkpt><trkpt lat="43.4534608" lon="11.1529884"><ele>117.00000000000001</ele><time>2026-04-13T10:16:26.212Z</time></trkpt><trkpt lat="43.4533951" lon="11.1529454"><ele>117.0</ele><time>2026-04-13T10:16:27.213Z</time></trkpt><trkpt lat="43.4533367" lon="11.1528883"><ele>117.0</ele><time>2026-04-13T10:16:28.24Z</time></trkpt><trkpt lat="43.453284" lon="11.1528256"><ele>117.0</ele><time>2026-04-13T10:16:29.238Z</time></trkpt><trkpt lat="43.4532314" lon="11.152756"><ele>117.0</ele><time>2026-04-13T10:16:30.227Z</time></trkpt><trkpt lat="43.4531808" lon="11.1526883"><ele>117.0</ele><time>2026-04-13T10:16:31.22Z</time></trkpt><trkpt lat="43.4531302" lon="11.152625"><ele>117.0</ele><time>2026-04-13T10:16:32.231Z</time></trkpt><trkpt lat="43.4530417" lon="11.1525155"><ele>117.0</ele><time>2026-04-13T10:16:34.227Z</time></trkpt><trkpt lat="43.4529539" lon="11.1524221"><ele>117.0</ele><time>2026-04-13T10:16:36.231Z</time></trkpt><trkpt lat="43.4528754" lon="11.152348"><ele>116.66666666666667</ele><time>2026-04-13T10:16:38.247Z</time></trkpt><trkpt lat="43.4527993" lon="11.1522843"><ele>116.33333333333334</ele><time>2026-04-13T10:16:40.227Z</time></trkpt><trkpt lat="43.4527239" lon="11.1522318"><ele>116.0</ele><time>2026-04-13T10:16:42.231Z</time></trkpt><trkpt lat="43.4526616" lon="11.1521981"><ele>115.66666666666667</ele><time>2026-04-13T10:16:44.212Z</time></trkpt><trkpt lat="43.4525975" lon="11.1521835"><ele>115.33333333333334</ele><time>2026-04-13T10:16:47.227Z</time></trkpt><trkpt lat="43.4525154" lon="11.1522019"><ele>115.0</ele><time>2026-04-13T10:16:50.225Z</time></trkpt><trkpt lat="43.4524328" lon="11.1522126"><ele>115.00000000000001</ele><time>2026-04-13T10:16:52.229Z</time></trkpt><trkpt lat="43.4523235" lon="11.1522312"><ele>115.0</ele><time>2026-04-13T10:16:54.219Z</time></trkpt><trkpt lat="43.4522036" lon="11.1522503"><ele>115.0</ele><time>2026-04-13T10:16:56.226Z</time></trkpt><trkpt lat="43.4521405" lon="11.1522569"><ele>115.0</ele><time>2026-04-13T10:16:57.227Z</time></trkpt><trkpt lat="43.4520763" lon="11.1522632"><ele>115.00000000000001</ele><time>2026-04-13T10:16:58.248Z</time></trkpt><trkpt lat="43.4520093" lon="11.1522677"><ele>115.0</ele><time>2026-04-13T10:16:59.213Z</time></trkpt><trkpt lat="43.4519415" lon="11.1522602"><ele>114.8</ele><time>2026-04-13T10:17:00.231Z</time></trkpt><trkpt lat="43.4518793" lon="11.1522421"><ele>114.6</ele><time>2026-04-13T10:17:01.241Z</time></trkpt><trkpt lat="43.451756" lon="11.152217"><ele>114.4</ele><time>2026-04-13T10:17:03.232Z</time></trkpt><trkpt lat="43.4516483" lon="11.1521657"><ele>114.2</ele><time>2026-04-13T10:17:05.235Z</time></trkpt><trkpt lat="43.4515536" lon="11.1520702"><ele>114.0</ele><time>2026-04-13T10:17:07.233Z</time></trkpt><trkpt lat="43.4514771" lon="11.1519641"><ele>114.0</ele><time>2026-04-13T10:17:09.222Z</time></trkpt><trkpt lat="43.4514117" lon="11.1518777"><ele>114.0</ele><time>2026-04-13T10:17:11.207Z</time></trkpt><trkpt lat="43.4513498" lon="11.1518015"><ele>114.0</ele><time>2026-04-13T10:17:13.224Z</time></trkpt><trkpt lat="43.4512907" lon="11.1517338"><ele>114.0</ele><time>2026-04-13T10:17:15.229Z</time></trkpt><trkpt lat="43.4512304" lon="11.1516932"><ele>114.0</ele><time>2026-04-13T10:17:17.228Z</time></trkpt><trkpt lat="43.4511675" lon="11.1516707"><ele>114.0</ele><time>2026-04-13T10:17:19.227Z</time></trkpt><trkpt lat="43.4510741" lon="11.1516651"><ele>114.28571428571428</ele><time>2026-04-13T10:17:22.212Z</time></trkpt><trkpt lat="43.4509882" lon="11.1516717"><ele>114.57142857142856</ele><time>2026-04-13T10:17:25.229Z</time></trkpt><trkpt lat="43.4508981" lon="11.151711"><ele>114.85714285714286</ele><time>2026-04-13T10:17:28.215Z</time></trkpt><trkpt lat="43.450844" lon="11.1517607"><ele>115.14285714285714</ele><time>2026-04-13T10:17:30.221Z</time></trkpt><trkpt lat="43.4507998" lon="11.1518264"><ele>115.42857142857143</ele><time>2026-04-13T10:17:32.232Z</time></trkpt><trkpt lat="43.4507593" lon="11.151894"><ele>115.71428571428572</ele><time>2026-04-13T10:17:34.224Z</time></trkpt><trkpt lat="43.4507285" lon="11.1519701"><ele>116.00000000000001</ele><time>2026-04-13T10:17:36.224Z</time></trkpt><trkpt lat="43.4507051" lon="11.1520556"><ele>116.00000000000001</ele><time>2026-04-13T10:17:38.228Z</time></trkpt><trkpt lat="43.4506929" lon="11.1521487"><ele>116.0</ele><time>2026-04-13T10:17:40.22Z</time></trkpt><trkpt lat="43.4506903" lon="11.1522405"><ele>116.00000000000001</ele><time>2026-04-13T10:17:42.228Z</time></trkpt><trkpt lat="43.4506942" lon="11.1523278"><ele>116.00000000000001</ele><time>2026-04-13T10:17:44.23Z</time></trkpt><trkpt lat="43.4507196" lon="11.15244"><ele>116.0</ele><time>2026-04-13T10:17:47.231Z</time></trkpt><trkpt lat="43.4507575" lon="11.1525435"><ele>116.00000000000001</ele><time>2026-04-13T10:17:50.226Z</time></trkpt><trkpt lat="43.4507997" lon="11.1526295"><ele>116.00000000000001</ele><time>2026-04-13T10:17:53.23Z</time></trkpt><trkpt lat="43.4508539" lon="11.152704"><ele>117.16666666666666</ele><time>2026-04-13T10:17:56.212Z</time></trkpt><trkpt lat="43.4509221" lon="11.1527705"><ele>118.33333333333333</ele><time>2026-04-13T10:17:59.218Z</time></trkpt><trkpt lat="43.4509865" lon="11.1528508"><ele>119.5</ele><time>2026-04-13T10:18:02.219Z</time></trkpt><trkpt lat="43.4510218" lon="11.1529521"><ele>120.66666666666666</ele><time>2026-04-13T10:18:05.216Z</time></trkpt><trkpt lat="43.4510519" lon="11.153054"><ele>121.83333333333333</ele><time>2026-04-13T10:18:08.225Z</time></trkpt><trkpt lat="43.4510633" lon="11.1531703"><ele>123.0</ele><time>2026-04-13T10:18:11.229Z</time></trkpt><trkpt lat="43.4510429" lon="11.1532842"><ele>123.57142857142858</ele><time>2026-04-13T10:18:14.216Z</time></trkpt><trkpt lat="43.4510086" lon="11.1533808"><ele>124.14285714285714</ele><time>2026-04-13T10:18:17.226Z</time></trkpt><trkpt lat="43.4509625" lon="11.1534838"><ele>124.71428571428572</ele><time>2026-04-13T10:18:20.221Z</time></trkpt><trkpt lat="43.4509282" lon="11.1535584"><ele>125.28571428571429</ele><time>2026-04-13T10:18:22.228Z</time></trkpt><trkpt lat="43.4508908" lon="11.1536344"><ele>125.85714285714286</ele><time>2026-04-13T10:18:24.233Z</time></trkpt><trkpt lat="43.4508563" lon="11.1537143"><ele>126.42857142857143</ele><time>2026-04-13T10:18:26.229Z</time></trkpt><trkpt lat="43.4508145" lon="11.1538038"><ele>127.0</ele><time>2026-04-13T10:18:28.233Z</time></trkpt><trkpt lat="43.4507745" lon="11.1538974"><ele>127.00000000000001</ele><time>2026-04-13T10:18:30.229Z</time></trkpt><trkpt lat="43.4507274" lon="11.1540042"><ele>127.0</ele><time>2026-04-13T10:18:32.227Z</time></trkpt><trkpt lat="43.4506784" lon="11.1541123"><ele>127.0</ele><time>2026-04-13T10:18:34.215Z</time></trkpt><trkpt lat="43.450625" lon="11.1542143"><ele>127.0</ele><time>2026-04-13T10:18:36.246Z</time></trkpt><trkpt lat="43.4505758" lon="11.1543122"><ele>127.00000000000001</ele><time>2026-04-13T10:18:38.231Z</time></trkpt><trkpt lat="43.450536" lon="11.1544085"><ele>127.0</ele><time>2026-04-13T10:18:40.215Z</time></trkpt><trkpt lat="43.450488" lon="11.1544996"><ele>127.50000000000001</ele><time>2026-04-13T10:18:42.232Z</time></trkpt><trkpt lat="43.4504311" lon="11.1545905"><ele>128.0</ele><time>2026-04-13T10:18:44.234Z</time></trkpt><trkpt lat="43.4503644" lon="11.1546606"><ele>128.5</ele><time>2026-04-13T10:18:46.217Z</time></trkpt><trkpt lat="43.4502929" lon="11.1547181"><ele>129.0</ele><time>2026-04-13T10:18:48.209Z</time></trkpt><trkpt lat="43.4502131" lon="11.1547643"><ele>129.5</ele><time>2026-04-13T10:18:50.221Z</time></trkpt><trkpt lat="43.4501262" lon="11.1547924"><ele>130.0</ele><time>2026-04-13T10:18:52.23Z</time></trkpt><trkpt lat="43.4500395" lon="11.154814"><ele>130.0</ele><time>2026-04-13T10:18:54.243Z</time></trkpt><trkpt lat="43.4499477" lon="11.1548282"><ele>130.0</ele><time>2026-04-13T10:18:56.259Z</time></trkpt><trkpt lat="43.4498626" lon="11.1548317"><ele>130.0</ele><time>2026-04-13T10:18:58.216Z</time></trkpt><trkpt lat="43.4497751" lon="11.1548349"><ele>130.0</ele><time>2026-04-13T10:19:00.223Z</time></trkpt><trkpt lat="43.4496759" lon="11.1548587"><ele>130.0</ele><time>2026-04-13T10:19:02.217Z</time></trkpt><trkpt lat="43.4495828" lon="11.1548718"><ele>130.8</ele><time>2026-04-13T10:19:04.207Z</time></trkpt><trkpt lat="43.4494916" lon="11.1548916"><ele>131.6</ele><time>2026-04-13T10:19:06.233Z</time></trkpt><trkpt lat="43.4494033" lon="11.1549168"><ele>132.4</ele><time>2026-04-13T10:19:08.226Z</time></trkpt><trkpt lat="43.4493114" lon="11.1549403"><ele>133.2</ele><time>2026-04-13T10:19:10.233Z</time></trkpt><trkpt lat="43.4492181" lon="11.1549441"><ele>134.0</ele><time>2026-04-13T10:19:12.222Z</time></trkpt><trkpt lat="43.4491191" lon="11.1549574"><ele>134.0</ele><time>2026-04-13T10:19:14.223Z</time></trkpt><trkpt lat="43.4490161" lon="11.1549755"><ele>134.0</ele><time>2026-04-13T10:19:16.223Z</time></trkpt><trkpt lat="43.4489239" lon="11.1549935"><ele>134.0</ele><time>2026-04-13T10:19:18.257Z</time></trkpt><trkpt lat="43.4488406" lon="11.1550051"><ele>134.0</ele><time>2026-04-13T10:19:20.224Z</time></trkpt><trkpt lat="43.4487607" lon="11.15501"><ele>134.0</ele><time>2026-04-13T10:19:22.241Z</time></trkpt><trkpt lat="43.4486764" lon="11.1550375"><ele>134.0</ele><time>2026-04-13T10:19:24.222Z</time></trkpt><trkpt lat="43.4485973" lon="11.1550752"><ele>133.16666666666666</ele><time>2026-04-13T10:19:26.233Z</time></trkpt><trkpt lat="43.4485174" lon="11.1551236"><ele>132.33333333333331</ele><time>2026-04-13T10:19:28.228Z</time></trkpt><trkpt lat="43.4484359" lon="11.1551763"><ele>131.5</ele><time>2026-04-13T10:19:30.229Z</time></trkpt><trkpt lat="43.4483606" lon="11.1552437"><ele>130.66666666666666</ele><time>2026-04-13T10:19:32.231Z</time></trkpt><trkpt lat="43.4482901" lon="11.1553038"><ele>129.83333333333334</ele><time>2026-04-13T10:19:34.232Z</time></trkpt><trkpt lat="43.4482237" lon="11.1553584"><ele>129.0</ele><time>2026-04-13T10:19:36.232Z</time></trkpt><trkpt lat="43.4481632" lon="11.1554153"><ele>129.0</ele><time>2026-04-13T10:19:38.243Z</time></trkpt><trkpt lat="43.4481069" lon="11.1554729"><ele>129.0</ele><time>2026-04-13T10:19:40.216Z</time></trkpt><trkpt lat="43.4480445" lon="11.1555376"><ele>129.0</ele><time>2026-04-13T10:19:42.245Z</time></trkpt><trkpt lat="43.4479687" lon="11.1556064"><ele>129.0</ele><time>2026-04-13T10:19:44.216Z</time></trkpt><trkpt lat="43.4478863" lon="11.1556759"><ele>129.0</ele><time>2026-04-13T10:19:46.218Z</time></trkpt><trkpt lat="43.4478017" lon="11.155748"><ele>129.0</ele><time>2026-04-13T10:19:48.226Z</time></trkpt><trkpt lat="43.4477194" lon="11.1558132"><ele>129.8</ele><time>2026-04-13T10:19:50.225Z</time></trkpt><trkpt lat="43.4476398" lon="11.155875"><ele>130.60000000000002</ele><time>2026-04-13T10:19:52.212Z</time></trkpt><trkpt lat="43.4475582" lon="11.155927"><ele>131.4</ele><time>2026-04-13T10:19:54.219Z</time></trkpt><trkpt lat="43.4474683" lon="11.1559665"><ele>132.20000000000002</ele><time>2026-04-13T10:19:56.235Z</time></trkpt><trkpt lat="43.4473665" lon="11.1560012"><ele>133.0</ele><time>2026-04-13T10:19:58.238Z</time></trkpt><trkpt lat="43.4472408" lon="11.156034"><ele>133.0</ele><time>2026-04-13T10:20:00.229Z</time></trkpt><trkpt lat="43.4471674" lon="11.1560495"><ele>133.0</ele><time>2026-04-13T10:20:01.222Z</time></trkpt><trkpt lat="43.4470926" lon="11.1560703"><ele>133.0</ele><time>2026-04-13T10:20:02.217Z</time></trkpt><trkpt lat="43.4470171" lon="11.1560881"><ele>133.0</ele><time>2026-04-13T10:20:03.232Z</time></trkpt><trkpt lat="43.4469402" lon="11.1561007"><ele>133.0</ele><time>2026-04-13T10:20:04.229Z</time></trkpt><trkpt lat="43.4468626" lon="11.1561112"><ele>133.0</ele><time>2026-04-13T10:20:05.225Z</time></trkpt><trkpt lat="43.4467903" lon="11.1561255"><ele>131.85714285714286</ele><time>2026-04-13T10:20:06.232Z</time></trkpt><trkpt lat="43.44672" lon="11.1561406"><ele>130.71428571428572</ele><time>2026-04-13T10:20:07.221Z</time></trkpt><trkpt lat="43.4466527" lon="11.1561551"><ele>129.57142857142856</ele><time>2026-04-13T10:20:08.222Z</time></trkpt><trkpt lat="43.4465884" lon="11.1561644"><ele>128.42857142857144</ele><time>2026-04-13T10:20:09.225Z</time></trkpt><trkpt lat="43.4465241" lon="11.1561751"><ele>127.28571428571429</ele><time>2026-04-13T10:20:10.222Z</time></trkpt><trkpt lat="43.4464589" lon="11.1561907"><ele>126.14285714285714</ele><time>2026-04-13T10:20:11.231Z</time></trkpt><trkpt lat="43.4463968" lon="11.1562051"><ele>125.0</ele><time>2026-04-13T10:20:12.226Z</time></trkpt><trkpt lat="43.4463327" lon="11.1562196"><ele>125.4</ele><time>2026-04-13T10:20:13.22Z</time></trkpt><trkpt lat="43.4462698" lon="11.1562337"><ele>125.8</ele><time>2026-04-13T10:20:14.212Z</time></trkpt><trkpt lat="43.4461518" lon="11.1562631"><ele>126.19999999999999</ele><time>2026-04-13T10:20:16.234Z</time></trkpt><trkpt lat="43.4460402" lon="11.1562755"><ele>126.6</ele><time>2026-04-13T10:20:18.225Z</time></trkpt><trkpt lat="43.4459306" lon="11.156263"><ele>127.0</ele><time>2026-04-13T10:20:20.213Z</time></trkpt><trkpt lat="43.4458237" lon="11.1562431"><ele>127.0</ele><time>2026-04-13T10:20:22.221Z</time></trkpt><trkpt lat="43.4457193" lon="11.1562157"><ele>126.99999999999999</ele><time>2026-04-13T10:20:24.22Z</time></trkpt><trkpt lat="43.4456209" lon="11.1561947"><ele>126.99999999999999</ele><time>2026-04-13T10:20:26.228Z</time></trkpt><trkpt lat="43.4455123" lon="11.1561674"><ele>127.0</ele><time>2026-04-13T10:20:28.228Z</time></trkpt><trkpt lat="43.4453975" lon="11.1561444"><ele>127.0</ele><time>2026-04-13T10:20:30.217Z</time></trkpt><trkpt lat="43.4452856" lon="11.1561173"><ele>128.25</ele><time>2026-04-13T10:20:32.233Z</time></trkpt><trkpt lat="43.4451679" lon="11.1560824"><ele>129.5</ele><time>2026-04-13T10:20:34.228Z</time></trkpt><trkpt lat="43.44505" lon="11.1560518"><ele>130.75</ele><time>2026-04-13T10:20:36.231Z</time></trkpt><trkpt lat="43.444932" lon="11.1560377"><ele>132.0</ele><time>2026-04-13T10:20:38.244Z</time></trkpt><trkpt lat="43.4448087" lon="11.1560369"><ele>132.0</ele><time>2026-04-13T10:20:40.223Z</time></trkpt><trkpt lat="43.4446868" lon="11.1560407"><ele>132.0</ele><time>2026-04-13T10:20:42.232Z</time></trkpt><trkpt lat="43.4445647" lon="11.1560527"><ele>132.0</ele><time>2026-04-13T10:20:44.217Z</time></trkpt><trkpt lat="43.4444416" lon="11.1560799"><ele>132.0</ele><time>2026-04-13T10:20:46.218Z</time></trkpt><trkpt lat="43.4443749" lon="11.1560957"><ele>132.0</ele><time>2026-04-13T10:20:47.222Z</time></trkpt><trkpt lat="43.4443069" lon="11.1561158"><ele>131.57142857142856</ele><time>2026-04-13T10:20:48.24Z</time></trkpt><trkpt lat="43.4442344" lon="11.1561381"><ele>131.14285714285714</ele><time>2026-04-13T10:20:49.227Z</time></trkpt><trkpt lat="43.4441606" lon="11.1561616"><ele>130.71428571428572</ele><time>2026-04-13T10:20:50.232Z</time></trkpt><trkpt lat="43.4440859" lon="11.1561903"><ele>130.28571428571428</ele><time>2026-04-13T10:20:51.219Z</time></trkpt><trkpt lat="43.4440137" lon="11.1562223"><ele>129.85714285714286</ele><time>2026-04-13T10:20:52.225Z</time></trkpt><trkpt lat="43.4439445" lon="11.1562533"><ele>129.42857142857142</ele><time>2026-04-13T10:20:53.229Z</time></trkpt><trkpt lat="43.4438778" lon="11.1562846"><ele>129.0</ele><time>2026-04-13T10:20:54.228Z</time></trkpt><trkpt lat="43.4438111" lon="11.1563213"><ele>128.99999999999997</ele><time>2026-04-13T10:20:55.229Z</time></trkpt><trkpt lat="43.4437458" lon="11.1563609"><ele>129.0</ele><time>2026-04-13T10:20:56.224Z</time></trkpt><trkpt lat="43.4436824" lon="11.1564036"><ele>129.0</ele><time>2026-04-13T10:20:57.236Z</time></trkpt><trkpt lat="43.443619" lon="11.1564513"><ele>129.0</ele><time>2026-04-13T10:20:58.227Z</time></trkpt><trkpt lat="43.4435581" lon="11.1565009"><ele>129.0</ele><time>2026-04-13T10:20:59.228Z</time></trkpt><trkpt lat="43.4434972" lon="11.1565492"><ele>128.99999999999997</ele><time>2026-04-13T10:21:00.235Z</time></trkpt><trkpt lat="43.4434384" lon="11.1565949"><ele>129.0</ele><time>2026-04-13T10:21:01.236Z</time></trkpt><trkpt lat="43.4433813" lon="11.1566404"><ele>129.5</ele><time>2026-04-13T10:21:02.221Z</time></trkpt><trkpt lat="43.4433233" lon="11.156684"><ele>130.0</ele><time>2026-04-13T10:21:03.224Z</time></trkpt><trkpt lat="43.4432617" lon="11.1567245"><ele>130.5</ele><time>2026-04-13T10:21:04.223Z</time></trkpt><trkpt lat="43.4432001" lon="11.1567651"><ele>131.0</ele><time>2026-04-13T10:21:05.23Z</time></trkpt><trkpt lat="43.4431429" lon="11.1568063"><ele>131.5</ele><time>2026-04-13T10:21:06.219Z</time></trkpt><trkpt lat="43.4430348" lon="11.1568868"><ele>132.0</ele><time>2026-04-13T10:21:08.236Z</time></trkpt><trkpt lat="43.4429243" lon="11.1569584"><ele>132.0</ele><time>2026-04-13T10:21:10.226Z</time></trkpt><trkpt lat="43.4428185" lon="11.1570338"><ele>132.0</ele><time>2026-04-13T10:21:12.235Z</time></trkpt><trkpt lat="43.4427149" lon="11.1571071"><ele>132.0</ele><time>2026-04-13T10:21:14.224Z</time></trkpt><trkpt lat="43.4426152" lon="11.1571846"><ele>132.0</ele><time>2026-04-13T10:21:16.24Z</time></trkpt><trkpt lat="43.4425172" lon="11.157269"><ele>132.0</ele><time>2026-04-13T10:21:18.225Z</time></trkpt><trkpt lat="43.4424262" lon="11.1573488"><ele>132.0</ele><time>2026-04-13T10:21:20.218Z</time></trkpt><trkpt lat="43.4423331" lon="11.1574389"><ele>132.0</ele><time>2026-04-13T10:21:22.229Z</time></trkpt><trkpt lat="43.4422432" lon="11.1575298"><ele>132.0</ele><time>2026-04-13T10:21:24.231Z</time></trkpt><trkpt lat="43.442157" lon="11.1576168"><ele>132.0</ele><time>2026-04-13T10:21:26.235Z</time></trkpt><trkpt lat="43.4420757" lon="11.1576972"><ele>132.0</ele><time>2026-04-13T10:21:28.211Z</time></trkpt><trkpt lat="43.442" lon="11.1577729"><ele>132.0</ele><time>2026-04-13T10:21:30.22Z</time></trkpt><trkpt lat="43.4419301" lon="11.1578551"><ele>132.0</ele><time>2026-04-13T10:21:32.225Z</time></trkpt><trkpt lat="43.4418512" lon="11.1579341"><ele>132.0</ele><time>2026-04-13T10:21:34.235Z</time></trkpt><trkpt lat="43.4417786" lon="11.1580107"><ele>132.0</ele><time>2026-04-13T10:21:36.229Z</time></trkpt><trkpt lat="43.4417063" lon="11.1580886"><ele>132.0</ele><time>2026-04-13T10:21:38.227Z</time></trkpt><trkpt lat="43.4416368" lon="11.1581743"><ele>132.0</ele><time>2026-04-13T10:21:40.227Z</time></trkpt><trkpt lat="43.4415697" lon="11.1582591"><ele>132.0</ele><time>2026-04-13T10:21:42.221Z</time></trkpt><trkpt lat="43.4415046" lon="11.1583501"><ele>132.0</ele><time>2026-04-13T10:21:44.218Z</time></trkpt><trkpt lat="43.4414485" lon="11.1584351"><ele>132.0</ele><time>2026-04-13T10:21:46.244Z</time></trkpt><trkpt lat="43.4413918" lon="11.1585302"><ele>132.6</ele><time>2026-04-13T10:21:48.236Z</time></trkpt><trkpt lat="43.4413361" lon="11.1586274"><ele>133.2</ele><time>2026-04-13T10:21:50.219Z</time></trkpt><trkpt lat="43.4412899" lon="11.1587349"><ele>133.8</ele><time>2026-04-13T10:21:52.224Z</time></trkpt><trkpt lat="43.4412491" lon="11.1588501"><ele>134.4</ele><time>2026-04-13T10:21:54.212Z</time></trkpt><trkpt lat="43.4412014" lon="11.1589681"><ele>135.0</ele><time>2026-04-13T10:21:56.224Z</time></trkpt><trkpt lat="43.4411501" lon="11.1590798"><ele>135.4</ele><time>2026-04-13T10:21:58.224Z</time></trkpt><trkpt lat="43.4410996" lon="11.1591954"><ele>135.8</ele><time>2026-04-13T10:22:00.213Z</time></trkpt><trkpt lat="43.4410528" lon="11.1593073"><ele>136.2</ele><time>2026-04-13T10:22:02.227Z</time></trkpt><trkpt lat="43.4410055" lon="11.159419"><ele>136.6</ele><time>2026-04-13T10:22:04.213Z</time></trkpt><trkpt lat="43.440961" lon="11.1595272"><ele>137.0</ele><time>2026-04-13T10:22:06.223Z</time></trkpt><trkpt lat="43.4409194" lon="11.1596317"><ele>137.0</ele><time>2026-04-13T10:22:08.23Z</time></trkpt><trkpt lat="43.4408866" lon="11.159729"><ele>137.0</ele><time>2026-04-13T10:22:10.24Z</time></trkpt><trkpt lat="43.440849" lon="11.1598263"><ele>137.0</ele><time>2026-04-13T10:22:12.245Z</time></trkpt><trkpt lat="43.4408067" lon="11.159922"><ele>137.0</ele><time>2026-04-13T10:22:14.228Z</time></trkpt><trkpt lat="43.4407654" lon="11.1600178"><ele>137.0</ele><time>2026-04-13T10:22:16.23Z</time></trkpt><trkpt lat="43.4407323" lon="11.1601192"><ele>137.0</ele><time>2026-04-13T10:22:18.232Z</time></trkpt><trkpt lat="43.4406962" lon="11.1602186"><ele>137.5</ele><time>2026-04-13T10:22:20.229Z</time></trkpt><trkpt lat="43.4406597" lon="11.1603192"><ele>138.0</ele><time>2026-04-13T10:22:22.23Z</time></trkpt><trkpt lat="43.4406249" lon="11.1604283"><ele>138.5</ele><time>2026-04-13T10:22:24.219Z</time></trkpt><trkpt lat="43.4405878" lon="11.1605394"><ele>139.0</ele><time>2026-04-13T10:22:26.214Z</time></trkpt><trkpt lat="43.4405612" lon="11.1606551"><ele>139.5</ele><time>2026-04-13T10:22:28.216Z</time></trkpt><trkpt lat="43.4405318" lon="11.1607693"><ele>140.0</ele><time>2026-04-13T10:22:30.217Z</time></trkpt><trkpt lat="43.4405014" lon="11.1608791"><ele>140.0</ele><time>2026-04-13T10:22:32.236Z</time></trkpt><trkpt lat="43.4404743" lon="11.160983"><ele>140.0</ele><time>2026-04-13T10:22:34.227Z</time></trkpt><trkpt lat="43.440443" lon="11.1610965"><ele>140.0</ele><time>2026-04-13T10:22:36.234Z</time></trkpt><trkpt lat="43.4404098" lon="11.1612115"><ele>140.0</ele><time>2026-04-13T10:22:38.236Z</time></trkpt><trkpt lat="43.440378" lon="11.1613241"><ele>140.0</ele><time>2026-04-13T10:22:40.237Z</time></trkpt><trkpt lat="43.4403456" lon="11.161437"><ele>140.0</ele><time>2026-04-13T10:22:42.225Z</time></trkpt><trkpt lat="43.4403076" lon="11.1615478"><ele>140.16666666666666</ele><time>2026-04-13T10:22:44.215Z</time></trkpt><trkpt lat="43.4402789" lon="11.1616532"><ele>140.33333333333331</ele><time>2026-04-13T10:22:46.238Z</time></trkpt><trkpt lat="43.4402559" lon="11.1617654"><ele>140.5</ele><time>2026-04-13T10:22:48.222Z</time></trkpt><trkpt lat="43.4402334" lon="11.1618807"><ele>140.66666666666666</ele><time>2026-04-13T10:22:50.237Z</time></trkpt><trkpt lat="43.4402067" lon="11.1619948"><ele>140.83333333333334</ele><time>2026-04-13T10:22:52.225Z</time></trkpt><trkpt lat="43.4401807" lon="11.1621071"><ele>141.0</ele><time>2026-04-13T10:22:54.222Z</time></trkpt><trkpt lat="43.4401615" lon="11.1622242"><ele>141.0</ele><time>2026-04-13T10:22:56.238Z</time></trkpt><trkpt lat="43.4401459" lon="11.1623465"><ele>141.0</ele><time>2026-04-13T10:22:58.229Z</time></trkpt><trkpt lat="43.4401417" lon="11.1624703"><ele>141.0</ele><time>2026-04-13T10:23:00.223Z</time></trkpt><trkpt lat="43.4401313" lon="11.1625944"><ele>141.0</ele><time>2026-04-13T10:23:02.231Z</time></trkpt><trkpt lat="43.4401198" lon="11.1627074"><ele>141.0</ele><time>2026-04-13T10:23:04.24Z</time></trkpt><trkpt lat="43.4401014" lon="11.162822"><ele>141.0</ele><time>2026-04-13T10:23:06.227Z</time></trkpt><trkpt lat="43.440086" lon="11.1629399"><ele>141.0</ele><time>2026-04-13T10:23:08.214Z</time></trkpt><trkpt lat="43.4400753" lon="11.1630629"><ele>141.0</ele><time>2026-04-13T10:23:10.239Z</time></trkpt><trkpt lat="43.4400632" lon="11.1631847"><ele>141.0</ele><time>2026-04-13T10:23:12.233Z</time></trkpt><trkpt lat="43.4400511" lon="11.1633012"><ele>141.0</ele><time>2026-04-13T10:23:14.227Z</time></trkpt><trkpt lat="43.4400363" lon="11.1634128"><ele>141.0</ele><time>2026-04-13T10:23:16.229Z</time></trkpt><trkpt lat="43.4400165" lon="11.1635257"><ele>141.0</ele><time>2026-04-13T10:23:18.227Z</time></trkpt><trkpt lat="43.4400008" lon="11.1636427"><ele>141.0</ele><time>2026-04-13T10:23:20.239Z</time></trkpt><trkpt lat="43.4399796" lon="11.163761"><ele>141.0</ele><time>2026-04-13T10:23:22.221Z</time></trkpt><trkpt lat="43.4399563" lon="11.1638769"><ele>141.0</ele><time>2026-04-13T10:23:24.229Z</time></trkpt><trkpt lat="43.4399308" lon="11.1639991"><ele>141.0</ele><time>2026-04-13T10:23:26.238Z</time></trkpt><trkpt lat="43.4399067" lon="11.1641214"><ele>141.0</ele><time>2026-04-13T10:23:28.227Z</time></trkpt><trkpt lat="43.4398856" lon="11.1642563"><ele>141.0</ele><time>2026-04-13T10:23:30.231Z</time></trkpt><trkpt lat="43.4398652" lon="11.1644"><ele>141.0</ele><time>2026-04-13T10:23:32.227Z</time></trkpt><trkpt lat="43.4398372" lon="11.1645506"><ele>141.0</ele><time>2026-04-13T10:23:34.214Z</time></trkpt><trkpt lat="43.4398083" lon="11.1647096"><ele>141.0</ele><time>2026-04-13T10:23:36.225Z</time></trkpt><trkpt lat="43.4397948" lon="11.1647946"><ele>141.0</ele><time>2026-04-13T10:23:37.22Z</time></trkpt><trkpt lat="43.4397792" lon="11.1648823"><ele>140.71428571428572</ele><time>2026-04-13T10:23:38.234Z</time></trkpt><trkpt lat="43.4397626" lon="11.1649692"><ele>140.42857142857142</ele><time>2026-04-13T10:23:39.236Z</time></trkpt><trkpt lat="43.439744" lon="11.1650563"><ele>140.14285714285714</ele><time>2026-04-13T10:23:40.219Z</time></trkpt><trkpt lat="43.4397218" lon="11.1651454"><ele>139.85714285714286</ele><time>2026-04-13T10:23:41.219Z</time></trkpt><trkpt lat="43.4396978" lon="11.1652325"><ele>139.57142857142858</ele><time>2026-04-13T10:23:42.223Z</time></trkpt><trkpt lat="43.439671" lon="11.1653187"><ele>139.28571428571428</ele><time>2026-04-13T10:23:43.225Z</time></trkpt><trkpt lat="43.4396437" lon="11.1654061"><ele>139.0</ele><time>2026-04-13T10:23:44.218Z</time></trkpt><trkpt lat="43.4396159" lon="11.165491"><ele>138.5</ele><time>2026-04-13T10:23:45.234Z</time></trkpt><trkpt lat="43.4395913" lon="11.1655783"><ele>138.0</ele><time>2026-04-13T10:23:46.224Z</time></trkpt><trkpt lat="43.4395673" lon="11.1656682"><ele>137.5</ele><time>2026-04-13T10:23:47.233Z</time></trkpt><trkpt lat="43.4395392" lon="11.1657596"><ele>137.0</ele><time>2026-04-13T10:23:48.224Z</time></trkpt><trkpt lat="43.439508" lon="11.1658565"><ele>136.5</ele><time>2026-04-13T10:23:49.235Z</time></trkpt><trkpt lat="43.4394752" lon="11.1659645"><ele>136.0</ele><time>2026-04-13T10:23:50.227Z</time></trkpt><trkpt lat="43.4394396" lon="11.1660824"><ele>135.8</ele><time>2026-04-13T10:23:51.214Z</time></trkpt><trkpt lat="43.4394054" lon="11.1662115"><ele>135.6</ele><time>2026-04-13T10:23:52.225Z</time></trkpt><trkpt lat="43.4393779" lon="11.166352"><ele>135.4</ele><time>2026-04-13T10:23:53.223Z</time></trkpt><trkpt lat="43.4393593" lon="11.1664984"><ele>135.2</ele><time>2026-04-13T10:23:54.24Z</time></trkpt><trkpt lat="43.4393547" lon="11.1666411"><ele>135.0</ele><time>2026-04-13T10:23:55.233Z</time></trkpt><trkpt lat="43.439362" lon="11.1667856"><ele>133.8</ele><time>2026-04-13T10:23:56.22Z</time></trkpt><trkpt lat="43.4393871" lon="11.1669232"><ele>132.6</ele><time>2026-04-13T10:23:57.228Z</time></trkpt><trkpt lat="43.4394241" lon="11.1670449"><ele>131.4</ele><time>2026-04-13T10:23:58.239Z</time></trkpt><trkpt lat="43.439477" lon="11.1671513"><ele>130.2</ele><time>2026-04-13T10:23:59.225Z</time></trkpt><trkpt lat="43.439547" lon="11.1672414"><ele>129.0</ele><time>2026-04-13T10:24:00.205Z</time></trkpt><trkpt lat="43.4396261" lon="11.1673182"><ele>128.8</ele><time>2026-04-13T10:24:01.219Z</time></trkpt><trkpt lat="43.439707" lon="11.1673865"><ele>128.60000000000002</ele><time>2026-04-13T10:24:02.217Z</time></trkpt><trkpt lat="43.4397935" lon="11.1674424"><ele>128.4</ele><time>2026-04-13T10:24:03.214Z</time></trkpt><trkpt lat="43.439879" lon="11.1674956"><ele>128.20000000000002</ele><time>2026-04-13T10:24:04.218Z</time></trkpt><trkpt lat="43.4399621" lon="11.1675421"><ele>128.0</ele><time>2026-04-13T10:24:05.218Z</time></trkpt><trkpt lat="43.4400383" lon="11.1675864"><ele>127.99999999999999</ele><time>2026-04-13T10:24:06.218Z</time></trkpt><trkpt lat="43.4401087" lon="11.167629"><ele>128.0</ele><time>2026-04-13T10:24:07.209Z</time></trkpt><trkpt lat="43.4401707" lon="11.167675"><ele>128.0</ele><time>2026-04-13T10:24:08.217Z</time></trkpt><trkpt lat="43.4402282" lon="11.1677226"><ele>128.0</ele><time>2026-04-13T10:24:09.216Z</time></trkpt><trkpt lat="43.440279" lon="11.1677779"><ele>127.99999999999999</ele><time>2026-04-13T10:24:10.205Z</time></trkpt><trkpt lat="43.4403675" lon="11.1678945"><ele>128.0</ele><time>2026-04-13T10:24:12.225Z</time></trkpt><trkpt lat="43.440406" lon="11.167965"><ele>128.0</ele><time>2026-04-13T10:24:13.221Z</time></trkpt><trkpt lat="43.4404401" lon="11.1680466"><ele>127.99999999999999</ele><time>2026-04-13T10:24:14.214Z</time></trkpt><trkpt lat="43.4404763" lon="11.1681271"><ele>128.0</ele><time>2026-04-13T10:24:15.221Z</time></trkpt><trkpt lat="43.4405133" lon="11.1682073"><ele>128.0</ele><time>2026-04-13T10:24:16.211Z</time></trkpt><trkpt lat="43.44055" lon="11.1682876"><ele>127.99999999999999</ele><time>2026-04-13T10:24:17.229Z</time></trkpt><trkpt lat="43.4405803" lon="11.1683665"><ele>128.0</ele><time>2026-04-13T10:24:18.218Z</time></trkpt><trkpt lat="43.4406075" lon="11.1684447"><ele>128.0</ele><time>2026-04-13T10:24:19.226Z</time></trkpt><trkpt lat="43.4406536" lon="11.1686014"><ele>128.5</ele><time>2026-04-13T10:24:21.229Z</time></trkpt><trkpt lat="43.4406772" lon="11.1686854"><ele>129.0</ele><time>2026-04-13T10:24:22.219Z</time></trkpt><trkpt lat="43.4406984" lon="11.1687674"><ele>129.5</ele><time>2026-04-13T10:24:23.229Z</time></trkpt><trkpt lat="43.4407187" lon="11.1689184"><ele>130.0</ele><time>2026-04-13T10:24:25.232Z</time></trkpt><trkpt lat="43.4407334" lon="11.1690581"><ele>130.5</ele><time>2026-04-13T10:24:27.232Z</time></trkpt><trkpt lat="43.4407573" lon="11.1691813"><ele>131.0</ele><time>2026-04-13T10:24:29.228Z</time></trkpt><trkpt lat="43.4407942" lon="11.1692984"><ele>131.0</ele><time>2026-04-13T10:24:31.233Z</time></trkpt><trkpt lat="43.4408441" lon="11.1693984"><ele>131.0</ele><time>2026-04-13T10:24:33.245Z</time></trkpt><trkpt lat="43.4408876" lon="11.1694899"><ele>131.0</ele><time>2026-04-13T10:24:35.218Z</time></trkpt><trkpt lat="43.4409484" lon="11.1695752"><ele>131.0</ele><time>2026-04-13T10:24:37.235Z</time></trkpt><trkpt lat="43.4410148" lon="11.1696386"><ele>131.0</ele><time>2026-04-13T10:24:39.241Z</time></trkpt><trkpt lat="43.441074" lon="11.1696873"><ele>131.0</ele><time>2026-04-13T10:24:41.231Z</time></trkpt><trkpt lat="43.4411347" lon="11.1697408"><ele>131.0</ele><time>2026-04-13T10:24:43.228Z</time></trkpt><trkpt lat="43.4412066" lon="11.1697993"><ele>131.0</ele><time>2026-04-13T10:24:45.249Z</time></trkpt><trkpt lat="43.4412828" lon="11.1698534"><ele>131.0</ele><time>2026-04-13T10:24:47.224Z</time></trkpt><trkpt lat="43.4413562" lon="11.1699026"><ele>131.0</ele><time>2026-04-13T10:24:49.225Z</time></trkpt><trkpt lat="43.4414294" lon="11.1699567"><ele>131.0</ele><time>2026-04-13T10:24:51.237Z</time></trkpt><trkpt lat="43.4415067" lon="11.170009"><ele>131.0</ele><time>2026-04-13T10:24:53.234Z</time></trkpt><trkpt lat="43.4415874" lon="11.1700612"><ele>131.4</ele><time>2026-04-13T10:24:55.228Z</time></trkpt><trkpt lat="43.4416647" lon="11.1701215"><ele>131.8</ele><time>2026-04-13T10:24:57.223Z</time></trkpt><trkpt lat="43.4417405" lon="11.1701943"><ele>132.20000000000002</ele><time>2026-04-13T10:24:59.233Z</time></trkpt><trkpt lat="43.4418124" lon="11.1702828"><ele>132.6</ele><time>2026-04-13T10:25:01.218Z</time></trkpt><trkpt lat="43.4418876" lon="11.1703857"><ele>133.0</ele><time>2026-04-13T10:25:03.239Z</time></trkpt><trkpt lat="43.4419586" lon="11.1704984"><ele>133.0</ele><time>2026-04-13T10:25:05.248Z</time></trkpt><trkpt lat="43.4420252" lon="11.1706122"><ele>133.0</ele><time>2026-04-13T10:25:07.224Z</time></trkpt><trkpt lat="43.4420885" lon="11.1707175"><ele>133.0</ele><time>2026-04-13T10:25:09.224Z</time></trkpt><trkpt lat="43.4421522" lon="11.1708113"><ele>133.0</ele><time>2026-04-13T10:25:11.228Z</time></trkpt><trkpt lat="43.4422072" lon="11.1708866"><ele>133.0</ele><time>2026-04-13T10:25:13.229Z</time></trkpt><trkpt lat="43.4422531" lon="11.1709534"><ele>133.0</ele><time>2026-04-13T10:25:15.225Z</time></trkpt><trkpt lat="43.4423057" lon="11.1710237"><ele>132.71428571428572</ele><time>2026-04-13T10:25:18.227Z</time></trkpt><trkpt lat="43.4423593" lon="11.1710955"><ele>132.42857142857144</ele><time>2026-04-13T10:25:23.245Z</time></trkpt><trkpt lat="43.4424002" lon="11.1711615"><ele>132.14285714285714</ele><time>2026-04-13T10:25:27.223Z</time></trkpt><trkpt lat="43.4424622" lon="11.1712259"><ele>131.85714285714286</ele><time>2026-04-13T10:25:32.237Z</time></trkpt><trkpt lat="43.4425107" lon="11.1712867"><ele>131.57142857142858</ele><time>2026-04-13T10:25:36.23Z</time></trkpt><trkpt lat="43.4425577" lon="11.1713465"><ele>131.28571428571428</ele><time>2026-04-13T10:25:40.228Z</time></trkpt><trkpt lat="43.4426135" lon="11.1714067"><ele>131.0</ele><time>2026-04-13T10:25:45.235Z</time></trkpt><trkpt lat="43.4426652" lon="11.1714707"><ele>131.42857142857144</ele><time>2026-04-13T10:25:50.251Z</time></trkpt><trkpt lat="43.4427182" lon="11.1715359"><ele>131.85714285714286</ele><time>2026-04-13T10:25:56.227Z</time></trkpt><trkpt lat="43.4427687" lon="11.1716047"><ele>132.28571428571428</ele><time>2026-04-13T10:26:02.22Z</time></trkpt><trkpt lat="43.4428222" lon="11.171672"><ele>132.71428571428572</ele><time>2026-04-13T10:26:07.228Z</time></trkpt><trkpt lat="43.4428731" lon="11.1717395"><ele>133.14285714285714</ele><time>2026-04-13T10:26:12.225Z</time></trkpt><trkpt lat="43.4429276" lon="11.1718033"><ele>133.57142857142858</ele><time>2026-04-13T10:26:18.226Z</time></trkpt><trkpt lat="43.4429865" lon="11.1718676"><ele>134.0</ele><time>2026-04-13T10:26:23.232Z</time></trkpt><trkpt lat="43.4430439" lon="11.1719196"><ele>135.0</ele><time>2026-04-13T10:26:28.236Z</time></trkpt><trkpt lat="43.4430947" lon="11.1719807"><ele>136.0</ele><time>2026-04-13T10:26:33.223Z</time></trkpt><trkpt lat="43.4431539" lon="11.1720228"><ele>137.0</ele><time>2026-04-13T10:26:38.233Z</time></trkpt><trkpt lat="43.4432175" lon="11.1720739"><ele>138.0</ele><time>2026-04-13T10:26:44.217Z</time></trkpt><trkpt lat="43.4432819" lon="11.1721291"><ele>139.0</ele><time>2026-04-13T10:26:49.229Z</time></trkpt><trkpt lat="43.4433411" lon="11.1721736"><ele>140.0</ele><time>2026-04-13T10:26:54.248Z</time></trkpt><trkpt lat="43.4433987" lon="11.1722135"><ele>141.0</ele><time>2026-04-13T10:26:59.238Z</time></trkpt><trkpt lat="43.4434641" lon="11.1722508"><ele>141.0</ele><time>2026-04-13T10:27:05.231Z</time></trkpt><trkpt lat="43.4435288" lon="11.1722939"><ele>141.0</ele><time>2026-04-13T10:27:11.23Z</time></trkpt><trkpt lat="43.4435873" lon="11.1723353"><ele>141.0</ele><time>2026-04-13T10:27:17.219Z</time></trkpt><trkpt lat="43.443655" lon="11.1723757"><ele>141.0</ele><time>2026-04-13T10:27:24.235Z</time></trkpt><trkpt lat="43.4437181" lon="11.1724011"><ele>141.0</ele><time>2026-04-13T10:27:30.232Z</time></trkpt><trkpt lat="43.4437789" lon="11.1724266"><ele>141.0</ele><time>2026-04-13T10:27:36.207Z</time></trkpt><trkpt lat="43.4438478" lon="11.1724577"><ele>141.0</ele><time>2026-04-13T10:27:43.223Z</time></trkpt><trkpt lat="43.4439093" lon="11.1724994"><ele>143.57142857142858</ele><time>2026-04-13T10:27:50.236Z</time></trkpt><trkpt lat="43.4439713" lon="11.172544"><ele>146.14285714285714</ele><time>2026-04-13T10:27:56.226Z</time></trkpt><trkpt lat="43.4440367" lon="11.1725736"><ele>148.71428571428572</ele><time>2026-04-13T10:28:02.224Z</time></trkpt><trkpt lat="43.4441003" lon="11.1726145"><ele>151.28571428571428</ele><time>2026-04-13T10:28:09.232Z</time></trkpt><trkpt lat="43.4441551" lon="11.1726631"><ele>153.85714285714286</ele><time>2026-04-13T10:28:15.24Z</time></trkpt><trkpt lat="43.4442145" lon="11.172699"><ele>156.42857142857142</ele><time>2026-04-13T10:28:21.234Z</time></trkpt><trkpt lat="43.4442829" lon="11.1727205"><ele>159.0</ele><time>2026-04-13T10:28:29.218Z</time></trkpt><trkpt lat="43.4443549" lon="11.1727404"><ele>159.0</ele><time>2026-04-13T10:28:35.229Z</time></trkpt><trkpt lat="43.4444181" lon="11.1727691"><ele>159.0</ele><time>2026-04-13T10:28:41.225Z</time></trkpt><trkpt lat="43.4444841" lon="11.172797"><ele>159.0</ele><time>2026-04-13T10:28:47.212Z</time></trkpt><trkpt lat="43.4445458" lon="11.1728156"><ele>159.0</ele><time>2026-04-13T10:28:52.226Z</time></trkpt><trkpt lat="43.4446088" lon="11.1728351"><ele>159.0</ele><time>2026-04-13T10:28:57.212Z</time></trkpt><trkpt lat="43.4446769" lon="11.172866"><ele>159.0</ele><time>2026-04-13T10:29:03.224Z</time></trkpt><trkpt lat="43.4447364" lon="11.1729063"><ele>159.0</ele><time>2026-04-13T10:29:09.237Z</time></trkpt><trkpt lat="43.4447906" lon="11.1729713"><ele>160.57142857142856</ele><time>2026-04-13T10:29:15.23Z</time></trkpt><trkpt lat="43.4448272" lon="11.1730478"><ele>162.14285714285717</ele><time>2026-04-13T10:29:21.221Z</time></trkpt><trkpt lat="43.4448636" lon="11.1731281"><ele>163.71428571428572</ele><time>2026-04-13T10:29:28.235Z</time></trkpt><trkpt lat="43.4448993" lon="11.1732107"><ele>165.28571428571428</ele><time>2026-04-13T10:29:34.22Z</time></trkpt><trkpt lat="43.4449277" lon="11.1732908"><ele>166.85714285714283</ele><time>2026-04-13T10:29:41.227Z</time></trkpt><trkpt lat="43.4449592" lon="11.1733893"><ele>168.42857142857144</ele><time>2026-04-13T10:29:49.222Z</time></trkpt><trkpt lat="43.4449839" lon="11.173472"><ele>170.0</ele><time>2026-04-13T10:29:54.228Z</time></trkpt><trkpt lat="43.4450163" lon="11.1735594"><ele>170.57142857142858</ele><time>2026-04-13T10:30:00.225Z</time></trkpt><trkpt lat="43.445046" lon="11.1736477"><ele>171.14285714285714</ele><time>2026-04-13T10:30:07.219Z</time></trkpt><trkpt lat="43.4450543" lon="11.1737463"><ele>171.71428571428572</ele><time>2026-04-13T10:30:12.216Z</time></trkpt><trkpt lat="43.4450509" lon="11.1738479"><ele>172.28571428571428</ele><time>2026-04-13T10:30:17.222Z</time></trkpt><trkpt lat="43.4450392" lon="11.1739505"><ele>172.85714285714286</ele><time>2026-04-13T10:30:22.225Z</time></trkpt><trkpt lat="43.4450253" lon="11.1740422"><ele>173.42857142857142</ele><time>2026-04-13T10:30:26.221Z</time></trkpt><trkpt lat="43.4450084" lon="11.1741363"><ele>174.0</ele><time>2026-04-13T10:30:30.218Z</time></trkpt><trkpt lat="43.4449848" lon="11.1742367"><ele>174.42857142857142</ele><time>2026-04-13T10:30:35.235Z</time></trkpt><trkpt lat="43.4449582" lon="11.1743398"><ele>174.85714285714286</ele><time>2026-04-13T10:30:40.227Z</time></trkpt><trkpt lat="43.4449277" lon="11.1744252"><ele>175.28571428571428</ele><time>2026-04-13T10:30:44.235Z</time></trkpt><trkpt lat="43.4449102" lon="11.1745085"><ele>175.71428571428572</ele><time>2026-04-13T10:30:47.219Z</time></trkpt><trkpt lat="43.4448846" lon="11.1745919"><ele>176.14285714285714</ele><time>2026-04-13T10:30:50.224Z</time></trkpt><trkpt lat="43.444852" lon="11.1746949"><ele>176.57142857142858</ele><time>2026-04-13T10:30:54.238Z</time></trkpt><trkpt lat="43.4448336" lon="11.1747958"><ele>177.0</ele><time>2026-04-13T10:30:58.239Z</time></trkpt><trkpt lat="43.4448161" lon="11.1748815"><ele>177.14285714285714</ele><time>2026-04-13T10:31:01.22Z</time></trkpt><trkpt lat="43.4447976" lon="11.1749683"><ele>177.28571428571428</ele><time>2026-04-13T10:31:04.229Z</time></trkpt><trkpt lat="43.4447577" lon="11.1750712"><ele>177.42857142857142</ele><time>2026-04-13T10:31:08.23Z</time></trkpt><trkpt lat="43.4447247" lon="11.1751545"><ele>177.57142857142856</ele><time>2026-04-13T10:31:11.229Z</time></trkpt><trkpt lat="43.444689" lon="11.1752292"><ele>177.71428571428572</ele><time>2026-04-13T10:31:14.237Z</time></trkpt><trkpt lat="43.4446449" lon="11.1753237"><ele>177.85714285714283</ele><time>2026-04-13T10:31:18.238Z</time></trkpt><trkpt lat="43.4446058" lon="11.1753998"><ele>178.0</ele><time>2026-04-13T10:31:21.227Z</time></trkpt><trkpt lat="43.4445656" lon="11.1754754"><ele>177.7142857142857</ele><time>2026-04-13T10:31:24.228Z</time></trkpt><trkpt lat="43.4445316" lon="11.175549"><ele>177.42857142857142</ele><time>2026-04-13T10:31:27.221Z</time></trkpt><trkpt lat="43.4444833" lon="11.1756387"><ele>177.14285714285714</ele><time>2026-04-13T10:31:31.229Z</time></trkpt><trkpt lat="43.4444485" lon="11.1757113"><ele>176.85714285714283</ele><time>2026-04-13T10:31:34.225Z</time></trkpt><trkpt lat="43.4444182" lon="11.1757919"><ele>176.57142857142856</ele><time>2026-04-13T10:31:37.214Z</time></trkpt><trkpt lat="43.4443817" lon="11.1758759"><ele>176.28571428571428</ele><time>2026-04-13T10:31:41.221Z</time></trkpt><trkpt lat="43.4443451" lon="11.1759602"><ele>176.0</ele><time>2026-04-13T10:31:45.229Z</time></trkpt><trkpt lat="43.4442981" lon="11.1760541"><ele>176.0</ele><time>2026-04-13T10:31:49.228Z</time></trkpt><trkpt lat="43.4442502" lon="11.1761372"><ele>176.0</ele><time>2026-04-13T10:31:54.223Z</time></trkpt><trkpt lat="43.4442098" lon="11.1762117"><ele>176.0</ele><time>2026-04-13T10:31:57.225Z</time></trkpt><trkpt lat="43.444171" lon="11.1762823"><ele>176.0</ele><time>2026-04-13T10:32:00.22Z</time></trkpt><trkpt lat="43.444116" lon="11.1763562"><ele>176.0</ele><time>2026-04-13T10:32:03.24Z</time></trkpt><trkpt lat="43.4440683" lon="11.1764283"><ele>176.0</ele><time>2026-04-13T10:32:06.213Z</time></trkpt><trkpt lat="43.4440237" lon="11.1765071"><ele>176.0</ele><time>2026-04-13T10:32:09.223Z</time></trkpt><trkpt lat="43.443987" lon="11.1765839"><ele>176.66666666666666</ele><time>2026-04-13T10:32:12.233Z</time></trkpt><trkpt lat="43.4439442" lon="11.1766626"><ele>177.33333333333331</ele><time>2026-04-13T10:32:15.241Z</time></trkpt><trkpt lat="43.4439007" lon="11.1767768"><ele>178.0</ele><time>2026-04-13T10:32:18.23Z</time></trkpt><trkpt lat="43.4438673" lon="11.1768618"><ele>178.66666666666666</ele><time>2026-04-13T10:32:20.227Z</time></trkpt><trkpt lat="43.4438314" lon="11.1769546"><ele>179.33333333333334</ele><time>2026-04-13T10:32:22.219Z</time></trkpt><trkpt lat="43.4437916" lon="11.1770534"><ele>180.0</ele><time>2026-04-13T10:32:24.238Z</time></trkpt><trkpt lat="43.4437558" lon="11.1771568"><ele>180.0</ele><time>2026-04-13T10:32:26.237Z</time></trkpt><trkpt lat="43.4437058" lon="11.1772449"><ele>180.0</ele><time>2026-04-13T10:32:28.228Z</time></trkpt><trkpt lat="43.4436497" lon="11.1773378"><ele>180.0</ele><time>2026-04-13T10:32:30.229Z</time></trkpt><trkpt lat="43.4435977" lon="11.1774255"><ele>180.0</ele><time>2026-04-13T10:32:32.226Z</time></trkpt><trkpt lat="43.4435507" lon="11.177505"><ele>180.0</ele><time>2026-04-13T10:32:34.227Z</time></trkpt><trkpt lat="43.4435054" lon="11.177579"><ele>180.0</ele><time>2026-04-13T10:32:36.225Z</time></trkpt><trkpt lat="43.4434532" lon="11.177673"><ele>181.0</ele><time>2026-04-13T10:32:38.213Z</time></trkpt><trkpt lat="43.4433962" lon="11.1777598"><ele>182.0</ele><time>2026-04-13T10:32:40.235Z</time></trkpt><trkpt lat="43.443341" lon="11.1778467"><ele>183.0</ele><time>2026-04-13T10:32:42.225Z</time></trkpt><trkpt lat="43.4432807" lon="11.1779415"><ele>184.0</ele><time>2026-04-13T10:32:44.215Z</time></trkpt><trkpt lat="43.443209" lon="11.1780462"><ele>185.0</ele><time>2026-04-13T10:32:46.216Z</time></trkpt><trkpt lat="43.4431259" lon="11.1781463"><ele>184.25</ele><time>2026-04-13T10:32:48.213Z</time></trkpt><trkpt lat="43.4430431" lon="11.1782594"><ele>183.5</ele><time>2026-04-13T10:32:50.216Z</time></trkpt><trkpt lat="43.4429692" lon="11.1783919"><ele>182.75</ele><time>2026-04-13T10:32:52.211Z</time></trkpt><trkpt lat="43.4429194" lon="11.1785437"><ele>182.0</ele><time>2026-04-13T10:32:54.23Z</time></trkpt><trkpt lat="43.4428864" lon="11.1787008"><ele>181.2</ele><time>2026-04-13T10:32:56.229Z</time></trkpt><trkpt lat="43.4428763" lon="11.178847"><ele>180.39999999999998</ele><time>2026-04-13T10:32:58.225Z</time></trkpt><trkpt lat="43.4428772" lon="11.1789987"><ele>179.60000000000002</ele><time>2026-04-13T10:33:00.231Z</time></trkpt><trkpt lat="43.442875" lon="11.1791475"><ele>178.8</ele><time>2026-04-13T10:33:02.215Z</time></trkpt><trkpt lat="43.442869" lon="11.1792973"><ele>178.0</ele><time>2026-04-13T10:33:04.222Z</time></trkpt><trkpt lat="43.4428438" lon="11.1794394"><ele>178.0</ele><time>2026-04-13T10:33:06.246Z</time></trkpt><trkpt lat="43.4427936" lon="11.179565"><ele>178.0</ele><time>2026-04-13T10:33:08.221Z</time></trkpt><trkpt lat="43.4427206" lon="11.1796876"><ele>178.0</ele><time>2026-04-13T10:33:10.222Z</time></trkpt><trkpt lat="43.4426371" lon="11.1798041"><ele>178.0</ele><time>2026-04-13T10:33:12.219Z</time></trkpt><trkpt lat="43.4425441" lon="11.1799194"><ele>178.0</ele><time>2026-04-13T10:33:14.245Z</time></trkpt><trkpt lat="43.4424927" lon="11.179975"><ele>178.0</ele><time>2026-04-13T10:33:15.225Z</time></trkpt><trkpt lat="43.4424373" lon="11.1800301"><ele>178.0</ele><time>2026-04-13T10:33:16.234Z</time></trkpt><trkpt lat="43.4423837" lon="11.1800828"><ele>178.0</ele><time>2026-04-13T10:33:17.245Z</time></trkpt><trkpt lat="43.442329" lon="11.1801343"><ele>178.0</ele><time>2026-04-13T10:33:18.223Z</time></trkpt><trkpt lat="43.442276" lon="11.1801851"><ele>178.0</ele><time>2026-04-13T10:33:19.231Z</time></trkpt><trkpt lat="43.4421765" lon="11.1802884"><ele>178.2</ele><time>2026-04-13T10:33:21.237Z</time></trkpt><trkpt lat="43.4420861" lon="11.1803943"><ele>178.4</ele><time>2026-04-13T10:33:23.238Z</time></trkpt><trkpt lat="43.4420082" lon="11.1805029"><ele>178.6</ele><time>2026-04-13T10:33:25.232Z</time></trkpt><trkpt lat="43.4419347" lon="11.1806029"><ele>178.79999999999998</ele><time>2026-04-13T10:33:27.228Z</time></trkpt><trkpt lat="43.4418707" lon="11.1806967"><ele>179.0</ele><time>2026-04-13T10:33:29.217Z</time></trkpt><trkpt lat="43.4417983" lon="11.1807676"><ele>179.0</ele><time>2026-04-13T10:33:31.222Z</time></trkpt><trkpt lat="43.4417299" lon="11.18084"><ele>179.0</ele><time>2026-04-13T10:33:33.237Z</time></trkpt><trkpt lat="43.4416643" lon="11.1809184"><ele>179.0</ele><time>2026-04-13T10:33:35.222Z</time></trkpt><trkpt lat="43.4415996" lon="11.1809949"><ele>179.0</ele><time>2026-04-13T10:33:37.22Z</time></trkpt><trkpt lat="43.4415322" lon="11.1810708"><ele>179.0</ele><time>2026-04-13T10:33:39.224Z</time></trkpt><trkpt lat="43.4414662" lon="11.1811461"><ele>179.0</ele><time>2026-04-13T10:33:41.238Z</time></trkpt><trkpt lat="43.4414121" lon="11.1812232"><ele>179.0</ele><time>2026-04-13T10:33:43.231Z</time></trkpt><trkpt lat="43.4413551" lon="11.181293"><ele>179.0</ele><time>2026-04-13T10:33:45.234Z</time></trkpt><trkpt lat="43.4412943" lon="11.1813658"><ele>179.0</ele><time>2026-04-13T10:33:47.227Z</time></trkpt><trkpt lat="43.4412456" lon="11.1814542"><ele>179.0</ele><time>2026-04-13T10:33:49.236Z</time></trkpt><trkpt lat="43.4411972" lon="11.1815429"><ele>179.0</ele><time>2026-04-13T10:33:51.219Z</time></trkpt><trkpt lat="43.4411367" lon="11.1816333"><ele>179.0</ele><time>2026-04-13T10:33:53.23Z</time></trkpt><trkpt lat="43.4410691" lon="11.1817169"><ele>178.6</ele><time>2026-04-13T10:33:55.236Z</time></trkpt><trkpt lat="43.4410067" lon="11.1818148"><ele>178.2</ele><time>2026-04-13T10:33:57.222Z</time></trkpt><trkpt lat="43.4409513" lon="11.1819244"><ele>177.79999999999998</ele><time>2026-04-13T10:33:59.233Z</time></trkpt><trkpt lat="43.440897" lon="11.1820297"><ele>177.39999999999998</ele><time>2026-04-13T10:34:01.245Z</time></trkpt><trkpt lat="43.4408351" lon="11.1821376"><ele>177.0</ele><time>2026-04-13T10:34:03.239Z</time></trkpt><trkpt lat="43.4407725" lon="11.1822529"><ele>177.8</ele><time>2026-04-13T10:34:05.233Z</time></trkpt><trkpt lat="43.4407109" lon="11.1823633"><ele>178.6</ele><time>2026-04-13T10:34:07.227Z</time></trkpt><trkpt lat="43.4406493" lon="11.1824712"><ele>179.4</ele><time>2026-04-13T10:34:09.216Z</time></trkpt><trkpt lat="43.4405857" lon="11.182585"><ele>180.20000000000002</ele><time>2026-04-13T10:34:11.224Z</time></trkpt><trkpt lat="43.4405273" lon="11.1826925"><ele>181.0</ele><time>2026-04-13T10:34:13.223Z</time></trkpt><trkpt lat="43.4404673" lon="11.1828046"><ele>181.20000000000002</ele><time>2026-04-13T10:34:15.237Z</time></trkpt><trkpt lat="43.4404029" lon="11.1829129"><ele>181.4</ele><time>2026-04-13T10:34:17.235Z</time></trkpt><trkpt lat="43.4403362" lon="11.1830293"><ele>181.6</ele><time>2026-04-13T10:34:19.229Z</time></trkpt><trkpt lat="43.4402751" lon="11.1831454"><ele>181.8</ele><time>2026-04-13T10:34:21.219Z</time></trkpt><trkpt lat="43.4402134" lon="11.1832564"><ele>182.0</ele><time>2026-04-13T10:34:23.23Z</time></trkpt><trkpt lat="43.4401555" lon="11.1833654"><ele>182.0</ele><time>2026-04-13T10:34:25.216Z</time></trkpt><trkpt lat="43.4401001" lon="11.1834601"><ele>182.0</ele><time>2026-04-13T10:34:27.235Z</time></trkpt><trkpt lat="43.4400492" lon="11.1835557"><ele>182.0</ele><time>2026-04-13T10:34:29.223Z</time></trkpt><trkpt lat="43.4400057" lon="11.1836405"><ele>182.0</ele><time>2026-04-13T10:34:31.223Z</time></trkpt><trkpt lat="43.4399647" lon="11.1837243"><ele>182.0</ele><time>2026-04-13T10:34:33.225Z</time></trkpt><trkpt lat="43.4399209" lon="11.1838073"><ele>182.0</ele><time>2026-04-13T10:34:35.225Z</time></trkpt><trkpt lat="43.4398769" lon="11.183886"><ele>182.0</ele><time>2026-04-13T10:34:37.219Z</time></trkpt><trkpt lat="43.4398278" lon="11.1839674"><ele>182.0</ele><time>2026-04-13T10:34:39.245Z</time></trkpt><trkpt lat="43.4397872" lon="11.1840535"><ele>182.0</ele><time>2026-04-13T10:34:41.215Z</time></trkpt><trkpt lat="43.4397474" lon="11.1841297"><ele>182.0</ele><time>2026-04-13T10:34:43.216Z</time></trkpt><trkpt lat="43.4397038" lon="11.1842025"><ele>182.0</ele><time>2026-04-13T10:34:45.236Z</time></trkpt><trkpt lat="43.4396628" lon="11.1842804"><ele>182.0</ele><time>2026-04-13T10:34:47.232Z</time></trkpt><trkpt lat="43.4396096" lon="11.1843838"><ele>182.14285714285714</ele><time>2026-04-13T10:34:50.221Z</time></trkpt><trkpt lat="43.4395553" lon="11.1844749"><ele>182.28571428571428</ele><time>2026-04-13T10:34:53.232Z</time></trkpt><trkpt lat="43.4395016" lon="11.1845615"><ele>182.42857142857144</ele><time>2026-04-13T10:34:56.229Z</time></trkpt><trkpt lat="43.4394502" lon="11.1846426"><ele>182.57142857142856</ele><time>2026-04-13T10:34:59.224Z</time></trkpt><trkpt lat="43.439405" lon="11.1847206"><ele>182.71428571428572</ele><time>2026-04-13T10:35:02.219Z</time></trkpt><trkpt lat="43.4393644" lon="11.184791"><ele>182.85714285714286</ele><time>2026-04-13T10:35:05.236Z</time></trkpt><trkpt lat="43.4393263" lon="11.1848627"><ele>183.0</ele><time>2026-04-13T10:35:08.236Z</time></trkpt><trkpt lat="43.4392758" lon="11.1849585"><ele>184.42857142857144</ele><time>2026-04-13T10:35:12.235Z</time></trkpt><trkpt lat="43.4392222" lon="11.185025"><ele>185.85714285714286</ele><time>2026-04-13T10:35:16.225Z</time></trkpt><trkpt lat="43.4391745" lon="11.1850912"><ele>187.28571428571428</ele><time>2026-04-13T10:35:20.237Z</time></trkpt><trkpt lat="43.4391219" lon="11.1851563"><ele>188.71428571428572</ele><time>2026-04-13T10:35:24.227Z</time></trkpt><trkpt lat="43.4390668" lon="11.1852406"><ele>190.14285714285714</ele><time>2026-04-13T10:35:28.23Z</time></trkpt><trkpt lat="43.4390141" lon="11.1853095"><ele>191.57142857142858</ele><time>2026-04-13T10:35:32.227Z</time></trkpt><trkpt lat="43.4389492" lon="11.1853782"><ele>193.0</ele><time>2026-04-13T10:35:36.216Z</time></trkpt><trkpt lat="43.4388935" lon="11.1854462"><ele>192.99999999999997</ele><time>2026-04-13T10:35:40.215Z</time></trkpt><trkpt lat="43.4388337" lon="11.1855236"><ele>193.0</ele><time>2026-04-13T10:35:44.221Z</time></trkpt><trkpt lat="43.4387693" lon="11.1855919"><ele>193.0</ele><time>2026-04-13T10:35:48.208Z</time></trkpt><trkpt lat="43.4387089" lon="11.1856363"><ele>193.0</ele><time>2026-04-13T10:35:52.216Z</time></trkpt><trkpt lat="43.4386331" lon="11.1856413"><ele>192.99999999999997</ele><time>2026-04-13T10:35:56.214Z</time></trkpt><trkpt lat="43.4385441" lon="11.1856135"><ele>193.0</ele><time>2026-04-13T10:35:59.209Z</time></trkpt><trkpt lat="43.4384614" lon="11.1856006"><ele>192.60000000000002</ele><time>2026-04-13T10:36:01.217Z</time></trkpt><trkpt lat="43.4383611" lon="11.1856187"><ele>192.20000000000002</ele><time>2026-04-13T10:36:03.22Z</time></trkpt><trkpt lat="43.4382601" lon="11.1856494"><ele>191.8</ele><time>2026-04-13T10:36:05.229Z</time></trkpt><trkpt lat="43.4381658" lon="11.1856618"><ele>191.4</ele><time>2026-04-13T10:36:07.218Z</time></trkpt><trkpt lat="43.4380693" lon="11.1856768"><ele>191.0</ele><time>2026-04-13T10:36:09.222Z</time></trkpt><trkpt lat="43.4379825" lon="11.1856936"><ele>194.0</ele><time>2026-04-13T10:36:11.222Z</time></trkpt><trkpt lat="43.437901" lon="11.1857027"><ele>197.0</ele><time>2026-04-13T10:36:13.209Z</time></trkpt><trkpt lat="43.4378199" lon="11.18572"><ele>200.0</ele><time>2026-04-13T10:36:15.218Z</time></trkpt><trkpt lat="43.4377377" lon="11.1857314"><ele>203.0</ele><time>2026-04-13T10:36:17.22Z</time></trkpt><trkpt lat="43.4376503" lon="11.1857401"><ele>206.00000000000003</ele><time>2026-04-13T10:36:19.212Z</time></trkpt><trkpt lat="43.4375468" lon="11.1857356"><ele>209.0</ele><time>2026-04-13T10:36:21.211Z</time></trkpt><trkpt lat="43.437427" lon="11.185697"><ele>205.33333333333334</ele><time>2026-04-13T10:36:23.222Z</time></trkpt><trkpt lat="43.4373622" lon="11.185661"><ele>201.66666666666669</ele><time>2026-04-13T10:36:24.218Z</time></trkpt><trkpt lat="43.4372939" lon="11.1856243"><ele>198.0</ele><time>2026-04-13T10:36:25.207Z</time></trkpt><trkpt lat="43.4372251" lon="11.1855882"><ele>194.33333333333334</ele><time>2026-04-13T10:36:26.226Z</time></trkpt><trkpt lat="43.4371532" lon="11.1855529"><ele>190.66666666666669</ele><time>2026-04-13T10:36:27.208Z</time></trkpt><trkpt lat="43.4370722" lon="11.1855144"><ele>187.0</ele><time>2026-04-13T10:36:28.228Z</time></trkpt><trkpt lat="43.4369884" lon="11.1854677"><ele>186.6</ele><time>2026-04-13T10:36:29.21Z</time></trkpt><trkpt lat="43.4369027" lon="11.1854248"><ele>186.2</ele><time>2026-04-13T10:36:30.221Z</time></trkpt><trkpt lat="43.4368138" lon="11.1853907"><ele>185.8</ele><time>2026-04-13T10:36:31.212Z</time></trkpt><trkpt lat="43.4367256" lon="11.1853557"><ele>185.4</ele><time>2026-04-13T10:36:32.227Z</time></trkpt><trkpt lat="43.4366422" lon="11.185318"><ele>185.0</ele><time>2026-04-13T10:36:33.22Z</time></trkpt><trkpt lat="43.4365597" lon="11.1852814"><ele>185.0</ele><time>2026-04-13T10:36:34.225Z</time></trkpt><trkpt lat="43.4364844" lon="11.1852545"><ele>185.0</ele><time>2026-04-13T10:36:35.226Z</time></trkpt><trkpt lat="43.4364084" lon="11.18523"><ele>185.0</ele><time>2026-04-13T10:36:36.214Z</time></trkpt><trkpt lat="43.4363293" lon="11.1852077"><ele>185.0</ele><time>2026-04-13T10:36:37.219Z</time></trkpt><trkpt lat="43.4362492" lon="11.185186"><ele>185.0</ele><time>2026-04-13T10:36:38.219Z</time></trkpt><trkpt lat="43.4361679" lon="11.1851649"><ele>185.0</ele><time>2026-04-13T10:36:39.216Z</time></trkpt><trkpt lat="43.436082" lon="11.1851426"><ele>184.66666666666666</ele><time>2026-04-13T10:36:40.221Z</time></trkpt><trkpt lat="43.435994" lon="11.1851184"><ele>184.33333333333331</ele><time>2026-04-13T10:36:41.242Z</time></trkpt><trkpt lat="43.4359078" lon="11.1850951"><ele>184.0</ele><time>2026-04-13T10:36:42.229Z</time></trkpt><trkpt lat="43.4358181" lon="11.1850754"><ele>183.66666666666666</ele><time>2026-04-13T10:36:43.235Z</time></trkpt><trkpt lat="43.4357304" lon="11.185058"><ele>183.33333333333334</ele><time>2026-04-13T10:36:44.211Z</time></trkpt><trkpt lat="43.43564" lon="11.1850415"><ele>183.0</ele><time>2026-04-13T10:36:45.233Z</time></trkpt><trkpt lat="43.4355521" lon="11.1850231"><ele>182.8</ele><time>2026-04-13T10:36:46.22Z</time></trkpt><trkpt lat="43.4354669" lon="11.1850062"><ele>182.60000000000002</ele><time>2026-04-13T10:36:47.219Z</time></trkpt><trkpt lat="43.4353771" lon="11.1849931"><ele>182.39999999999998</ele><time>2026-04-13T10:36:48.21Z</time></trkpt><trkpt lat="43.4352873" lon="11.1849811"><ele>182.2</ele><time>2026-04-13T10:36:49.231Z</time></trkpt><trkpt lat="43.4351972" lon="11.1849724"><ele>182.0</ele><time>2026-04-13T10:36:50.235Z</time></trkpt><trkpt lat="43.4351037" lon="11.1849622"><ele>182.0</ele><time>2026-04-13T10:36:51.236Z</time></trkpt><trkpt lat="43.4350057" lon="11.1849452"><ele>182.0</ele><time>2026-04-13T10:36:52.225Z</time></trkpt><trkpt lat="43.4349046" lon="11.1849247"><ele>182.0</ele><time>2026-04-13T10:36:53.219Z</time></trkpt><trkpt lat="43.4348" lon="11.1848992"><ele>182.0</ele><time>2026-04-13T10:36:54.215Z</time></trkpt><trkpt lat="43.4346886" lon="11.1848662"><ele>182.0</ele><time>2026-04-13T10:36:55.214Z</time></trkpt><trkpt lat="43.4345732" lon="11.1848317"><ele>178.75</ele><time>2026-04-13T10:36:56.225Z</time></trkpt><trkpt lat="43.4344526" lon="11.1847976"><ele>175.5</ele><time>2026-04-13T10:36:57.221Z</time></trkpt><trkpt lat="43.4343325" lon="11.1847505"><ele>172.25</ele><time>2026-04-13T10:36:58.22Z</time></trkpt><trkpt lat="43.4342136" lon="11.1846991"><ele>169.0</ele><time>2026-04-13T10:36:59.244Z</time></trkpt><trkpt lat="43.4341004" lon="11.1846495"><ele>169.0</ele><time>2026-04-13T10:37:00.213Z</time></trkpt><trkpt lat="43.4339867" lon="11.1846015"><ele>169.0</ele><time>2026-04-13T10:37:01.223Z</time></trkpt><trkpt lat="43.4338749" lon="11.1845564"><ele>169.0</ele><time>2026-04-13T10:37:02.223Z</time></trkpt><trkpt lat="43.4337632" lon="11.1845151"><ele>169.0</ele><time>2026-04-13T10:37:03.224Z</time></trkpt><trkpt lat="43.4336534" lon="11.1844698"><ele>168.6</ele><time>2026-04-13T10:37:04.216Z</time></trkpt><trkpt lat="43.4335456" lon="11.1844283"><ele>168.2</ele><time>2026-04-13T10:37:05.221Z</time></trkpt><trkpt lat="43.433438" lon="11.1843887"><ele>167.79999999999998</ele><time>2026-04-13T10:37:06.225Z</time></trkpt><trkpt lat="43.4333343" lon="11.1843462"><ele>167.39999999999998</ele><time>2026-04-13T10:37:07.218Z</time></trkpt><trkpt lat="43.4332321" lon="11.184303"><ele>167.0</ele><time>2026-04-13T10:37:08.22Z</time></trkpt><trkpt lat="43.4331373" lon="11.184258"><ele>167.0</ele><time>2026-04-13T10:37:09.207Z</time></trkpt><trkpt lat="43.4330445" lon="11.1842165"><ele>167.0</ele><time>2026-04-13T10:37:10.214Z</time></trkpt><trkpt lat="43.4329552" lon="11.1841794"><ele>167.0</ele><time>2026-04-13T10:37:11.217Z</time></trkpt><trkpt lat="43.4328645" lon="11.1841436"><ele>167.0</ele><time>2026-04-13T10:37:12.228Z</time></trkpt><trkpt lat="43.4327794" lon="11.1841087"><ele>167.0</ele><time>2026-04-13T10:37:13.223Z</time></trkpt><trkpt lat="43.432695" lon="11.1840715"><ele>167.33333333333331</ele><time>2026-04-13T10:37:14.22Z</time></trkpt><trkpt lat="43.4326151" lon="11.184036"><ele>167.66666666666666</ele><time>2026-04-13T10:37:15.236Z</time></trkpt><trkpt lat="43.4325385" lon="11.1840002"><ele>168.0</ele><time>2026-04-13T10:37:16.226Z</time></trkpt><trkpt lat="43.4324565" lon="11.1839655"><ele>168.33333333333334</ele><time>2026-04-13T10:37:17.214Z</time></trkpt><trkpt lat="43.4323722" lon="11.1839322"><ele>168.66666666666669</ele><time>2026-04-13T10:37:18.22Z</time></trkpt><trkpt lat="43.4322852" lon="11.1838986"><ele>169.0</ele><time>2026-04-13T10:37:19.229Z</time></trkpt><trkpt lat="43.4321956" lon="11.1838672"><ele>166.0</ele><time>2026-04-13T10:37:20.211Z</time></trkpt><trkpt lat="43.4320971" lon="11.1838428"><ele>163.0</ele><time>2026-04-13T10:37:21.221Z</time></trkpt><trkpt lat="43.4319942" lon="11.1838269"><ele>160.0</ele><time>2026-04-13T10:37:22.226Z</time></trkpt><trkpt lat="43.4318854" lon="11.1838134"><ele>157.0</ele><time>2026-04-13T10:37:23.23Z</time></trkpt><trkpt lat="43.4317743" lon="11.1837925"><ele>154.0</ele><time>2026-04-13T10:37:24.223Z</time></trkpt><trkpt lat="43.4316572" lon="11.1837666"><ele>154.0</ele><time>2026-04-13T10:37:25.23Z</time></trkpt><trkpt lat="43.431539" lon="11.1837381"><ele>154.0</ele><time>2026-04-13T10:37:26.219Z</time></trkpt><trkpt lat="43.4314222" lon="11.1836991"><ele>154.0</ele><time>2026-04-13T10:37:27.226Z</time></trkpt><trkpt lat="43.4313122" lon="11.1836443"><ele>154.0</ele><time>2026-04-13T10:37:28.215Z</time></trkpt><trkpt lat="43.4312204" lon="11.1835551"><ele>155.6</ele><time>2026-04-13T10:37:29.223Z</time></trkpt><trkpt lat="43.4311557" lon="11.1834259"><ele>157.2</ele><time>2026-04-13T10:37:30.234Z</time></trkpt><trkpt lat="43.431118" lon="11.1832952"><ele>158.79999999999998</ele><time>2026-04-13T10:37:31.225Z</time></trkpt><trkpt lat="43.4311011" lon="11.1831643"><ele>160.4</ele><time>2026-04-13T10:37:32.228Z</time></trkpt><trkpt lat="43.4310861" lon="11.1830422"><ele>162.0</ele><time>2026-04-13T10:37:33.235Z</time></trkpt><trkpt lat="43.4310768" lon="11.1829401"><ele>163.0</ele><time>2026-04-13T10:37:34.228Z</time></trkpt><trkpt lat="43.4310667" lon="11.1828455"><ele>164.0</ele><time>2026-04-13T10:37:35.225Z</time></trkpt><trkpt lat="43.431051" lon="11.1827607"><ele>165.0</ele><time>2026-04-13T10:37:36.214Z</time></trkpt><trkpt lat="43.4310214" lon="11.1826157"><ele>166.0</ele><time>2026-04-13T10:37:38.228Z</time></trkpt><trkpt lat="43.4310039" lon="11.1824871"><ele>167.0</ele><time>2026-04-13T10:37:40.246Z</time></trkpt><trkpt lat="43.4309872" lon="11.1823722"><ele>168.0</ele><time>2026-04-13T10:37:42.22Z</time></trkpt><trkpt lat="43.4309779" lon="11.1822789"><ele>168.0</ele><time>2026-04-13T10:37:44.224Z</time></trkpt><trkpt lat="43.430982" lon="11.1821699"><ele>168.0</ele><time>2026-04-13T10:37:47.221Z</time></trkpt><trkpt lat="43.4309758" lon="11.182066"><ele>168.0</ele><time>2026-04-13T10:37:50.222Z</time></trkpt><trkpt lat="43.430962" lon="11.1819523"><ele>168.0</ele><time>2026-04-13T10:37:54.219Z</time></trkpt><trkpt lat="43.430937" lon="11.1818497"><ele>168.0</ele><time>2026-04-13T10:37:57.233Z</time></trkpt><trkpt lat="43.4309182" lon="11.1817566"><ele>168.0</ele><time>2026-04-13T10:38:00.225Z</time></trkpt><trkpt lat="43.4308797" lon="11.1816615"><ele>168.0</ele><time>2026-04-13T10:38:03.225Z</time></trkpt><trkpt lat="43.4308557" lon="11.1815785"><ele>168.0</ele><time>2026-04-13T10:38:06.221Z</time></trkpt><trkpt lat="43.4307998" lon="11.1815099"><ele>168.0</ele><time>2026-04-13T10:38:09.224Z</time></trkpt><trkpt lat="43.4307522" lon="11.1814409"><ele>168.0</ele><time>2026-04-13T10:38:12.213Z</time></trkpt><trkpt lat="43.4306917" lon="11.1813655"><ele>168.0</ele><time>2026-04-13T10:38:15.218Z</time></trkpt><trkpt lat="43.4306232" lon="11.181296"><ele>168.0</ele><time>2026-04-13T10:38:18.24Z</time></trkpt><trkpt lat="43.4305588" lon="11.1812251"><ele>167.16666666666666</ele><time>2026-04-13T10:38:21.225Z</time></trkpt><trkpt lat="43.4304935" lon="11.1811498"><ele>166.33333333333334</ele><time>2026-04-13T10:38:24.223Z</time></trkpt><trkpt lat="43.4304259" lon="11.1810721"><ele>165.5</ele><time>2026-04-13T10:38:27.23Z</time></trkpt><trkpt lat="43.4303547" lon="11.1809971"><ele>164.66666666666669</ele><time>2026-04-13T10:38:30.24Z</time></trkpt><trkpt lat="43.4303005" lon="11.1809454"><ele>163.83333333333334</ele><time>2026-04-13T10:38:32.228Z</time></trkpt><trkpt lat="43.4302418" lon="11.1808939"><ele>163.0</ele><time>2026-04-13T10:38:34.228Z</time></trkpt><trkpt lat="43.4301797" lon="11.1808606"><ele>163.0</ele><time>2026-04-13T10:38:36.219Z</time></trkpt><trkpt lat="43.4301008" lon="11.1808571"><ele>163.0</ele><time>2026-04-13T10:38:38.227Z</time></trkpt><trkpt lat="43.4300127" lon="11.1808782"><ele>163.0</ele><time>2026-04-13T10:38:40.223Z</time></trkpt><trkpt lat="43.4299218" lon="11.1809112"><ele>163.0</ele><time>2026-04-13T10:38:42.22Z</time></trkpt><trkpt lat="43.4298213" lon="11.1809795"><ele>163.0</ele><time>2026-04-13T10:38:44.219Z</time></trkpt><trkpt lat="43.4297617" lon="11.1810123"><ele>163.0</ele><time>2026-04-13T10:38:45.211Z</time></trkpt><trkpt lat="43.4296957" lon="11.1810438"><ele>162.42857142857144</ele><time>2026-04-13T10:38:46.228Z</time></trkpt><trkpt lat="43.4296267" lon="11.1810686"><ele>161.85714285714283</ele><time>2026-04-13T10:38:47.23Z</time></trkpt><trkpt lat="43.4295569" lon="11.1810883"><ele>161.28571428571428</ele><time>2026-04-13T10:38:48.216Z</time></trkpt><trkpt lat="43.4294884" lon="11.1811072"><ele>160.71428571428572</ele><time>2026-04-13T10:38:49.248Z</time></trkpt><trkpt lat="43.4294178" lon="11.1811236"><ele>160.14285714285717</ele><time>2026-04-13T10:38:50.213Z</time></trkpt><trkpt lat="43.4293416" lon="11.1811259"><ele>159.57142857142856</ele><time>2026-04-13T10:38:51.228Z</time></trkpt><trkpt lat="43.4292692" lon="11.1811086"><ele>159.0</ele><time>2026-04-13T10:38:52.228Z</time></trkpt><trkpt lat="43.4292003" lon="11.1810737"><ele>159.0</ele><time>2026-04-13T10:38:53.215Z</time></trkpt><trkpt lat="43.4291375" lon="11.1810134"><ele>159.0</ele><time>2026-04-13T10:38:54.236Z</time></trkpt><trkpt lat="43.4290836" lon="11.1809344"><ele>159.0</ele><time>2026-04-13T10:38:55.208Z</time></trkpt><trkpt lat="43.4290326" lon="11.1808474"><ele>159.0</ele><time>2026-04-13T10:38:56.225Z</time></trkpt><trkpt lat="43.4289866" lon="11.1807641"><ele>159.0</ele><time>2026-04-13T10:38:57.235Z</time></trkpt><trkpt lat="43.4289464" lon="11.1806827"><ele>159.0</ele><time>2026-04-13T10:38:58.235Z</time></trkpt><trkpt lat="43.4289034" lon="11.1806095"><ele>157.83333333333334</ele><time>2026-04-13T10:38:59.225Z</time></trkpt><trkpt lat="43.4288013" lon="11.1805211"><ele>156.66666666666666</ele><time>2026-04-13T10:39:01.216Z</time></trkpt><trkpt lat="43.4287359" lon="11.1805248"><ele>155.5</ele><time>2026-04-13T10:39:02.216Z</time></trkpt><trkpt lat="43.428664" lon="11.1805525"><ele>154.33333333333331</ele><time>2026-04-13T10:39:03.223Z</time></trkpt><trkpt lat="43.4285932" lon="11.1806089"><ele>153.16666666666666</ele><time>2026-04-13T10:39:04.229Z</time></trkpt><trkpt lat="43.4285287" lon="11.1806853"><ele>152.0</ele><time>2026-04-13T10:39:05.219Z</time></trkpt><trkpt lat="43.42848" lon="11.1807842"><ele>152.0</ele><time>2026-04-13T10:39:06.223Z</time></trkpt><trkpt lat="43.4284386" lon="11.1808924"><ele>152.0</ele><time>2026-04-13T10:39:07.238Z</time></trkpt><trkpt lat="43.428395" lon="11.1810056"><ele>152.0</ele><time>2026-04-13T10:39:08.225Z</time></trkpt><trkpt lat="43.4283459" lon="11.1811165"><ele>152.0</ele><time>2026-04-13T10:39:09.222Z</time></trkpt><trkpt lat="43.4282939" lon="11.1812292"><ele>152.0</ele><time>2026-04-13T10:39:10.226Z</time></trkpt><trkpt lat="43.428236" lon="11.1813395"><ele>152.0</ele><time>2026-04-13T10:39:11.216Z</time></trkpt><trkpt lat="43.4281814" lon="11.1814486"><ele>152.0</ele><time>2026-04-13T10:39:12.229Z</time></trkpt><trkpt lat="43.4281319" lon="11.181553"><ele>152.0</ele><time>2026-04-13T10:39:13.216Z</time></trkpt><trkpt lat="43.4280856" lon="11.1816538"><ele>152.0</ele><time>2026-04-13T10:39:14.215Z</time></trkpt><trkpt lat="43.4280313" lon="11.1817286"><ele>152.0</ele><time>2026-04-13T10:39:15.227Z</time></trkpt><trkpt lat="43.427963" lon="11.181776"><ele>152.0</ele><time>2026-04-13T10:39:16.225Z</time></trkpt><trkpt lat="43.4278789" lon="11.1817803"><ele>151.2</ele><time>2026-04-13T10:39:17.231Z</time></trkpt><trkpt lat="43.427786" lon="11.1817626"><ele>150.39999999999998</ele><time>2026-04-13T10:39:18.214Z</time></trkpt><trkpt lat="43.4276935" lon="11.1817294"><ele>149.60000000000002</ele><time>2026-04-13T10:39:19.219Z</time></trkpt><trkpt lat="43.4276003" lon="11.1816869"><ele>148.8</ele><time>2026-04-13T10:39:20.22Z</time></trkpt><trkpt lat="43.4275063" lon="11.1816546"><ele>148.0</ele><time>2026-04-13T10:39:21.229Z</time></trkpt><trkpt lat="43.4274113" lon="11.1816616"><ele>148.0</ele><time>2026-04-13T10:39:22.216Z</time></trkpt><trkpt lat="43.4273358" lon="11.1817029"><ele>148.0</ele><time>2026-04-13T10:39:23.232Z</time></trkpt><trkpt lat="43.4272708" lon="11.1817588"><ele>148.0</ele><time>2026-04-13T10:39:24.233Z</time></trkpt><trkpt lat="43.4272104" lon="11.181811"><ele>148.0</ele><time>2026-04-13T10:39:25.228Z</time></trkpt><trkpt lat="43.4271491" lon="11.1818551"><ele>148.0</ele><time>2026-04-13T10:39:26.232Z</time></trkpt><trkpt lat="43.4270826" lon="11.1818837"><ele>148.0</ele><time>2026-04-13T10:39:27.226Z</time></trkpt><trkpt lat="43.4270186" lon="11.181905"><ele>148.0</ele><time>2026-04-13T10:39:28.229Z</time></trkpt><trkpt lat="43.4269535" lon="11.1819278"><ele>147.16666666666669</ele><time>2026-04-13T10:39:29.233Z</time></trkpt><trkpt lat="43.4268808" lon="11.1819505"><ele>146.33333333333334</ele><time>2026-04-13T10:39:30.238Z</time></trkpt><trkpt lat="43.4268057" lon="11.1819756"><ele>145.5</ele><time>2026-04-13T10:39:31.232Z</time></trkpt><trkpt lat="43.4267304" lon="11.1820051"><ele>144.66666666666666</ele><time>2026-04-13T10:39:32.246Z</time></trkpt><trkpt lat="43.4266472" lon="11.1820305"><ele>143.83333333333331</ele><time>2026-04-13T10:39:33.232Z</time></trkpt><trkpt lat="43.4265599" lon="11.1820584"><ele>143.0</ele><time>2026-04-13T10:39:34.235Z</time></trkpt><trkpt lat="43.4264699" lon="11.1820836"><ele>143.0</ele><time>2026-04-13T10:39:35.222Z</time></trkpt><trkpt lat="43.4263766" lon="11.1821077"><ele>143.0</ele><time>2026-04-13T10:39:36.231Z</time></trkpt><trkpt lat="43.4262802" lon="11.1821161"><ele>143.0</ele><time>2026-04-13T10:39:37.216Z</time></trkpt><trkpt lat="43.4261862" lon="11.1821071"><ele>143.0</ele><time>2026-04-13T10:39:38.24Z</time></trkpt><trkpt lat="43.4260945" lon="11.1820978"><ele>143.0</ele><time>2026-04-13T10:39:39.218Z</time></trkpt><trkpt lat="43.426007" lon="11.1820878"><ele>142.83333333333331</ele><time>2026-04-13T10:39:40.236Z</time></trkpt><trkpt lat="43.4259274" lon="11.1820933"><ele>142.66666666666666</ele><time>2026-04-13T10:39:41.217Z</time></trkpt><trkpt lat="43.4258577" lon="11.1821221"><ele>142.5</ele><time>2026-04-13T10:39:42.232Z</time></trkpt><trkpt lat="43.4257975" lon="11.182184"><ele>142.33333333333334</ele><time>2026-04-13T10:39:43.217Z</time></trkpt><trkpt lat="43.4257492" lon="11.1822651"><ele>142.16666666666669</ele><time>2026-04-13T10:39:44.231Z</time></trkpt><trkpt lat="43.4257066" lon="11.1823532"><ele>142.0</ele><time>2026-04-13T10:39:45.225Z</time></trkpt><trkpt lat="43.4256671" lon="11.1824405"><ele>142.0</ele><time>2026-04-13T10:39:46.232Z</time></trkpt><trkpt lat="43.4256314" lon="11.182525"><ele>142.0</ele><time>2026-04-13T10:39:47.247Z</time></trkpt><trkpt lat="43.4256026" lon="11.1826061"><ele>142.0</ele><time>2026-04-13T10:39:48.219Z</time></trkpt><trkpt lat="43.4255708" lon="11.1826814"><ele>142.0</ele><time>2026-04-13T10:39:49.22Z</time></trkpt><trkpt lat="43.4255016" lon="11.1828145"><ele>142.0</ele><time>2026-04-13T10:39:51.225Z</time></trkpt><trkpt lat="43.4254471" lon="11.1829373"><ele>142.0</ele><time>2026-04-13T10:39:53.237Z</time></trkpt><trkpt lat="43.4253921" lon="11.1830438"><ele>143.71428571428572</ele><time>2026-04-13T10:39:55.216Z</time></trkpt><trkpt lat="43.4253457" lon="11.1831199"><ele>145.42857142857142</ele><time>2026-04-13T10:39:57.216Z</time></trkpt><trkpt lat="43.4253082" lon="11.1831924"><ele>147.14285714285714</ele><time>2026-04-13T10:39:59.224Z</time></trkpt><trkpt lat="43.4252548" lon="11.1832707"><ele>148.85714285714286</ele><time>2026-04-13T10:40:02.225Z</time></trkpt><trkpt lat="43.4251957" lon="11.1833233"><ele>150.57142857142856</ele><time>2026-04-13T10:40:05.236Z</time></trkpt><trkpt lat="43.4251245" lon="11.1833133"><ele>152.28571428571428</ele><time>2026-04-13T10:40:09.232Z</time></trkpt><trkpt lat="43.4250642" lon="11.183244"><ele>154.0</ele><time>2026-04-13T10:40:13.225Z</time></trkpt><trkpt lat="43.4250178" lon="11.1831723"><ele>154.85714285714286</ele><time>2026-04-13T10:40:17.214Z</time></trkpt><trkpt lat="43.4249706" lon="11.1831056"><ele>155.71428571428572</ele><time>2026-04-13T10:40:21.216Z</time></trkpt><trkpt lat="43.4249276" lon="11.1830389"><ele>156.57142857142856</ele><time>2026-04-13T10:40:25.227Z</time></trkpt><trkpt lat="43.4248712" lon="11.1829684"><ele>157.42857142857144</ele><time>2026-04-13T10:40:30.226Z</time></trkpt><trkpt lat="43.4248182" lon="11.1829036"><ele>158.28571428571428</ele><time>2026-04-13T10:40:35.214Z</time></trkpt><trkpt lat="43.4247686" lon="11.1828269"><ele>159.14285714285714</ele><time>2026-04-13T10:40:40.216Z</time></trkpt><trkpt lat="43.4247352" lon="11.1827448"><ele>160.0</ele><time>2026-04-13T10:40:44.24Z</time></trkpt><trkpt lat="43.4247009" lon="11.1826666"><ele>160.0</ele><time>2026-04-13T10:40:48.215Z</time></trkpt><trkpt lat="43.4246683" lon="11.1825747"><ele>160.0</ele><time>2026-04-13T10:40:52.217Z</time></trkpt><trkpt lat="43.4246197" lon="11.1825095"><ele>160.0</ele><time>2026-04-13T10:40:56.228Z</time></trkpt><trkpt lat="43.4245663" lon="11.1824522"><ele>160.0</ele><time>2026-04-13T10:41:00.231Z</time></trkpt><trkpt lat="43.4244981" lon="11.1824196"><ele>160.0</ele><time>2026-04-13T10:41:04.224Z</time></trkpt><trkpt lat="43.4244352" lon="11.1823959"><ele>160.0</ele><time>2026-04-13T10:41:07.221Z</time></trkpt><trkpt lat="43.4243571" lon="11.1823592"><ele>160.0</ele><time>2026-04-13T10:41:11.227Z</time></trkpt><trkpt lat="43.4242939" lon="11.1823369"><ele>160.83333333333334</ele><time>2026-04-13T10:41:15.226Z</time></trkpt><trkpt lat="43.424213" lon="11.1823196"><ele>161.66666666666669</ele><time>2026-04-13T10:41:20.224Z</time></trkpt><trkpt lat="43.4241395" lon="11.1823076"><ele>162.5</ele><time>2026-04-13T10:41:24.218Z</time></trkpt><trkpt lat="43.4241312" lon="11.1822176"><ele>163.33333333333334</ele><time>2026-04-13T10:41:28.238Z</time></trkpt><trkpt lat="43.424162" lon="11.1821293"><ele>164.16666666666666</ele><time>2026-04-13T10:41:31.236Z</time></trkpt><trkpt lat="43.424182" lon="11.1820224"><ele>165.0</ele><time>2026-04-13T10:41:35.218Z</time></trkpt><trkpt lat="43.4242207" lon="11.1819229"><ele>165.0</ele><time>2026-04-13T10:41:39.221Z</time></trkpt><trkpt lat="43.4242547" lon="11.1818429"><ele>165.0</ele><time>2026-04-13T10:41:42.236Z</time></trkpt><trkpt lat="43.424275" lon="11.1817558"><ele>165.0</ele><time>2026-04-13T10:41:44.235Z</time></trkpt><trkpt lat="43.4243206" lon="11.1816412"><ele>165.0</ele><time>2026-04-13T10:41:47.222Z</time></trkpt><trkpt lat="43.4243701" lon="11.1815633"><ele>165.0</ele><time>2026-04-13T10:41:49.224Z</time></trkpt><trkpt lat="43.4244139" lon="11.181481"><ele>165.0</ele><time>2026-04-13T10:41:51.238Z</time></trkpt><trkpt lat="43.4244618" lon="11.181392"><ele>165.16666666666666</ele><time>2026-04-13T10:41:53.224Z</time></trkpt><trkpt lat="43.4245195" lon="11.1813154"><ele>165.33333333333334</ele><time>2026-04-13T10:41:55.224Z</time></trkpt><trkpt lat="43.4245803" lon="11.1812332"><ele>165.5</ele><time>2026-04-13T10:41:57.243Z</time></trkpt><trkpt lat="43.4246444" lon="11.1811479"><ele>165.66666666666669</ele><time>2026-04-13T10:41:59.223Z</time></trkpt><trkpt lat="43.4247075" lon="11.1810542"><ele>165.83333333333334</ele><time>2026-04-13T10:42:01.219Z</time></trkpt><trkpt lat="43.4247684" lon="11.1809595"><ele>166.0</ele><time>2026-04-13T10:42:03.215Z</time></trkpt><trkpt lat="43.4248335" lon="11.1808655"><ele>165.4</ele><time>2026-04-13T10:42:05.213Z</time></trkpt><trkpt lat="43.4249054" lon="11.1807791"><ele>164.8</ele><time>2026-04-13T10:42:07.231Z</time></trkpt><trkpt lat="43.4249597" lon="11.1806712"><ele>164.20000000000002</ele><time>2026-04-13T10:42:09.21Z</time></trkpt><trkpt lat="43.4250153" lon="11.1805649"><ele>163.60000000000002</ele><time>2026-04-13T10:42:11.233Z</time></trkpt><trkpt lat="43.4250719" lon="11.1804669"><ele>163.0</ele><time>2026-04-13T10:42:13.232Z</time></trkpt><trkpt lat="43.4251268" lon="11.1803723"><ele>163.0</ele><time>2026-04-13T10:42:15.225Z</time></trkpt><trkpt lat="43.4251827" lon="11.1802755"><ele>163.0</ele><time>2026-04-13T10:42:17.23Z</time></trkpt><trkpt lat="43.4252385" lon="11.180188"><ele>163.0</ele><time>2026-04-13T10:42:19.241Z</time></trkpt><trkpt lat="43.4253009" lon="11.1801037"><ele>163.0</ele><time>2026-04-13T10:42:21.24Z</time></trkpt><trkpt lat="43.4253593" lon="11.1800138"><ele>163.0</ele><time>2026-04-13T10:42:23.228Z</time></trkpt><trkpt lat="43.4254096" lon="11.1799197"><ele>163.0</ele><time>2026-04-13T10:42:25.22Z</time></trkpt><trkpt lat="43.4254521" lon="11.1798297"><ele>162.66666666666669</ele><time>2026-04-13T10:42:27.227Z</time></trkpt><trkpt lat="43.4254995" lon="11.1797406"><ele>162.33333333333334</ele><time>2026-04-13T10:42:29.228Z</time></trkpt><trkpt lat="43.4255618" lon="11.1796565"><ele>162.0</ele><time>2026-04-13T10:42:31.217Z</time></trkpt><trkpt lat="43.4256258" lon="11.1795752"><ele>161.66666666666666</ele><time>2026-04-13T10:42:33.231Z</time></trkpt><trkpt lat="43.4256769" lon="11.179485"><ele>161.33333333333331</ele><time>2026-04-13T10:42:35.223Z</time></trkpt><trkpt lat="43.4257292" lon="11.1793974"><ele>161.0</ele><time>2026-04-13T10:42:37.212Z</time></trkpt><trkpt lat="43.4257958" lon="11.1793234"><ele>161.0</ele><time>2026-04-13T10:42:39.212Z</time></trkpt><trkpt lat="43.4258778" lon="11.1792888"><ele>161.0</ele><time>2026-04-13T10:42:41.225Z</time></trkpt><trkpt lat="43.4259634" lon="11.1792544"><ele>161.0</ele><time>2026-04-13T10:42:43.223Z</time></trkpt><trkpt lat="43.4260379" lon="11.1791934"><ele>161.0</ele><time>2026-04-13T10:42:45.223Z</time></trkpt><trkpt lat="43.4260788" lon="11.1790911"><ele>161.0</ele><time>2026-04-13T10:42:47.215Z</time></trkpt><trkpt lat="43.4260737" lon="11.1789658"><ele>161.0</ele><time>2026-04-13T10:42:49.225Z</time></trkpt><trkpt lat="43.426035" lon="11.1788578"><ele>162.4</ele><time>2026-04-13T10:42:51.23Z</time></trkpt><trkpt lat="43.4259616" lon="11.1788017"><ele>163.8</ele><time>2026-04-13T10:42:53.24Z</time></trkpt><trkpt lat="43.4258604" lon="11.1788048"><ele>165.20000000000002</ele><time>2026-04-13T10:42:55.251Z</time></trkpt><trkpt lat="43.4257701" lon="11.1788386"><ele>166.60000000000002</ele><time>2026-04-13T10:42:57.227Z</time></trkpt><trkpt lat="43.4256742" lon="11.1788566"><ele>168.0</ele><time>2026-04-13T10:42:59.239Z</time></trkpt><trkpt lat="43.4255856" lon="11.1788462"><ele>168.0</ele><time>2026-04-13T10:43:01.225Z</time></trkpt><trkpt lat="43.425498" lon="11.1788255"><ele>168.0</ele><time>2026-04-13T10:43:03.217Z</time></trkpt><trkpt lat="43.4254163" lon="11.1788153"><ele>168.0</ele><time>2026-04-13T10:43:05.228Z</time></trkpt><trkpt lat="43.4253373" lon="11.1787958"><ele>168.0</ele><time>2026-04-13T10:43:07.226Z</time></trkpt><trkpt lat="43.4252574" lon="11.1787945"><ele>168.0</ele><time>2026-04-13T10:43:09.229Z</time></trkpt><trkpt lat="43.4251823" lon="11.1787868"><ele>168.0</ele><time>2026-04-13T10:43:11.225Z</time></trkpt><trkpt lat="43.425107" lon="11.1787754"><ele>168.66666666666666</ele><time>2026-04-13T10:43:13.207Z</time></trkpt><trkpt lat="43.4250272" lon="11.1787682"><ele>169.33333333333334</ele><time>2026-04-13T10:43:15.217Z</time></trkpt><trkpt lat="43.4249439" lon="11.1787778"><ele>170.0</ele><time>2026-04-13T10:43:17.228Z</time></trkpt><trkpt lat="43.4248661" lon="11.1787893"><ele>170.66666666666669</ele><time>2026-04-13T10:43:19.22Z</time></trkpt><trkpt lat="43.4247916" lon="11.1787998"><ele>171.33333333333334</ele><time>2026-04-13T10:43:21.222Z</time></trkpt><trkpt lat="43.4247146" lon="11.1788138"><ele>172.0</ele><time>2026-04-13T10:43:23.226Z</time></trkpt><trkpt lat="43.4246402" lon="11.1788278"><ele>173.33333333333334</ele><time>2026-04-13T10:43:25.232Z</time></trkpt><trkpt lat="43.4245621" lon="11.1788459"><ele>174.66666666666669</ele><time>2026-04-13T10:43:27.222Z</time></trkpt><trkpt lat="43.4244852" lon="11.1788604"><ele>176.0</ele><time>2026-04-13T10:43:29.232Z</time></trkpt><trkpt lat="43.4244115" lon="11.1788801"><ele>177.33333333333334</ele><time>2026-04-13T10:43:31.234Z</time></trkpt><trkpt lat="43.4243396" lon="11.1788941"><ele>178.66666666666666</ele><time>2026-04-13T10:43:33.242Z</time></trkpt><trkpt lat="43.4242664" lon="11.1789117"><ele>180.0</ele><time>2026-04-13T10:43:35.223Z</time></trkpt><trkpt lat="43.4241903" lon="11.1789347"><ele>180.0</ele><time>2026-04-13T10:43:37.227Z</time></trkpt><trkpt lat="43.4241143" lon="11.1789569"><ele>180.0</ele><time>2026-04-13T10:43:39.217Z</time></trkpt><trkpt lat="43.4240449" lon="11.1789676"><ele>180.0</ele><time>2026-04-13T10:43:41.217Z</time></trkpt><trkpt lat="43.4239724" lon="11.1789774"><ele>180.0</ele><time>2026-04-13T10:43:43.227Z</time></trkpt><trkpt lat="43.4239012" lon="11.1789976"><ele>180.0</ele><time>2026-04-13T10:43:45.223Z</time></trkpt><trkpt lat="43.4238287" lon="11.1790188"><ele>180.0</ele><time>2026-04-13T10:43:47.235Z</time></trkpt><trkpt lat="43.4237536" lon="11.1790434"><ele>180.0</ele><time>2026-04-13T10:43:49.234Z</time></trkpt><trkpt lat="43.4236814" lon="11.179066"><ele>179.0</ele><time>2026-04-13T10:43:51.225Z</time></trkpt><trkpt lat="43.423608" lon="11.1790837"><ele>178.0</ele><time>2026-04-13T10:43:53.23Z</time></trkpt><trkpt lat="43.4235372" lon="11.1790999"><ele>177.0</ele><time>2026-04-13T10:43:55.212Z</time></trkpt><trkpt lat="43.4234635" lon="11.1791292"><ele>176.0</ele><time>2026-04-13T10:43:57.22Z</time></trkpt><trkpt lat="43.4233942" lon="11.1791492"><ele>175.0</ele><time>2026-04-13T10:43:59.22Z</time></trkpt><trkpt lat="43.423324" lon="11.1791685"><ele>174.0</ele><time>2026-04-13T10:44:01.229Z</time></trkpt><trkpt lat="43.4232533" lon="11.1791803"><ele>173.0</ele><time>2026-04-13T10:44:03.23Z</time></trkpt><trkpt lat="43.4231843" lon="11.1791962"><ele>173.0</ele><time>2026-04-13T10:44:05.23Z</time></trkpt><trkpt lat="43.4231183" lon="11.1792137"><ele>173.0</ele><time>2026-04-13T10:44:07.233Z</time></trkpt><trkpt lat="43.4230482" lon="11.1792325"><ele>173.0</ele><time>2026-04-13T10:44:09.215Z</time></trkpt><trkpt lat="43.4229767" lon="11.17925"><ele>173.0</ele><time>2026-04-13T10:44:11.232Z</time></trkpt><trkpt lat="43.4229057" lon="11.1792663"><ele>173.0</ele><time>2026-04-13T10:44:13.217Z</time></trkpt><trkpt lat="43.4228357" lon="11.1792748"><ele>173.0</ele><time>2026-04-13T10:44:15.23Z</time></trkpt><trkpt lat="43.4227688" lon="11.1792989"><ele>173.0</ele><time>2026-04-13T10:44:17.214Z</time></trkpt><trkpt lat="43.4226982" lon="11.1793219"><ele>173.7142857142857</ele><time>2026-04-13T10:44:19.233Z</time></trkpt><trkpt lat="43.4226275" lon="11.1793397"><ele>174.42857142857144</ele><time>2026-04-13T10:44:21.232Z</time></trkpt><trkpt lat="43.4225591" lon="11.1793618"><ele>175.14285714285714</ele><time>2026-04-13T10:44:23.227Z</time></trkpt><trkpt lat="43.4224938" lon="11.1793855"><ele>175.85714285714283</ele><time>2026-04-13T10:44:25.223Z</time></trkpt><trkpt lat="43.4224292" lon="11.1794092"><ele>176.57142857142856</ele><time>2026-04-13T10:44:27.233Z</time></trkpt><trkpt lat="43.4223581" lon="11.179426"><ele>177.28571428571428</ele><time>2026-04-13T10:44:29.22Z</time></trkpt><trkpt lat="43.4222866" lon="11.1794437"><ele>178.0</ele><time>2026-04-13T10:44:31.227Z</time></trkpt><trkpt lat="43.4222099" lon="11.1794724"><ele>177.7142857142857</ele><time>2026-04-13T10:44:33.213Z</time></trkpt><trkpt lat="43.4221391" lon="11.1795015"><ele>177.42857142857142</ele><time>2026-04-13T10:44:35.231Z</time></trkpt><trkpt lat="43.422074" lon="11.1795192"><ele>177.14285714285714</ele><time>2026-04-13T10:44:37.221Z</time></trkpt><trkpt lat="43.4220138" lon="11.1795483"><ele>176.85714285714283</ele><time>2026-04-13T10:44:39.216Z</time></trkpt><trkpt lat="43.4219488" lon="11.1795906"><ele>176.57142857142856</ele><time>2026-04-13T10:44:41.228Z</time></trkpt><trkpt lat="43.4218826" lon="11.1796361"><ele>176.28571428571428</ele><time>2026-04-13T10:44:43.228Z</time></trkpt><trkpt lat="43.4218139" lon="11.1796684"><ele>176.0</ele><time>2026-04-13T10:44:45.223Z</time></trkpt><trkpt lat="43.4217478" lon="11.1797081"><ele>176.0</ele><time>2026-04-13T10:44:47.23Z</time></trkpt><trkpt lat="43.4216805" lon="11.1797449"><ele>176.0</ele><time>2026-04-13T10:44:49.234Z</time></trkpt><trkpt lat="43.4216088" lon="11.1797764"><ele>176.0</ele><time>2026-04-13T10:44:51.222Z</time></trkpt><trkpt lat="43.4215407" lon="11.1798078"><ele>176.0</ele><time>2026-04-13T10:44:53.227Z</time></trkpt><trkpt lat="43.4214639" lon="11.1798122"><ele>176.0</ele><time>2026-04-13T10:44:55.239Z</time></trkpt><trkpt lat="43.4213949" lon="11.1797907"><ele>176.0</ele><time>2026-04-13T10:44:57.228Z</time></trkpt><trkpt lat="43.4213299" lon="11.1797853"><ele>176.0</ele><time>2026-04-13T10:44:59.228Z</time></trkpt><trkpt lat="43.42125" lon="11.1798517"><ele>175.4</ele><time>2026-04-13T10:45:02.223Z</time></trkpt><trkpt lat="43.4212144" lon="11.1799726"><ele>174.8</ele><time>2026-04-13T10:45:05.217Z</time></trkpt><trkpt lat="43.4212542" lon="11.1800729"><ele>174.20000000000002</ele><time>2026-04-13T10:45:07.227Z</time></trkpt><trkpt lat="43.421313" lon="11.1801513"><ele>173.60000000000002</ele><time>2026-04-13T10:45:09.216Z</time></trkpt><trkpt lat="43.4213757" lon="11.180235"><ele>173.0</ele><time>2026-04-13T10:45:11.232Z</time></trkpt><trkpt lat="43.4214279" lon="11.1803569"><ele>173.0</ele><time>2026-04-13T10:45:13.233Z</time></trkpt><trkpt lat="43.4214688" lon="11.1804786"><ele>173.0</ele><time>2026-04-13T10:45:15.231Z</time></trkpt><trkpt lat="43.421507" lon="11.180602"><ele>173.0</ele><time>2026-04-13T10:45:17.224Z</time></trkpt><trkpt lat="43.4215321" lon="11.1806945"><ele>173.0</ele><time>2026-04-13T10:45:19.217Z</time></trkpt><trkpt lat="43.421564" lon="11.1807812"><ele>173.0</ele><time>2026-04-13T10:45:23.209Z</time></trkpt><trkpt lat="43.4216119" lon="11.1806955"><ele>173.0</ele><time>2026-04-13T10:45:28.224Z</time></trkpt><trkpt lat="43.4216683" lon="11.1806361"><ele>173.0</ele><time>2026-04-13T10:45:31.219Z</time></trkpt><trkpt lat="43.4217319" lon="11.180593"><ele>173.0</ele><time>2026-04-13T10:45:34.223Z</time></trkpt><trkpt lat="43.4218033" lon="11.1805389"><ele>173.0</ele><time>2026-04-13T10:45:37.212Z</time></trkpt><trkpt lat="43.4218714" lon="11.1804916"><ele>173.0</ele><time>2026-04-13T10:45:40.219Z</time></trkpt><trkpt lat="43.4219349" lon="11.1804294"><ele>173.0</ele><time>2026-04-13T10:45:43.24Z</time></trkpt><trkpt lat="43.4220077" lon="11.1803781"><ele>173.0</ele><time>2026-04-13T10:45:46.219Z</time></trkpt><trkpt lat="43.4220603" lon="11.1803253"><ele>173.0</ele><time>2026-04-13T10:45:49.231Z</time></trkpt><trkpt lat="43.4221432" lon="11.1803479"><ele>173.0</ele><time>2026-04-13T10:45:52.212Z</time></trkpt><trkpt lat="43.4221565" lon="11.1804708"><ele>173.0</ele><time>2026-04-13T10:45:55.229Z</time></trkpt><trkpt lat="43.4221649" lon="11.1805949"><ele>173.0</ele><time>2026-04-13T10:45:58.221Z</time></trkpt><trkpt lat="43.4221617" lon="11.1807053"><ele>173.0</ele><time>2026-04-13T10:46:01.21Z</time></trkpt><trkpt lat="43.4221858" lon="11.1807914"><ele>173.0</ele><time>2026-04-13T10:46:03.224Z</time></trkpt><trkpt lat="43.4222003" lon="11.1808821"><ele>170.0</ele><time>2026-04-13T10:46:05.224Z</time></trkpt><trkpt lat="43.4222167" lon="11.1809805"><ele>170.0</ele><time>2026-04-13T10:46:07.225Z</time></trkpt><trkpt lat="43.4222204" lon="11.1810893"><ele>170.0</ele><time>2026-04-13T10:46:09.227Z</time></trkpt><trkpt lat="43.4221772" lon="11.1811648"><ele>170.0</ele><time>2026-04-13T10:46:12.215Z</time></trkpt><trkpt lat="43.4221038" lon="11.1811919"><ele>174.0</ele><time>2026-04-13T10:46:16.219Z</time></trkpt><trkpt lat="43.4220445" lon="11.1811598"><ele>174.0</ele><time>2026-04-13T10:47:38.212Z</time></trkpt></trkseg></trk></gpx>